<?xml version="1.0" encoding="UTF-8" standalone="no" ?>
<gpx xmlns="http://www.topografix.com/GPX/1/1" xmlns:xsi="http://www.w3.org/2001/XMLSchema-instance" xsi:schemaLocation="http://www.topografix.com/GPX/1/1 http://www.topografix.com/GPX/1/1/gpx.xsd" version="1.1" creator="VisuGPX - https://www.visugpx.com">
  <metadata>
    <name>Limours-Bois d'Arcy</name>
    <desc><![CDATA[Marche #Audax

Difficulté : Facile]]></desc>
  </metadata>
  <trk>
    <name><![CDATA[Limours-Bois d'Arcy]]></name>
    <extensions>
      <line xmlns="http://www.topografix.com/GPX/gpx_style/0/2">
        <color>5900ff</color>
        <width>4</width>
      </line>
    </extensions>
    <trkseg>
      <trkpt lat="48.64328" lon="2.06708">
        <ele>164.2</ele>
        <time>2024-12-31T11:54:38.811Z</time>
      </trkpt>
      <trkpt lat="48.64331" lon="2.06697">
        <ele>164.1</ele>
        <time>2024-12-31T11:54:43.378Z</time>
      </trkpt>
      <trkpt lat="48.64335" lon="2.06686">
        <ele>163.9</ele>
        <time>2024-12-31T11:54:47.945Z</time>
      </trkpt>
      <trkpt lat="48.64338" lon="2.06675">
        <ele>163.7</ele>
        <time>2024-12-31T11:54:52.512Z</time>
      </trkpt>
      <trkpt lat="48.64342" lon="2.06664">
        <ele>163.4</ele>
        <time>2024-12-31T11:54:57.079Z</time>
      </trkpt>
      <trkpt lat="48.64345" lon="2.06653">
        <ele>163.4</ele>
        <time>2024-12-31T11:55:01.646Z</time>
      </trkpt>
      <trkpt lat="48.64347" lon="2.06655">
        <ele>163.2</ele>
        <time>2024-12-31T11:55:03.003Z</time>
      </trkpt>
      <trkpt lat="48.64347" lon="2.06654">
        <ele>163.2</ele>
        <time>2024-12-31T11:55:03.377Z</time>
      </trkpt>
      <trkpt lat="48.64355" lon="2.06661">
        <ele>162.6</ele>
        <time>2024-12-31T11:55:08.259Z</time>
      </trkpt>
      <trkpt lat="48.64362" lon="2.06667">
        <ele>162</ele>
        <time>2024-12-31T11:55:13.141Z</time>
      </trkpt>
      <trkpt lat="48.6437" lon="2.06674">
        <ele>161.7</ele>
        <time>2024-12-31T11:55:18.024Z</time>
      </trkpt>
      <trkpt lat="48.64377" lon="2.0668">
        <ele>161.4</ele>
        <time>2024-12-31T11:55:22.907Z</time>
      </trkpt>
      <trkpt lat="48.64384" lon="2.06687">
        <ele>161.2</ele>
        <time>2024-12-31T11:55:27.740Z</time>
      </trkpt>
      <trkpt lat="48.64392" lon="2.06694">
        <ele>160.8</ele>
        <time>2024-12-31T11:55:32.573Z</time>
      </trkpt>
      <trkpt lat="48.64399" lon="2.06701">
        <ele>160.1</ele>
        <time>2024-12-31T11:55:37.406Z</time>
      </trkpt>
      <trkpt lat="48.64406" lon="2.06708">
        <ele>159.6</ele>
        <time>2024-12-31T11:55:42.239Z</time>
      </trkpt>
      <trkpt lat="48.64413" lon="2.06714">
        <ele>159.2</ele>
        <time>2024-12-31T11:55:47.072Z</time>
      </trkpt>
      <trkpt lat="48.64421" lon="2.06721">
        <ele>158.7</ele>
        <time>2024-12-31T11:55:51.906Z</time>
      </trkpt>
      <trkpt lat="48.64428" lon="2.06728">
        <ele>158.1</ele>
        <time>2024-12-31T11:55:56.740Z</time>
      </trkpt>
      <trkpt lat="48.64435" lon="2.06735">
        <ele>157.5</ele>
        <time>2024-12-31T11:56:01.574Z</time>
      </trkpt>
      <trkpt lat="48.64439" lon="2.06739">
        <ele>157.3</ele>
        <time>2024-12-31T11:56:04.194Z</time>
      </trkpt>
      <trkpt lat="48.64443" lon="2.06742">
        <ele>157.1</ele>
        <time>2024-12-31T11:56:06.814Z</time>
      </trkpt>
      <trkpt lat="48.64445" lon="2.06737">
        <ele>157</ele>
        <time>2024-12-31T11:56:09.119Z</time>
      </trkpt>
      <trkpt lat="48.64447" lon="2.06735">
        <ele>156.8</ele>
        <time>2024-12-31T11:56:10.473Z</time>
      </trkpt>
      <trkpt lat="48.6445" lon="2.06734">
        <ele>156.6</ele>
        <time>2024-12-31T11:56:12.209Z</time>
      </trkpt>
      <trkpt lat="48.64453" lon="2.06733">
        <ele>156.4</ele>
        <time>2024-12-31T11:56:13.944Z</time>
      </trkpt>
      <trkpt lat="48.64458" lon="2.06732">
        <ele>156</ele>
        <time>2024-12-31T11:56:16.793Z</time>
      </trkpt>
      <trkpt lat="48.64461" lon="2.06733">
        <ele>155.8</ele>
        <time>2024-12-31T11:56:18.529Z</time>
      </trkpt>
      <trkpt lat="48.64461" lon="2.06733">
        <ele>155.8</ele>
        <time>2024-12-31T11:56:18.529Z</time>
      </trkpt>
      <trkpt lat="48.64462" lon="2.0672">
        <ele>155.8</ele>
        <time>2024-12-31T11:56:24.324Z</time>
      </trkpt>
      <trkpt lat="48.64463" lon="2.06706">
        <ele>155.9</ele>
        <time>2024-12-31T11:56:30.119Z</time>
      </trkpt>
      <trkpt lat="48.64464" lon="2.06693">
        <ele>155.9</ele>
        <time>2024-12-31T11:56:35.914Z</time>
      </trkpt>
      <trkpt lat="48.64465" lon="2.06679">
        <ele>155.8</ele>
        <time>2024-12-31T11:56:41.709Z</time>
        <extensions>
          <visugpx:TrkExtension xmlns:visugpx="https://www.visugpx.com/editgpx/">
            <visugpx:node>36</visugpx:node>
            </visugpx:TrkExtension>
        </extensions>
      </trkpt>
      <trkpt lat="48.64466" lon="2.06666">
        <ele>155.7</ele>
        <time>2024-12-31T11:56:47.098Z</time>
      </trkpt>
      <trkpt lat="48.64467" lon="2.06653">
        <ele>155.6</ele>
        <time>2024-12-31T11:56:52.487Z</time>
      </trkpt>
      <trkpt lat="48.64468" lon="2.0664">
        <ele>155.5</ele>
        <time>2024-12-31T11:56:57.876Z</time>
      </trkpt>
      <trkpt lat="48.64469" lon="2.06627">
        <ele>155.4</ele>
        <time>2024-12-31T11:57:03.266Z</time>
      </trkpt>
      <trkpt lat="48.64469" lon="2.06627">
        <ele>155.4</ele>
        <time>2024-12-31T11:57:03.266Z</time>
        <extensions>
          <visugpx:TrkExtension xmlns:visugpx="https://www.visugpx.com/editgpx/">
            <visugpx:node>35</visugpx:node>
            </visugpx:TrkExtension>
        </extensions>
      </trkpt>
      <trkpt lat="48.6447" lon="2.06626">
        <ele>155.3</ele>
        <time>2024-12-31T11:57:03.943Z</time>
      </trkpt>
      <trkpt lat="48.64471" lon="2.06618">
        <ele>155.2</ele>
        <time>2024-12-31T11:57:07.486Z</time>
      </trkpt>
      <trkpt lat="48.64471" lon="2.06609">
        <ele>155.2</ele>
        <time>2024-12-31T11:57:11.029Z</time>
      </trkpt>
      <trkpt lat="48.64472" lon="2.06597">
        <ele>155</ele>
        <time>2024-12-31T11:57:16.604Z</time>
      </trkpt>
      <trkpt lat="48.64473" lon="2.06585">
        <ele>155</ele>
        <time>2024-12-31T11:57:22.180Z</time>
      </trkpt>
      <trkpt lat="48.64474" lon="2.06572">
        <ele>155.4</ele>
        <time>2024-12-31T11:57:27.756Z</time>
      </trkpt>
      <trkpt lat="48.64475" lon="2.0656">
        <ele>155.8</ele>
        <time>2024-12-31T11:57:33.332Z</time>
      </trkpt>
      <trkpt lat="48.64475" lon="2.0656">
        <ele>155.8</ele>
        <time>2024-12-31T11:57:33.332Z</time>
        <extensions>
          <visugpx:TrkExtension xmlns:visugpx="https://www.visugpx.com/editgpx/">
            <visugpx:node>34</visugpx:node>
            </visugpx:TrkExtension>
        </extensions>
      </trkpt>
      <trkpt lat="48.64476" lon="2.06553">
        <ele>155.9</ele>
        <time>2024-12-31T11:57:36.342Z</time>
      </trkpt>
      <trkpt lat="48.64476" lon="2.06546">
        <ele>155.8</ele>
        <time>2024-12-31T11:57:39.352Z</time>
      </trkpt>
      <trkpt lat="48.64477" lon="2.06539">
        <ele>155.7</ele>
        <time>2024-12-31T11:57:42.363Z</time>
      </trkpt>
      <trkpt lat="48.64478" lon="2.06533">
        <ele>155.7</ele>
        <time>2024-12-31T11:57:45.374Z</time>
      </trkpt>
      <trkpt lat="48.64478" lon="2.06526">
        <ele>155.6</ele>
        <time>2024-12-31T11:57:48.385Z</time>
      </trkpt>
      <trkpt lat="48.64479" lon="2.06519">
        <ele>155.8</ele>
        <time>2024-12-31T11:57:51.396Z</time>
      </trkpt>
      <trkpt lat="48.64479" lon="2.06512">
        <ele>155.9</ele>
        <time>2024-12-31T11:57:54.407Z</time>
      </trkpt>
      <trkpt lat="48.6448" lon="2.06505">
        <ele>156</ele>
        <time>2024-12-31T11:57:57.418Z</time>
      </trkpt>
      <trkpt lat="48.64481" lon="2.06495">
        <ele>156.1</ele>
        <time>2024-12-31T11:58:02.164Z</time>
      </trkpt>
      <trkpt lat="48.64482" lon="2.06485">
        <ele>156.2</ele>
        <time>2024-12-31T11:58:06.910Z</time>
      </trkpt>
      <trkpt lat="48.64482" lon="2.06475">
        <ele>156.2</ele>
        <time>2024-12-31T11:58:11.656Z</time>
      </trkpt>
      <trkpt lat="48.64483" lon="2.06465">
        <ele>156.5</ele>
        <time>2024-12-31T11:58:16.402Z</time>
      </trkpt>
      <trkpt lat="48.64484" lon="2.06455">
        <ele>156.8</ele>
        <time>2024-12-31T11:58:21.149Z</time>
      </trkpt>
      <trkpt lat="48.64485" lon="2.06445">
        <ele>157.1</ele>
        <time>2024-12-31T11:58:25.896Z</time>
      </trkpt>
      <trkpt lat="48.64485" lon="2.06435">
        <ele>157.4</ele>
        <time>2024-12-31T11:58:30.643Z</time>
      </trkpt>
      <trkpt lat="48.64486" lon="2.06425">
        <ele>157.7</ele>
        <time>2024-12-31T11:58:35.390Z</time>
      </trkpt>
      <trkpt lat="48.64487" lon="2.06418">
        <ele>157.9</ele>
        <time>2024-12-31T11:58:38.765Z</time>
      </trkpt>
      <trkpt lat="48.64488" lon="2.06411">
        <ele>158</ele>
        <time>2024-12-31T11:58:42.140Z</time>
      </trkpt>
      <trkpt lat="48.6449" lon="2.06399">
        <ele>158.1</ele>
        <time>2024-12-31T11:58:47.623Z</time>
        <extensions>
          <visugpx:TrkExtension xmlns:visugpx="https://www.visugpx.com/editgpx/">
            <visugpx:node>33</visugpx:node>
            </visugpx:TrkExtension>
        </extensions>
      </trkpt>
      <trkpt lat="48.6449" lon="2.06399">
        <ele>158.1</ele>
        <time>2024-12-31T11:58:47.623Z</time>
      </trkpt>
      <trkpt lat="48.64488" lon="2.06411">
        <ele>158</ele>
        <time>2024-12-31T11:58:52.709Z</time>
      </trkpt>
      <trkpt lat="48.64495" lon="2.06413">
        <ele>157.5</ele>
        <time>2024-12-31T11:58:56.734Z</time>
      </trkpt>
      <trkpt lat="48.64496" lon="2.06405">
        <ele>157.6</ele>
        <time>2024-12-31T11:59:00.524Z</time>
      </trkpt>
      <trkpt lat="48.64497" lon="2.06397">
        <ele>157.8</ele>
        <time>2024-12-31T11:59:04.314Z</time>
      </trkpt>
      <trkpt lat="48.64503" lon="2.06402">
        <ele>157.4</ele>
        <time>2024-12-31T11:59:08.483Z</time>
      </trkpt>
      <trkpt lat="48.6451" lon="2.06407">
        <ele>157</ele>
        <time>2024-12-31T11:59:12.652Z</time>
      </trkpt>
      <trkpt lat="48.64516" lon="2.06411">
        <ele>156.6</ele>
        <time>2024-12-31T11:59:16.821Z</time>
      </trkpt>
      <trkpt lat="48.64523" lon="2.06416">
        <ele>156.2</ele>
        <time>2024-12-31T11:59:20.990Z</time>
      </trkpt>
      <trkpt lat="48.64529" lon="2.06421">
        <ele>156</ele>
        <time>2024-12-31T11:59:25.160Z</time>
      </trkpt>
      <trkpt lat="48.64535" lon="2.06426">
        <ele>156</ele>
        <time>2024-12-31T11:59:29.330Z</time>
      </trkpt>
      <trkpt lat="48.64542" lon="2.0643">
        <ele>156</ele>
        <time>2024-12-31T11:59:33.500Z</time>
      </trkpt>
      <trkpt lat="48.64548" lon="2.06435">
        <ele>156</ele>
        <time>2024-12-31T11:59:37.670Z</time>
      </trkpt>
      <trkpt lat="48.64555" lon="2.06441">
        <ele>156</ele>
        <time>2024-12-31T11:59:42.380Z</time>
      </trkpt>
      <trkpt lat="48.64561" lon="2.06446">
        <ele>156</ele>
        <time>2024-12-31T11:59:47.090Z</time>
      </trkpt>
      <trkpt lat="48.64568" lon="2.06452">
        <ele>155.9</ele>
        <time>2024-12-31T11:59:51.800Z</time>
      </trkpt>
      <trkpt lat="48.64574" lon="2.06457">
        <ele>155.8</ele>
        <time>2024-12-31T11:59:56.510Z</time>
      </trkpt>
      <trkpt lat="48.64579" lon="2.06464">
        <ele>155.9</ele>
        <time>2024-12-31T12:00:01.113Z</time>
      </trkpt>
      <trkpt lat="48.64583" lon="2.06473">
        <ele>156</ele>
        <time>2024-12-31T12:00:05.589Z</time>
      </trkpt>
      <trkpt lat="48.64587" lon="2.06483">
        <ele>155.6</ele>
        <time>2024-12-31T12:00:10.065Z</time>
      </trkpt>
      <trkpt lat="48.64591" lon="2.06492">
        <ele>155.4</ele>
        <time>2024-12-31T12:00:14.541Z</time>
      </trkpt>
      <trkpt lat="48.64595" lon="2.06501">
        <ele>155.4</ele>
        <time>2024-12-31T12:00:19.018Z</time>
      </trkpt>
      <trkpt lat="48.64599" lon="2.06506">
        <ele>155.5</ele>
        <time>2024-12-31T12:00:22.829Z</time>
      </trkpt>
      <trkpt lat="48.64604" lon="2.0651">
        <ele>155.6</ele>
        <time>2024-12-31T12:00:26.640Z</time>
      </trkpt>
      <trkpt lat="48.64608" lon="2.06515">
        <ele>155.8</ele>
        <time>2024-12-31T12:00:30.451Z</time>
      </trkpt>
      <trkpt lat="48.64612" lon="2.06519">
        <ele>156</ele>
        <time>2024-12-31T12:00:34.262Z</time>
      </trkpt>
      <trkpt lat="48.64616" lon="2.06524">
        <ele>156.3</ele>
        <time>2024-12-31T12:00:38.073Z</time>
      </trkpt>
      <trkpt lat="48.64621" lon="2.06528">
        <ele>156.7</ele>
        <time>2024-12-31T12:00:41.885Z</time>
      </trkpt>
      <trkpt lat="48.64625" lon="2.06533">
        <ele>156.8</ele>
        <time>2024-12-31T12:00:45.697Z</time>
      </trkpt>
      <trkpt lat="48.64629" lon="2.06537">
        <ele>157.1</ele>
        <time>2024-12-31T12:00:49.509Z</time>
      </trkpt>
      <trkpt lat="48.64635" lon="2.06542">
        <ele>157.6</ele>
        <time>2024-12-31T12:00:53.508Z</time>
      </trkpt>
      <trkpt lat="48.64641" lon="2.06548">
        <ele>157.9</ele>
        <time>2024-12-31T12:00:57.507Z</time>
      </trkpt>
      <trkpt lat="48.64647" lon="2.06553">
        <ele>157.9</ele>
        <time>2024-12-31T12:01:01.506Z</time>
      </trkpt>
      <trkpt lat="48.64654" lon="2.06559">
        <ele>157.9</ele>
        <time>2024-12-31T12:01:05.505Z</time>
      </trkpt>
      <trkpt lat="48.6466" lon="2.06564">
        <ele>158</ele>
        <time>2024-12-31T12:01:09.505Z</time>
      </trkpt>
      <trkpt lat="48.64666" lon="2.06569">
        <ele>158.4</ele>
        <time>2024-12-31T12:01:13.505Z</time>
      </trkpt>
      <trkpt lat="48.64672" lon="2.06575">
        <ele>158.5</ele>
        <time>2024-12-31T12:01:17.505Z</time>
      </trkpt>
      <trkpt lat="48.64678" lon="2.0658">
        <ele>158.7</ele>
        <time>2024-12-31T12:01:21.505Z</time>
      </trkpt>
      <trkpt lat="48.64684" lon="2.06585">
        <ele>158.7</ele>
        <time>2024-12-31T12:01:25.505Z</time>
      </trkpt>
      <trkpt lat="48.6469" lon="2.06591">
        <ele>158.2</ele>
        <time>2024-12-31T12:01:29.505Z</time>
      </trkpt>
      <trkpt lat="48.64696" lon="2.06596">
        <ele>157.3</ele>
        <time>2024-12-31T12:01:33.505Z</time>
      </trkpt>
      <trkpt lat="48.64703" lon="2.06602">
        <ele>155.9</ele>
        <time>2024-12-31T12:01:37.505Z</time>
      </trkpt>
      <trkpt lat="48.64709" lon="2.06607">
        <ele>154.7</ele>
        <time>2024-12-31T12:01:41.505Z</time>
      </trkpt>
      <trkpt lat="48.64715" lon="2.06612">
        <ele>153.6</ele>
        <time>2024-12-31T12:01:45.505Z</time>
      </trkpt>
      <trkpt lat="48.64721" lon="2.06618">
        <ele>152.4</ele>
        <time>2024-12-31T12:01:49.505Z</time>
      </trkpt>
      <trkpt lat="48.64727" lon="2.06623">
        <ele>151</ele>
        <time>2024-12-31T12:01:53.505Z</time>
      </trkpt>
      <trkpt lat="48.64733" lon="2.06628">
        <ele>149.8</ele>
        <time>2024-12-31T12:01:57.300Z</time>
      </trkpt>
      <trkpt lat="48.64739" lon="2.06632">
        <ele>148.7</ele>
        <time>2024-12-31T12:02:01.095Z</time>
      </trkpt>
      <trkpt lat="48.64745" lon="2.06637">
        <ele>147.7</ele>
        <time>2024-12-31T12:02:04.890Z</time>
      </trkpt>
      <trkpt lat="48.64751" lon="2.06642">
        <ele>146.9</ele>
        <time>2024-12-31T12:02:08.685Z</time>
      </trkpt>
      <trkpt lat="48.64756" lon="2.06646">
        <ele>147</ele>
        <time>2024-12-31T12:02:12.481Z</time>
      </trkpt>
      <trkpt lat="48.64762" lon="2.06651">
        <ele>147.3</ele>
        <time>2024-12-31T12:02:16.277Z</time>
      </trkpt>
      <trkpt lat="48.64768" lon="2.06655">
        <ele>148</ele>
        <time>2024-12-31T12:02:20.073Z</time>
      </trkpt>
      <trkpt lat="48.64774" lon="2.0666">
        <ele>148.9</ele>
        <time>2024-12-31T12:02:23.869Z</time>
      </trkpt>
      <trkpt lat="48.64782" lon="2.06666">
        <ele>150.9</ele>
        <time>2024-12-31T12:02:36.585Z</time>
      </trkpt>
      <trkpt lat="48.6479" lon="2.06672">
        <ele>153.1</ele>
        <time>2024-12-31T12:02:49.301Z</time>
      </trkpt>
      <trkpt lat="48.64797" lon="2.06678">
        <ele>155</ele>
        <time>2024-12-31T12:03:02.017Z</time>
      </trkpt>
      <trkpt lat="48.64805" lon="2.06684">
        <ele>156.9</ele>
        <time>2024-12-31T12:03:14.734Z</time>
      </trkpt>
      <trkpt lat="48.64809" lon="2.06687">
        <ele>157.3</ele>
        <time>2024-12-31T12:03:18.413Z</time>
      </trkpt>
      <trkpt lat="48.64813" lon="2.0669">
        <ele>157.7</ele>
        <time>2024-12-31T12:03:22.092Z</time>
      </trkpt>
      <trkpt lat="48.64817" lon="2.06693">
        <ele>158.2</ele>
        <time>2024-12-31T12:03:25.771Z</time>
      </trkpt>
      <trkpt lat="48.64822" lon="2.06696">
        <ele>158.6</ele>
        <time>2024-12-31T12:03:29.451Z</time>
      </trkpt>
      <trkpt lat="48.64826" lon="2.06699">
        <ele>158.8</ele>
        <time>2024-12-31T12:03:33.131Z</time>
      </trkpt>
      <trkpt lat="48.6483" lon="2.06702">
        <ele>159</ele>
        <time>2024-12-31T12:03:36.811Z</time>
      </trkpt>
      <trkpt lat="48.64834" lon="2.06705">
        <ele>159.3</ele>
        <time>2024-12-31T12:03:40.491Z</time>
      </trkpt>
      <trkpt lat="48.64838" lon="2.06708">
        <ele>159.4</ele>
        <time>2024-12-31T12:03:44.171Z</time>
      </trkpt>
      <trkpt lat="48.64843" lon="2.06708">
        <ele>159.7</ele>
        <time>2024-12-31T12:03:47.771Z</time>
      </trkpt>
      <trkpt lat="48.64847" lon="2.06709">
        <ele>160</ele>
        <time>2024-12-31T12:03:51.372Z</time>
      </trkpt>
      <trkpt lat="48.64852" lon="2.06709">
        <ele>160.3</ele>
        <time>2024-12-31T12:03:54.973Z</time>
      </trkpt>
      <trkpt lat="48.64856" lon="2.06709">
        <ele>160.6</ele>
        <time>2024-12-31T12:03:58.574Z</time>
      </trkpt>
      <trkpt lat="48.64861" lon="2.06713">
        <ele>161</ele>
        <time>2024-12-31T12:04:02.462Z</time>
      </trkpt>
      <trkpt lat="48.64865" lon="2.06717">
        <ele>161.2</ele>
        <time>2024-12-31T12:04:06.350Z</time>
      </trkpt>
      <trkpt lat="48.6487" lon="2.06721">
        <ele>161.3</ele>
        <time>2024-12-31T12:04:10.238Z</time>
      </trkpt>
      <trkpt lat="48.64875" lon="2.06726">
        <ele>161.3</ele>
        <time>2024-12-31T12:04:14.126Z</time>
      </trkpt>
      <trkpt lat="48.64879" lon="2.0673">
        <ele>161.3</ele>
        <time>2024-12-31T12:04:18.014Z</time>
      </trkpt>
      <trkpt lat="48.64884" lon="2.06734">
        <ele>161.3</ele>
        <time>2024-12-31T12:04:21.902Z</time>
      </trkpt>
      <trkpt lat="48.64889" lon="2.06738">
        <ele>161.4</ele>
        <time>2024-12-31T12:04:25.790Z</time>
      </trkpt>
      <trkpt lat="48.64894" lon="2.06742">
        <ele>161.6</ele>
        <time>2024-12-31T12:04:29.679Z</time>
      </trkpt>
      <trkpt lat="48.64898" lon="2.06746">
        <ele>161.8</ele>
        <time>2024-12-31T12:04:33.568Z</time>
      </trkpt>
      <trkpt lat="48.64903" lon="2.0675">
        <ele>162</ele>
        <time>2024-12-31T12:04:37.457Z</time>
      </trkpt>
      <trkpt lat="48.64908" lon="2.06754">
        <ele>162.3</ele>
        <time>2024-12-31T12:04:41.346Z</time>
      </trkpt>
      <trkpt lat="48.64912" lon="2.06759">
        <ele>162.7</ele>
        <time>2024-12-31T12:04:45.235Z</time>
      </trkpt>
      <trkpt lat="48.64917" lon="2.06763">
        <ele>163</ele>
        <time>2024-12-31T12:04:49.124Z</time>
      </trkpt>
      <trkpt lat="48.64922" lon="2.06767">
        <ele>163.1</ele>
        <time>2024-12-31T12:04:53.013Z</time>
      </trkpt>
      <trkpt lat="48.64926" lon="2.06771">
        <ele>163.3</ele>
        <time>2024-12-31T12:04:56.902Z</time>
      </trkpt>
      <trkpt lat="48.64931" lon="2.06775">
        <ele>163.5</ele>
        <time>2024-12-31T12:05:00.791Z</time>
      </trkpt>
      <trkpt lat="48.64935" lon="2.06779">
        <ele>163.7</ele>
        <time>2024-12-31T12:05:04.794Z</time>
      </trkpt>
      <trkpt lat="48.64939" lon="2.06783">
        <ele>164.1</ele>
        <time>2024-12-31T12:05:08.797Z</time>
      </trkpt>
      <trkpt lat="48.64943" lon="2.06786">
        <ele>164.5</ele>
        <time>2024-12-31T12:05:12.800Z</time>
      </trkpt>
      <trkpt lat="48.64947" lon="2.0679">
        <ele>165</ele>
        <time>2024-12-31T12:05:16.803Z</time>
      </trkpt>
      <trkpt lat="48.64951" lon="2.06794">
        <ele>165.4</ele>
        <time>2024-12-31T12:05:20.807Z</time>
      </trkpt>
      <trkpt lat="48.64955" lon="2.06798">
        <ele>165.8</ele>
        <time>2024-12-31T12:05:24.811Z</time>
      </trkpt>
      <trkpt lat="48.64959" lon="2.06801">
        <ele>166.2</ele>
        <time>2024-12-31T12:05:28.815Z</time>
      </trkpt>
      <trkpt lat="48.64963" lon="2.06805">
        <ele>166.6</ele>
        <time>2024-12-31T12:05:32.819Z</time>
      </trkpt>
      <trkpt lat="48.64967" lon="2.06809">
        <ele>167</ele>
        <time>2024-12-31T12:05:36.823Z</time>
      </trkpt>
      <trkpt lat="48.64971" lon="2.06813">
        <ele>167.5</ele>
        <time>2024-12-31T12:05:40.827Z</time>
      </trkpt>
      <trkpt lat="48.64975" lon="2.06816">
        <ele>167.9</ele>
        <time>2024-12-31T12:05:44.831Z</time>
      </trkpt>
      <trkpt lat="48.64979" lon="2.0682">
        <ele>168.3</ele>
        <time>2024-12-31T12:05:48.835Z</time>
      </trkpt>
      <trkpt lat="48.64983" lon="2.06824">
        <ele>168.7</ele>
        <time>2024-12-31T12:05:52.839Z</time>
      </trkpt>
      <trkpt lat="48.64987" lon="2.06828">
        <ele>169.1</ele>
        <time>2024-12-31T12:05:56.843Z</time>
      </trkpt>
      <trkpt lat="48.64991" lon="2.06831">
        <ele>169.5</ele>
        <time>2024-12-31T12:06:00.847Z</time>
      </trkpt>
      <trkpt lat="48.64995" lon="2.06835">
        <ele>169.9</ele>
        <time>2024-12-31T12:06:04.851Z</time>
      </trkpt>
      <trkpt lat="48.65" lon="2.06839">
        <ele>170.2</ele>
        <time>2024-12-31T12:06:08.952Z</time>
      </trkpt>
      <trkpt lat="48.65004" lon="2.06844">
        <ele>170.5</ele>
        <time>2024-12-31T12:06:13.054Z</time>
      </trkpt>
      <trkpt lat="48.65009" lon="2.06848">
        <ele>170.8</ele>
        <time>2024-12-31T12:06:17.156Z</time>
      </trkpt>
      <trkpt lat="48.65013" lon="2.06852">
        <ele>171.1</ele>
        <time>2024-12-31T12:06:21.258Z</time>
      </trkpt>
      <trkpt lat="48.65019" lon="2.06858">
        <ele>171.6</ele>
        <time>2024-12-31T12:06:26.498Z</time>
      </trkpt>
      <trkpt lat="48.65025" lon="2.06865">
        <ele>172</ele>
        <time>2024-12-31T12:06:31.738Z</time>
      </trkpt>
      <trkpt lat="48.65031" lon="2.06871">
        <ele>172.4</ele>
        <time>2024-12-31T12:06:36.978Z</time>
      </trkpt>
      <trkpt lat="48.65037" lon="2.06878">
        <ele>172.6</ele>
        <time>2024-12-31T12:06:42.218Z</time>
      </trkpt>
      <trkpt lat="48.65043" lon="2.06884">
        <ele>172.8</ele>
        <time>2024-12-31T12:06:47.458Z</time>
      </trkpt>
      <trkpt lat="48.65049" lon="2.0689">
        <ele>173</ele>
        <time>2024-12-31T12:06:52.698Z</time>
      </trkpt>
      <trkpt lat="48.65055" lon="2.06897">
        <ele>173</ele>
        <time>2024-12-31T12:06:57.938Z</time>
      </trkpt>
      <trkpt lat="48.65061" lon="2.06903">
        <ele>173</ele>
        <time>2024-12-31T12:07:03.178Z</time>
      </trkpt>
      <trkpt lat="48.65068" lon="2.0691">
        <ele>173</ele>
        <time>2024-12-31T12:07:08.465Z</time>
      </trkpt>
      <trkpt lat="48.65074" lon="2.06916">
        <ele>173</ele>
        <time>2024-12-31T12:07:13.752Z</time>
      </trkpt>
      <trkpt lat="48.65081" lon="2.06923">
        <ele>173.2</ele>
        <time>2024-12-31T12:07:19.039Z</time>
      </trkpt>
      <trkpt lat="48.65087" lon="2.06929">
        <ele>173.5</ele>
        <time>2024-12-31T12:07:24.326Z</time>
      </trkpt>
      <trkpt lat="48.65091" lon="2.06935">
        <ele>173.7</ele>
        <time>2024-12-31T12:07:27.820Z</time>
      </trkpt>
      <trkpt lat="48.65094" lon="2.0694">
        <ele>173.9</ele>
        <time>2024-12-31T12:07:31.314Z</time>
      </trkpt>
      <trkpt lat="48.65098" lon="2.06946">
        <ele>174</ele>
        <time>2024-12-31T12:07:34.808Z</time>
      </trkpt>
      <trkpt lat="48.65102" lon="2.06951">
        <ele>174</ele>
        <time>2024-12-31T12:07:38.302Z</time>
      </trkpt>
      <trkpt lat="48.65105" lon="2.06957">
        <ele>174</ele>
        <time>2024-12-31T12:07:41.796Z</time>
      </trkpt>
      <trkpt lat="48.65109" lon="2.06962">
        <ele>174</ele>
        <time>2024-12-31T12:07:45.290Z</time>
      </trkpt>
      <trkpt lat="48.65112" lon="2.06968">
        <ele>174</ele>
        <time>2024-12-31T12:07:48.785Z</time>
      </trkpt>
      <trkpt lat="48.65116" lon="2.06973">
        <ele>174.2</ele>
        <time>2024-12-31T12:07:52.280Z</time>
      </trkpt>
      <trkpt lat="48.65119" lon="2.06965">
        <ele>174.2</ele>
        <time>2024-12-31T12:07:56.162Z</time>
      </trkpt>
      <trkpt lat="48.65121" lon="2.06957">
        <ele>174.2</ele>
        <time>2024-12-31T12:08:00.044Z</time>
      </trkpt>
      <trkpt lat="48.65124" lon="2.06949">
        <ele>174.1</ele>
        <time>2024-12-31T12:08:03.926Z</time>
      </trkpt>
      <trkpt lat="48.65127" lon="2.06941">
        <ele>174</ele>
        <time>2024-12-31T12:08:07.808Z</time>
      </trkpt>
      <trkpt lat="48.65129" lon="2.06933">
        <ele>174</ele>
        <time>2024-12-31T12:08:11.690Z</time>
      </trkpt>
      <trkpt lat="48.65132" lon="2.06925">
        <ele>174</ele>
        <time>2024-12-31T12:08:15.572Z</time>
      </trkpt>
      <trkpt lat="48.65135" lon="2.06917">
        <ele>174</ele>
        <time>2024-12-31T12:08:19.454Z</time>
      </trkpt>
      <trkpt lat="48.65137" lon="2.06909">
        <ele>174</ele>
        <time>2024-12-31T12:08:23.336Z</time>
      </trkpt>
      <trkpt lat="48.6514" lon="2.06901">
        <ele>174</ele>
        <time>2024-12-31T12:08:27.218Z</time>
      </trkpt>
      <trkpt lat="48.65143" lon="2.06893">
        <ele>174.1</ele>
        <time>2024-12-31T12:08:31.100Z</time>
      </trkpt>
      <trkpt lat="48.65145" lon="2.06885">
        <ele>174.2</ele>
        <time>2024-12-31T12:08:34.982Z</time>
      </trkpt>
      <trkpt lat="48.65148" lon="2.06877">
        <ele>174.3</ele>
        <time>2024-12-31T12:08:38.864Z</time>
      </trkpt>
      <trkpt lat="48.65151" lon="2.06869">
        <ele>174.4</ele>
        <time>2024-12-31T12:08:42.746Z</time>
      </trkpt>
      <trkpt lat="48.65153" lon="2.06861">
        <ele>174.5</ele>
        <time>2024-12-31T12:08:46.628Z</time>
      </trkpt>
      <trkpt lat="48.65156" lon="2.06854">
        <ele>174.6</ele>
        <time>2024-12-31T12:08:50.510Z</time>
      </trkpt>
      <trkpt lat="48.65159" lon="2.06846">
        <ele>174.7</ele>
        <time>2024-12-31T12:08:54.392Z</time>
      </trkpt>
      <trkpt lat="48.65161" lon="2.06838">
        <ele>174.8</ele>
        <time>2024-12-31T12:08:58.274Z</time>
      </trkpt>
      <trkpt lat="48.65164" lon="2.0683">
        <ele>174.9</ele>
        <time>2024-12-31T12:09:02.156Z</time>
      </trkpt>
      <trkpt lat="48.65167" lon="2.06822">
        <ele>175</ele>
        <time>2024-12-31T12:09:06.038Z</time>
      </trkpt>
      <trkpt lat="48.65169" lon="2.06814">
        <ele>175</ele>
        <time>2024-12-31T12:09:09.920Z</time>
      </trkpt>
      <trkpt lat="48.65172" lon="2.06806">
        <ele>175</ele>
        <time>2024-12-31T12:09:13.802Z</time>
      </trkpt>
      <trkpt lat="48.65174" lon="2.06798">
        <ele>175</ele>
        <time>2024-12-31T12:09:17.684Z</time>
      </trkpt>
      <trkpt lat="48.65177" lon="2.0679">
        <ele>175</ele>
        <time>2024-12-31T12:09:21.566Z</time>
      </trkpt>
      <trkpt lat="48.6518" lon="2.06782">
        <ele>175</ele>
        <time>2024-12-31T12:09:25.449Z</time>
      </trkpt>
      <trkpt lat="48.65182" lon="2.06774">
        <ele>175</ele>
        <time>2024-12-31T12:09:29.332Z</time>
      </trkpt>
      <trkpt lat="48.65185" lon="2.06766">
        <ele>175</ele>
        <time>2024-12-31T12:09:33.215Z</time>
      </trkpt>
      <trkpt lat="48.65188" lon="2.06758">
        <ele>175</ele>
        <time>2024-12-31T12:09:37.098Z</time>
      </trkpt>
      <trkpt lat="48.6519" lon="2.0675">
        <ele>175</ele>
        <time>2024-12-31T12:09:40.981Z</time>
      </trkpt>
      <trkpt lat="48.65193" lon="2.06742">
        <ele>175</ele>
        <time>2024-12-31T12:09:44.864Z</time>
      </trkpt>
      <trkpt lat="48.65196" lon="2.06734">
        <ele>175</ele>
        <time>2024-12-31T12:09:48.746Z</time>
      </trkpt>
      <trkpt lat="48.65198" lon="2.06726">
        <ele>175.1</ele>
        <time>2024-12-31T12:09:52.629Z</time>
      </trkpt>
      <trkpt lat="48.65201" lon="2.06718">
        <ele>175.4</ele>
        <time>2024-12-31T12:09:56.512Z</time>
      </trkpt>
      <trkpt lat="48.65204" lon="2.0671">
        <ele>175.6</ele>
        <time>2024-12-31T12:10:00.395Z</time>
      </trkpt>
      <trkpt lat="48.65206" lon="2.06702">
        <ele>175.8</ele>
        <time>2024-12-31T12:10:04.278Z</time>
      </trkpt>
      <trkpt lat="48.65209" lon="2.06694">
        <ele>176</ele>
        <time>2024-12-31T12:10:08.161Z</time>
      </trkpt>
      <trkpt lat="48.65212" lon="2.06686">
        <ele>176</ele>
        <time>2024-12-31T12:10:12.044Z</time>
      </trkpt>
      <trkpt lat="48.65214" lon="2.06678">
        <ele>176</ele>
        <time>2024-12-31T12:10:15.927Z</time>
      </trkpt>
      <trkpt lat="48.65217" lon="2.0667">
        <ele>176</ele>
        <time>2024-12-31T12:10:19.810Z</time>
      </trkpt>
      <trkpt lat="48.6522" lon="2.06662">
        <ele>176</ele>
        <time>2024-12-31T12:10:23.693Z</time>
      </trkpt>
      <trkpt lat="48.65222" lon="2.06654">
        <ele>176</ele>
        <time>2024-12-31T12:10:27.576Z</time>
      </trkpt>
      <trkpt lat="48.65225" lon="2.06646">
        <ele>176</ele>
        <time>2024-12-31T12:10:31.459Z</time>
      </trkpt>
      <trkpt lat="48.65228" lon="2.06638">
        <ele>176</ele>
        <time>2024-12-31T12:10:35.342Z</time>
      </trkpt>
      <trkpt lat="48.6523" lon="2.0663">
        <ele>176</ele>
        <time>2024-12-31T12:10:39.225Z</time>
      </trkpt>
      <trkpt lat="48.65233" lon="2.06622">
        <ele>176</ele>
        <time>2024-12-31T12:10:43.108Z</time>
      </trkpt>
      <trkpt lat="48.65236" lon="2.06614">
        <ele>176</ele>
        <time>2024-12-31T12:10:46.991Z</time>
      </trkpt>
      <trkpt lat="48.65238" lon="2.06606">
        <ele>176.1</ele>
        <time>2024-12-31T12:10:50.874Z</time>
      </trkpt>
      <trkpt lat="48.65241" lon="2.06599">
        <ele>176.3</ele>
        <time>2024-12-31T12:10:54.757Z</time>
      </trkpt>
      <trkpt lat="48.65244" lon="2.06591">
        <ele>176.6</ele>
        <time>2024-12-31T12:10:58.640Z</time>
      </trkpt>
      <trkpt lat="48.65246" lon="2.06583">
        <ele>176.8</ele>
        <time>2024-12-31T12:11:02.523Z</time>
      </trkpt>
      <trkpt lat="48.65249" lon="2.06575">
        <ele>176.6</ele>
        <time>2024-12-31T12:11:06.406Z</time>
      </trkpt>
      <trkpt lat="48.65252" lon="2.06567">
        <ele>176.4</ele>
        <time>2024-12-31T12:11:10.289Z</time>
      </trkpt>
      <trkpt lat="48.65254" lon="2.06559">
        <ele>176.1</ele>
        <time>2024-12-31T12:11:14.172Z</time>
      </trkpt>
      <trkpt lat="48.65257" lon="2.06551">
        <ele>176</ele>
        <time>2024-12-31T12:11:18.055Z</time>
      </trkpt>
      <trkpt lat="48.65259" lon="2.06543">
        <ele>176.2</ele>
        <time>2024-12-31T12:11:21.938Z</time>
      </trkpt>
      <trkpt lat="48.65262" lon="2.06535">
        <ele>176.3</ele>
        <time>2024-12-31T12:11:25.821Z</time>
      </trkpt>
      <trkpt lat="48.65265" lon="2.06527">
        <ele>176.5</ele>
        <time>2024-12-31T12:11:29.704Z</time>
      </trkpt>
      <trkpt lat="48.65267" lon="2.06519">
        <ele>176.6</ele>
        <time>2024-12-31T12:11:33.587Z</time>
      </trkpt>
      <trkpt lat="48.6527" lon="2.06511">
        <ele>176.7</ele>
        <time>2024-12-31T12:11:37.470Z</time>
      </trkpt>
      <trkpt lat="48.65273" lon="2.06503">
        <ele>176.8</ele>
        <time>2024-12-31T12:11:41.353Z</time>
      </trkpt>
      <trkpt lat="48.65275" lon="2.06495">
        <ele>176.9</ele>
        <time>2024-12-31T12:11:45.236Z</time>
      </trkpt>
      <trkpt lat="48.65278" lon="2.06487">
        <ele>177</ele>
        <time>2024-12-31T12:11:49.119Z</time>
      </trkpt>
      <trkpt lat="48.65281" lon="2.06479">
        <ele>176.9</ele>
        <time>2024-12-31T12:11:53.002Z</time>
      </trkpt>
      <trkpt lat="48.65283" lon="2.06471">
        <ele>176.8</ele>
        <time>2024-12-31T12:11:56.885Z</time>
      </trkpt>
      <trkpt lat="48.65286" lon="2.06463">
        <ele>176.6</ele>
        <time>2024-12-31T12:12:00.768Z</time>
        <extensions>
          <visugpx:TrkExtension xmlns:visugpx="https://www.visugpx.com/editgpx/">
            <visugpx:node>32</visugpx:node>
            </visugpx:TrkExtension>
        </extensions>
      </trkpt>
      <trkpt lat="48.65289" lon="2.06457">
        <ele>176.5</ele>
        <time>2024-12-31T12:12:03.879Z</time>
      </trkpt>
      <trkpt lat="48.65291" lon="2.0645">
        <ele>176.5</ele>
        <time>2024-12-31T12:12:06.990Z</time>
      </trkpt>
      <trkpt lat="48.65294" lon="2.06458">
        <ele>176.5</ele>
        <time>2024-12-31T12:12:10.499Z</time>
      </trkpt>
      <trkpt lat="48.65296" lon="2.06465">
        <ele>176.4</ele>
        <time>2024-12-31T12:12:14.008Z</time>
      </trkpt>
      <trkpt lat="48.65299" lon="2.06473">
        <ele>176.3</ele>
        <time>2024-12-31T12:12:17.517Z</time>
      </trkpt>
      <trkpt lat="48.65301" lon="2.06481">
        <ele>176.2</ele>
        <time>2024-12-31T12:12:21.026Z</time>
      </trkpt>
      <trkpt lat="48.65304" lon="2.06488">
        <ele>176.1</ele>
        <time>2024-12-31T12:12:24.535Z</time>
      </trkpt>
      <trkpt lat="48.65306" lon="2.06496">
        <ele>176</ele>
        <time>2024-12-31T12:12:28.045Z</time>
      </trkpt>
      <trkpt lat="48.65309" lon="2.06503">
        <ele>176</ele>
        <time>2024-12-31T12:12:31.555Z</time>
      </trkpt>
      <trkpt lat="48.65311" lon="2.06511">
        <ele>176</ele>
        <time>2024-12-31T12:12:35.065Z</time>
      </trkpt>
      <trkpt lat="48.65316" lon="2.06521">
        <ele>176</ele>
        <time>2024-12-31T12:12:40.226Z</time>
      </trkpt>
      <trkpt lat="48.6532" lon="2.06531">
        <ele>176</ele>
        <time>2024-12-31T12:12:45.387Z</time>
      </trkpt>
      <trkpt lat="48.65327" lon="2.0654">
        <ele>176</ele>
        <time>2024-12-31T12:12:51.074Z</time>
      </trkpt>
      <trkpt lat="48.65333" lon="2.06549">
        <ele>176</ele>
        <time>2024-12-31T12:12:56.762Z</time>
      </trkpt>
      <trkpt lat="48.65339" lon="2.06552">
        <ele>176</ele>
        <time>2024-12-31T12:13:00.536Z</time>
      </trkpt>
      <trkpt lat="48.65344" lon="2.06555">
        <ele>176</ele>
        <time>2024-12-31T12:13:04.311Z</time>
      </trkpt>
      <trkpt lat="48.65352" lon="2.06555">
        <ele>176</ele>
        <time>2024-12-31T12:13:09.158Z</time>
      </trkpt>
      <trkpt lat="48.65359" lon="2.06554">
        <ele>176</ele>
        <time>2024-12-31T12:13:14.005Z</time>
      </trkpt>
      <trkpt lat="48.65367" lon="2.06554">
        <ele>176</ele>
        <time>2024-12-31T12:13:18.852Z</time>
      </trkpt>
      <trkpt lat="48.65374" lon="2.06553">
        <ele>176</ele>
        <time>2024-12-31T12:13:23.699Z</time>
      </trkpt>
      <trkpt lat="48.65382" lon="2.06552">
        <ele>176.1</ele>
        <time>2024-12-31T12:13:29.047Z</time>
      </trkpt>
      <trkpt lat="48.6539" lon="2.06552">
        <ele>176.2</ele>
        <time>2024-12-31T12:13:34.395Z</time>
      </trkpt>
      <trkpt lat="48.65398" lon="2.06551">
        <ele>176.4</ele>
        <time>2024-12-31T12:13:39.743Z</time>
      </trkpt>
      <trkpt lat="48.65406" lon="2.06551">
        <ele>176.7</ele>
        <time>2024-12-31T12:13:45.091Z</time>
      </trkpt>
      <trkpt lat="48.65413" lon="2.0655">
        <ele>176.9</ele>
        <time>2024-12-31T12:13:50.440Z</time>
      </trkpt>
      <trkpt lat="48.65421" lon="2.06549">
        <ele>177</ele>
        <time>2024-12-31T12:13:55.789Z</time>
      </trkpt>
      <trkpt lat="48.65429" lon="2.06549">
        <ele>177</ele>
        <time>2024-12-31T12:14:01.138Z</time>
      </trkpt>
      <trkpt lat="48.65437" lon="2.06548">
        <ele>177</ele>
        <time>2024-12-31T12:14:06.487Z</time>
      </trkpt>
      <trkpt lat="48.65442" lon="2.06541">
        <ele>177</ele>
        <time>2024-12-31T12:14:10.786Z</time>
      </trkpt>
      <trkpt lat="48.65447" lon="2.06534">
        <ele>176.9</ele>
        <time>2024-12-31T12:14:15.086Z</time>
      </trkpt>
      <trkpt lat="48.6545" lon="2.06522">
        <ele>176.9</ele>
        <time>2024-12-31T12:14:20.611Z</time>
      </trkpt>
      <trkpt lat="48.65452" lon="2.06509">
        <ele>176.9</ele>
        <time>2024-12-31T12:14:26.136Z</time>
      </trkpt>
      <trkpt lat="48.65455" lon="2.06497">
        <ele>177</ele>
        <time>2024-12-31T12:14:31.661Z</time>
      </trkpt>
      <trkpt lat="48.65457" lon="2.06485">
        <ele>176.7</ele>
        <time>2024-12-31T12:14:37.186Z</time>
      </trkpt>
      <trkpt lat="48.6546" lon="2.06472">
        <ele>176.5</ele>
        <time>2024-12-31T12:14:42.711Z</time>
      </trkpt>
      <trkpt lat="48.65462" lon="2.0646">
        <ele>176.6</ele>
        <time>2024-12-31T12:14:48.236Z</time>
      </trkpt>
      <trkpt lat="48.65465" lon="2.06447">
        <ele>176.9</ele>
        <time>2024-12-31T12:14:53.761Z</time>
      </trkpt>
      <trkpt lat="48.65467" lon="2.06435">
        <ele>177</ele>
        <time>2024-12-31T12:14:59.286Z</time>
      </trkpt>
      <trkpt lat="48.6547" lon="2.06423">
        <ele>177</ele>
        <time>2024-12-31T12:15:04.811Z</time>
      </trkpt>
      <trkpt lat="48.65472" lon="2.0641">
        <ele>177</ele>
        <time>2024-12-31T12:15:10.336Z</time>
      </trkpt>
      <trkpt lat="48.65475" lon="2.06398">
        <ele>177</ele>
        <time>2024-12-31T12:15:15.861Z</time>
      </trkpt>
      <trkpt lat="48.65477" lon="2.06386">
        <ele>177</ele>
        <time>2024-12-31T12:15:21.386Z</time>
      </trkpt>
      <trkpt lat="48.6548" lon="2.06373">
        <ele>177</ele>
        <time>2024-12-31T12:15:26.911Z</time>
      </trkpt>
      <trkpt lat="48.65482" lon="2.06361">
        <ele>177</ele>
        <time>2024-12-31T12:15:32.436Z</time>
      </trkpt>
      <trkpt lat="48.65485" lon="2.06348">
        <ele>177</ele>
        <time>2024-12-31T12:15:37.961Z</time>
      </trkpt>
      <trkpt lat="48.65487" lon="2.06336">
        <ele>177</ele>
        <time>2024-12-31T12:15:43.486Z</time>
      </trkpt>
      <trkpt lat="48.6549" lon="2.06324">
        <ele>177</ele>
        <time>2024-12-31T12:15:49.011Z</time>
      </trkpt>
      <trkpt lat="48.65492" lon="2.06311">
        <ele>177</ele>
        <time>2024-12-31T12:15:54.536Z</time>
      </trkpt>
      <trkpt lat="48.65495" lon="2.06299">
        <ele>177</ele>
        <time>2024-12-31T12:16:00.061Z</time>
      </trkpt>
      <trkpt lat="48.65497" lon="2.06287">
        <ele>177</ele>
        <time>2024-12-31T12:16:05.586Z</time>
      </trkpt>
      <trkpt lat="48.655" lon="2.06274">
        <ele>177</ele>
        <time>2024-12-31T12:16:11.111Z</time>
      </trkpt>
      <trkpt lat="48.65502" lon="2.06262">
        <ele>177</ele>
        <time>2024-12-31T12:16:16.636Z</time>
      </trkpt>
      <trkpt lat="48.65505" lon="2.06249">
        <ele>177</ele>
        <time>2024-12-31T12:16:22.161Z</time>
      </trkpt>
      <trkpt lat="48.65507" lon="2.06237">
        <ele>177</ele>
        <time>2024-12-31T12:16:27.686Z</time>
      </trkpt>
      <trkpt lat="48.6551" lon="2.06225">
        <ele>177</ele>
        <time>2024-12-31T12:16:33.211Z</time>
      </trkpt>
      <trkpt lat="48.65512" lon="2.06212">
        <ele>177</ele>
        <time>2024-12-31T12:16:38.736Z</time>
      </trkpt>
      <trkpt lat="48.65515" lon="2.062">
        <ele>177</ele>
        <time>2024-12-31T12:16:44.261Z</time>
      </trkpt>
      <trkpt lat="48.65517" lon="2.06188">
        <ele>177</ele>
        <time>2024-12-31T12:16:49.786Z</time>
      </trkpt>
      <trkpt lat="48.6552" lon="2.06175">
        <ele>177</ele>
        <time>2024-12-31T12:16:55.311Z</time>
      </trkpt>
      <trkpt lat="48.65523" lon="2.06163">
        <ele>177</ele>
        <time>2024-12-31T12:17:00.836Z</time>
      </trkpt>
      <trkpt lat="48.65525" lon="2.0615">
        <ele>177</ele>
        <time>2024-12-31T12:17:06.361Z</time>
      </trkpt>
      <trkpt lat="48.65528" lon="2.06138">
        <ele>177</ele>
        <time>2024-12-31T12:17:11.886Z</time>
      </trkpt>
      <trkpt lat="48.6553" lon="2.06126">
        <ele>177</ele>
        <time>2024-12-31T12:17:17.411Z</time>
      </trkpt>
      <trkpt lat="48.65533" lon="2.06113">
        <ele>177</ele>
        <time>2024-12-31T12:17:22.936Z</time>
      </trkpt>
      <trkpt lat="48.65535" lon="2.06101">
        <ele>177</ele>
        <time>2024-12-31T12:17:28.461Z</time>
      </trkpt>
      <trkpt lat="48.65538" lon="2.06089">
        <ele>177</ele>
        <time>2024-12-31T12:17:33.986Z</time>
      </trkpt>
      <trkpt lat="48.6554" lon="2.06076">
        <ele>177</ele>
        <time>2024-12-31T12:17:39.511Z</time>
      </trkpt>
      <trkpt lat="48.65543" lon="2.06064">
        <ele>177</ele>
        <time>2024-12-31T12:17:45.036Z</time>
      </trkpt>
      <trkpt lat="48.65545" lon="2.06051">
        <ele>177</ele>
        <time>2024-12-31T12:17:50.561Z</time>
      </trkpt>
      <trkpt lat="48.65548" lon="2.06039">
        <ele>177</ele>
        <time>2024-12-31T12:17:56.086Z</time>
      </trkpt>
      <trkpt lat="48.6555" lon="2.06027">
        <ele>177</ele>
        <time>2024-12-31T12:18:01.611Z</time>
      </trkpt>
      <trkpt lat="48.65553" lon="2.06014">
        <ele>177</ele>
        <time>2024-12-31T12:18:07.136Z</time>
      </trkpt>
      <trkpt lat="48.65555" lon="2.06002">
        <ele>177</ele>
        <time>2024-12-31T12:18:12.661Z</time>
      </trkpt>
      <trkpt lat="48.65558" lon="2.0599">
        <ele>177</ele>
        <time>2024-12-31T12:18:18.187Z</time>
      </trkpt>
      <trkpt lat="48.6556" lon="2.05977">
        <ele>177</ele>
        <time>2024-12-31T12:18:23.713Z</time>
      </trkpt>
      <trkpt lat="48.65563" lon="2.05965">
        <ele>177</ele>
        <time>2024-12-31T12:18:29.239Z</time>
      </trkpt>
      <trkpt lat="48.65565" lon="2.05952">
        <ele>177</ele>
        <time>2024-12-31T12:18:34.765Z</time>
      </trkpt>
      <trkpt lat="48.65568" lon="2.0594">
        <ele>177</ele>
        <time>2024-12-31T12:18:40.291Z</time>
      </trkpt>
      <trkpt lat="48.6557" lon="2.05928">
        <ele>177</ele>
        <time>2024-12-31T12:18:45.817Z</time>
      </trkpt>
      <trkpt lat="48.65573" lon="2.05915">
        <ele>177</ele>
        <time>2024-12-31T12:18:51.343Z</time>
      </trkpt>
      <trkpt lat="48.65575" lon="2.05903">
        <ele>177</ele>
        <time>2024-12-31T12:18:56.869Z</time>
      </trkpt>
      <trkpt lat="48.65578" lon="2.05891">
        <ele>177</ele>
        <time>2024-12-31T12:19:02.395Z</time>
      </trkpt>
      <trkpt lat="48.6558" lon="2.05878">
        <ele>177</ele>
        <time>2024-12-31T12:19:07.921Z</time>
      </trkpt>
      <trkpt lat="48.65583" lon="2.05866">
        <ele>177</ele>
        <time>2024-12-31T12:19:13.447Z</time>
      </trkpt>
      <trkpt lat="48.65585" lon="2.05853">
        <ele>177</ele>
        <time>2024-12-31T12:19:18.973Z</time>
      </trkpt>
      <trkpt lat="48.65588" lon="2.05841">
        <ele>177</ele>
        <time>2024-12-31T12:19:24.499Z</time>
      </trkpt>
      <trkpt lat="48.6559" lon="2.05829">
        <ele>177</ele>
        <time>2024-12-31T12:19:30.025Z</time>
      </trkpt>
      <trkpt lat="48.65593" lon="2.05816">
        <ele>177</ele>
        <time>2024-12-31T12:19:35.551Z</time>
      </trkpt>
      <trkpt lat="48.65595" lon="2.05804">
        <ele>177</ele>
        <time>2024-12-31T12:19:41.077Z</time>
      </trkpt>
      <trkpt lat="48.65598" lon="2.05792">
        <ele>177</ele>
        <time>2024-12-31T12:19:46.603Z</time>
      </trkpt>
      <trkpt lat="48.65601" lon="2.05779">
        <ele>177</ele>
        <time>2024-12-31T12:19:52.129Z</time>
      </trkpt>
      <trkpt lat="48.65603" lon="2.05767">
        <ele>177</ele>
        <time>2024-12-31T12:19:57.655Z</time>
      </trkpt>
      <trkpt lat="48.65606" lon="2.05754">
        <ele>177</ele>
        <time>2024-12-31T12:20:03.181Z</time>
      </trkpt>
      <trkpt lat="48.65608" lon="2.05742">
        <ele>177</ele>
        <time>2024-12-31T12:20:08.707Z</time>
      </trkpt>
      <trkpt lat="48.65609" lon="2.05734">
        <ele>177</ele>
        <time>2024-12-31T12:20:12.371Z</time>
      </trkpt>
      <trkpt lat="48.65611" lon="2.05725">
        <ele>177</ele>
        <time>2024-12-31T12:20:16.035Z</time>
      </trkpt>
      <trkpt lat="48.65612" lon="2.05717">
        <ele>177</ele>
        <time>2024-12-31T12:20:19.700Z</time>
      </trkpt>
      <trkpt lat="48.65613" lon="2.05708">
        <ele>176.9</ele>
        <time>2024-12-31T12:20:23.365Z</time>
      </trkpt>
      <trkpt lat="48.65614" lon="2.05697">
        <ele>176.9</ele>
        <time>2024-12-31T12:20:27.945Z</time>
      </trkpt>
      <trkpt lat="48.65615" lon="2.05687">
        <ele>176.9</ele>
        <time>2024-12-31T12:20:32.526Z</time>
      </trkpt>
      <trkpt lat="48.65616" lon="2.05676">
        <ele>176.8</ele>
        <time>2024-12-31T12:20:37.107Z</time>
      </trkpt>
      <trkpt lat="48.65617" lon="2.05665">
        <ele>176.8</ele>
        <time>2024-12-31T12:20:41.688Z</time>
      </trkpt>
      <trkpt lat="48.65618" lon="2.05652">
        <ele>176.9</ele>
        <time>2024-12-31T12:20:47.079Z</time>
      </trkpt>
      <trkpt lat="48.65618" lon="2.0564">
        <ele>177</ele>
        <time>2024-12-31T12:20:52.470Z</time>
      </trkpt>
      <trkpt lat="48.65619" lon="2.05627">
        <ele>177</ele>
        <time>2024-12-31T12:20:57.861Z</time>
      </trkpt>
      <trkpt lat="48.6562" lon="2.05614">
        <ele>177</ele>
        <time>2024-12-31T12:21:03.252Z</time>
      </trkpt>
      <trkpt lat="48.6562" lon="2.05601">
        <ele>177</ele>
        <time>2024-12-31T12:21:08.643Z</time>
      </trkpt>
      <trkpt lat="48.65621" lon="2.05589">
        <ele>177</ele>
        <time>2024-12-31T12:21:14.034Z</time>
      </trkpt>
      <trkpt lat="48.65622" lon="2.05576">
        <ele>176.9</ele>
        <time>2024-12-31T12:21:19.425Z</time>
      </trkpt>
      <trkpt lat="48.65622" lon="2.05563">
        <ele>176.7</ele>
        <time>2024-12-31T12:21:24.816Z</time>
      </trkpt>
      <trkpt lat="48.65623" lon="2.05551">
        <ele>176.5</ele>
        <time>2024-12-31T12:21:30.207Z</time>
      </trkpt>
      <trkpt lat="48.65624" lon="2.05538">
        <ele>176.2</ele>
        <time>2024-12-31T12:21:35.598Z</time>
      </trkpt>
      <trkpt lat="48.65624" lon="2.05525">
        <ele>176</ele>
        <time>2024-12-31T12:21:40.989Z</time>
      </trkpt>
      <trkpt lat="48.65625" lon="2.05512">
        <ele>176</ele>
        <time>2024-12-31T12:21:46.380Z</time>
      </trkpt>
      <trkpt lat="48.65626" lon="2.055">
        <ele>176</ele>
        <time>2024-12-31T12:21:51.772Z</time>
      </trkpt>
      <trkpt lat="48.65626" lon="2.05487">
        <ele>176</ele>
        <time>2024-12-31T12:21:57.164Z</time>
      </trkpt>
      <trkpt lat="48.65627" lon="2.05474">
        <ele>176</ele>
        <time>2024-12-31T12:22:02.556Z</time>
      </trkpt>
      <trkpt lat="48.65628" lon="2.05462">
        <ele>176</ele>
        <time>2024-12-31T12:22:07.948Z</time>
      </trkpt>
      <trkpt lat="48.65628" lon="2.05449">
        <ele>176</ele>
        <time>2024-12-31T12:22:13.340Z</time>
      </trkpt>
      <trkpt lat="48.65629" lon="2.05436">
        <ele>176</ele>
        <time>2024-12-31T12:22:18.732Z</time>
      </trkpt>
      <trkpt lat="48.6563" lon="2.05423">
        <ele>176</ele>
        <time>2024-12-31T12:22:24.124Z</time>
      </trkpt>
      <trkpt lat="48.6563" lon="2.05411">
        <ele>176</ele>
        <time>2024-12-31T12:22:29.516Z</time>
      </trkpt>
      <trkpt lat="48.65631" lon="2.05398">
        <ele>176</ele>
        <time>2024-12-31T12:22:34.908Z</time>
      </trkpt>
      <trkpt lat="48.65631" lon="2.05385">
        <ele>176</ele>
        <time>2024-12-31T12:22:40.300Z</time>
      </trkpt>
      <trkpt lat="48.65632" lon="2.05373">
        <ele>176</ele>
        <time>2024-12-31T12:22:45.692Z</time>
      </trkpt>
      <trkpt lat="48.65633" lon="2.0536">
        <ele>176</ele>
        <time>2024-12-31T12:22:51.084Z</time>
      </trkpt>
      <trkpt lat="48.65633" lon="2.05347">
        <ele>176</ele>
        <time>2024-12-31T12:22:56.476Z</time>
      </trkpt>
      <trkpt lat="48.65634" lon="2.05334">
        <ele>176</ele>
        <time>2024-12-31T12:23:01.868Z</time>
      </trkpt>
      <trkpt lat="48.65635" lon="2.05322">
        <ele>176</ele>
        <time>2024-12-31T12:23:07.260Z</time>
      </trkpt>
      <trkpt lat="48.65635" lon="2.05309">
        <ele>176</ele>
        <time>2024-12-31T12:23:12.652Z</time>
      </trkpt>
      <trkpt lat="48.65636" lon="2.05296">
        <ele>176</ele>
        <time>2024-12-31T12:23:18.044Z</time>
      </trkpt>
      <trkpt lat="48.65637" lon="2.05283">
        <ele>176</ele>
        <time>2024-12-31T12:23:23.436Z</time>
      </trkpt>
      <trkpt lat="48.65637" lon="2.05271">
        <ele>176</ele>
        <time>2024-12-31T12:23:28.828Z</time>
      </trkpt>
      <trkpt lat="48.65638" lon="2.05258">
        <ele>176</ele>
        <time>2024-12-31T12:23:34.220Z</time>
      </trkpt>
      <trkpt lat="48.6564" lon="2.05251">
        <ele>176</ele>
        <time>2024-12-31T12:23:37.473Z</time>
      </trkpt>
      <trkpt lat="48.65644" lon="2.05246">
        <ele>176</ele>
        <time>2024-12-31T12:23:40.822Z</time>
      </trkpt>
      <trkpt lat="48.65639" lon="2.0524">
        <ele>176</ele>
        <time>2024-12-31T12:23:44.941Z</time>
      </trkpt>
      <trkpt lat="48.65635" lon="2.05238">
        <ele>176</ele>
        <time>2024-12-31T12:23:47.661Z</time>
      </trkpt>
      <trkpt lat="48.65635" lon="2.05238">
        <ele>176</ele>
        <time>2024-12-31T12:23:47.661Z</time>
        <extensions>
          <visugpx:TrkExtension xmlns:visugpx="https://www.visugpx.com/editgpx/">
            <visugpx:node>31</visugpx:node>
            </visugpx:TrkExtension>
        </extensions>
      </trkpt>
      <trkpt lat="48.65639" lon="2.0524">
        <ele>176</ele>
        <time>2024-12-31T12:23:50.381Z</time>
      </trkpt>
      <trkpt lat="48.65644" lon="2.05246">
        <ele>176</ele>
        <time>2024-12-31T12:23:54.500Z</time>
      </trkpt>
      <trkpt lat="48.65649" lon="2.0525">
        <ele>176</ele>
        <time>2024-12-31T12:23:58.390Z</time>
      </trkpt>
      <trkpt lat="48.65655" lon="2.05254">
        <ele>176</ele>
        <time>2024-12-31T12:24:02.281Z</time>
      </trkpt>
      <trkpt lat="48.6566" lon="2.05258">
        <ele>176</ele>
        <time>2024-12-31T12:24:06.172Z</time>
      </trkpt>
      <trkpt lat="48.65666" lon="2.05263">
        <ele>176</ele>
        <time>2024-12-31T12:24:10.063Z</time>
      </trkpt>
      <trkpt lat="48.65671" lon="2.05267">
        <ele>176</ele>
        <time>2024-12-31T12:24:13.954Z</time>
      </trkpt>
      <trkpt lat="48.65676" lon="2.05271">
        <ele>176</ele>
        <time>2024-12-31T12:24:17.845Z</time>
      </trkpt>
      <trkpt lat="48.65682" lon="2.05275">
        <ele>176</ele>
        <time>2024-12-31T12:24:21.736Z</time>
      </trkpt>
      <trkpt lat="48.65687" lon="2.05279">
        <ele>176</ele>
        <time>2024-12-31T12:24:25.627Z</time>
      </trkpt>
      <trkpt lat="48.65694" lon="2.05283">
        <ele>176</ele>
        <time>2024-12-31T12:24:30.293Z</time>
      </trkpt>
      <trkpt lat="48.657" lon="2.05288">
        <ele>176</ele>
        <time>2024-12-31T12:24:34.959Z</time>
      </trkpt>
      <trkpt lat="48.65707" lon="2.05292">
        <ele>176</ele>
        <time>2024-12-31T12:24:39.625Z</time>
      </trkpt>
      <trkpt lat="48.65714" lon="2.05297">
        <ele>176</ele>
        <time>2024-12-31T12:24:44.292Z</time>
      </trkpt>
      <trkpt lat="48.6572" lon="2.05301">
        <ele>176</ele>
        <time>2024-12-31T12:24:48.959Z</time>
      </trkpt>
      <trkpt lat="48.65727" lon="2.05305">
        <ele>176</ele>
        <time>2024-12-31T12:24:53.626Z</time>
      </trkpt>
      <trkpt lat="48.65733" lon="2.0531">
        <ele>176</ele>
        <time>2024-12-31T12:24:58.293Z</time>
      </trkpt>
      <trkpt lat="48.6574" lon="2.05314">
        <ele>176</ele>
        <time>2024-12-31T12:25:02.960Z</time>
      </trkpt>
      <trkpt lat="48.65745" lon="2.05316">
        <ele>176</ele>
        <time>2024-12-31T12:25:06.189Z</time>
      </trkpt>
      <trkpt lat="48.6575" lon="2.05319">
        <ele>176</ele>
        <time>2024-12-31T12:25:09.418Z</time>
      </trkpt>
      <trkpt lat="48.65755" lon="2.05321">
        <ele>176</ele>
        <time>2024-12-31T12:25:12.647Z</time>
      </trkpt>
      <trkpt lat="48.6576" lon="2.05323">
        <ele>176</ele>
        <time>2024-12-31T12:25:15.876Z</time>
      </trkpt>
      <trkpt lat="48.65764" lon="2.05325">
        <ele>176</ele>
        <time>2024-12-31T12:25:19.105Z</time>
      </trkpt>
      <trkpt lat="48.65769" lon="2.05328">
        <ele>176</ele>
        <time>2024-12-31T12:25:22.334Z</time>
      </trkpt>
      <trkpt lat="48.65774" lon="2.0533">
        <ele>176</ele>
        <time>2024-12-31T12:25:25.563Z</time>
      </trkpt>
      <trkpt lat="48.65779" lon="2.05332">
        <ele>176</ele>
        <time>2024-12-31T12:25:28.792Z</time>
      </trkpt>
      <trkpt lat="48.65784" lon="2.05334">
        <ele>176</ele>
        <time>2024-12-31T12:25:32.021Z</time>
      </trkpt>
      <trkpt lat="48.65789" lon="2.05337">
        <ele>176</ele>
        <time>2024-12-31T12:25:35.250Z</time>
      </trkpt>
      <trkpt lat="48.65794" lon="2.05339">
        <ele>176</ele>
        <time>2024-12-31T12:25:38.479Z</time>
      </trkpt>
      <trkpt lat="48.65799" lon="2.05341">
        <ele>176</ele>
        <time>2024-12-31T12:25:41.708Z</time>
      </trkpt>
      <trkpt lat="48.65803" lon="2.05343">
        <ele>176</ele>
        <time>2024-12-31T12:25:44.937Z</time>
      </trkpt>
      <trkpt lat="48.65808" lon="2.05346">
        <ele>176</ele>
        <time>2024-12-31T12:25:48.166Z</time>
      </trkpt>
      <trkpt lat="48.65813" lon="2.05348">
        <ele>175.9</ele>
        <time>2024-12-31T12:25:51.395Z</time>
      </trkpt>
      <trkpt lat="48.65818" lon="2.0535">
        <ele>175.7</ele>
        <time>2024-12-31T12:25:54.624Z</time>
      </trkpt>
      <trkpt lat="48.65823" lon="2.05352">
        <ele>175.6</ele>
        <time>2024-12-31T12:25:57.853Z</time>
      </trkpt>
      <trkpt lat="48.65828" lon="2.05355">
        <ele>175.4</ele>
        <time>2024-12-31T12:26:01.082Z</time>
      </trkpt>
      <trkpt lat="48.65833" lon="2.05357">
        <ele>175.2</ele>
        <time>2024-12-31T12:26:04.311Z</time>
      </trkpt>
      <trkpt lat="48.65838" lon="2.05359">
        <ele>175.2</ele>
        <time>2024-12-31T12:26:07.540Z</time>
      </trkpt>
      <trkpt lat="48.65842" lon="2.05361">
        <ele>175.3</ele>
        <time>2024-12-31T12:26:10.769Z</time>
      </trkpt>
      <trkpt lat="48.65847" lon="2.05364">
        <ele>175.5</ele>
        <time>2024-12-31T12:26:13.998Z</time>
      </trkpt>
      <trkpt lat="48.65852" lon="2.05366">
        <ele>175.6</ele>
        <time>2024-12-31T12:26:17.227Z</time>
      </trkpt>
      <trkpt lat="48.65857" lon="2.05368">
        <ele>175.6</ele>
        <time>2024-12-31T12:26:20.456Z</time>
      </trkpt>
      <trkpt lat="48.65862" lon="2.0537">
        <ele>175.7</ele>
        <time>2024-12-31T12:26:23.685Z</time>
      </trkpt>
      <trkpt lat="48.65867" lon="2.05373">
        <ele>175.5</ele>
        <time>2024-12-31T12:26:26.915Z</time>
      </trkpt>
      <trkpt lat="48.65872" lon="2.05375">
        <ele>175.3</ele>
        <time>2024-12-31T12:26:30.145Z</time>
      </trkpt>
      <trkpt lat="48.65877" lon="2.05377">
        <ele>175.2</ele>
        <time>2024-12-31T12:26:33.375Z</time>
      </trkpt>
      <trkpt lat="48.65881" lon="2.05379">
        <ele>175.1</ele>
        <time>2024-12-31T12:26:36.605Z</time>
      </trkpt>
      <trkpt lat="48.65886" lon="2.05382">
        <ele>175</ele>
        <time>2024-12-31T12:26:39.835Z</time>
      </trkpt>
      <trkpt lat="48.65891" lon="2.05384">
        <ele>175</ele>
        <time>2024-12-31T12:26:43.065Z</time>
      </trkpt>
      <trkpt lat="48.65896" lon="2.05386">
        <ele>175</ele>
        <time>2024-12-31T12:26:46.295Z</time>
      </trkpt>
      <trkpt lat="48.65904" lon="2.05389">
        <ele>175</ele>
        <time>2024-12-31T12:26:51.591Z</time>
      </trkpt>
      <trkpt lat="48.65912" lon="2.05392">
        <ele>175</ele>
        <time>2024-12-31T12:26:56.887Z</time>
      </trkpt>
      <trkpt lat="48.6592" lon="2.05394">
        <ele>175</ele>
        <time>2024-12-31T12:27:02.184Z</time>
      </trkpt>
      <trkpt lat="48.65928" lon="2.05397">
        <ele>175</ele>
        <time>2024-12-31T12:27:07.481Z</time>
      </trkpt>
      <trkpt lat="48.65935" lon="2.05397">
        <ele>175</ele>
        <time>2024-12-31T12:27:11.677Z</time>
      </trkpt>
      <trkpt lat="48.65941" lon="2.05397">
        <ele>175</ele>
        <time>2024-12-31T12:27:15.874Z</time>
      </trkpt>
      <trkpt lat="48.65947" lon="2.05398">
        <ele>175</ele>
        <time>2024-12-31T12:27:19.951Z</time>
      </trkpt>
      <trkpt lat="48.65954" lon="2.05399">
        <ele>175</ele>
        <time>2024-12-31T12:27:24.028Z</time>
      </trkpt>
      <trkpt lat="48.6596" lon="2.054">
        <ele>175</ele>
        <time>2024-12-31T12:27:28.106Z</time>
      </trkpt>
      <trkpt lat="48.65967" lon="2.05401">
        <ele>175</ele>
        <time>2024-12-31T12:27:32.184Z</time>
      </trkpt>
      <trkpt lat="48.65973" lon="2.05402">
        <ele>175</ele>
        <time>2024-12-31T12:27:36.262Z</time>
      </trkpt>
      <trkpt lat="48.65979" lon="2.05403">
        <ele>175</ele>
        <time>2024-12-31T12:27:40.340Z</time>
      </trkpt>
      <trkpt lat="48.65986" lon="2.05404">
        <ele>175</ele>
        <time>2024-12-31T12:27:44.418Z</time>
      </trkpt>
      <trkpt lat="48.65992" lon="2.05405">
        <ele>175</ele>
        <time>2024-12-31T12:27:48.496Z</time>
      </trkpt>
      <trkpt lat="48.65998" lon="2.05406">
        <ele>175</ele>
        <time>2024-12-31T12:27:52.574Z</time>
      </trkpt>
      <trkpt lat="48.66005" lon="2.05407">
        <ele>175</ele>
        <time>2024-12-31T12:27:56.652Z</time>
      </trkpt>
      <trkpt lat="48.66011" lon="2.05408">
        <ele>175</ele>
        <time>2024-12-31T12:28:00.730Z</time>
      </trkpt>
      <trkpt lat="48.66018" lon="2.05409">
        <ele>175</ele>
        <time>2024-12-31T12:28:04.808Z</time>
      </trkpt>
      <trkpt lat="48.66024" lon="2.0541">
        <ele>175</ele>
        <time>2024-12-31T12:28:08.886Z</time>
      </trkpt>
      <trkpt lat="48.6603" lon="2.05411">
        <ele>175</ele>
        <time>2024-12-31T12:28:12.964Z</time>
      </trkpt>
      <trkpt lat="48.66037" lon="2.05413">
        <ele>175</ele>
        <time>2024-12-31T12:28:17.042Z</time>
      </trkpt>
      <trkpt lat="48.66043" lon="2.05414">
        <ele>175</ele>
        <time>2024-12-31T12:28:21.120Z</time>
      </trkpt>
      <trkpt lat="48.66049" lon="2.05415">
        <ele>175</ele>
        <time>2024-12-31T12:28:25.198Z</time>
      </trkpt>
      <trkpt lat="48.66056" lon="2.05416">
        <ele>175</ele>
        <time>2024-12-31T12:28:29.276Z</time>
      </trkpt>
      <trkpt lat="48.66062" lon="2.05417">
        <ele>175</ele>
        <time>2024-12-31T12:28:33.354Z</time>
      </trkpt>
      <trkpt lat="48.66069" lon="2.05418">
        <ele>175</ele>
        <time>2024-12-31T12:28:37.432Z</time>
      </trkpt>
      <trkpt lat="48.66075" lon="2.05419">
        <ele>174.9</ele>
        <time>2024-12-31T12:28:41.510Z</time>
      </trkpt>
      <trkpt lat="48.66081" lon="2.0542">
        <ele>174.9</ele>
        <time>2024-12-31T12:28:45.588Z</time>
      </trkpt>
      <trkpt lat="48.66088" lon="2.05421">
        <ele>174.7</ele>
        <time>2024-12-31T12:28:49.666Z</time>
      </trkpt>
      <trkpt lat="48.66094" lon="2.05422">
        <ele>174.5</ele>
        <time>2024-12-31T12:28:53.744Z</time>
      </trkpt>
      <trkpt lat="48.661" lon="2.05423">
        <ele>174.3</ele>
        <time>2024-12-31T12:28:57.822Z</time>
      </trkpt>
      <trkpt lat="48.66107" lon="2.05424">
        <ele>174.1</ele>
        <time>2024-12-31T12:29:01.900Z</time>
      </trkpt>
      <trkpt lat="48.66113" lon="2.05425">
        <ele>174</ele>
        <time>2024-12-31T12:29:05.978Z</time>
      </trkpt>
      <trkpt lat="48.6612" lon="2.05426">
        <ele>174</ele>
        <time>2024-12-31T12:29:10.056Z</time>
      </trkpt>
      <trkpt lat="48.66126" lon="2.05427">
        <ele>174</ele>
        <time>2024-12-31T12:29:14.134Z</time>
      </trkpt>
      <trkpt lat="48.66132" lon="2.05428">
        <ele>174</ele>
        <time>2024-12-31T12:29:18.212Z</time>
      </trkpt>
      <trkpt lat="48.66139" lon="2.05429">
        <ele>174</ele>
        <time>2024-12-31T12:29:22.290Z</time>
      </trkpt>
      <trkpt lat="48.66145" lon="2.0543">
        <ele>174</ele>
        <time>2024-12-31T12:29:26.368Z</time>
      </trkpt>
      <trkpt lat="48.66152" lon="2.05431">
        <ele>174</ele>
        <time>2024-12-31T12:29:30.794Z</time>
      </trkpt>
      <trkpt lat="48.66159" lon="2.05431">
        <ele>174</ele>
        <time>2024-12-31T12:29:35.220Z</time>
      </trkpt>
      <trkpt lat="48.66166" lon="2.05432">
        <ele>174</ele>
        <time>2024-12-31T12:29:39.647Z</time>
      </trkpt>
      <trkpt lat="48.66173" lon="2.05432">
        <ele>173.8</ele>
        <time>2024-12-31T12:29:44.074Z</time>
      </trkpt>
      <trkpt lat="48.66179" lon="2.05432">
        <ele>173.6</ele>
        <time>2024-12-31T12:29:47.707Z</time>
      </trkpt>
      <trkpt lat="48.66185" lon="2.05431">
        <ele>173.4</ele>
        <time>2024-12-31T12:29:51.340Z</time>
      </trkpt>
      <trkpt lat="48.6619" lon="2.05431">
        <ele>173.1</ele>
        <time>2024-12-31T12:29:54.973Z</time>
      </trkpt>
      <trkpt lat="48.66196" lon="2.05431">
        <ele>173</ele>
        <time>2024-12-31T12:29:58.607Z</time>
      </trkpt>
      <trkpt lat="48.66202" lon="2.0543">
        <ele>173</ele>
        <time>2024-12-31T12:30:02.241Z</time>
      </trkpt>
      <trkpt lat="48.66208" lon="2.0543">
        <ele>173</ele>
        <time>2024-12-31T12:30:05.875Z</time>
      </trkpt>
      <trkpt lat="48.66214" lon="2.0543">
        <ele>173</ele>
        <time>2024-12-31T12:30:09.509Z</time>
      </trkpt>
      <trkpt lat="48.6622" lon="2.0543">
        <ele>173</ele>
        <time>2024-12-31T12:30:13.143Z</time>
      </trkpt>
      <trkpt lat="48.66225" lon="2.05429">
        <ele>173</ele>
        <time>2024-12-31T12:30:16.777Z</time>
      </trkpt>
      <trkpt lat="48.66231" lon="2.05429">
        <ele>173</ele>
        <time>2024-12-31T12:30:20.411Z</time>
      </trkpt>
      <trkpt lat="48.66237" lon="2.05429">
        <ele>173</ele>
        <time>2024-12-31T12:30:24.045Z</time>
      </trkpt>
      <trkpt lat="48.66243" lon="2.05428">
        <ele>173</ele>
        <time>2024-12-31T12:30:27.679Z</time>
      </trkpt>
      <trkpt lat="48.66249" lon="2.05428">
        <ele>173</ele>
        <time>2024-12-31T12:30:31.313Z</time>
      </trkpt>
      <trkpt lat="48.66254" lon="2.05428">
        <ele>172.9</ele>
        <time>2024-12-31T12:30:34.947Z</time>
      </trkpt>
      <trkpt lat="48.6626" lon="2.05427">
        <ele>172.9</ele>
        <time>2024-12-31T12:30:38.581Z</time>
      </trkpt>
      <trkpt lat="48.66266" lon="2.05427">
        <ele>172.8</ele>
        <time>2024-12-31T12:30:42.215Z</time>
      </trkpt>
      <trkpt lat="48.66271" lon="2.05427">
        <ele>172.7</ele>
        <time>2024-12-31T12:30:45.192Z</time>
      </trkpt>
      <trkpt lat="48.66276" lon="2.05426">
        <ele>172.7</ele>
        <time>2024-12-31T12:30:48.169Z</time>
      </trkpt>
      <trkpt lat="48.6628" lon="2.05426">
        <ele>172.7</ele>
        <time>2024-12-31T12:30:51.146Z</time>
      </trkpt>
      <trkpt lat="48.66285" lon="2.05425">
        <ele>172.7</ele>
        <time>2024-12-31T12:30:54.123Z</time>
      </trkpt>
      <trkpt lat="48.6629" lon="2.05425">
        <ele>172.7</ele>
        <time>2024-12-31T12:30:57.100Z</time>
      </trkpt>
      <trkpt lat="48.66295" lon="2.05424">
        <ele>172.7</ele>
        <time>2024-12-31T12:31:00.077Z</time>
      </trkpt>
      <trkpt lat="48.66299" lon="2.05424">
        <ele>172.8</ele>
        <time>2024-12-31T12:31:03.054Z</time>
      </trkpt>
      <trkpt lat="48.66304" lon="2.05423">
        <ele>172.8</ele>
        <time>2024-12-31T12:31:06.031Z</time>
      </trkpt>
      <trkpt lat="48.66309" lon="2.05423">
        <ele>172.7</ele>
        <time>2024-12-31T12:31:09.008Z</time>
      </trkpt>
      <trkpt lat="48.66314" lon="2.05422">
        <ele>172.6</ele>
        <time>2024-12-31T12:31:11.985Z</time>
      </trkpt>
      <trkpt lat="48.66318" lon="2.05422">
        <ele>172.5</ele>
        <time>2024-12-31T12:31:14.962Z</time>
      </trkpt>
      <trkpt lat="48.66323" lon="2.05421">
        <ele>172.3</ele>
        <time>2024-12-31T12:31:17.939Z</time>
      </trkpt>
      <trkpt lat="48.66328" lon="2.05421">
        <ele>172.2</ele>
        <time>2024-12-31T12:31:20.916Z</time>
      </trkpt>
      <trkpt lat="48.66333" lon="2.0542">
        <ele>172</ele>
        <time>2024-12-31T12:31:23.893Z</time>
      </trkpt>
      <trkpt lat="48.66337" lon="2.0542">
        <ele>172</ele>
        <time>2024-12-31T12:31:26.870Z</time>
      </trkpt>
      <trkpt lat="48.66342" lon="2.05419">
        <ele>172</ele>
        <time>2024-12-31T12:31:29.847Z</time>
      </trkpt>
      <trkpt lat="48.66347" lon="2.05418">
        <ele>172</ele>
        <time>2024-12-31T12:31:33.335Z</time>
      </trkpt>
      <trkpt lat="48.66353" lon="2.05417">
        <ele>172</ele>
        <time>2024-12-31T12:31:36.823Z</time>
      </trkpt>
      <trkpt lat="48.66358" lon="2.05417">
        <ele>172</ele>
        <time>2024-12-31T12:31:40.311Z</time>
      </trkpt>
      <trkpt lat="48.66364" lon="2.05416">
        <ele>172</ele>
        <time>2024-12-31T12:31:43.800Z</time>
      </trkpt>
      <trkpt lat="48.66369" lon="2.05415">
        <ele>172</ele>
        <time>2024-12-31T12:31:47.289Z</time>
      </trkpt>
      <trkpt lat="48.66374" lon="2.05414">
        <ele>172</ele>
        <time>2024-12-31T12:31:50.778Z</time>
      </trkpt>
      <trkpt lat="48.6638" lon="2.05413">
        <ele>172</ele>
        <time>2024-12-31T12:31:54.267Z</time>
      </trkpt>
      <trkpt lat="48.66385" lon="2.05412">
        <ele>172</ele>
        <time>2024-12-31T12:31:57.756Z</time>
      </trkpt>
      <trkpt lat="48.6639" lon="2.05411">
        <ele>172</ele>
        <time>2024-12-31T12:32:01.245Z</time>
      </trkpt>
      <trkpt lat="48.66396" lon="2.05411">
        <ele>172</ele>
        <time>2024-12-31T12:32:04.734Z</time>
      </trkpt>
      <trkpt lat="48.66401" lon="2.0541">
        <ele>172</ele>
        <time>2024-12-31T12:32:08.223Z</time>
      </trkpt>
      <trkpt lat="48.66407" lon="2.05409">
        <ele>172</ele>
        <time>2024-12-31T12:32:11.712Z</time>
      </trkpt>
      <trkpt lat="48.66412" lon="2.05408">
        <ele>172</ele>
        <time>2024-12-31T12:32:15.201Z</time>
      </trkpt>
      <trkpt lat="48.66417" lon="2.05407">
        <ele>172</ele>
        <time>2024-12-31T12:32:18.690Z</time>
      </trkpt>
      <trkpt lat="48.66423" lon="2.05406">
        <ele>172</ele>
        <time>2024-12-31T12:32:22.179Z</time>
      </trkpt>
      <trkpt lat="48.66428" lon="2.05406">
        <ele>172</ele>
        <time>2024-12-31T12:32:25.668Z</time>
      </trkpt>
      <trkpt lat="48.66433" lon="2.05405">
        <ele>172</ele>
        <time>2024-12-31T12:32:29.157Z</time>
      </trkpt>
      <trkpt lat="48.66439" lon="2.05404">
        <ele>172</ele>
        <time>2024-12-31T12:32:32.646Z</time>
      </trkpt>
      <trkpt lat="48.66444" lon="2.05403">
        <ele>172</ele>
        <time>2024-12-31T12:32:36.135Z</time>
      </trkpt>
      <trkpt lat="48.6645" lon="2.05402">
        <ele>172</ele>
        <time>2024-12-31T12:32:39.624Z</time>
      </trkpt>
      <trkpt lat="48.66455" lon="2.05401">
        <ele>172</ele>
        <time>2024-12-31T12:32:43.113Z</time>
      </trkpt>
      <trkpt lat="48.6646" lon="2.054">
        <ele>172</ele>
        <time>2024-12-31T12:32:46.602Z</time>
      </trkpt>
      <trkpt lat="48.66466" lon="2.054">
        <ele>172</ele>
        <time>2024-12-31T12:32:50.091Z</time>
      </trkpt>
      <trkpt lat="48.66471" lon="2.05399">
        <ele>172</ele>
        <time>2024-12-31T12:32:53.580Z</time>
      </trkpt>
      <trkpt lat="48.66476" lon="2.05398">
        <ele>172</ele>
        <time>2024-12-31T12:32:57.069Z</time>
      </trkpt>
      <trkpt lat="48.66482" lon="2.05397">
        <ele>172</ele>
        <time>2024-12-31T12:33:00.558Z</time>
      </trkpt>
      <trkpt lat="48.66487" lon="2.05396">
        <ele>172</ele>
        <time>2024-12-31T12:33:04.047Z</time>
      </trkpt>
      <trkpt lat="48.66493" lon="2.05395">
        <ele>172</ele>
        <time>2024-12-31T12:33:07.536Z</time>
      </trkpt>
      <trkpt lat="48.66498" lon="2.05395">
        <ele>172</ele>
        <time>2024-12-31T12:33:11.025Z</time>
      </trkpt>
      <trkpt lat="48.66503" lon="2.05394">
        <ele>172</ele>
        <time>2024-12-31T12:33:14.514Z</time>
      </trkpt>
      <trkpt lat="48.66509" lon="2.05393">
        <ele>172</ele>
        <time>2024-12-31T12:33:18.003Z</time>
      </trkpt>
      <trkpt lat="48.66514" lon="2.05392">
        <ele>172</ele>
        <time>2024-12-31T12:33:21.492Z</time>
      </trkpt>
      <trkpt lat="48.66519" lon="2.05391">
        <ele>172</ele>
        <time>2024-12-31T12:33:24.490Z</time>
      </trkpt>
      <trkpt lat="48.66523" lon="2.05389">
        <ele>172</ele>
        <time>2024-12-31T12:33:27.488Z</time>
      </trkpt>
      <trkpt lat="48.66528" lon="2.05388">
        <ele>172</ele>
        <time>2024-12-31T12:33:30.486Z</time>
      </trkpt>
      <trkpt lat="48.66532" lon="2.05387">
        <ele>172</ele>
        <time>2024-12-31T12:33:33.484Z</time>
      </trkpt>
      <trkpt lat="48.66537" lon="2.05385">
        <ele>172</ele>
        <time>2024-12-31T12:33:36.482Z</time>
      </trkpt>
      <trkpt lat="48.66541" lon="2.05384">
        <ele>172</ele>
        <time>2024-12-31T12:33:39.480Z</time>
      </trkpt>
      <trkpt lat="48.66546" lon="2.05383">
        <ele>172</ele>
        <time>2024-12-31T12:33:42.478Z</time>
      </trkpt>
      <trkpt lat="48.66551" lon="2.05382">
        <ele>172</ele>
        <time>2024-12-31T12:33:45.476Z</time>
      </trkpt>
      <trkpt lat="48.66555" lon="2.0538">
        <ele>172</ele>
        <time>2024-12-31T12:33:48.474Z</time>
      </trkpt>
      <trkpt lat="48.6656" lon="2.05379">
        <ele>172</ele>
        <time>2024-12-31T12:33:51.473Z</time>
      </trkpt>
      <trkpt lat="48.66564" lon="2.05378">
        <ele>172</ele>
        <time>2024-12-31T12:33:54.472Z</time>
      </trkpt>
      <trkpt lat="48.66569" lon="2.05376">
        <ele>172</ele>
        <time>2024-12-31T12:33:57.471Z</time>
      </trkpt>
      <trkpt lat="48.66573" lon="2.05375">
        <ele>172</ele>
        <time>2024-12-31T12:34:00.470Z</time>
      </trkpt>
      <trkpt lat="48.66578" lon="2.05374">
        <ele>172</ele>
        <time>2024-12-31T12:34:03.469Z</time>
      </trkpt>
      <trkpt lat="48.66582" lon="2.05372">
        <ele>172</ele>
        <time>2024-12-31T12:34:06.468Z</time>
      </trkpt>
      <trkpt lat="48.66587" lon="2.05371">
        <ele>172</ele>
        <time>2024-12-31T12:34:09.467Z</time>
      </trkpt>
      <trkpt lat="48.66592" lon="2.05368">
        <ele>172</ele>
        <time>2024-12-31T12:34:12.851Z</time>
      </trkpt>
      <trkpt lat="48.66597" lon="2.05365">
        <ele>172</ele>
        <time>2024-12-31T12:34:16.235Z</time>
      </trkpt>
      <trkpt lat="48.66602" lon="2.05362">
        <ele>172</ele>
        <time>2024-12-31T12:34:19.619Z</time>
      </trkpt>
      <trkpt lat="48.66608" lon="2.0536">
        <ele>172</ele>
        <time>2024-12-31T12:34:23.003Z</time>
      </trkpt>
      <trkpt lat="48.66613" lon="2.05357">
        <ele>171.9</ele>
        <time>2024-12-31T12:34:26.387Z</time>
      </trkpt>
      <trkpt lat="48.66618" lon="2.05354">
        <ele>171.8</ele>
        <time>2024-12-31T12:34:29.771Z</time>
      </trkpt>
      <trkpt lat="48.66623" lon="2.05351">
        <ele>171.6</ele>
        <time>2024-12-31T12:34:33.155Z</time>
      </trkpt>
      <trkpt lat="48.66628" lon="2.05348">
        <ele>171.4</ele>
        <time>2024-12-31T12:34:36.539Z</time>
      </trkpt>
      <trkpt lat="48.66633" lon="2.05343">
        <ele>171.2</ele>
        <time>2024-12-31T12:34:40.432Z</time>
      </trkpt>
      <trkpt lat="48.66639" lon="2.05339">
        <ele>171</ele>
        <time>2024-12-31T12:34:44.326Z</time>
      </trkpt>
      <trkpt lat="48.66644" lon="2.05334">
        <ele>171</ele>
        <time>2024-12-31T12:34:48.220Z</time>
      </trkpt>
      <trkpt lat="48.6665" lon="2.0533">
        <ele>171</ele>
        <time>2024-12-31T12:34:52.114Z</time>
      </trkpt>
      <trkpt lat="48.66655" lon="2.05325">
        <ele>171</ele>
        <time>2024-12-31T12:34:56.008Z</time>
      </trkpt>
      <trkpt lat="48.6666" lon="2.0532">
        <ele>171</ele>
        <time>2024-12-31T12:34:59.902Z</time>
      </trkpt>
      <trkpt lat="48.66666" lon="2.05316">
        <ele>171</ele>
        <time>2024-12-31T12:35:03.796Z</time>
      </trkpt>
      <trkpt lat="48.66671" lon="2.05311">
        <ele>171</ele>
        <time>2024-12-31T12:35:07.690Z</time>
      </trkpt>
      <trkpt lat="48.66676" lon="2.05308">
        <ele>171</ele>
        <time>2024-12-31T12:35:11.162Z</time>
      </trkpt>
      <trkpt lat="48.66681" lon="2.05305">
        <ele>171</ele>
        <time>2024-12-31T12:35:14.634Z</time>
      </trkpt>
      <trkpt lat="48.66686" lon="2.05302">
        <ele>171</ele>
        <time>2024-12-31T12:35:18.107Z</time>
      </trkpt>
      <trkpt lat="48.66691" lon="2.05299">
        <ele>171</ele>
        <time>2024-12-31T12:35:21.580Z</time>
      </trkpt>
      <trkpt lat="48.66696" lon="2.05298">
        <ele>171</ele>
        <time>2024-12-31T12:35:24.555Z</time>
      </trkpt>
      <trkpt lat="48.667" lon="2.05296">
        <ele>171</ele>
        <time>2024-12-31T12:35:27.530Z</time>
      </trkpt>
      <trkpt lat="48.66708" lon="2.05291">
        <ele>171</ele>
        <time>2024-12-31T12:35:32.910Z</time>
      </trkpt>
      <trkpt lat="48.66715" lon="2.05285">
        <ele>171</ele>
        <time>2024-12-31T12:35:38.290Z</time>
      </trkpt>
      <trkpt lat="48.66722" lon="2.05283">
        <ele>171</ele>
        <time>2024-12-31T12:35:42.595Z</time>
      </trkpt>
      <trkpt lat="48.66728" lon="2.05281">
        <ele>171</ele>
        <time>2024-12-31T12:35:46.900Z</time>
      </trkpt>
      <trkpt lat="48.66735" lon="2.05278">
        <ele>171</ele>
        <time>2024-12-31T12:35:51.205Z</time>
      </trkpt>
      <trkpt lat="48.66741" lon="2.05276">
        <ele>171</ele>
        <time>2024-12-31T12:35:55.510Z</time>
      </trkpt>
      <trkpt lat="48.66747" lon="2.05276">
        <ele>171</ele>
        <time>2024-12-31T12:35:59.067Z</time>
      </trkpt>
      <trkpt lat="48.66752" lon="2.05275">
        <ele>171</ele>
        <time>2024-12-31T12:36:02.625Z</time>
      </trkpt>
      <trkpt lat="48.6676" lon="2.05276">
        <ele>171</ele>
        <time>2024-12-31T12:36:07.978Z</time>
      </trkpt>
      <trkpt lat="48.66769" lon="2.05278">
        <ele>171</ele>
        <time>2024-12-31T12:36:13.331Z</time>
      </trkpt>
      <trkpt lat="48.66777" lon="2.05279">
        <ele>171</ele>
        <time>2024-12-31T12:36:18.684Z</time>
      </trkpt>
      <trkpt lat="48.66785" lon="2.0528">
        <ele>171</ele>
        <time>2024-12-31T12:36:24.037Z</time>
      </trkpt>
      <trkpt lat="48.6679" lon="2.0528">
        <ele>171</ele>
        <time>2024-12-31T12:36:27.267Z</time>
      </trkpt>
      <trkpt lat="48.66795" lon="2.05281">
        <ele>171</ele>
        <time>2024-12-31T12:36:30.497Z</time>
      </trkpt>
      <trkpt lat="48.668" lon="2.05281">
        <ele>171</ele>
        <time>2024-12-31T12:36:33.727Z</time>
      </trkpt>
      <trkpt lat="48.66805" lon="2.05281">
        <ele>171</ele>
        <time>2024-12-31T12:36:36.957Z</time>
      </trkpt>
      <trkpt lat="48.6681" lon="2.05281">
        <ele>171</ele>
        <time>2024-12-31T12:36:40.187Z</time>
      </trkpt>
      <trkpt lat="48.66815" lon="2.05282">
        <ele>171</ele>
        <time>2024-12-31T12:36:43.417Z</time>
      </trkpt>
      <trkpt lat="48.6682" lon="2.05282">
        <ele>171</ele>
        <time>2024-12-31T12:36:46.647Z</time>
      </trkpt>
      <trkpt lat="48.66825" lon="2.05282">
        <ele>171</ele>
        <time>2024-12-31T12:36:49.877Z</time>
      </trkpt>
      <trkpt lat="48.66829" lon="2.0528">
        <ele>171</ele>
        <time>2024-12-31T12:36:52.820Z</time>
      </trkpt>
      <trkpt lat="48.66834" lon="2.05277">
        <ele>171</ele>
        <time>2024-12-31T12:36:55.764Z</time>
      </trkpt>
      <trkpt lat="48.66838" lon="2.05275">
        <ele>171</ele>
        <time>2024-12-31T12:36:58.708Z</time>
      </trkpt>
      <trkpt lat="48.66842" lon="2.05272">
        <ele>171</ele>
        <time>2024-12-31T12:37:01.652Z</time>
      </trkpt>
      <trkpt lat="48.66846" lon="2.05267">
        <ele>171</ele>
        <time>2024-12-31T12:37:04.808Z</time>
      </trkpt>
      <trkpt lat="48.6685" lon="2.05263">
        <ele>171</ele>
        <time>2024-12-31T12:37:07.964Z</time>
      </trkpt>
      <trkpt lat="48.66853" lon="2.05258">
        <ele>171</ele>
        <time>2024-12-31T12:37:11.121Z</time>
      </trkpt>
      <trkpt lat="48.66857" lon="2.05253">
        <ele>171</ele>
        <time>2024-12-31T12:37:14.278Z</time>
      </trkpt>
      <trkpt lat="48.66858" lon="2.05245">
        <ele>171</ele>
        <time>2024-12-31T12:37:17.750Z</time>
      </trkpt>
      <trkpt lat="48.66859" lon="2.05237">
        <ele>171</ele>
        <time>2024-12-31T12:37:21.222Z</time>
      </trkpt>
      <trkpt lat="48.66861" lon="2.05231">
        <ele>171</ele>
        <time>2024-12-31T12:37:24.279Z</time>
      </trkpt>
      <trkpt lat="48.66863" lon="2.05224">
        <ele>171</ele>
        <time>2024-12-31T12:37:27.337Z</time>
      </trkpt>
      <trkpt lat="48.66867" lon="2.05213">
        <ele>170.7</ele>
        <time>2024-12-31T12:37:32.438Z</time>
      </trkpt>
      <trkpt lat="48.66872" lon="2.05203">
        <ele>170.6</ele>
        <time>2024-12-31T12:37:37.539Z</time>
      </trkpt>
      <trkpt lat="48.66876" lon="2.05192">
        <ele>170.5</ele>
        <time>2024-12-31T12:37:42.641Z</time>
      </trkpt>
      <trkpt lat="48.6688" lon="2.05181">
        <ele>170.5</ele>
        <time>2024-12-31T12:37:47.743Z</time>
      </trkpt>
      <trkpt lat="48.66883" lon="2.05174">
        <ele>170.4</ele>
        <time>2024-12-31T12:37:51.163Z</time>
      </trkpt>
      <trkpt lat="48.66886" lon="2.05166">
        <ele>170.1</ele>
        <time>2024-12-31T12:37:54.584Z</time>
      </trkpt>
      <trkpt lat="48.66888" lon="2.05159">
        <ele>170</ele>
        <time>2024-12-31T12:37:58.005Z</time>
      </trkpt>
      <trkpt lat="48.66891" lon="2.05151">
        <ele>170</ele>
        <time>2024-12-31T12:38:01.426Z</time>
      </trkpt>
      <trkpt lat="48.66896" lon="2.05155">
        <ele>169.9</ele>
        <time>2024-12-31T12:38:04.412Z</time>
      </trkpt>
      <trkpt lat="48.669" lon="2.05158">
        <ele>169.7</ele>
        <time>2024-12-31T12:38:07.399Z</time>
      </trkpt>
      <trkpt lat="48.66905" lon="2.05163">
        <ele>169.5</ele>
        <time>2024-12-31T12:38:11.325Z</time>
      </trkpt>
      <trkpt lat="48.66911" lon="2.05168">
        <ele>169.2</ele>
        <time>2024-12-31T12:38:15.252Z</time>
      </trkpt>
      <trkpt lat="48.66916" lon="2.05173">
        <ele>169</ele>
        <time>2024-12-31T12:38:19.179Z</time>
      </trkpt>
      <trkpt lat="48.66921" lon="2.05178">
        <ele>169</ele>
        <time>2024-12-31T12:38:23.106Z</time>
      </trkpt>
      <trkpt lat="48.66926" lon="2.05182">
        <ele>169</ele>
        <time>2024-12-31T12:38:27.033Z</time>
      </trkpt>
      <trkpt lat="48.66932" lon="2.05187">
        <ele>169</ele>
        <time>2024-12-31T12:38:30.960Z</time>
      </trkpt>
      <trkpt lat="48.66937" lon="2.05192">
        <ele>169</ele>
        <time>2024-12-31T12:38:34.887Z</time>
      </trkpt>
      <trkpt lat="48.66942" lon="2.05197">
        <ele>169</ele>
        <time>2024-12-31T12:38:38.814Z</time>
      </trkpt>
      <trkpt lat="48.66947" lon="2.05202">
        <ele>169</ele>
        <time>2024-12-31T12:38:42.741Z</time>
      </trkpt>
      <trkpt lat="48.66953" lon="2.05207">
        <ele>169</ele>
        <time>2024-12-31T12:38:46.668Z</time>
      </trkpt>
      <trkpt lat="48.66958" lon="2.05212">
        <ele>169</ele>
        <time>2024-12-31T12:38:50.595Z</time>
      </trkpt>
      <trkpt lat="48.66963" lon="2.05217">
        <ele>169</ele>
        <time>2024-12-31T12:38:54.522Z</time>
      </trkpt>
      <trkpt lat="48.66968" lon="2.05221">
        <ele>169</ele>
        <time>2024-12-31T12:38:58.449Z</time>
      </trkpt>
      <trkpt lat="48.66974" lon="2.05226">
        <ele>169.1</ele>
        <time>2024-12-31T12:39:02.376Z</time>
      </trkpt>
      <trkpt lat="48.66979" lon="2.05231">
        <ele>169.2</ele>
        <time>2024-12-31T12:39:06.303Z</time>
      </trkpt>
      <trkpt lat="48.66984" lon="2.05236">
        <ele>169.3</ele>
        <time>2024-12-31T12:39:10.230Z</time>
      </trkpt>
      <trkpt lat="48.66991" lon="2.05241">
        <ele>169.2</ele>
        <time>2024-12-31T12:39:14.731Z</time>
      </trkpt>
      <trkpt lat="48.66997" lon="2.05246">
        <ele>169.1</ele>
        <time>2024-12-31T12:39:19.233Z</time>
      </trkpt>
      <trkpt lat="48.67004" lon="2.05251">
        <ele>169</ele>
        <time>2024-12-31T12:39:23.735Z</time>
      </trkpt>
      <trkpt lat="48.6701" lon="2.05256">
        <ele>169</ele>
        <time>2024-12-31T12:39:28.237Z</time>
      </trkpt>
      <trkpt lat="48.67017" lon="2.0526">
        <ele>169</ele>
        <time>2024-12-31T12:39:32.739Z</time>
      </trkpt>
      <trkpt lat="48.67023" lon="2.05265">
        <ele>169</ele>
        <time>2024-12-31T12:39:37.241Z</time>
      </trkpt>
      <trkpt lat="48.6703" lon="2.0527">
        <ele>169</ele>
        <time>2024-12-31T12:39:41.743Z</time>
      </trkpt>
      <trkpt lat="48.67036" lon="2.05275">
        <ele>169</ele>
        <time>2024-12-31T12:39:46.245Z</time>
      </trkpt>
      <trkpt lat="48.67043" lon="2.0528">
        <ele>169</ele>
        <time>2024-12-31T12:39:50.747Z</time>
      </trkpt>
      <trkpt lat="48.67049" lon="2.05285">
        <ele>169</ele>
        <time>2024-12-31T12:39:55.249Z</time>
      </trkpt>
      <trkpt lat="48.67056" lon="2.0529">
        <ele>169</ele>
        <time>2024-12-31T12:39:59.751Z</time>
      </trkpt>
      <trkpt lat="48.67062" lon="2.05295">
        <ele>168.8</ele>
        <time>2024-12-31T12:40:04.253Z</time>
      </trkpt>
      <trkpt lat="48.67069" lon="2.05299">
        <ele>168.5</ele>
        <time>2024-12-31T12:40:08.755Z</time>
      </trkpt>
      <trkpt lat="48.67075" lon="2.05304">
        <ele>168.3</ele>
        <time>2024-12-31T12:40:13.257Z</time>
      </trkpt>
      <trkpt lat="48.67082" lon="2.05309">
        <ele>168.1</ele>
        <time>2024-12-31T12:40:17.759Z</time>
      </trkpt>
      <trkpt lat="48.67088" lon="2.05314">
        <ele>167.8</ele>
        <time>2024-12-31T12:40:22.261Z</time>
      </trkpt>
      <trkpt lat="48.67095" lon="2.05318">
        <ele>167.6</ele>
        <time>2024-12-31T12:40:26.340Z</time>
      </trkpt>
      <trkpt lat="48.67101" lon="2.05322">
        <ele>167.4</ele>
        <time>2024-12-31T12:40:30.420Z</time>
      </trkpt>
      <trkpt lat="48.67108" lon="2.05326">
        <ele>167.1</ele>
        <time>2024-12-31T12:40:34.500Z</time>
      </trkpt>
      <trkpt lat="48.67115" lon="2.0533">
        <ele>166.9</ele>
        <time>2024-12-31T12:40:38.580Z</time>
      </trkpt>
      <trkpt lat="48.67121" lon="2.05334">
        <ele>166.6</ele>
        <time>2024-12-31T12:40:42.660Z</time>
      </trkpt>
      <trkpt lat="48.67128" lon="2.05338">
        <ele>166.2</ele>
        <time>2024-12-31T12:40:46.740Z</time>
      </trkpt>
      <trkpt lat="48.67134" lon="2.05342">
        <ele>165.8</ele>
        <time>2024-12-31T12:40:50.820Z</time>
      </trkpt>
      <trkpt lat="48.67141" lon="2.05346">
        <ele>165.5</ele>
        <time>2024-12-31T12:40:54.900Z</time>
      </trkpt>
      <trkpt lat="48.67147" lon="2.05347">
        <ele>165.5</ele>
        <time>2024-12-31T12:40:58.828Z</time>
      </trkpt>
      <trkpt lat="48.67153" lon="2.05348">
        <ele>165.5</ele>
        <time>2024-12-31T12:41:02.756Z</time>
      </trkpt>
      <trkpt lat="48.67159" lon="2.05349">
        <ele>165.4</ele>
        <time>2024-12-31T12:41:06.684Z</time>
      </trkpt>
      <trkpt lat="48.67166" lon="2.0535">
        <ele>165.4</ele>
        <time>2024-12-31T12:41:10.612Z</time>
      </trkpt>
      <trkpt lat="48.67172" lon="2.05351">
        <ele>165.4</ele>
        <time>2024-12-31T12:41:14.540Z</time>
      </trkpt>
      <trkpt lat="48.67178" lon="2.05352">
        <ele>165.3</ele>
        <time>2024-12-31T12:41:18.468Z</time>
      </trkpt>
      <trkpt lat="48.67184" lon="2.05353">
        <ele>165.3</ele>
        <time>2024-12-31T12:41:22.397Z</time>
      </trkpt>
      <trkpt lat="48.6719" lon="2.05354">
        <ele>165.3</ele>
        <time>2024-12-31T12:41:26.326Z</time>
      </trkpt>
      <trkpt lat="48.67195" lon="2.05354">
        <ele>165.3</ele>
        <time>2024-12-31T12:41:29.771Z</time>
      </trkpt>
      <trkpt lat="48.67201" lon="2.05354">
        <ele>165.3</ele>
        <time>2024-12-31T12:41:33.216Z</time>
      </trkpt>
      <trkpt lat="48.67206" lon="2.05354">
        <ele>165.3</ele>
        <time>2024-12-31T12:41:36.661Z</time>
      </trkpt>
      <trkpt lat="48.67212" lon="2.05354">
        <ele>165.3</ele>
        <time>2024-12-31T12:41:40.106Z</time>
      </trkpt>
      <trkpt lat="48.67217" lon="2.05354">
        <ele>165.3</ele>
        <time>2024-12-31T12:41:43.552Z</time>
      </trkpt>
      <trkpt lat="48.67222" lon="2.05354">
        <ele>165.3</ele>
        <time>2024-12-31T12:41:46.998Z</time>
      </trkpt>
      <trkpt lat="48.67228" lon="2.05354">
        <ele>165.2</ele>
        <time>2024-12-31T12:41:50.444Z</time>
      </trkpt>
      <trkpt lat="48.67233" lon="2.05354">
        <ele>165.2</ele>
        <time>2024-12-31T12:41:53.890Z</time>
      </trkpt>
      <trkpt lat="48.6724" lon="2.05353">
        <ele>165.1</ele>
        <time>2024-12-31T12:41:58.141Z</time>
      </trkpt>
      <trkpt lat="48.67247" lon="2.05351">
        <ele>165</ele>
        <time>2024-12-31T12:42:02.393Z</time>
      </trkpt>
      <trkpt lat="48.67254" lon="2.0535">
        <ele>164.9</ele>
        <time>2024-12-31T12:42:06.645Z</time>
      </trkpt>
      <trkpt lat="48.67261" lon="2.05349">
        <ele>164.8</ele>
        <time>2024-12-31T12:42:10.897Z</time>
      </trkpt>
      <trkpt lat="48.67268" lon="2.05347">
        <ele>164.7</ele>
        <time>2024-12-31T12:42:15.149Z</time>
      </trkpt>
      <trkpt lat="48.67275" lon="2.05346">
        <ele>164.6</ele>
        <time>2024-12-31T12:42:19.401Z</time>
      </trkpt>
      <trkpt lat="48.67282" lon="2.05345">
        <ele>164.4</ele>
        <time>2024-12-31T12:42:23.653Z</time>
      </trkpt>
      <trkpt lat="48.67289" lon="2.05344">
        <ele>164.2</ele>
        <time>2024-12-31T12:42:27.905Z</time>
      </trkpt>
      <trkpt lat="48.67295" lon="2.05342">
        <ele>164</ele>
        <time>2024-12-31T12:42:32.157Z</time>
      </trkpt>
      <trkpt lat="48.67302" lon="2.05341">
        <ele>163.8</ele>
        <time>2024-12-31T12:42:36.409Z</time>
      </trkpt>
      <trkpt lat="48.67309" lon="2.0534">
        <ele>163.7</ele>
        <time>2024-12-31T12:42:40.661Z</time>
      </trkpt>
      <trkpt lat="48.67316" lon="2.05338">
        <ele>163.5</ele>
        <time>2024-12-31T12:42:44.913Z</time>
      </trkpt>
      <trkpt lat="48.67323" lon="2.05337">
        <ele>163.3</ele>
        <time>2024-12-31T12:42:49.165Z</time>
      </trkpt>
      <trkpt lat="48.6733" lon="2.05336">
        <ele>163.1</ele>
        <time>2024-12-31T12:42:53.417Z</time>
      </trkpt>
      <trkpt lat="48.67337" lon="2.05334">
        <ele>163</ele>
        <time>2024-12-31T12:42:57.669Z</time>
      </trkpt>
      <trkpt lat="48.67344" lon="2.05333">
        <ele>163</ele>
        <time>2024-12-31T12:43:01.921Z</time>
      </trkpt>
      <trkpt lat="48.67352" lon="2.0533">
        <ele>163.1</ele>
        <time>2024-12-31T12:43:06.764Z</time>
      </trkpt>
      <trkpt lat="48.67359" lon="2.05327">
        <ele>163.2</ele>
        <time>2024-12-31T12:43:11.607Z</time>
      </trkpt>
      <trkpt lat="48.67367" lon="2.05323">
        <ele>163</ele>
        <time>2024-12-31T12:43:16.450Z</time>
      </trkpt>
      <trkpt lat="48.67374" lon="2.0532">
        <ele>162.6</ele>
        <time>2024-12-31T12:43:21.294Z</time>
      </trkpt>
      <trkpt lat="48.6738" lon="2.05317">
        <ele>162.2</ele>
        <time>2024-12-31T12:43:24.619Z</time>
      </trkpt>
      <trkpt lat="48.67385" lon="2.05315">
        <ele>161.9</ele>
        <time>2024-12-31T12:43:27.944Z</time>
      </trkpt>
      <trkpt lat="48.67391" lon="2.05312">
        <ele>161.5</ele>
        <time>2024-12-31T12:43:31.269Z</time>
      </trkpt>
      <trkpt lat="48.67397" lon="2.0531">
        <ele>161</ele>
        <time>2024-12-31T12:43:34.594Z</time>
      </trkpt>
      <trkpt lat="48.67402" lon="2.05307">
        <ele>160.5</ele>
        <time>2024-12-31T12:43:37.919Z</time>
      </trkpt>
      <trkpt lat="48.67408" lon="2.05304">
        <ele>160</ele>
        <time>2024-12-31T12:43:41.244Z</time>
      </trkpt>
      <trkpt lat="48.67413" lon="2.05302">
        <ele>159.6</ele>
        <time>2024-12-31T12:43:44.569Z</time>
      </trkpt>
      <trkpt lat="48.67419" lon="2.05299">
        <ele>159.2</ele>
        <time>2024-12-31T12:43:47.894Z</time>
      </trkpt>
      <trkpt lat="48.67425" lon="2.05296">
        <ele>158.6</ele>
        <time>2024-12-31T12:43:51.219Z</time>
      </trkpt>
      <trkpt lat="48.6743" lon="2.05294">
        <ele>158.1</ele>
        <time>2024-12-31T12:43:54.544Z</time>
      </trkpt>
      <trkpt lat="48.67436" lon="2.05291">
        <ele>157.6</ele>
        <time>2024-12-31T12:43:57.869Z</time>
      </trkpt>
      <trkpt lat="48.67442" lon="2.05289">
        <ele>157.2</ele>
        <time>2024-12-31T12:44:01.194Z</time>
      </trkpt>
      <trkpt lat="48.67447" lon="2.05286">
        <ele>156.8</ele>
        <time>2024-12-31T12:44:04.519Z</time>
      </trkpt>
      <trkpt lat="48.67453" lon="2.05283">
        <ele>156.5</ele>
        <time>2024-12-31T12:44:07.845Z</time>
      </trkpt>
      <trkpt lat="48.67458" lon="2.05281">
        <ele>156.2</ele>
        <time>2024-12-31T12:44:11.171Z</time>
      </trkpt>
      <trkpt lat="48.67464" lon="2.05278">
        <ele>155.9</ele>
        <time>2024-12-31T12:44:14.497Z</time>
      </trkpt>
      <trkpt lat="48.67469" lon="2.05275">
        <ele>155.6</ele>
        <time>2024-12-31T12:44:17.328Z</time>
      </trkpt>
      <trkpt lat="48.67473" lon="2.05273">
        <ele>155.4</ele>
        <time>2024-12-31T12:44:20.159Z</time>
      </trkpt>
      <trkpt lat="48.67478" lon="2.0527">
        <ele>155</ele>
        <time>2024-12-31T12:44:22.990Z</time>
      </trkpt>
      <trkpt lat="48.67483" lon="2.05267">
        <ele>154.6</ele>
        <time>2024-12-31T12:44:25.821Z</time>
      </trkpt>
      <trkpt lat="48.67487" lon="2.05265">
        <ele>154.2</ele>
        <time>2024-12-31T12:44:28.652Z</time>
      </trkpt>
      <trkpt lat="48.67492" lon="2.05262">
        <ele>153.9</ele>
        <time>2024-12-31T12:44:31.483Z</time>
      </trkpt>
      <trkpt lat="48.67497" lon="2.05259">
        <ele>153.5</ele>
        <time>2024-12-31T12:44:34.314Z</time>
      </trkpt>
      <trkpt lat="48.67502" lon="2.05257">
        <ele>153.1</ele>
        <time>2024-12-31T12:44:37.146Z</time>
      </trkpt>
      <trkpt lat="48.67506" lon="2.05254">
        <ele>152.9</ele>
        <time>2024-12-31T12:44:39.978Z</time>
      </trkpt>
      <trkpt lat="48.67511" lon="2.05251">
        <ele>152.7</ele>
        <time>2024-12-31T12:44:42.810Z</time>
      </trkpt>
      <trkpt lat="48.67516" lon="2.05248">
        <ele>152.5</ele>
        <time>2024-12-31T12:44:45.642Z</time>
      </trkpt>
      <trkpt lat="48.6752" lon="2.05246">
        <ele>152.2</ele>
        <time>2024-12-31T12:44:48.474Z</time>
      </trkpt>
      <trkpt lat="48.67525" lon="2.05243">
        <ele>152</ele>
        <time>2024-12-31T12:44:51.306Z</time>
      </trkpt>
      <trkpt lat="48.6753" lon="2.0524">
        <ele>151.9</ele>
        <time>2024-12-31T12:44:54.138Z</time>
      </trkpt>
      <trkpt lat="48.67534" lon="2.05238">
        <ele>151.9</ele>
        <time>2024-12-31T12:44:56.970Z</time>
      </trkpt>
      <trkpt lat="48.67539" lon="2.05235">
        <ele>151.8</ele>
        <time>2024-12-31T12:44:59.802Z</time>
      </trkpt>
      <trkpt lat="48.67547" lon="2.05232">
        <ele>151.6</ele>
        <time>2024-12-31T12:45:04.298Z</time>
      </trkpt>
      <trkpt lat="48.67555" lon="2.0523">
        <ele>151.3</ele>
        <time>2024-12-31T12:45:08.795Z</time>
      </trkpt>
      <trkpt lat="48.67562" lon="2.05227">
        <ele>150.8</ele>
        <time>2024-12-31T12:45:13.292Z</time>
      </trkpt>
      <trkpt lat="48.6757" lon="2.05224">
        <ele>150.2</ele>
        <time>2024-12-31T12:45:17.789Z</time>
      </trkpt>
      <trkpt lat="48.67578" lon="2.05221">
        <ele>149.7</ele>
        <time>2024-12-31T12:45:22.286Z</time>
      </trkpt>
      <trkpt lat="48.67586" lon="2.05219">
        <ele>149.3</ele>
        <time>2024-12-31T12:45:26.783Z</time>
      </trkpt>
      <trkpt lat="48.67593" lon="2.05216">
        <ele>149.2</ele>
        <time>2024-12-31T12:45:31.280Z</time>
      </trkpt>
      <trkpt lat="48.67601" lon="2.05213">
        <ele>148.9</ele>
        <time>2024-12-31T12:45:35.777Z</time>
      </trkpt>
      <trkpt lat="48.67606" lon="2.05213">
        <ele>148.6</ele>
        <time>2024-12-31T12:45:38.693Z</time>
      </trkpt>
      <trkpt lat="48.67611" lon="2.05213">
        <ele>148.3</ele>
        <time>2024-12-31T12:45:41.609Z</time>
      </trkpt>
      <trkpt lat="48.67616" lon="2.05213">
        <ele>148.2</ele>
        <time>2024-12-31T12:45:44.525Z</time>
      </trkpt>
      <trkpt lat="48.67621" lon="2.05213">
        <ele>148</ele>
        <time>2024-12-31T12:45:47.441Z</time>
      </trkpt>
      <trkpt lat="48.67626" lon="2.05212">
        <ele>147.8</ele>
        <time>2024-12-31T12:45:50.357Z</time>
      </trkpt>
      <trkpt lat="48.67631" lon="2.05212">
        <ele>147.6</ele>
        <time>2024-12-31T12:45:53.273Z</time>
      </trkpt>
      <trkpt lat="48.67636" lon="2.05212">
        <ele>147.5</ele>
        <time>2024-12-31T12:45:56.189Z</time>
      </trkpt>
      <trkpt lat="48.67641" lon="2.05212">
        <ele>147.3</ele>
        <time>2024-12-31T12:45:59.105Z</time>
      </trkpt>
      <trkpt lat="48.67646" lon="2.05212">
        <ele>147.1</ele>
        <time>2024-12-31T12:46:02.021Z</time>
      </trkpt>
      <trkpt lat="48.67651" lon="2.05212">
        <ele>146.9</ele>
        <time>2024-12-31T12:46:04.937Z</time>
      </trkpt>
      <trkpt lat="48.67656" lon="2.05212">
        <ele>146.8</ele>
        <time>2024-12-31T12:46:07.853Z</time>
      </trkpt>
      <trkpt lat="48.67661" lon="2.05212">
        <ele>146.6</ele>
        <time>2024-12-31T12:46:10.770Z</time>
      </trkpt>
      <trkpt lat="48.67666" lon="2.05211">
        <ele>146.4</ele>
        <time>2024-12-31T12:46:13.687Z</time>
      </trkpt>
      <trkpt lat="48.67671" lon="2.05211">
        <ele>146.3</ele>
        <time>2024-12-31T12:46:16.604Z</time>
      </trkpt>
      <trkpt lat="48.67676" lon="2.05211">
        <ele>146.3</ele>
        <time>2024-12-31T12:46:19.521Z</time>
      </trkpt>
      <trkpt lat="48.67681" lon="2.05211">
        <ele>146.2</ele>
        <time>2024-12-31T12:46:22.438Z</time>
      </trkpt>
      <trkpt lat="48.67686" lon="2.05212">
        <ele>146.1</ele>
        <time>2024-12-31T12:46:25.564Z</time>
      </trkpt>
      <trkpt lat="48.6769" lon="2.05212">
        <ele>146.1</ele>
        <time>2024-12-31T12:46:28.690Z</time>
      </trkpt>
      <trkpt lat="48.67695" lon="2.05213">
        <ele>146</ele>
        <time>2024-12-31T12:46:31.816Z</time>
      </trkpt>
      <trkpt lat="48.67699" lon="2.05214">
        <ele>146.2</ele>
        <time>2024-12-31T12:46:34.942Z</time>
      </trkpt>
      <trkpt lat="48.67704" lon="2.05214">
        <ele>146.4</ele>
        <time>2024-12-31T12:46:38.068Z</time>
      </trkpt>
      <trkpt lat="48.67708" lon="2.05215">
        <ele>146.6</ele>
        <time>2024-12-31T12:46:41.194Z</time>
      </trkpt>
      <trkpt lat="48.67713" lon="2.05215">
        <ele>146.8</ele>
        <time>2024-12-31T12:46:44.320Z</time>
      </trkpt>
      <trkpt lat="48.67717" lon="2.05216">
        <ele>147</ele>
        <time>2024-12-31T12:46:47.447Z</time>
      </trkpt>
      <trkpt lat="48.67723" lon="2.05218">
        <ele>147.2</ele>
        <time>2024-12-31T12:46:52.136Z</time>
      </trkpt>
      <trkpt lat="48.6773" lon="2.05221">
        <ele>147.6</ele>
        <time>2024-12-31T12:46:56.825Z</time>
      </trkpt>
      <trkpt lat="48.67736" lon="2.05223">
        <ele>147.9</ele>
        <time>2024-12-31T12:47:01.515Z</time>
      </trkpt>
      <trkpt lat="48.67742" lon="2.05225">
        <ele>148</ele>
        <time>2024-12-31T12:47:06.205Z</time>
      </trkpt>
      <trkpt lat="48.67748" lon="2.05227">
        <ele>148.1</ele>
        <time>2024-12-31T12:47:10.245Z</time>
      </trkpt>
      <trkpt lat="48.67754" lon="2.0523">
        <ele>148.2</ele>
        <time>2024-12-31T12:47:14.285Z</time>
      </trkpt>
      <trkpt lat="48.67759" lon="2.05232">
        <ele>148.3</ele>
        <time>2024-12-31T12:47:18.326Z</time>
      </trkpt>
      <trkpt lat="48.67765" lon="2.05234">
        <ele>148.4</ele>
        <time>2024-12-31T12:47:22.367Z</time>
      </trkpt>
      <trkpt lat="48.6777" lon="2.05237">
        <ele>148.3</ele>
        <time>2024-12-31T12:47:25.829Z</time>
      </trkpt>
      <trkpt lat="48.67774" lon="2.0524">
        <ele>148.2</ele>
        <time>2024-12-31T12:47:29.291Z</time>
      </trkpt>
      <trkpt lat="48.67779" lon="2.05243">
        <ele>148.2</ele>
        <time>2024-12-31T12:47:32.754Z</time>
      </trkpt>
      <trkpt lat="48.67784" lon="2.05246">
        <ele>148.5</ele>
        <time>2024-12-31T12:47:36.217Z</time>
      </trkpt>
      <trkpt lat="48.67788" lon="2.05248">
        <ele>148.8</ele>
        <time>2024-12-31T12:47:39.680Z</time>
      </trkpt>
      <trkpt lat="48.67793" lon="2.05251">
        <ele>149</ele>
        <time>2024-12-31T12:47:43.143Z</time>
      </trkpt>
      <trkpt lat="48.67797" lon="2.05254">
        <ele>149.1</ele>
        <time>2024-12-31T12:47:46.606Z</time>
      </trkpt>
      <trkpt lat="48.67802" lon="2.05257">
        <ele>149.3</ele>
        <time>2024-12-31T12:47:50.069Z</time>
      </trkpt>
      <trkpt lat="48.67809" lon="2.05262">
        <ele>149.1</ele>
        <time>2024-12-31T12:47:54.520Z</time>
      </trkpt>
      <trkpt lat="48.67815" lon="2.05268">
        <ele>148.7</ele>
        <time>2024-12-31T12:47:58.972Z</time>
      </trkpt>
      <trkpt lat="48.67822" lon="2.05273">
        <ele>148.2</ele>
        <time>2024-12-31T12:48:03.424Z</time>
      </trkpt>
      <trkpt lat="48.67829" lon="2.05278">
        <ele>147.6</ele>
        <time>2024-12-31T12:48:07.876Z</time>
      </trkpt>
      <trkpt lat="48.67835" lon="2.05283">
        <ele>147.5</ele>
        <time>2024-12-31T12:48:12.328Z</time>
      </trkpt>
      <trkpt lat="48.67842" lon="2.05289">
        <ele>147.7</ele>
        <time>2024-12-31T12:48:16.780Z</time>
      </trkpt>
      <trkpt lat="48.67848" lon="2.05294">
        <ele>147.8</ele>
        <time>2024-12-31T12:48:21.232Z</time>
      </trkpt>
      <trkpt lat="48.67855" lon="2.05299">
        <ele>147.7</ele>
        <time>2024-12-31T12:48:25.684Z</time>
      </trkpt>
      <trkpt lat="48.6786" lon="2.05303">
        <ele>147.6</ele>
        <time>2024-12-31T12:48:29.153Z</time>
      </trkpt>
      <trkpt lat="48.67865" lon="2.05306">
        <ele>147.7</ele>
        <time>2024-12-31T12:48:32.622Z</time>
      </trkpt>
      <trkpt lat="48.67871" lon="2.0531">
        <ele>147.9</ele>
        <time>2024-12-31T12:48:36.091Z</time>
      </trkpt>
      <trkpt lat="48.67876" lon="2.05313">
        <ele>148</ele>
        <time>2024-12-31T12:48:39.560Z</time>
      </trkpt>
      <trkpt lat="48.67881" lon="2.05317">
        <ele>148</ele>
        <time>2024-12-31T12:48:43.029Z</time>
      </trkpt>
      <trkpt lat="48.67886" lon="2.0532">
        <ele>147.9</ele>
        <time>2024-12-31T12:48:46.498Z</time>
      </trkpt>
      <trkpt lat="48.67891" lon="2.05324">
        <ele>147.9</ele>
        <time>2024-12-31T12:48:49.967Z</time>
      </trkpt>
      <trkpt lat="48.67897" lon="2.05327">
        <ele>147.9</ele>
        <time>2024-12-31T12:48:53.436Z</time>
      </trkpt>
      <trkpt lat="48.67902" lon="2.05331">
        <ele>147.9</ele>
        <time>2024-12-31T12:48:56.905Z</time>
      </trkpt>
      <trkpt lat="48.67907" lon="2.05334">
        <ele>148</ele>
        <time>2024-12-31T12:49:00.374Z</time>
      </trkpt>
      <trkpt lat="48.67912" lon="2.05338">
        <ele>147.9</ele>
        <time>2024-12-31T12:49:03.843Z</time>
      </trkpt>
      <trkpt lat="48.67917" lon="2.05341">
        <ele>147.8</ele>
        <time>2024-12-31T12:49:07.312Z</time>
      </trkpt>
      <trkpt lat="48.67922" lon="2.05345">
        <ele>147.6</ele>
        <time>2024-12-31T12:49:10.781Z</time>
      </trkpt>
      <trkpt lat="48.67928" lon="2.05348">
        <ele>147.4</ele>
        <time>2024-12-31T12:49:14.250Z</time>
      </trkpt>
      <trkpt lat="48.67933" lon="2.05352">
        <ele>147.3</ele>
        <time>2024-12-31T12:49:17.719Z</time>
      </trkpt>
      <trkpt lat="48.67938" lon="2.05356">
        <ele>147.3</ele>
        <time>2024-12-31T12:49:21.188Z</time>
      </trkpt>
      <trkpt lat="48.67943" lon="2.05359">
        <ele>147.3</ele>
        <time>2024-12-31T12:49:24.657Z</time>
      </trkpt>
      <trkpt lat="48.67948" lon="2.05363">
        <ele>147.2</ele>
        <time>2024-12-31T12:49:28.126Z</time>
      </trkpt>
      <trkpt lat="48.67954" lon="2.05366">
        <ele>147.1</ele>
        <time>2024-12-31T12:49:31.595Z</time>
      </trkpt>
      <trkpt lat="48.67959" lon="2.0537">
        <ele>146.9</ele>
        <time>2024-12-31T12:49:35.064Z</time>
      </trkpt>
      <trkpt lat="48.67964" lon="2.05373">
        <ele>146.8</ele>
        <time>2024-12-31T12:49:38.533Z</time>
      </trkpt>
      <trkpt lat="48.67969" lon="2.05377">
        <ele>146.6</ele>
        <time>2024-12-31T12:49:42.002Z</time>
      </trkpt>
      <trkpt lat="48.67974" lon="2.0538">
        <ele>146.4</ele>
        <time>2024-12-31T12:49:45.471Z</time>
      </trkpt>
      <trkpt lat="48.6798" lon="2.05384">
        <ele>146</ele>
        <time>2024-12-31T12:49:48.940Z</time>
      </trkpt>
      <trkpt lat="48.67985" lon="2.05387">
        <ele>145.7</ele>
        <time>2024-12-31T12:49:52.409Z</time>
      </trkpt>
      <trkpt lat="48.6799" lon="2.05391">
        <ele>145.5</ele>
        <time>2024-12-31T12:49:55.878Z</time>
      </trkpt>
      <trkpt lat="48.67995" lon="2.05394">
        <ele>145.3</ele>
        <time>2024-12-31T12:49:59.347Z</time>
      </trkpt>
      <trkpt lat="48.68" lon="2.05398">
        <ele>145.1</ele>
        <time>2024-12-31T12:50:02.816Z</time>
      </trkpt>
      <trkpt lat="48.68005" lon="2.05401">
        <ele>144.9</ele>
        <time>2024-12-31T12:50:06.285Z</time>
      </trkpt>
      <trkpt lat="48.68011" lon="2.05405">
        <ele>144.7</ele>
        <time>2024-12-31T12:50:09.755Z</time>
      </trkpt>
      <trkpt lat="48.68016" lon="2.05409">
        <ele>144.5</ele>
        <time>2024-12-31T12:50:13.225Z</time>
      </trkpt>
      <trkpt lat="48.68021" lon="2.05412">
        <ele>144.3</ele>
        <time>2024-12-31T12:50:16.695Z</time>
      </trkpt>
      <trkpt lat="48.68029" lon="2.05417">
        <ele>144.1</ele>
        <time>2024-12-31T12:50:22.057Z</time>
      </trkpt>
      <trkpt lat="48.68036" lon="2.05422">
        <ele>144.4</ele>
        <time>2024-12-31T12:50:27.419Z</time>
      </trkpt>
      <trkpt lat="48.68044" lon="2.05427">
        <ele>144.7</ele>
        <time>2024-12-31T12:50:32.781Z</time>
      </trkpt>
      <trkpt lat="48.68051" lon="2.05433">
        <ele>144.9</ele>
        <time>2024-12-31T12:50:38.143Z</time>
      </trkpt>
      <trkpt lat="48.68059" lon="2.05438">
        <ele>144.9</ele>
        <time>2024-12-31T12:50:43.505Z</time>
      </trkpt>
      <trkpt lat="48.68066" lon="2.05443">
        <ele>144.8</ele>
        <time>2024-12-31T12:50:48.868Z</time>
      </trkpt>
      <trkpt lat="48.68074" lon="2.05448">
        <ele>144.8</ele>
        <time>2024-12-31T12:50:54.231Z</time>
      </trkpt>
      <trkpt lat="48.68081" lon="2.05453">
        <ele>144.5</ele>
        <time>2024-12-31T12:50:59.594Z</time>
      </trkpt>
      <trkpt lat="48.68086" lon="2.05458">
        <ele>144</ele>
        <time>2024-12-31T12:51:02.979Z</time>
      </trkpt>
      <trkpt lat="48.68091" lon="2.05463">
        <ele>143.6</ele>
        <time>2024-12-31T12:51:06.364Z</time>
      </trkpt>
      <trkpt lat="48.68095" lon="2.05467">
        <ele>143.4</ele>
        <time>2024-12-31T12:51:09.106Z</time>
      </trkpt>
      <trkpt lat="48.68099" lon="2.05471">
        <ele>143.2</ele>
        <time>2024-12-31T12:51:11.848Z</time>
      </trkpt>
      <trkpt lat="48.68103" lon="2.05475">
        <ele>143</ele>
        <time>2024-12-31T12:51:14.590Z</time>
      </trkpt>
      <trkpt lat="48.68108" lon="2.05479">
        <ele>142.8</ele>
        <time>2024-12-31T12:51:17.332Z</time>
      </trkpt>
      <trkpt lat="48.68112" lon="2.05482">
        <ele>142.5</ele>
        <time>2024-12-31T12:51:20.074Z</time>
      </trkpt>
      <trkpt lat="48.68116" lon="2.05486">
        <ele>142.3</ele>
        <time>2024-12-31T12:51:22.816Z</time>
      </trkpt>
      <trkpt lat="48.6812" lon="2.0549">
        <ele>142.1</ele>
        <time>2024-12-31T12:51:25.558Z</time>
      </trkpt>
      <trkpt lat="48.68124" lon="2.05494">
        <ele>141.8</ele>
        <time>2024-12-31T12:51:28.301Z</time>
      </trkpt>
      <trkpt lat="48.6813" lon="2.05501">
        <ele>141.2</ele>
        <time>2024-12-31T12:51:32.551Z</time>
      </trkpt>
      <trkpt lat="48.68136" lon="2.05508">
        <ele>140.5</ele>
        <time>2024-12-31T12:51:36.801Z</time>
      </trkpt>
      <trkpt lat="48.68142" lon="2.05515">
        <ele>140.1</ele>
        <time>2024-12-31T12:51:41.051Z</time>
      </trkpt>
      <trkpt lat="48.68148" lon="2.05522">
        <ele>139.8</ele>
        <time>2024-12-31T12:51:45.301Z</time>
      </trkpt>
      <trkpt lat="48.68154" lon="2.05528">
        <ele>139.7</ele>
        <time>2024-12-31T12:51:49.551Z</time>
      </trkpt>
      <trkpt lat="48.6816" lon="2.05535">
        <ele>139.5</ele>
        <time>2024-12-31T12:51:53.802Z</time>
      </trkpt>
      <trkpt lat="48.68166" lon="2.05542">
        <ele>139.2</ele>
        <time>2024-12-31T12:51:58.053Z</time>
      </trkpt>
      <trkpt lat="48.68172" lon="2.05549">
        <ele>139</ele>
        <time>2024-12-31T12:52:02.304Z</time>
      </trkpt>
      <trkpt lat="48.68176" lon="2.05554">
        <ele>138.7</ele>
        <time>2024-12-31T12:52:05.413Z</time>
      </trkpt>
      <trkpt lat="48.68179" lon="2.05558">
        <ele>138.5</ele>
        <time>2024-12-31T12:52:08.522Z</time>
      </trkpt>
      <trkpt lat="48.68183" lon="2.05563">
        <ele>138.3</ele>
        <time>2024-12-31T12:52:11.631Z</time>
      </trkpt>
      <trkpt lat="48.68186" lon="2.05568">
        <ele>138.2</ele>
        <time>2024-12-31T12:52:14.741Z</time>
      </trkpt>
      <trkpt lat="48.6819" lon="2.05572">
        <ele>138.1</ele>
        <time>2024-12-31T12:52:17.851Z</time>
      </trkpt>
      <trkpt lat="48.68193" lon="2.05577">
        <ele>138.1</ele>
        <time>2024-12-31T12:52:20.961Z</time>
      </trkpt>
      <trkpt lat="48.68197" lon="2.05582">
        <ele>138</ele>
        <time>2024-12-31T12:52:24.071Z</time>
      </trkpt>
      <trkpt lat="48.68201" lon="2.05587">
        <ele>138.1</ele>
        <time>2024-12-31T12:52:27.181Z</time>
      </trkpt>
      <trkpt lat="48.68204" lon="2.05591">
        <ele>138.2</ele>
        <time>2024-12-31T12:52:30.291Z</time>
      </trkpt>
      <trkpt lat="48.68208" lon="2.05596">
        <ele>138.3</ele>
        <time>2024-12-31T12:52:33.401Z</time>
      </trkpt>
      <trkpt lat="48.68211" lon="2.05601">
        <ele>138.5</ele>
        <time>2024-12-31T12:52:36.511Z</time>
      </trkpt>
      <trkpt lat="48.68215" lon="2.05605">
        <ele>138.7</ele>
        <time>2024-12-31T12:52:39.621Z</time>
      </trkpt>
      <trkpt lat="48.68218" lon="2.0561">
        <ele>139</ele>
        <time>2024-12-31T12:52:42.731Z</time>
      </trkpt>
      <trkpt lat="48.68222" lon="2.05615">
        <ele>139.3</ele>
        <time>2024-12-31T12:52:45.841Z</time>
      </trkpt>
      <trkpt lat="48.68225" lon="2.05619">
        <ele>139.4</ele>
        <time>2024-12-31T12:52:48.951Z</time>
      </trkpt>
      <trkpt lat="48.68229" lon="2.05624">
        <ele>139.5</ele>
        <time>2024-12-31T12:52:52.061Z</time>
      </trkpt>
      <trkpt lat="48.68232" lon="2.05632">
        <ele>138.9</ele>
        <time>2024-12-31T12:52:55.194Z</time>
      </trkpt>
      <trkpt lat="48.68234" lon="2.05639">
        <ele>138.4</ele>
        <time>2024-12-31T12:52:58.328Z</time>
      </trkpt>
      <trkpt lat="48.68237" lon="2.05647">
        <ele>137.9</ele>
        <time>2024-12-31T12:53:01.462Z</time>
      </trkpt>
      <trkpt lat="48.68239" lon="2.05654">
        <ele>137.4</ele>
        <time>2024-12-31T12:53:04.596Z</time>
      </trkpt>
      <trkpt lat="48.68243" lon="2.05665">
        <ele>137</ele>
        <time>2024-12-31T12:53:09.327Z</time>
      </trkpt>
      <trkpt lat="48.68247" lon="2.05676">
        <ele>136.6</ele>
        <time>2024-12-31T12:53:14.058Z</time>
      </trkpt>
      <trkpt lat="48.6825" lon="2.05686">
        <ele>136.3</ele>
        <time>2024-12-31T12:53:18.789Z</time>
      </trkpt>
      <trkpt lat="48.68254" lon="2.05697">
        <ele>135.8</ele>
        <time>2024-12-31T12:53:23.520Z</time>
      </trkpt>
      <trkpt lat="48.68258" lon="2.05708">
        <ele>135.5</ele>
        <time>2024-12-31T12:53:28.251Z</time>
      </trkpt>
      <trkpt lat="48.68262" lon="2.05719">
        <ele>135.3</ele>
        <time>2024-12-31T12:53:32.982Z</time>
      </trkpt>
      <trkpt lat="48.68266" lon="2.0573">
        <ele>135</ele>
        <time>2024-12-31T12:53:37.713Z</time>
      </trkpt>
      <trkpt lat="48.6827" lon="2.0574">
        <ele>134.7</ele>
        <time>2024-12-31T12:53:42.444Z</time>
      </trkpt>
      <trkpt lat="48.68273" lon="2.05751">
        <ele>134.4</ele>
        <time>2024-12-31T12:53:47.175Z</time>
      </trkpt>
      <trkpt lat="48.68277" lon="2.05762">
        <ele>134.1</ele>
        <time>2024-12-31T12:53:51.907Z</time>
      </trkpt>
      <trkpt lat="48.68281" lon="2.05773">
        <ele>133.7</ele>
        <time>2024-12-31T12:53:56.639Z</time>
      </trkpt>
      <trkpt lat="48.68285" lon="2.05783">
        <ele>133.4</ele>
        <time>2024-12-31T12:54:01.371Z</time>
      </trkpt>
      <trkpt lat="48.68289" lon="2.05794">
        <ele>133.1</ele>
        <time>2024-12-31T12:54:06.103Z</time>
      </trkpt>
      <trkpt lat="48.68292" lon="2.05805">
        <ele>132.8</ele>
        <time>2024-12-31T12:54:10.835Z</time>
      </trkpt>
      <trkpt lat="48.68296" lon="2.05816">
        <ele>132.6</ele>
        <time>2024-12-31T12:54:15.567Z</time>
      </trkpt>
      <trkpt lat="48.683" lon="2.05827">
        <ele>132.3</ele>
        <time>2024-12-31T12:54:20.299Z</time>
      </trkpt>
      <trkpt lat="48.68304" lon="2.05837">
        <ele>132.1</ele>
        <time>2024-12-31T12:54:25.031Z</time>
      </trkpt>
      <trkpt lat="48.68308" lon="2.05848">
        <ele>132</ele>
        <time>2024-12-31T12:54:29.763Z</time>
      </trkpt>
      <trkpt lat="48.68311" lon="2.05859">
        <ele>131.9</ele>
        <time>2024-12-31T12:54:34.495Z</time>
      </trkpt>
      <trkpt lat="48.68315" lon="2.0587">
        <ele>131.7</ele>
        <time>2024-12-31T12:54:39.227Z</time>
      </trkpt>
      <trkpt lat="48.68319" lon="2.0588">
        <ele>131.5</ele>
        <time>2024-12-31T12:54:43.959Z</time>
      </trkpt>
      <trkpt lat="48.68323" lon="2.05891">
        <ele>131.3</ele>
        <time>2024-12-31T12:54:48.691Z</time>
      </trkpt>
      <trkpt lat="48.68327" lon="2.05902">
        <ele>131.3</ele>
        <time>2024-12-31T12:54:53.423Z</time>
      </trkpt>
      <trkpt lat="48.68331" lon="2.05913">
        <ele>131.4</ele>
        <time>2024-12-31T12:54:58.155Z</time>
      </trkpt>
      <trkpt lat="48.68334" lon="2.05924">
        <ele>131.3</ele>
        <time>2024-12-31T12:55:02.887Z</time>
      </trkpt>
      <trkpt lat="48.68338" lon="2.05934">
        <ele>130.9</ele>
        <time>2024-12-31T12:55:07.619Z</time>
      </trkpt>
      <trkpt lat="48.68342" lon="2.05945">
        <ele>130.7</ele>
        <time>2024-12-31T12:55:12.351Z</time>
      </trkpt>
      <trkpt lat="48.68346" lon="2.05956">
        <ele>130.4</ele>
        <time>2024-12-31T12:55:17.083Z</time>
      </trkpt>
      <trkpt lat="48.6835" lon="2.05967">
        <ele>130.1</ele>
        <time>2024-12-31T12:55:21.815Z</time>
      </trkpt>
      <trkpt lat="48.68353" lon="2.05977">
        <ele>129.7</ele>
        <time>2024-12-31T12:55:26.547Z</time>
      </trkpt>
      <trkpt lat="48.68357" lon="2.05988">
        <ele>129.3</ele>
        <time>2024-12-31T12:55:31.279Z</time>
      </trkpt>
      <trkpt lat="48.68361" lon="2.05999">
        <ele>129.1</ele>
        <time>2024-12-31T12:55:36.011Z</time>
      </trkpt>
      <trkpt lat="48.68367" lon="2.06008">
        <ele>128.8</ele>
        <time>2024-12-31T12:55:41.845Z</time>
      </trkpt>
      <trkpt lat="48.68373" lon="2.06018">
        <ele>128.8</ele>
        <time>2024-12-31T12:55:47.679Z</time>
      </trkpt>
      <trkpt lat="48.68378" lon="2.06027">
        <ele>129.1</ele>
        <time>2024-12-31T12:55:53.514Z</time>
      </trkpt>
      <trkpt lat="48.68384" lon="2.06036">
        <ele>129.9</ele>
        <time>2024-12-31T12:55:59.349Z</time>
      </trkpt>
      <trkpt lat="48.68389" lon="2.06045">
        <ele>130.6</ele>
        <time>2024-12-31T12:56:05.739Z</time>
      </trkpt>
      <trkpt lat="48.68393" lon="2.06054">
        <ele>131.2</ele>
        <time>2024-12-31T12:56:12.130Z</time>
      </trkpt>
      <trkpt lat="48.68397" lon="2.06061">
        <ele>131.2</ele>
        <time>2024-12-31T12:56:16.076Z</time>
      </trkpt>
      <trkpt lat="48.68401" lon="2.06066">
        <ele>131.5</ele>
        <time>2024-12-31T12:56:19.267Z</time>
      </trkpt>
      <trkpt lat="48.68405" lon="2.0607">
        <ele>131.7</ele>
        <time>2024-12-31T12:56:22.458Z</time>
      </trkpt>
      <trkpt lat="48.68409" lon="2.06075">
        <ele>131.9</ele>
        <time>2024-12-31T12:56:25.650Z</time>
      </trkpt>
      <trkpt lat="48.68413" lon="2.06079">
        <ele>132</ele>
        <time>2024-12-31T12:56:28.842Z</time>
      </trkpt>
      <trkpt lat="48.68417" lon="2.06084">
        <ele>132</ele>
        <time>2024-12-31T12:56:32.034Z</time>
      </trkpt>
      <trkpt lat="48.68421" lon="2.06088">
        <ele>132.1</ele>
        <time>2024-12-31T12:56:35.226Z</time>
      </trkpt>
      <trkpt lat="48.68425" lon="2.06093">
        <ele>132</ele>
        <time>2024-12-31T12:56:38.418Z</time>
      </trkpt>
      <trkpt lat="48.6843" lon="2.06098">
        <ele>131.8</ele>
        <time>2024-12-31T12:56:41.610Z</time>
      </trkpt>
      <trkpt lat="48.68434" lon="2.06102">
        <ele>131.5</ele>
        <time>2024-12-31T12:56:44.802Z</time>
      </trkpt>
      <trkpt lat="48.68438" lon="2.06107">
        <ele>131.2</ele>
        <time>2024-12-31T12:56:47.994Z</time>
      </trkpt>
      <trkpt lat="48.68442" lon="2.06111">
        <ele>130.7</ele>
        <time>2024-12-31T12:56:51.186Z</time>
      </trkpt>
      <trkpt lat="48.68446" lon="2.06116">
        <ele>130.7</ele>
        <time>2024-12-31T12:56:54.378Z</time>
      </trkpt>
      <trkpt lat="48.6845" lon="2.0612">
        <ele>130.8</ele>
        <time>2024-12-31T12:56:57.570Z</time>
      </trkpt>
      <trkpt lat="48.68454" lon="2.06125">
        <ele>130.9</ele>
        <time>2024-12-31T12:57:00.762Z</time>
      </trkpt>
      <trkpt lat="48.68458" lon="2.06129">
        <ele>130.8</ele>
        <time>2024-12-31T12:57:03.954Z</time>
      </trkpt>
      <trkpt lat="48.68462" lon="2.06134">
        <ele>130.6</ele>
        <time>2024-12-31T12:57:07.146Z</time>
      </trkpt>
      <trkpt lat="48.6847" lon="2.06139">
        <ele>130.7</ele>
        <time>2024-12-31T12:57:12.519Z</time>
      </trkpt>
      <trkpt lat="48.68478" lon="2.06144">
        <ele>131.2</ele>
        <time>2024-12-31T12:57:17.892Z</time>
      </trkpt>
      <trkpt lat="48.68485" lon="2.06148">
        <ele>131.4</ele>
        <time>2024-12-31T12:57:23.265Z</time>
      </trkpt>
      <trkpt lat="48.68493" lon="2.06153">
        <ele>131.5</ele>
        <time>2024-12-31T12:57:28.638Z</time>
      </trkpt>
      <trkpt lat="48.68501" lon="2.06158">
        <ele>131.3</ele>
        <time>2024-12-31T12:57:34.011Z</time>
      </trkpt>
      <trkpt lat="48.68509" lon="2.06163">
        <ele>131</ele>
        <time>2024-12-31T12:57:39.384Z</time>
      </trkpt>
      <trkpt lat="48.68516" lon="2.06167">
        <ele>130.6</ele>
        <time>2024-12-31T12:57:44.757Z</time>
      </trkpt>
      <trkpt lat="48.68524" lon="2.06172">
        <ele>130.5</ele>
        <time>2024-12-31T12:57:50.131Z</time>
      </trkpt>
      <trkpt lat="48.6853" lon="2.06174">
        <ele>130.5</ele>
        <time>2024-12-31T12:57:54.109Z</time>
      </trkpt>
      <trkpt lat="48.68537" lon="2.06176">
        <ele>130.5</ele>
        <time>2024-12-31T12:57:58.088Z</time>
      </trkpt>
      <trkpt lat="48.68543" lon="2.06178">
        <ele>130.5</ele>
        <time>2024-12-31T12:58:02.067Z</time>
      </trkpt>
      <trkpt lat="48.68549" lon="2.0618">
        <ele>130.4</ele>
        <time>2024-12-31T12:58:06.046Z</time>
      </trkpt>
      <trkpt lat="48.68555" lon="2.06182">
        <ele>130.3</ele>
        <time>2024-12-31T12:58:10.025Z</time>
      </trkpt>
      <trkpt lat="48.68562" lon="2.06184">
        <ele>130.2</ele>
        <time>2024-12-31T12:58:14.004Z</time>
      </trkpt>
      <trkpt lat="48.68568" lon="2.06186">
        <ele>130</ele>
        <time>2024-12-31T12:58:17.983Z</time>
      </trkpt>
      <trkpt lat="48.68574" lon="2.06188">
        <ele>129.9</ele>
        <time>2024-12-31T12:58:21.962Z</time>
      </trkpt>
      <trkpt lat="48.68583" lon="2.0619">
        <ele>129.7</ele>
        <time>2024-12-31T12:58:26.808Z</time>
      </trkpt>
      <trkpt lat="48.68591" lon="2.06192">
        <ele>128.9</ele>
        <time>2024-12-31T12:58:31.654Z</time>
      </trkpt>
      <trkpt lat="48.686" lon="2.06193">
        <ele>128</ele>
        <time>2024-12-31T12:58:36.500Z</time>
      </trkpt>
      <trkpt lat="48.68608" lon="2.06195">
        <ele>127.2</ele>
        <time>2024-12-31T12:58:41.347Z</time>
      </trkpt>
      <trkpt lat="48.68614" lon="2.06194">
        <ele>126.7</ele>
        <time>2024-12-31T12:58:44.888Z</time>
      </trkpt>
      <trkpt lat="48.68621" lon="2.06194">
        <ele>126.1</ele>
        <time>2024-12-31T12:58:48.430Z</time>
      </trkpt>
      <trkpt lat="48.68627" lon="2.06193">
        <ele>125.5</ele>
        <time>2024-12-31T12:58:51.972Z</time>
      </trkpt>
      <trkpt lat="48.68633" lon="2.06192">
        <ele>124.8</ele>
        <time>2024-12-31T12:58:55.514Z</time>
      </trkpt>
      <trkpt lat="48.68641" lon="2.06191">
        <ele>124</ele>
        <time>2024-12-31T12:58:59.767Z</time>
      </trkpt>
      <trkpt lat="48.68648" lon="2.0619">
        <ele>123</ele>
        <time>2024-12-31T12:59:04.020Z</time>
      </trkpt>
      <trkpt lat="48.68656" lon="2.06189">
        <ele>122</ele>
        <time>2024-12-31T12:59:08.274Z</time>
      </trkpt>
      <trkpt lat="48.68663" lon="2.06188">
        <ele>121</ele>
        <time>2024-12-31T12:59:12.528Z</time>
      </trkpt>
      <trkpt lat="48.68668" lon="2.06187">
        <ele>120.4</ele>
        <time>2024-12-31T12:59:15.329Z</time>
      </trkpt>
      <trkpt lat="48.68673" lon="2.06185">
        <ele>119.9</ele>
        <time>2024-12-31T12:59:18.130Z</time>
      </trkpt>
      <trkpt lat="48.68678" lon="2.06184">
        <ele>119.3</ele>
        <time>2024-12-31T12:59:20.931Z</time>
      </trkpt>
      <trkpt lat="48.68683" lon="2.06183">
        <ele>118.8</ele>
        <time>2024-12-31T12:59:23.732Z</time>
      </trkpt>
      <trkpt lat="48.68687" lon="2.06181">
        <ele>118.3</ele>
        <time>2024-12-31T12:59:26.533Z</time>
      </trkpt>
      <trkpt lat="48.68692" lon="2.0618">
        <ele>117.9</ele>
        <time>2024-12-31T12:59:29.335Z</time>
      </trkpt>
      <trkpt lat="48.68697" lon="2.06178">
        <ele>117.6</ele>
        <time>2024-12-31T12:59:32.137Z</time>
      </trkpt>
      <trkpt lat="48.68702" lon="2.06177">
        <ele>117.6</ele>
        <time>2024-12-31T12:59:34.939Z</time>
      </trkpt>
      <trkpt lat="48.6871" lon="2.06174">
        <ele>117.7</ele>
        <time>2024-12-31T12:59:39.916Z</time>
      </trkpt>
      <trkpt lat="48.68719" lon="2.06171">
        <ele>118.1</ele>
        <time>2024-12-31T12:59:44.893Z</time>
      </trkpt>
      <trkpt lat="48.68727" lon="2.06168">
        <ele>118.3</ele>
        <time>2024-12-31T12:59:49.870Z</time>
      </trkpt>
      <trkpt lat="48.68735" lon="2.06166">
        <ele>118</ele>
        <time>2024-12-31T12:59:54.847Z</time>
      </trkpt>
      <trkpt lat="48.68743" lon="2.06163">
        <ele>117.2</ele>
        <time>2024-12-31T12:59:59.824Z</time>
      </trkpt>
      <trkpt lat="48.68752" lon="2.0616">
        <ele>116.6</ele>
        <time>2024-12-31T13:00:04.801Z</time>
      </trkpt>
      <trkpt lat="48.6876" lon="2.06157">
        <ele>116</ele>
        <time>2024-12-31T13:00:09.778Z</time>
      </trkpt>
      <trkpt lat="48.68768" lon="2.06154">
        <ele>115.5</ele>
        <time>2024-12-31T13:00:14.756Z</time>
      </trkpt>
      <trkpt lat="48.68774" lon="2.06152">
        <ele>115.2</ele>
        <time>2024-12-31T13:00:18.612Z</time>
      </trkpt>
      <trkpt lat="48.6878" lon="2.0615">
        <ele>114.9</ele>
        <time>2024-12-31T13:00:22.468Z</time>
      </trkpt>
      <trkpt lat="48.68786" lon="2.06149">
        <ele>114.5</ele>
        <time>2024-12-31T13:00:26.324Z</time>
      </trkpt>
      <trkpt lat="48.68792" lon="2.06147">
        <ele>114.1</ele>
        <time>2024-12-31T13:00:30.180Z</time>
      </trkpt>
      <trkpt lat="48.68798" lon="2.06145">
        <ele>113.8</ele>
        <time>2024-12-31T13:00:34.036Z</time>
      </trkpt>
      <trkpt lat="48.68804" lon="2.06143">
        <ele>113.5</ele>
        <time>2024-12-31T13:00:37.892Z</time>
      </trkpt>
      <trkpt lat="48.6881" lon="2.06141">
        <ele>113.5</ele>
        <time>2024-12-31T13:00:41.748Z</time>
      </trkpt>
      <trkpt lat="48.68817" lon="2.0614">
        <ele>113.5</ele>
        <time>2024-12-31T13:00:45.604Z</time>
      </trkpt>
      <trkpt lat="48.68823" lon="2.06138">
        <ele>113.4</ele>
        <time>2024-12-31T13:00:49.460Z</time>
      </trkpt>
      <trkpt lat="48.68829" lon="2.06136">
        <ele>113.3</ele>
        <time>2024-12-31T13:00:53.316Z</time>
      </trkpt>
      <trkpt lat="48.68835" lon="2.06134">
        <ele>113.3</ele>
        <time>2024-12-31T13:00:57.172Z</time>
      </trkpt>
      <trkpt lat="48.68841" lon="2.06132">
        <ele>113.4</ele>
        <time>2024-12-31T13:01:01.028Z</time>
      </trkpt>
      <trkpt lat="48.68847" lon="2.0613">
        <ele>113.6</ele>
        <time>2024-12-31T13:01:04.885Z</time>
      </trkpt>
      <trkpt lat="48.68853" lon="2.06129">
        <ele>113.8</ele>
        <time>2024-12-31T13:01:08.742Z</time>
      </trkpt>
      <trkpt lat="48.68859" lon="2.06127">
        <ele>114.2</ele>
        <time>2024-12-31T13:01:12.599Z</time>
      </trkpt>
      <trkpt lat="48.68865" lon="2.06125">
        <ele>114.4</ele>
        <time>2024-12-31T13:01:16.456Z</time>
      </trkpt>
      <trkpt lat="48.68874" lon="2.06123">
        <ele>114.5</ele>
        <time>2024-12-31T13:01:22.812Z</time>
      </trkpt>
      <trkpt lat="48.68883" lon="2.06122">
        <ele>114.6</ele>
        <time>2024-12-31T13:01:29.168Z</time>
      </trkpt>
      <trkpt lat="48.68892" lon="2.0612">
        <ele>114.7</ele>
        <time>2024-12-31T13:01:35.525Z</time>
      </trkpt>
      <trkpt lat="48.68901" lon="2.06119">
        <ele>114.9</ele>
        <time>2024-12-31T13:01:41.882Z</time>
      </trkpt>
      <trkpt lat="48.68909" lon="2.06117">
        <ele>115.2</ele>
        <time>2024-12-31T13:01:48.239Z</time>
      </trkpt>
      <trkpt lat="48.68918" lon="2.06115">
        <ele>115.5</ele>
        <time>2024-12-31T13:01:54.596Z</time>
      </trkpt>
      <trkpt lat="48.68927" lon="2.06114">
        <ele>116</ele>
        <time>2024-12-31T13:02:00.953Z</time>
      </trkpt>
      <trkpt lat="48.68936" lon="2.06112">
        <ele>116.6</ele>
        <time>2024-12-31T13:02:07.310Z</time>
      </trkpt>
      <trkpt lat="48.68941" lon="2.06112">
        <ele>116.7</ele>
        <time>2024-12-31T13:02:10.166Z</time>
      </trkpt>
      <trkpt lat="48.68945" lon="2.06112">
        <ele>116.9</ele>
        <time>2024-12-31T13:02:13.022Z</time>
      </trkpt>
      <trkpt lat="48.6895" lon="2.06112">
        <ele>116.7</ele>
        <time>2024-12-31T13:02:15.878Z</time>
      </trkpt>
      <trkpt lat="48.68954" lon="2.06112">
        <ele>116.5</ele>
        <time>2024-12-31T13:02:18.735Z</time>
      </trkpt>
      <trkpt lat="48.68963" lon="2.06112">
        <ele>116.3</ele>
        <time>2024-12-31T13:02:23.983Z</time>
      </trkpt>
      <trkpt lat="48.68971" lon="2.06112">
        <ele>116</ele>
        <time>2024-12-31T13:02:29.231Z</time>
      </trkpt>
      <trkpt lat="48.6898" lon="2.06111">
        <ele>116</ele>
        <time>2024-12-31T13:02:34.479Z</time>
      </trkpt>
      <trkpt lat="48.68988" lon="2.06111">
        <ele>116</ele>
        <time>2024-12-31T13:02:39.728Z</time>
      </trkpt>
      <trkpt lat="48.68996" lon="2.06111">
        <ele>116</ele>
        <time>2024-12-31T13:02:44.736Z</time>
      </trkpt>
      <trkpt lat="48.69005" lon="2.06111">
        <ele>115.9</ele>
        <time>2024-12-31T13:02:49.744Z</time>
      </trkpt>
      <trkpt lat="48.69013" lon="2.0611">
        <ele>115.6</ele>
        <time>2024-12-31T13:02:54.752Z</time>
      </trkpt>
      <trkpt lat="48.69022" lon="2.0611">
        <ele>115.4</ele>
        <time>2024-12-31T13:02:59.760Z</time>
      </trkpt>
      <trkpt lat="48.6903" lon="2.0611">
        <ele>115.1</ele>
        <time>2024-12-31T13:03:04.768Z</time>
      </trkpt>
      <trkpt lat="48.69038" lon="2.0611">
        <ele>114.9</ele>
        <time>2024-12-31T13:03:09.776Z</time>
      </trkpt>
      <trkpt lat="48.69047" lon="2.06109">
        <ele>114.6</ele>
        <time>2024-12-31T13:03:14.784Z</time>
      </trkpt>
      <trkpt lat="48.69055" lon="2.06109">
        <ele>114.3</ele>
        <time>2024-12-31T13:03:19.793Z</time>
      </trkpt>
      <trkpt lat="48.69062" lon="2.06108">
        <ele>114.4</ele>
        <time>2024-12-31T13:03:24.191Z</time>
      </trkpt>
      <trkpt lat="48.69069" lon="2.06107">
        <ele>114.6</ele>
        <time>2024-12-31T13:03:28.590Z</time>
      </trkpt>
      <trkpt lat="48.69075" lon="2.06106">
        <ele>114.7</ele>
        <time>2024-12-31T13:03:32.989Z</time>
      </trkpt>
      <trkpt lat="48.69082" lon="2.06106">
        <ele>114.8</ele>
        <time>2024-12-31T13:03:37.388Z</time>
      </trkpt>
      <trkpt lat="48.69089" lon="2.06105">
        <ele>114.7</ele>
        <time>2024-12-31T13:03:41.787Z</time>
      </trkpt>
      <trkpt lat="48.69096" lon="2.06104">
        <ele>114.6</ele>
        <time>2024-12-31T13:03:46.186Z</time>
      </trkpt>
      <trkpt lat="48.69102" lon="2.06103">
        <ele>114.5</ele>
        <time>2024-12-31T13:03:50.585Z</time>
      </trkpt>
      <trkpt lat="48.69109" lon="2.06102">
        <ele>114.4</ele>
        <time>2024-12-31T13:03:54.984Z</time>
      </trkpt>
      <trkpt lat="48.69116" lon="2.061">
        <ele>114.4</ele>
        <time>2024-12-31T13:03:59.189Z</time>
      </trkpt>
      <trkpt lat="48.69122" lon="2.06098">
        <ele>114.4</ele>
        <time>2024-12-31T13:04:03.395Z</time>
      </trkpt>
      <trkpt lat="48.69129" lon="2.06096">
        <ele>114.5</ele>
        <time>2024-12-31T13:04:07.601Z</time>
      </trkpt>
      <trkpt lat="48.69136" lon="2.06095">
        <ele>114.5</ele>
        <time>2024-12-31T13:04:11.807Z</time>
      </trkpt>
      <trkpt lat="48.69142" lon="2.06093">
        <ele>114.4</ele>
        <time>2024-12-31T13:04:16.013Z</time>
      </trkpt>
      <trkpt lat="48.69149" lon="2.06091">
        <ele>114.2</ele>
        <time>2024-12-31T13:04:20.219Z</time>
      </trkpt>
      <trkpt lat="48.69155" lon="2.06089">
        <ele>114</ele>
        <time>2024-12-31T13:04:24.425Z</time>
      </trkpt>
      <trkpt lat="48.69162" lon="2.06087">
        <ele>113.8</ele>
        <time>2024-12-31T13:04:28.631Z</time>
      </trkpt>
      <trkpt lat="48.69168" lon="2.06085">
        <ele>113.7</ele>
        <time>2024-12-31T13:04:31.875Z</time>
      </trkpt>
      <trkpt lat="48.69173" lon="2.06082">
        <ele>113.3</ele>
        <time>2024-12-31T13:04:35.119Z</time>
      </trkpt>
      <trkpt lat="48.69179" lon="2.0608">
        <ele>112.9</ele>
        <time>2024-12-31T13:04:38.363Z</time>
      </trkpt>
      <trkpt lat="48.69184" lon="2.06077">
        <ele>112.5</ele>
        <time>2024-12-31T13:04:41.607Z</time>
      </trkpt>
      <trkpt lat="48.6919" lon="2.06075">
        <ele>112</ele>
        <time>2024-12-31T13:04:44.851Z</time>
      </trkpt>
      <trkpt lat="48.69195" lon="2.06072">
        <ele>111.6</ele>
        <time>2024-12-31T13:04:48.095Z</time>
      </trkpt>
      <trkpt lat="48.69201" lon="2.0607">
        <ele>111.1</ele>
        <time>2024-12-31T13:04:51.339Z</time>
      </trkpt>
      <trkpt lat="48.69206" lon="2.06067">
        <ele>110.7</ele>
        <time>2024-12-31T13:04:54.583Z</time>
      </trkpt>
      <trkpt lat="48.69211" lon="2.06065">
        <ele>110.4</ele>
        <time>2024-12-31T13:04:57.568Z</time>
      </trkpt>
      <trkpt lat="48.69215" lon="2.06062">
        <ele>110</ele>
        <time>2024-12-31T13:05:00.553Z</time>
      </trkpt>
      <trkpt lat="48.6922" lon="2.0606">
        <ele>109.7</ele>
        <time>2024-12-31T13:05:03.538Z</time>
      </trkpt>
      <trkpt lat="48.69224" lon="2.06058">
        <ele>109.5</ele>
        <time>2024-12-31T13:05:06.523Z</time>
      </trkpt>
      <trkpt lat="48.69229" lon="2.06055">
        <ele>109.6</ele>
        <time>2024-12-31T13:05:09.508Z</time>
      </trkpt>
      <trkpt lat="48.69233" lon="2.06053">
        <ele>109.6</ele>
        <time>2024-12-31T13:05:12.493Z</time>
      </trkpt>
      <trkpt lat="48.69238" lon="2.06051">
        <ele>109.6</ele>
        <time>2024-12-31T13:05:15.478Z</time>
      </trkpt>
      <trkpt lat="48.69243" lon="2.06049">
        <ele>109.6</ele>
        <time>2024-12-31T13:05:18.463Z</time>
      </trkpt>
      <trkpt lat="48.69247" lon="2.06046">
        <ele>109.6</ele>
        <time>2024-12-31T13:05:21.448Z</time>
      </trkpt>
      <trkpt lat="48.69252" lon="2.06044">
        <ele>109.6</ele>
        <time>2024-12-31T13:05:24.433Z</time>
      </trkpt>
      <trkpt lat="48.69256" lon="2.06042">
        <ele>109.7</ele>
        <time>2024-12-31T13:05:27.419Z</time>
      </trkpt>
      <trkpt lat="48.69261" lon="2.06039">
        <ele>109.7</ele>
        <time>2024-12-31T13:05:30.405Z</time>
      </trkpt>
      <trkpt lat="48.69265" lon="2.06037">
        <ele>109.8</ele>
        <time>2024-12-31T13:05:33.391Z</time>
      </trkpt>
      <trkpt lat="48.6927" lon="2.06035">
        <ele>109.8</ele>
        <time>2024-12-31T13:05:36.377Z</time>
      </trkpt>
      <trkpt lat="48.69274" lon="2.06032">
        <ele>109.7</ele>
        <time>2024-12-31T13:05:39.363Z</time>
      </trkpt>
      <trkpt lat="48.69279" lon="2.0603">
        <ele>109.7</ele>
        <time>2024-12-31T13:05:42.349Z</time>
      </trkpt>
      <trkpt lat="48.69283" lon="2.06027">
        <ele>109.6</ele>
        <time>2024-12-31T13:05:45.390Z</time>
      </trkpt>
      <trkpt lat="48.69288" lon="2.06025">
        <ele>109.6</ele>
        <time>2024-12-31T13:05:48.431Z</time>
      </trkpt>
      <trkpt lat="48.69292" lon="2.06022">
        <ele>109.6</ele>
        <time>2024-12-31T13:05:51.472Z</time>
      </trkpt>
      <trkpt lat="48.69297" lon="2.0602">
        <ele>109.6</ele>
        <time>2024-12-31T13:05:54.513Z</time>
      </trkpt>
      <trkpt lat="48.69301" lon="2.06017">
        <ele>109.5</ele>
        <time>2024-12-31T13:05:57.554Z</time>
      </trkpt>
      <trkpt lat="48.69306" lon="2.06015">
        <ele>109.4</ele>
        <time>2024-12-31T13:06:00.595Z</time>
      </trkpt>
      <trkpt lat="48.6931" lon="2.06012">
        <ele>109.4</ele>
        <time>2024-12-31T13:06:03.636Z</time>
      </trkpt>
      <trkpt lat="48.69315" lon="2.0601">
        <ele>109.4</ele>
        <time>2024-12-31T13:06:06.677Z</time>
      </trkpt>
      <trkpt lat="48.69319" lon="2.06007">
        <ele>109.4</ele>
        <time>2024-12-31T13:06:09.718Z</time>
      </trkpt>
      <trkpt lat="48.69323" lon="2.06004">
        <ele>109.3</ele>
        <time>2024-12-31T13:06:12.760Z</time>
      </trkpt>
      <trkpt lat="48.69328" lon="2.06002">
        <ele>109.3</ele>
        <time>2024-12-31T13:06:15.802Z</time>
      </trkpt>
      <trkpt lat="48.69332" lon="2.05999">
        <ele>109.2</ele>
        <time>2024-12-31T13:06:18.844Z</time>
      </trkpt>
      <trkpt lat="48.69337" lon="2.05997">
        <ele>109.3</ele>
        <time>2024-12-31T13:06:21.886Z</time>
      </trkpt>
      <trkpt lat="48.69341" lon="2.05994">
        <ele>109.5</ele>
        <time>2024-12-31T13:06:24.928Z</time>
      </trkpt>
      <trkpt lat="48.69346" lon="2.05992">
        <ele>109.5</ele>
        <time>2024-12-31T13:06:27.970Z</time>
      </trkpt>
      <trkpt lat="48.6935" lon="2.05989">
        <ele>109.5</ele>
        <time>2024-12-31T13:06:31.012Z</time>
      </trkpt>
      <trkpt lat="48.69357" lon="2.05984">
        <ele>109.5</ele>
        <time>2024-12-31T13:06:35.354Z</time>
      </trkpt>
      <trkpt lat="48.69364" lon="2.0598">
        <ele>109.3</ele>
        <time>2024-12-31T13:06:39.696Z</time>
      </trkpt>
      <trkpt lat="48.6937" lon="2.05975">
        <ele>109.2</ele>
        <time>2024-12-31T13:06:44.038Z</time>
      </trkpt>
      <trkpt lat="48.69377" lon="2.05971">
        <ele>108.9</ele>
        <time>2024-12-31T13:06:48.380Z</time>
      </trkpt>
      <trkpt lat="48.69384" lon="2.05966">
        <ele>108.6</ele>
        <time>2024-12-31T13:06:52.722Z</time>
      </trkpt>
      <trkpt lat="48.69391" lon="2.05961">
        <ele>108.3</ele>
        <time>2024-12-31T13:06:57.064Z</time>
      </trkpt>
      <trkpt lat="48.69397" lon="2.05957">
        <ele>108</ele>
        <time>2024-12-31T13:07:01.406Z</time>
      </trkpt>
      <trkpt lat="48.69404" lon="2.05952">
        <ele>107.6</ele>
        <time>2024-12-31T13:07:05.748Z</time>
      </trkpt>
      <trkpt lat="48.69412" lon="2.05947">
        <ele>107.3</ele>
        <time>2024-12-31T13:07:10.360Z</time>
      </trkpt>
      <trkpt lat="48.69419" lon="2.05943">
        <ele>106.9</ele>
        <time>2024-12-31T13:07:14.973Z</time>
      </trkpt>
      <trkpt lat="48.69427" lon="2.05938">
        <ele>106.5</ele>
        <time>2024-12-31T13:07:19.586Z</time>
      </trkpt>
      <trkpt lat="48.69434" lon="2.05933">
        <ele>106.2</ele>
        <time>2024-12-31T13:07:24.199Z</time>
      </trkpt>
      <trkpt lat="48.69442" lon="2.0593">
        <ele>105.7</ele>
        <time>2024-12-31T13:07:29.008Z</time>
      </trkpt>
      <trkpt lat="48.6945" lon="2.05926">
        <ele>105.3</ele>
        <time>2024-12-31T13:07:33.817Z</time>
      </trkpt>
      <trkpt lat="48.69458" lon="2.05923">
        <ele>104.8</ele>
        <time>2024-12-31T13:07:38.626Z</time>
      </trkpt>
      <trkpt lat="48.69466" lon="2.0592">
        <ele>104.3</ele>
        <time>2024-12-31T13:07:43.435Z</time>
      </trkpt>
      <trkpt lat="48.69474" lon="2.05916">
        <ele>104</ele>
        <time>2024-12-31T13:07:48.244Z</time>
      </trkpt>
      <trkpt lat="48.69482" lon="2.05913">
        <ele>103.8</ele>
        <time>2024-12-31T13:07:53.053Z</time>
      </trkpt>
      <trkpt lat="48.6949" lon="2.05909">
        <ele>103.8</ele>
        <time>2024-12-31T13:07:57.862Z</time>
      </trkpt>
      <trkpt lat="48.69498" lon="2.05906">
        <ele>103.8</ele>
        <time>2024-12-31T13:08:02.672Z</time>
      </trkpt>
      <trkpt lat="48.695" lon="2.05896">
        <ele>104.5</ele>
        <time>2024-12-31T13:08:08.885Z</time>
      </trkpt>
      <trkpt lat="48.695" lon="2.05884">
        <ele>105.2</ele>
        <time>2024-12-31T13:08:16.073Z</time>
      </trkpt>
      <trkpt lat="48.695" lon="2.05873">
        <ele>105.6</ele>
        <time>2024-12-31T13:08:23.261Z</time>
      </trkpt>
      <trkpt lat="48.695" lon="2.05861">
        <ele>106</ele>
        <time>2024-12-31T13:08:30.449Z</time>
      </trkpt>
      <trkpt lat="48.695" lon="2.05849">
        <ele>106.9</ele>
        <time>2024-12-31T13:08:37.637Z</time>
      </trkpt>
      <trkpt lat="48.695" lon="2.05837">
        <ele>107.7</ele>
        <time>2024-12-31T13:08:44.826Z</time>
      </trkpt>
      <trkpt lat="48.695" lon="2.05826">
        <ele>108.8</ele>
        <time>2024-12-31T13:08:52.015Z</time>
      </trkpt>
      <trkpt lat="48.695" lon="2.05814">
        <ele>110.1</ele>
        <time>2024-12-31T13:08:59.204Z</time>
      </trkpt>
      <trkpt lat="48.695" lon="2.05802">
        <ele>111.3</ele>
        <time>2024-12-31T13:09:06.393Z</time>
      </trkpt>
      <trkpt lat="48.69499" lon="2.05792">
        <ele>112</ele>
        <time>2024-12-31T13:09:12.826Z</time>
      </trkpt>
      <trkpt lat="48.69498" lon="2.05781">
        <ele>112.8</ele>
        <time>2024-12-31T13:09:19.260Z</time>
      </trkpt>
      <trkpt lat="48.69498" lon="2.05776">
        <ele>113.3</ele>
        <time>2024-12-31T13:09:23.002Z</time>
        <extensions>
          <visugpx:TrkExtension xmlns:visugpx="https://www.visugpx.com/editgpx/">
            <visugpx:node>30</visugpx:node>
            </visugpx:TrkExtension>
        </extensions>
      </trkpt>
      <trkpt lat="48.69498" lon="2.05776">
        <ele>113.3</ele>
        <time>2024-12-31T13:09:23.002Z</time>
      </trkpt>
      <trkpt lat="48.69497" lon="2.05768">
        <ele>114.6</ele>
        <time>2024-12-31T13:09:29.309Z</time>
      </trkpt>
      <trkpt lat="48.69497" lon="2.05759">
        <ele>115.8</ele>
        <time>2024-12-31T13:09:35.616Z</time>
      </trkpt>
      <trkpt lat="48.69496" lon="2.05751">
        <ele>117</ele>
        <time>2024-12-31T13:09:41.924Z</time>
      </trkpt>
      <trkpt lat="48.69496" lon="2.05743">
        <ele>118.5</ele>
        <time>2024-12-31T13:09:48.232Z</time>
      </trkpt>
      <trkpt lat="48.69495" lon="2.05734">
        <ele>120</ele>
        <time>2024-12-31T13:09:54.540Z</time>
      </trkpt>
      <trkpt lat="48.69494" lon="2.05726">
        <ele>121.6</ele>
        <time>2024-12-31T13:10:00.848Z</time>
      </trkpt>
      <trkpt lat="48.69494" lon="2.05717">
        <ele>123.4</ele>
        <time>2024-12-31T13:10:07.156Z</time>
      </trkpt>
      <trkpt lat="48.69493" lon="2.05709">
        <ele>125.6</ele>
        <time>2024-12-31T13:10:13.465Z</time>
      </trkpt>
      <trkpt lat="48.69489" lon="2.057">
        <ele>128</ele>
        <time>2024-12-31T13:10:21.585Z</time>
      </trkpt>
      <trkpt lat="48.69483" lon="2.05694">
        <ele>129.7</ele>
        <time>2024-12-31T13:10:29.385Z</time>
      </trkpt>
      <trkpt lat="48.69478" lon="2.05688">
        <ele>131.5</ele>
        <time>2024-12-31T13:10:37.185Z</time>
      </trkpt>
      <trkpt lat="48.69472" lon="2.05682">
        <ele>133.2</ele>
        <time>2024-12-31T13:10:44.985Z</time>
      </trkpt>
      <trkpt lat="48.69467" lon="2.05676">
        <ele>135.7</ele>
        <time>2024-12-31T13:10:52.785Z</time>
      </trkpt>
      <trkpt lat="48.69461" lon="2.0567">
        <ele>137.9</ele>
        <time>2024-12-31T13:11:00.585Z</time>
      </trkpt>
      <trkpt lat="48.69455" lon="2.05664">
        <ele>139.8</ele>
        <time>2024-12-31T13:11:08.385Z</time>
      </trkpt>
      <trkpt lat="48.6945" lon="2.05658">
        <ele>141.2</ele>
        <time>2024-12-31T13:11:16.185Z</time>
      </trkpt>
      <trkpt lat="48.69444" lon="2.05652">
        <ele>142.1</ele>
        <time>2024-12-31T13:11:23.987Z</time>
      </trkpt>
      <trkpt lat="48.69443" lon="2.05644">
        <ele>142.9</ele>
        <time>2024-12-31T13:11:30.080Z</time>
      </trkpt>
      <trkpt lat="48.69442" lon="2.05636">
        <ele>143.7</ele>
        <time>2024-12-31T13:11:36.174Z</time>
      </trkpt>
      <trkpt lat="48.69443" lon="2.05628">
        <ele>144.6</ele>
        <time>2024-12-31T13:11:42.560Z</time>
      </trkpt>
      <trkpt lat="48.69443" lon="2.05619">
        <ele>145.4</ele>
        <time>2024-12-31T13:11:48.947Z</time>
        <extensions>
          <visugpx:TrkExtension xmlns:visugpx="https://www.visugpx.com/editgpx/">
            <visugpx:node>29</visugpx:node>
            </visugpx:TrkExtension>
        </extensions>
      </trkpt>
      <trkpt lat="48.69443" lon="2.05613">
        <ele>146</ele>
        <time>2024-12-31T13:11:53.437Z</time>
      </trkpt>
      <trkpt lat="48.69446" lon="2.05606">
        <ele>146.4</ele>
        <time>2024-12-31T13:11:59.683Z</time>
      </trkpt>
      <trkpt lat="48.69449" lon="2.05599">
        <ele>146.9</ele>
        <time>2024-12-31T13:12:05.930Z</time>
      </trkpt>
      <trkpt lat="48.69456" lon="2.05592">
        <ele>147.2</ele>
        <time>2024-12-31T13:12:14.972Z</time>
      </trkpt>
      <trkpt lat="48.69462" lon="2.05585">
        <ele>147.3</ele>
        <time>2024-12-31T13:12:24.015Z</time>
      </trkpt>
      <trkpt lat="48.69467" lon="2.05582">
        <ele>147.2</ele>
        <time>2024-12-31T13:12:30.221Z</time>
      </trkpt>
      <trkpt lat="48.69472" lon="2.05578">
        <ele>147</ele>
        <time>2024-12-31T13:12:36.427Z</time>
      </trkpt>
      <trkpt lat="48.69477" lon="2.05575">
        <ele>147</ele>
        <time>2024-12-31T13:12:42.634Z</time>
      </trkpt>
      <trkpt lat="48.69482" lon="2.05572">
        <ele>147</ele>
        <time>2024-12-31T13:12:48.841Z</time>
      </trkpt>
      <trkpt lat="48.69487" lon="2.05568">
        <ele>147</ele>
        <time>2024-12-31T13:12:55.048Z</time>
      </trkpt>
      <trkpt lat="48.69492" lon="2.05565">
        <ele>147</ele>
        <time>2024-12-31T13:13:01.255Z</time>
      </trkpt>
      <trkpt lat="48.69497" lon="2.05561">
        <ele>147</ele>
        <time>2024-12-31T13:13:07.462Z</time>
      </trkpt>
      <trkpt lat="48.69502" lon="2.05558">
        <ele>147.1</ele>
        <time>2024-12-31T13:13:13.669Z</time>
      </trkpt>
      <trkpt lat="48.69508" lon="2.05557">
        <ele>147.5</ele>
        <time>2024-12-31T13:13:20.005Z</time>
      </trkpt>
      <trkpt lat="48.69513" lon="2.05555">
        <ele>148</ele>
        <time>2024-12-31T13:13:26.342Z</time>
      </trkpt>
      <trkpt lat="48.69519" lon="2.05554">
        <ele>148.4</ele>
        <time>2024-12-31T13:13:32.678Z</time>
      </trkpt>
      <trkpt lat="48.69524" lon="2.05552">
        <ele>148.9</ele>
        <time>2024-12-31T13:13:39.015Z</time>
      </trkpt>
      <trkpt lat="48.69524" lon="2.05552">
        <ele>148.9</ele>
        <time>2024-12-31T13:13:39.015Z</time>
      </trkpt>
      <trkpt lat="48.69524" lon="2.05552">
        <ele>148.9</ele>
        <time>2024-12-31T13:13:39.015Z</time>
        <extensions>
          <visugpx:TrkExtension xmlns:visugpx="https://www.visugpx.com/editgpx/">
            <visugpx:node>28</visugpx:node>
            </visugpx:TrkExtension>
        </extensions>
      </trkpt>
      <trkpt lat="48.69532" lon="2.05558">
        <ele>149.1</ele>
        <time>2024-12-31T13:13:49.137Z</time>
      </trkpt>
      <trkpt lat="48.6954" lon="2.05564">
        <ele>149.1</ele>
        <time>2024-12-31T13:13:59.260Z</time>
      </trkpt>
      <trkpt lat="48.69546" lon="2.05569">
        <ele>149.2</ele>
        <time>2024-12-31T13:14:03.655Z</time>
      </trkpt>
      <trkpt lat="48.69552" lon="2.05573">
        <ele>149.3</ele>
        <time>2024-12-31T13:14:08.050Z</time>
      </trkpt>
      <trkpt lat="48.69558" lon="2.05578">
        <ele>149.3</ele>
        <time>2024-12-31T13:14:12.445Z</time>
      </trkpt>
      <trkpt lat="48.69565" lon="2.05582">
        <ele>149.4</ele>
        <time>2024-12-31T13:14:16.840Z</time>
      </trkpt>
      <trkpt lat="48.69571" lon="2.05587">
        <ele>149.4</ele>
        <time>2024-12-31T13:14:21.235Z</time>
      </trkpt>
      <trkpt lat="48.69577" lon="2.05591">
        <ele>149.3</ele>
        <time>2024-12-31T13:14:25.630Z</time>
      </trkpt>
      <trkpt lat="48.69583" lon="2.05596">
        <ele>149.1</ele>
        <time>2024-12-31T13:14:30.025Z</time>
      </trkpt>
      <trkpt lat="48.69589" lon="2.056">
        <ele>149.1</ele>
        <time>2024-12-31T13:14:34.420Z</time>
      </trkpt>
      <trkpt lat="48.69593" lon="2.05604">
        <ele>149</ele>
        <time>2024-12-31T13:14:37.043Z</time>
      </trkpt>
      <trkpt lat="48.69597" lon="2.05608">
        <ele>148.8</ele>
        <time>2024-12-31T13:14:39.666Z</time>
      </trkpt>
      <trkpt lat="48.69601" lon="2.05612">
        <ele>148.6</ele>
        <time>2024-12-31T13:14:42.289Z</time>
      </trkpt>
      <trkpt lat="48.69605" lon="2.05616">
        <ele>148.3</ele>
        <time>2024-12-31T13:14:44.912Z</time>
      </trkpt>
      <trkpt lat="48.69608" lon="2.05619">
        <ele>148</ele>
        <time>2024-12-31T13:14:47.535Z</time>
      </trkpt>
      <trkpt lat="48.69612" lon="2.05623">
        <ele>147.7</ele>
        <time>2024-12-31T13:14:50.158Z</time>
      </trkpt>
      <trkpt lat="48.69616" lon="2.05627">
        <ele>147.6</ele>
        <time>2024-12-31T13:14:52.781Z</time>
      </trkpt>
      <trkpt lat="48.6962" lon="2.05631">
        <ele>147.4</ele>
        <time>2024-12-31T13:14:55.404Z</time>
      </trkpt>
      <trkpt lat="48.69628" lon="2.05634">
        <ele>147.6</ele>
        <time>2024-12-31T13:15:00.783Z</time>
      </trkpt>
      <trkpt lat="48.69635" lon="2.05636">
        <ele>147.9</ele>
        <time>2024-12-31T13:15:06.162Z</time>
      </trkpt>
      <trkpt lat="48.69643" lon="2.05639">
        <ele>148.2</ele>
        <time>2024-12-31T13:15:11.541Z</time>
      </trkpt>
      <trkpt lat="48.6965" lon="2.05641">
        <ele>148.2</ele>
        <time>2024-12-31T13:15:16.920Z</time>
      </trkpt>
      <trkpt lat="48.69656" lon="2.05637">
        <ele>148.8</ele>
        <time>2024-12-31T13:15:22.477Z</time>
      </trkpt>
      <trkpt lat="48.69662" lon="2.05633">
        <ele>149.3</ele>
        <time>2024-12-31T13:15:28.034Z</time>
      </trkpt>
      <trkpt lat="48.6967" lon="2.05633">
        <ele>149.5</ele>
        <time>2024-12-31T13:15:33.731Z</time>
      </trkpt>
      <trkpt lat="48.69678" lon="2.05633">
        <ele>149.8</ele>
        <time>2024-12-31T13:15:39.429Z</time>
      </trkpt>
      <trkpt lat="48.69682" lon="2.05639">
        <ele>149.5</ele>
        <time>2024-12-31T13:15:42.610Z</time>
      </trkpt>
      <trkpt lat="48.69686" lon="2.05645">
        <ele>149.3</ele>
        <time>2024-12-31T13:15:45.792Z</time>
      </trkpt>
      <trkpt lat="48.69685" lon="2.05655">
        <ele>148.5</ele>
        <time>2024-12-31T13:15:49.615Z</time>
      </trkpt>
      <trkpt lat="48.69683" lon="2.05665">
        <ele>147.7</ele>
        <time>2024-12-31T13:15:53.440Z</time>
      </trkpt>
      <trkpt lat="48.6969" lon="2.05666">
        <ele>147.9</ele>
        <time>2024-12-31T13:15:57.955Z</time>
      </trkpt>
      <trkpt lat="48.69696" lon="2.05666">
        <ele>148</ele>
        <time>2024-12-31T13:16:02.471Z</time>
      </trkpt>
      <trkpt lat="48.69703" lon="2.05666">
        <ele>148.1</ele>
        <time>2024-12-31T13:16:06.774Z</time>
      </trkpt>
      <trkpt lat="48.69709" lon="2.05665">
        <ele>148.1</ele>
        <time>2024-12-31T13:16:11.077Z</time>
      </trkpt>
      <trkpt lat="48.69716" lon="2.05663">
        <ele>148.2</ele>
        <time>2024-12-31T13:16:15.277Z</time>
      </trkpt>
      <trkpt lat="48.69724" lon="2.0566">
        <ele>148.1</ele>
        <time>2024-12-31T13:16:19.477Z</time>
      </trkpt>
      <trkpt lat="48.69731" lon="2.05658">
        <ele>147.3</ele>
        <time>2024-12-31T13:16:23.678Z</time>
      </trkpt>
      <trkpt lat="48.69738" lon="2.05655">
        <ele>146.5</ele>
        <time>2024-12-31T13:16:27.879Z</time>
      </trkpt>
      <trkpt lat="48.69746" lon="2.05649">
        <ele>145.6</ele>
        <time>2024-12-31T13:16:32.754Z</time>
      </trkpt>
      <trkpt lat="48.69754" lon="2.05644">
        <ele>144.7</ele>
        <time>2024-12-31T13:16:37.629Z</time>
      </trkpt>
      <trkpt lat="48.69761" lon="2.05638">
        <ele>144.2</ele>
        <time>2024-12-31T13:16:42.504Z</time>
      </trkpt>
      <trkpt lat="48.69769" lon="2.05632">
        <ele>143.7</ele>
        <time>2024-12-31T13:16:47.379Z</time>
      </trkpt>
      <trkpt lat="48.69773" lon="2.05623">
        <ele>143.4</ele>
        <time>2024-12-31T13:16:51.581Z</time>
      </trkpt>
      <trkpt lat="48.69778" lon="2.05614">
        <ele>143</ele>
        <time>2024-12-31T13:16:55.783Z</time>
      </trkpt>
      <trkpt lat="48.69782" lon="2.05604">
        <ele>142.5</ele>
        <time>2024-12-31T13:16:59.986Z</time>
      </trkpt>
      <trkpt lat="48.69786" lon="2.05595">
        <ele>141.8</ele>
        <time>2024-12-31T13:17:04.189Z</time>
      </trkpt>
      <trkpt lat="48.69787" lon="2.05587">
        <ele>141.6</ele>
        <time>2024-12-31T13:17:07.284Z</time>
      </trkpt>
      <trkpt lat="48.69788" lon="2.05579">
        <ele>141.3</ele>
        <time>2024-12-31T13:17:10.379Z</time>
      </trkpt>
      <trkpt lat="48.69789" lon="2.05571">
        <ele>140.9</ele>
        <time>2024-12-31T13:17:13.474Z</time>
      </trkpt>
      <trkpt lat="48.69791" lon="2.05563">
        <ele>140.5</ele>
        <time>2024-12-31T13:17:16.569Z</time>
      </trkpt>
      <trkpt lat="48.69792" lon="2.05554">
        <ele>140</ele>
        <time>2024-12-31T13:17:19.664Z</time>
      </trkpt>
      <trkpt lat="48.69793" lon="2.05546">
        <ele>139.5</ele>
        <time>2024-12-31T13:17:22.759Z</time>
      </trkpt>
      <trkpt lat="48.69794" lon="2.05538">
        <ele>139</ele>
        <time>2024-12-31T13:17:25.854Z</time>
      </trkpt>
      <trkpt lat="48.69795" lon="2.0553">
        <ele>138.5</ele>
        <time>2024-12-31T13:17:28.950Z</time>
      </trkpt>
      <trkpt lat="48.69796" lon="2.05522">
        <ele>137.9</ele>
        <time>2024-12-31T13:17:32.046Z</time>
      </trkpt>
      <trkpt lat="48.69797" lon="2.05514">
        <ele>137.2</ele>
        <time>2024-12-31T13:17:35.142Z</time>
      </trkpt>
      <trkpt lat="48.69798" lon="2.05506">
        <ele>136.5</ele>
        <time>2024-12-31T13:17:38.238Z</time>
      </trkpt>
      <trkpt lat="48.698" lon="2.05498">
        <ele>135.9</ele>
        <time>2024-12-31T13:17:41.334Z</time>
      </trkpt>
      <trkpt lat="48.69801" lon="2.05489">
        <ele>135.3</ele>
        <time>2024-12-31T13:17:44.430Z</time>
      </trkpt>
      <trkpt lat="48.69802" lon="2.05481">
        <ele>134.7</ele>
        <time>2024-12-31T13:17:47.526Z</time>
      </trkpt>
      <trkpt lat="48.69803" lon="2.05473">
        <ele>134</ele>
        <time>2024-12-31T13:17:50.622Z</time>
      </trkpt>
      <trkpt lat="48.69804" lon="2.05465">
        <ele>133.5</ele>
        <time>2024-12-31T13:17:53.718Z</time>
      </trkpt>
      <trkpt lat="48.69807" lon="2.05476">
        <ele>132.8</ele>
        <time>2024-12-31T13:17:58.242Z</time>
      </trkpt>
      <trkpt lat="48.6981" lon="2.05488">
        <ele>132.3</ele>
        <time>2024-12-31T13:18:02.766Z</time>
      </trkpt>
      <trkpt lat="48.69813" lon="2.05499">
        <ele>131.8</ele>
        <time>2024-12-31T13:18:07.290Z</time>
      </trkpt>
      <trkpt lat="48.69816" lon="2.0551">
        <ele>131.2</ele>
        <time>2024-12-31T13:18:11.815Z</time>
      </trkpt>
      <trkpt lat="48.69821" lon="2.05521">
        <ele>129.8</ele>
        <time>2024-12-31T13:18:16.726Z</time>
      </trkpt>
      <trkpt lat="48.69827" lon="2.05531">
        <ele>128.3</ele>
        <time>2024-12-31T13:18:21.638Z</time>
      </trkpt>
      <trkpt lat="48.69832" lon="2.05542">
        <ele>127</ele>
        <time>2024-12-31T13:18:26.550Z</time>
      </trkpt>
      <trkpt lat="48.69837" lon="2.05552">
        <ele>126.1</ele>
        <time>2024-12-31T13:18:31.462Z</time>
      </trkpt>
      <trkpt lat="48.69841" lon="2.05558">
        <ele>125.5</ele>
        <time>2024-12-31T13:18:34.310Z</time>
      </trkpt>
      <trkpt lat="48.69844" lon="2.05563">
        <ele>124.9</ele>
        <time>2024-12-31T13:18:37.159Z</time>
      </trkpt>
      <trkpt lat="48.69848" lon="2.05569">
        <ele>124.2</ele>
        <time>2024-12-31T13:18:40.008Z</time>
      </trkpt>
      <trkpt lat="48.69851" lon="2.05574">
        <ele>123.4</ele>
        <time>2024-12-31T13:18:42.857Z</time>
      </trkpt>
      <trkpt lat="48.69857" lon="2.05575">
        <ele>122.1</ele>
        <time>2024-12-31T13:18:45.986Z</time>
      </trkpt>
      <trkpt lat="48.69862" lon="2.05576">
        <ele>120.9</ele>
        <time>2024-12-31T13:18:49.115Z</time>
      </trkpt>
      <trkpt lat="48.69868" lon="2.05577">
        <ele>120</ele>
        <time>2024-12-31T13:18:52.244Z</time>
      </trkpt>
      <trkpt lat="48.69873" lon="2.05578">
        <ele>119.2</ele>
        <time>2024-12-31T13:18:55.374Z</time>
      </trkpt>
      <trkpt lat="48.69879" lon="2.05578">
        <ele>118.3</ele>
        <time>2024-12-31T13:18:58.622Z</time>
      </trkpt>
      <trkpt lat="48.69885" lon="2.05578">
        <ele>117.5</ele>
        <time>2024-12-31T13:19:01.870Z</time>
      </trkpt>
      <trkpt lat="48.6989" lon="2.05578">
        <ele>116.7</ele>
        <time>2024-12-31T13:19:05.119Z</time>
      </trkpt>
      <trkpt lat="48.69896" lon="2.05578">
        <ele>116</ele>
        <time>2024-12-31T13:19:08.368Z</time>
      </trkpt>
      <trkpt lat="48.69903" lon="2.05579">
        <ele>115.3</ele>
        <time>2024-12-31T13:19:12.195Z</time>
      </trkpt>
      <trkpt lat="48.6991" lon="2.0558">
        <ele>114.6</ele>
        <time>2024-12-31T13:19:16.022Z</time>
      </trkpt>
      <trkpt lat="48.69916" lon="2.05581">
        <ele>114</ele>
        <time>2024-12-31T13:19:19.849Z</time>
      </trkpt>
      <trkpt lat="48.69923" lon="2.05582">
        <ele>113.3</ele>
        <time>2024-12-31T13:19:23.676Z</time>
      </trkpt>
      <trkpt lat="48.6993" lon="2.05582">
        <ele>112.6</ele>
        <time>2024-12-31T13:19:27.503Z</time>
      </trkpt>
      <trkpt lat="48.69937" lon="2.05583">
        <ele>111.9</ele>
        <time>2024-12-31T13:19:31.330Z</time>
      </trkpt>
      <trkpt lat="48.69943" lon="2.05584">
        <ele>111.1</ele>
        <time>2024-12-31T13:19:35.158Z</time>
      </trkpt>
      <trkpt lat="48.6995" lon="2.05585">
        <ele>110.4</ele>
        <time>2024-12-31T13:19:38.986Z</time>
      </trkpt>
      <trkpt lat="48.69958" lon="2.05587">
        <ele>109.5</ele>
        <time>2024-12-31T13:19:43.566Z</time>
      </trkpt>
      <trkpt lat="48.69966" lon="2.05589">
        <ele>108.5</ele>
        <time>2024-12-31T13:19:48.146Z</time>
      </trkpt>
      <trkpt lat="48.69974" lon="2.05591">
        <ele>107.5</ele>
        <time>2024-12-31T13:19:52.726Z</time>
      </trkpt>
      <trkpt lat="48.69982" lon="2.05593">
        <ele>106.2</ele>
        <time>2024-12-31T13:19:57.307Z</time>
      </trkpt>
      <trkpt lat="48.6999" lon="2.05595">
        <ele>105</ele>
        <time>2024-12-31T13:20:01.888Z</time>
      </trkpt>
      <trkpt lat="48.69998" lon="2.05597">
        <ele>103.8</ele>
        <time>2024-12-31T13:20:06.469Z</time>
      </trkpt>
      <trkpt lat="48.70006" lon="2.05599">
        <ele>102.8</ele>
        <time>2024-12-31T13:20:11.050Z</time>
      </trkpt>
      <trkpt lat="48.70014" lon="2.05601">
        <ele>101.9</ele>
        <time>2024-12-31T13:20:15.631Z</time>
      </trkpt>
      <trkpt lat="48.7002" lon="2.05604">
        <ele>101.1</ele>
        <time>2024-12-31T13:20:19.239Z</time>
      </trkpt>
      <trkpt lat="48.70026" lon="2.05607">
        <ele>100.3</ele>
        <time>2024-12-31T13:20:22.848Z</time>
      </trkpt>
      <trkpt lat="48.70032" lon="2.05609">
        <ele>99.6</ele>
        <time>2024-12-31T13:20:26.457Z</time>
      </trkpt>
      <trkpt lat="48.70039" lon="2.05612">
        <ele>98.8</ele>
        <time>2024-12-31T13:20:30.066Z</time>
      </trkpt>
      <trkpt lat="48.70045" lon="2.05615">
        <ele>98.1</ele>
        <time>2024-12-31T13:20:33.675Z</time>
      </trkpt>
      <trkpt lat="48.70051" lon="2.05618">
        <ele>97.3</ele>
        <time>2024-12-31T13:20:37.284Z</time>
      </trkpt>
      <trkpt lat="48.70057" lon="2.0562">
        <ele>96.6</ele>
        <time>2024-12-31T13:20:40.893Z</time>
      </trkpt>
      <trkpt lat="48.70063" lon="2.05623">
        <ele>96</ele>
        <time>2024-12-31T13:20:44.502Z</time>
      </trkpt>
      <trkpt lat="48.70069" lon="2.05628">
        <ele>95.4</ele>
        <time>2024-12-31T13:20:48.370Z</time>
      </trkpt>
      <trkpt lat="48.70075" lon="2.05633">
        <ele>94.8</ele>
        <time>2024-12-31T13:20:52.238Z</time>
      </trkpt>
      <trkpt lat="48.70081" lon="2.05638">
        <ele>94.2</ele>
        <time>2024-12-31T13:20:56.107Z</time>
      </trkpt>
      <trkpt lat="48.70087" lon="2.05643">
        <ele>93.6</ele>
        <time>2024-12-31T13:20:59.976Z</time>
      </trkpt>
      <trkpt lat="48.70092" lon="2.05644">
        <ele>93.1</ele>
        <time>2024-12-31T13:21:02.825Z</time>
      </trkpt>
      <trkpt lat="48.701" lon="2.05641">
        <ele>92.2</ele>
        <time>2024-12-31T13:21:07.287Z</time>
      </trkpt>
      <trkpt lat="48.70107" lon="2.05638">
        <ele>91.4</ele>
        <time>2024-12-31T13:21:11.749Z</time>
      </trkpt>
      <trkpt lat="48.70115" lon="2.05635">
        <ele>90.7</ele>
        <time>2024-12-31T13:21:16.211Z</time>
      </trkpt>
      <trkpt lat="48.70123" lon="2.05632">
        <ele>90.1</ele>
        <time>2024-12-31T13:21:20.673Z</time>
      </trkpt>
      <trkpt lat="48.7013" lon="2.05628">
        <ele>89.4</ele>
        <time>2024-12-31T13:21:25.135Z</time>
      </trkpt>
      <trkpt lat="48.70138" lon="2.05625">
        <ele>88.6</ele>
        <time>2024-12-31T13:21:29.598Z</time>
      </trkpt>
      <trkpt lat="48.70145" lon="2.05622">
        <ele>88.1</ele>
        <time>2024-12-31T13:21:34.061Z</time>
      </trkpt>
      <trkpt lat="48.70153" lon="2.05619">
        <ele>87.6</ele>
        <time>2024-12-31T13:21:38.524Z</time>
      </trkpt>
      <trkpt lat="48.70158" lon="2.05615">
        <ele>87.4</ele>
        <time>2024-12-31T13:21:41.487Z</time>
      </trkpt>
      <trkpt lat="48.70162" lon="2.05612">
        <ele>87.2</ele>
        <time>2024-12-31T13:21:44.450Z</time>
      </trkpt>
      <trkpt lat="48.70167" lon="2.05608">
        <ele>87</ele>
        <time>2024-12-31T13:21:47.413Z</time>
      </trkpt>
      <trkpt lat="48.70172" lon="2.05604">
        <ele>86.5</ele>
        <time>2024-12-31T13:21:50.376Z</time>
      </trkpt>
      <trkpt lat="48.70176" lon="2.056">
        <ele>86</ele>
        <time>2024-12-31T13:21:53.340Z</time>
      </trkpt>
      <trkpt lat="48.70181" lon="2.05597">
        <ele>85.5</ele>
        <time>2024-12-31T13:21:56.304Z</time>
      </trkpt>
      <trkpt lat="48.70185" lon="2.05593">
        <ele>85</ele>
        <time>2024-12-31T13:21:59.268Z</time>
      </trkpt>
      <trkpt lat="48.7019" lon="2.05589">
        <ele>84.5</ele>
        <time>2024-12-31T13:22:02.232Z</time>
      </trkpt>
      <trkpt lat="48.70197" lon="2.05583">
        <ele>83.9</ele>
        <time>2024-12-31T13:22:06.531Z</time>
      </trkpt>
      <trkpt lat="48.70203" lon="2.05577">
        <ele>83.3</ele>
        <time>2024-12-31T13:22:10.831Z</time>
      </trkpt>
      <trkpt lat="48.7021" lon="2.05571">
        <ele>82.7</ele>
        <time>2024-12-31T13:22:15.131Z</time>
      </trkpt>
      <trkpt lat="48.70216" lon="2.05565">
        <ele>81.9</ele>
        <time>2024-12-31T13:22:19.431Z</time>
      </trkpt>
      <trkpt lat="48.70215" lon="2.05555">
        <ele>81.8</ele>
        <time>2024-12-31T13:22:23.740Z</time>
      </trkpt>
      <trkpt lat="48.70214" lon="2.05545">
        <ele>81.9</ele>
        <time>2024-12-31T13:22:28.050Z</time>
      </trkpt>
      <trkpt lat="48.70213" lon="2.05537">
        <ele>82</ele>
        <time>2024-12-31T13:22:31.609Z</time>
      </trkpt>
      <trkpt lat="48.70212" lon="2.0553">
        <ele>82.1</ele>
        <time>2024-12-31T13:22:35.169Z</time>
      </trkpt>
      <trkpt lat="48.70211" lon="2.05522">
        <ele>82.2</ele>
        <time>2024-12-31T13:22:38.729Z</time>
      </trkpt>
      <trkpt lat="48.70211" lon="2.05515">
        <ele>82.3</ele>
        <time>2024-12-31T13:22:42.289Z</time>
      </trkpt>
      <trkpt lat="48.7021" lon="2.05507">
        <ele>82.4</ele>
        <time>2024-12-31T13:22:45.849Z</time>
      </trkpt>
      <trkpt lat="48.70209" lon="2.05499">
        <ele>82.5</ele>
        <time>2024-12-31T13:22:49.409Z</time>
      </trkpt>
      <trkpt lat="48.70208" lon="2.05492">
        <ele>82.7</ele>
        <time>2024-12-31T13:22:52.969Z</time>
      </trkpt>
      <trkpt lat="48.70207" lon="2.05484">
        <ele>82.9</ele>
        <time>2024-12-31T13:22:56.530Z</time>
      </trkpt>
      <trkpt lat="48.70206" lon="2.05473">
        <ele>83.2</ele>
        <time>2024-12-31T13:23:01.816Z</time>
      </trkpt>
      <trkpt lat="48.70205" lon="2.05462">
        <ele>83.5</ele>
        <time>2024-12-31T13:23:07.102Z</time>
      </trkpt>
      <trkpt lat="48.70204" lon="2.0545">
        <ele>83.8</ele>
        <time>2024-12-31T13:23:12.388Z</time>
      </trkpt>
      <trkpt lat="48.70203" lon="2.05439">
        <ele>84.1</ele>
        <time>2024-12-31T13:23:17.674Z</time>
      </trkpt>
      <trkpt lat="48.70202" lon="2.05428">
        <ele>84.2</ele>
        <time>2024-12-31T13:23:22.960Z</time>
      </trkpt>
      <trkpt lat="48.70201" lon="2.05417">
        <ele>84.3</ele>
        <time>2024-12-31T13:23:28.247Z</time>
      </trkpt>
      <trkpt lat="48.702" lon="2.05405">
        <ele>84.5</ele>
        <time>2024-12-31T13:23:33.534Z</time>
      </trkpt>
      <trkpt lat="48.70199" lon="2.05394">
        <ele>84.6</ele>
        <time>2024-12-31T13:23:38.822Z</time>
      </trkpt>
      <trkpt lat="48.70199" lon="2.05381">
        <ele>84.9</ele>
        <time>2024-12-31T13:23:45.055Z</time>
      </trkpt>
      <trkpt lat="48.70199" lon="2.05368">
        <ele>85.4</ele>
        <time>2024-12-31T13:23:51.289Z</time>
      </trkpt>
      <trkpt lat="48.70198" lon="2.05354">
        <ele>85.6</ele>
        <time>2024-12-31T13:23:57.523Z</time>
      </trkpt>
      <trkpt lat="48.70198" lon="2.05341">
        <ele>85.7</ele>
        <time>2024-12-31T13:24:03.758Z</time>
      </trkpt>
      <trkpt lat="48.70199" lon="2.0533">
        <ele>85.8</ele>
        <time>2024-12-31T13:24:08.959Z</time>
      </trkpt>
      <trkpt lat="48.702" lon="2.0532">
        <ele>86.1</ele>
        <time>2024-12-31T13:24:14.160Z</time>
      </trkpt>
      <trkpt lat="48.702" lon="2.05309">
        <ele>86.5</ele>
        <time>2024-12-31T13:24:19.362Z</time>
      </trkpt>
      <trkpt lat="48.70201" lon="2.05298">
        <ele>86.8</ele>
        <time>2024-12-31T13:24:24.564Z</time>
      </trkpt>
      <trkpt lat="48.70207" lon="2.05299">
        <ele>86.4</ele>
        <time>2024-12-31T13:24:27.693Z</time>
      </trkpt>
      <trkpt lat="48.70212" lon="2.053">
        <ele>85.9</ele>
        <time>2024-12-31T13:24:30.823Z</time>
      </trkpt>
      <trkpt lat="48.70217" lon="2.053">
        <ele>85.6</ele>
        <time>2024-12-31T13:24:33.365Z</time>
      </trkpt>
      <trkpt lat="48.70221" lon="2.053">
        <ele>85.3</ele>
        <time>2024-12-31T13:24:35.908Z</time>
      </trkpt>
      <trkpt lat="48.70226" lon="2.05296">
        <ele>85.2</ele>
        <time>2024-12-31T13:24:39.367Z</time>
      </trkpt>
      <trkpt lat="48.7023" lon="2.0529">
        <ele>85.3</ele>
        <time>2024-12-31T13:24:43.360Z</time>
      </trkpt>
      <trkpt lat="48.70234" lon="2.05283">
        <ele>85.4</ele>
        <time>2024-12-31T13:24:47.353Z</time>
      </trkpt>
      <trkpt lat="48.70237" lon="2.05277">
        <ele>85.5</ele>
        <time>2024-12-31T13:24:50.833Z</time>
      </trkpt>
      <trkpt lat="48.7024" lon="2.0527">
        <ele>85.6</ele>
        <time>2024-12-31T13:24:54.313Z</time>
      </trkpt>
      <trkpt lat="48.70242" lon="2.05264">
        <ele>85.8</ele>
        <time>2024-12-31T13:24:57.793Z</time>
      </trkpt>
      <trkpt lat="48.70245" lon="2.05258">
        <ele>85.9</ele>
        <time>2024-12-31T13:25:01.273Z</time>
      </trkpt>
      <trkpt lat="48.70248" lon="2.05251">
        <ele>86</ele>
        <time>2024-12-31T13:25:04.753Z</time>
      </trkpt>
      <trkpt lat="48.70251" lon="2.05245">
        <ele>86.2</ele>
        <time>2024-12-31T13:25:08.233Z</time>
      </trkpt>
      <trkpt lat="48.70253" lon="2.05238">
        <ele>86.2</ele>
        <time>2024-12-31T13:25:11.713Z</time>
      </trkpt>
      <trkpt lat="48.70256" lon="2.05232">
        <ele>86.3</ele>
        <time>2024-12-31T13:25:15.194Z</time>
      </trkpt>
      <trkpt lat="48.7026" lon="2.05224">
        <ele>86.2</ele>
        <time>2024-12-31T13:25:19.486Z</time>
      </trkpt>
      <trkpt lat="48.70264" lon="2.05217">
        <ele>86.1</ele>
        <time>2024-12-31T13:25:23.778Z</time>
      </trkpt>
      <trkpt lat="48.70268" lon="2.05209">
        <ele>86</ele>
        <time>2024-12-31T13:25:28.070Z</time>
      </trkpt>
      <trkpt lat="48.70273" lon="2.05201">
        <ele>86</ele>
        <time>2024-12-31T13:25:32.362Z</time>
      </trkpt>
      <trkpt lat="48.70277" lon="2.05193">
        <ele>86.1</ele>
        <time>2024-12-31T13:25:36.655Z</time>
      </trkpt>
      <trkpt lat="48.70281" lon="2.05186">
        <ele>86.2</ele>
        <time>2024-12-31T13:25:40.948Z</time>
      </trkpt>
      <trkpt lat="48.70285" lon="2.05178">
        <ele>86.3</ele>
        <time>2024-12-31T13:25:45.241Z</time>
      </trkpt>
      <trkpt lat="48.70289" lon="2.0517">
        <ele>86.5</ele>
        <time>2024-12-31T13:25:49.534Z</time>
      </trkpt>
      <trkpt lat="48.70293" lon="2.05159">
        <ele>86.6</ele>
        <time>2024-12-31T13:25:54.994Z</time>
      </trkpt>
      <trkpt lat="48.70298" lon="2.05148">
        <ele>86.5</ele>
        <time>2024-12-31T13:26:00.454Z</time>
      </trkpt>
      <trkpt lat="48.70302" lon="2.05137">
        <ele>86.3</ele>
        <time>2024-12-31T13:26:05.914Z</time>
      </trkpt>
      <trkpt lat="48.70306" lon="2.05127">
        <ele>86.4</ele>
        <time>2024-12-31T13:26:11.374Z</time>
      </trkpt>
      <trkpt lat="48.7031" lon="2.05116">
        <ele>86.7</ele>
        <time>2024-12-31T13:26:16.835Z</time>
      </trkpt>
      <trkpt lat="48.70315" lon="2.05105">
        <ele>86.8</ele>
        <time>2024-12-31T13:26:22.296Z</time>
      </trkpt>
      <trkpt lat="48.70319" lon="2.05094">
        <ele>86.9</ele>
        <time>2024-12-31T13:26:27.757Z</time>
      </trkpt>
      <trkpt lat="48.70323" lon="2.05083">
        <ele>86.8</ele>
        <time>2024-12-31T13:26:33.218Z</time>
      </trkpt>
      <trkpt lat="48.70327" lon="2.05075">
        <ele>86.7</ele>
        <time>2024-12-31T13:26:37.231Z</time>
      </trkpt>
      <trkpt lat="48.7033" lon="2.05067">
        <ele>86.7</ele>
        <time>2024-12-31T13:26:41.244Z</time>
      </trkpt>
      <trkpt lat="48.70334" lon="2.05059">
        <ele>86.8</ele>
        <time>2024-12-31T13:26:45.257Z</time>
      </trkpt>
      <trkpt lat="48.70338" lon="2.05051">
        <ele>86.7</ele>
        <time>2024-12-31T13:26:49.270Z</time>
      </trkpt>
      <trkpt lat="48.70341" lon="2.05043">
        <ele>86.6</ele>
        <time>2024-12-31T13:26:53.283Z</time>
      </trkpt>
      <trkpt lat="48.70345" lon="2.05035">
        <ele>86.5</ele>
        <time>2024-12-31T13:26:57.296Z</time>
      </trkpt>
      <trkpt lat="48.70348" lon="2.05027">
        <ele>86.5</ele>
        <time>2024-12-31T13:27:01.310Z</time>
      </trkpt>
      <trkpt lat="48.70352" lon="2.05019">
        <ele>86.3</ele>
        <time>2024-12-31T13:27:05.324Z</time>
      </trkpt>
      <trkpt lat="48.70354" lon="2.05011">
        <ele>86.3</ele>
        <time>2024-12-31T13:27:08.629Z</time>
      </trkpt>
      <trkpt lat="48.70356" lon="2.05004">
        <ele>86.2</ele>
        <time>2024-12-31T13:27:11.934Z</time>
      </trkpt>
      <trkpt lat="48.70358" lon="2.04996">
        <ele>86.1</ele>
        <time>2024-12-31T13:27:15.239Z</time>
      </trkpt>
      <trkpt lat="48.7036" lon="2.04989">
        <ele>86.1</ele>
        <time>2024-12-31T13:27:18.544Z</time>
      </trkpt>
      <trkpt lat="48.70362" lon="2.04981">
        <ele>85.9</ele>
        <time>2024-12-31T13:27:21.849Z</time>
      </trkpt>
      <trkpt lat="48.70364" lon="2.04973">
        <ele>85.8</ele>
        <time>2024-12-31T13:27:25.154Z</time>
      </trkpt>
      <trkpt lat="48.70366" lon="2.04966">
        <ele>85.6</ele>
        <time>2024-12-31T13:27:28.459Z</time>
      </trkpt>
      <trkpt lat="48.70368" lon="2.04958">
        <ele>85.5</ele>
        <time>2024-12-31T13:27:31.765Z</time>
      </trkpt>
      <trkpt lat="48.70371" lon="2.04952">
        <ele>85.3</ele>
        <time>2024-12-31T13:27:34.854Z</time>
      </trkpt>
      <trkpt lat="48.70373" lon="2.04945">
        <ele>85.1</ele>
        <time>2024-12-31T13:27:37.943Z</time>
      </trkpt>
      <trkpt lat="48.70376" lon="2.04939">
        <ele>85</ele>
        <time>2024-12-31T13:27:41.032Z</time>
      </trkpt>
      <trkpt lat="48.70379" lon="2.04932">
        <ele>85</ele>
        <time>2024-12-31T13:27:44.121Z</time>
      </trkpt>
      <trkpt lat="48.70381" lon="2.04926">
        <ele>85</ele>
        <time>2024-12-31T13:27:47.210Z</time>
      </trkpt>
      <trkpt lat="48.70384" lon="2.04919">
        <ele>85.1</ele>
        <time>2024-12-31T13:27:50.300Z</time>
      </trkpt>
      <trkpt lat="48.70387" lon="2.04913">
        <ele>85.1</ele>
        <time>2024-12-31T13:27:53.390Z</time>
      </trkpt>
      <trkpt lat="48.7039" lon="2.04907">
        <ele>85</ele>
        <time>2024-12-31T13:27:56.480Z</time>
      </trkpt>
      <trkpt lat="48.70392" lon="2.049">
        <ele>84.8</ele>
        <time>2024-12-31T13:27:59.570Z</time>
      </trkpt>
      <trkpt lat="48.70395" lon="2.04894">
        <ele>84.6</ele>
        <time>2024-12-31T13:28:02.660Z</time>
      </trkpt>
      <trkpt lat="48.70398" lon="2.04887">
        <ele>84.4</ele>
        <time>2024-12-31T13:28:05.750Z</time>
      </trkpt>
      <trkpt lat="48.704" lon="2.04881">
        <ele>84.3</ele>
        <time>2024-12-31T13:28:08.840Z</time>
      </trkpt>
      <trkpt lat="48.70403" lon="2.04874">
        <ele>84.3</ele>
        <time>2024-12-31T13:28:11.930Z</time>
      </trkpt>
      <trkpt lat="48.70406" lon="2.04868">
        <ele>84.3</ele>
        <time>2024-12-31T13:28:15.020Z</time>
      </trkpt>
      <trkpt lat="48.70408" lon="2.04861">
        <ele>84.3</ele>
        <time>2024-12-31T13:28:18.110Z</time>
      </trkpt>
      <trkpt lat="48.70411" lon="2.04855">
        <ele>84.2</ele>
        <time>2024-12-31T13:28:21.200Z</time>
      </trkpt>
      <trkpt lat="48.70415" lon="2.04843">
        <ele>84.1</ele>
        <time>2024-12-31T13:28:26.503Z</time>
      </trkpt>
      <trkpt lat="48.70418" lon="2.04831">
        <ele>83.9</ele>
        <time>2024-12-31T13:28:31.806Z</time>
      </trkpt>
      <trkpt lat="48.70419" lon="2.04824">
        <ele>83.7</ele>
        <time>2024-12-31T13:28:34.719Z</time>
      </trkpt>
      <trkpt lat="48.70421" lon="2.04817">
        <ele>83.6</ele>
        <time>2024-12-31T13:28:37.632Z</time>
      </trkpt>
      <trkpt lat="48.70422" lon="2.04809">
        <ele>83.5</ele>
        <time>2024-12-31T13:28:40.545Z</time>
      </trkpt>
      <trkpt lat="48.70423" lon="2.04802">
        <ele>83.3</ele>
        <time>2024-12-31T13:28:43.459Z</time>
      </trkpt>
      <trkpt lat="48.70425" lon="2.04794">
        <ele>83.1</ele>
        <time>2024-12-31T13:28:46.933Z</time>
      </trkpt>
      <trkpt lat="48.70427" lon="2.04785">
        <ele>82.9</ele>
        <time>2024-12-31T13:28:50.408Z</time>
      </trkpt>
      <trkpt lat="48.70432" lon="2.04775">
        <ele>82.3</ele>
        <time>2024-12-31T13:28:55.086Z</time>
      </trkpt>
      <trkpt lat="48.70438" lon="2.0477">
        <ele>81.7</ele>
        <time>2024-12-31T13:28:58.785Z</time>
      </trkpt>
      <trkpt lat="48.70444" lon="2.04766">
        <ele>81.1</ele>
        <time>2024-12-31T13:29:02.485Z</time>
      </trkpt>
      <trkpt lat="48.70449" lon="2.04761">
        <ele>80.7</ele>
        <time>2024-12-31T13:29:06.185Z</time>
      </trkpt>
      <trkpt lat="48.70455" lon="2.04756">
        <ele>80.3</ele>
        <time>2024-12-31T13:29:09.885Z</time>
      </trkpt>
      <trkpt lat="48.70456" lon="2.04755">
        <ele>80.2</ele>
        <time>2024-12-31T13:29:10.562Z</time>
      </trkpt>
      <trkpt lat="48.70462" lon="2.04749">
        <ele>79.8</ele>
        <time>2024-12-31T13:29:14.369Z</time>
      </trkpt>
      <trkpt lat="48.70467" lon="2.04744">
        <ele>79.4</ele>
        <time>2024-12-31T13:29:18.176Z</time>
      </trkpt>
      <trkpt lat="48.70473" lon="2.04738">
        <ele>79</ele>
        <time>2024-12-31T13:29:21.983Z</time>
      </trkpt>
      <trkpt lat="48.70479" lon="2.04733">
        <ele>78.7</ele>
        <time>2024-12-31T13:29:25.790Z</time>
      </trkpt>
      <trkpt lat="48.70484" lon="2.04727">
        <ele>78.5</ele>
        <time>2024-12-31T13:29:29.597Z</time>
      </trkpt>
      <trkpt lat="48.7049" lon="2.04721">
        <ele>78.3</ele>
        <time>2024-12-31T13:29:33.405Z</time>
      </trkpt>
      <trkpt lat="48.70495" lon="2.04716">
        <ele>77.9</ele>
        <time>2024-12-31T13:29:37.213Z</time>
      </trkpt>
      <trkpt lat="48.70501" lon="2.0471">
        <ele>77.5</ele>
        <time>2024-12-31T13:29:41.021Z</time>
      </trkpt>
      <trkpt lat="48.70505" lon="2.04707">
        <ele>77.4</ele>
        <time>2024-12-31T13:29:43.771Z</time>
      </trkpt>
      <trkpt lat="48.7051" lon="2.04705">
        <ele>77.2</ele>
        <time>2024-12-31T13:29:46.522Z</time>
      </trkpt>
      <trkpt lat="48.70514" lon="2.04702">
        <ele>77.1</ele>
        <time>2024-12-31T13:29:49.273Z</time>
      </trkpt>
      <trkpt lat="48.70518" lon="2.047">
        <ele>77.1</ele>
        <time>2024-12-31T13:29:52.024Z</time>
      </trkpt>
      <trkpt lat="48.70522" lon="2.04697">
        <ele>77</ele>
        <time>2024-12-31T13:29:54.775Z</time>
      </trkpt>
      <trkpt lat="48.70527" lon="2.04694">
        <ele>77</ele>
        <time>2024-12-31T13:29:57.526Z</time>
      </trkpt>
      <trkpt lat="48.70531" lon="2.04692">
        <ele>76.8</ele>
        <time>2024-12-31T13:30:00.277Z</time>
      </trkpt>
      <trkpt lat="48.70535" lon="2.04689">
        <ele>76.6</ele>
        <time>2024-12-31T13:30:03.028Z</time>
      </trkpt>
      <trkpt lat="48.70542" lon="2.04683">
        <ele>76.6</ele>
        <time>2024-12-31T13:30:08.476Z</time>
      </trkpt>
      <trkpt lat="48.70548" lon="2.04676">
        <ele>77</ele>
        <time>2024-12-31T13:30:13.925Z</time>
      </trkpt>
      <trkpt lat="48.70554" lon="2.04668">
        <ele>77.8</ele>
        <time>2024-12-31T13:30:20.135Z</time>
      </trkpt>
      <trkpt lat="48.70559" lon="2.0466">
        <ele>78.1</ele>
        <time>2024-12-31T13:30:26.345Z</time>
      </trkpt>
      <trkpt lat="48.70563" lon="2.04651">
        <ele>78.1</ele>
        <time>2024-12-31T13:30:30.945Z</time>
      </trkpt>
      <trkpt lat="48.70567" lon="2.04642">
        <ele>78.1</ele>
        <time>2024-12-31T13:30:35.545Z</time>
      </trkpt>
      <trkpt lat="48.70571" lon="2.04633">
        <ele>78</ele>
        <time>2024-12-31T13:30:40.145Z</time>
      </trkpt>
      <trkpt lat="48.70576" lon="2.04625">
        <ele>78</ele>
        <time>2024-12-31T13:30:44.745Z</time>
      </trkpt>
      <trkpt lat="48.7058" lon="2.04616">
        <ele>78</ele>
        <time>2024-12-31T13:30:49.345Z</time>
      </trkpt>
      <trkpt lat="48.70584" lon="2.04607">
        <ele>78</ele>
        <time>2024-12-31T13:30:53.946Z</time>
      </trkpt>
      <trkpt lat="48.70588" lon="2.04598">
        <ele>78</ele>
        <time>2024-12-31T13:30:58.547Z</time>
      </trkpt>
      <trkpt lat="48.70592" lon="2.04589">
        <ele>78</ele>
        <time>2024-12-31T13:31:03.148Z</time>
      </trkpt>
      <trkpt lat="48.70598" lon="2.04579">
        <ele>78</ele>
        <time>2024-12-31T13:31:08.906Z</time>
      </trkpt>
      <trkpt lat="48.70604" lon="2.04569">
        <ele>78</ele>
        <time>2024-12-31T13:31:14.665Z</time>
      </trkpt>
      <trkpt lat="48.70609" lon="2.04569">
        <ele>78</ele>
        <time>2024-12-31T13:31:17.995Z</time>
      </trkpt>
      <trkpt lat="48.70614" lon="2.04569">
        <ele>78.1</ele>
        <time>2024-12-31T13:31:21.325Z</time>
      </trkpt>
      <trkpt lat="48.70618" lon="2.04569">
        <ele>78.1</ele>
        <time>2024-12-31T13:31:23.907Z</time>
      </trkpt>
      <trkpt lat="48.70623" lon="2.0457">
        <ele>78.2</ele>
        <time>2024-12-31T13:31:27.029Z</time>
      </trkpt>
      <trkpt lat="48.70627" lon="2.0457">
        <ele>78.3</ele>
        <time>2024-12-31T13:31:30.151Z</time>
      </trkpt>
      <trkpt lat="48.70634" lon="2.0457">
        <ele>78.4</ele>
        <time>2024-12-31T13:31:35.091Z</time>
      </trkpt>
      <trkpt lat="48.70642" lon="2.0457">
        <ele>78.5</ele>
        <time>2024-12-31T13:31:40.031Z</time>
      </trkpt>
      <trkpt lat="48.70649" lon="2.04569">
        <ele>78.7</ele>
        <time>2024-12-31T13:31:44.971Z</time>
      </trkpt>
      <trkpt lat="48.70656" lon="2.04569">
        <ele>78.8</ele>
        <time>2024-12-31T13:31:49.911Z</time>
      </trkpt>
      <trkpt lat="48.70658" lon="2.04557">
        <ele>78.1</ele>
        <time>2024-12-31T13:31:54.924Z</time>
      </trkpt>
      <trkpt lat="48.7066" lon="2.04544">
        <ele>78.3</ele>
        <time>2024-12-31T13:31:59.938Z</time>
      </trkpt>
      <trkpt lat="48.70661" lon="2.04534">
        <ele>78.6</ele>
        <time>2024-12-31T13:32:04.401Z</time>
      </trkpt>
      <trkpt lat="48.70662" lon="2.04525">
        <ele>78.8</ele>
        <time>2024-12-31T13:32:08.864Z</time>
      </trkpt>
      <trkpt lat="48.70663" lon="2.04515">
        <ele>78.8</ele>
        <time>2024-12-31T13:32:13.327Z</time>
      </trkpt>
      <trkpt lat="48.70664" lon="2.04505">
        <ele>78.8</ele>
        <time>2024-12-31T13:32:17.790Z</time>
      </trkpt>
      <trkpt lat="48.70664" lon="2.04493">
        <ele>78.8</ele>
        <time>2024-12-31T13:32:22.878Z</time>
      </trkpt>
      <trkpt lat="48.70665" lon="2.0448">
        <ele>78.8</ele>
        <time>2024-12-31T13:32:27.966Z</time>
      </trkpt>
      <trkpt lat="48.70665" lon="2.04468">
        <ele>78.7</ele>
        <time>2024-12-31T13:32:33.054Z</time>
      </trkpt>
      <trkpt lat="48.70665" lon="2.04455">
        <ele>78.3</ele>
        <time>2024-12-31T13:32:38.142Z</time>
      </trkpt>
      <trkpt lat="48.70667" lon="2.04445">
        <ele>78</ele>
        <time>2024-12-31T13:32:42.500Z</time>
      </trkpt>
      <trkpt lat="48.70669" lon="2.04435">
        <ele>78.1</ele>
        <time>2024-12-31T13:32:46.858Z</time>
      </trkpt>
      <trkpt lat="48.7067" lon="2.04425">
        <ele>78.1</ele>
        <time>2024-12-31T13:32:51.217Z</time>
      </trkpt>
      <trkpt lat="48.70672" lon="2.04415">
        <ele>78.2</ele>
        <time>2024-12-31T13:32:55.576Z</time>
      </trkpt>
      <trkpt lat="48.70673" lon="2.04406">
        <ele>78.2</ele>
        <time>2024-12-31T13:32:59.700Z</time>
      </trkpt>
      <trkpt lat="48.70675" lon="2.04397">
        <ele>78.3</ele>
        <time>2024-12-31T13:33:03.824Z</time>
      </trkpt>
      <trkpt lat="48.70676" lon="2.04387">
        <ele>78.3</ele>
        <time>2024-12-31T13:33:07.948Z</time>
      </trkpt>
      <trkpt lat="48.70677" lon="2.04378">
        <ele>78.4</ele>
        <time>2024-12-31T13:33:12.072Z</time>
      </trkpt>
      <trkpt lat="48.70677" lon="2.0437">
        <ele>78.4</ele>
        <time>2024-12-31T13:33:15.582Z</time>
      </trkpt>
      <trkpt lat="48.70677" lon="2.04362">
        <ele>78.4</ele>
        <time>2024-12-31T13:33:19.092Z</time>
      </trkpt>
      <trkpt lat="48.70677" lon="2.04354">
        <ele>78.5</ele>
        <time>2024-12-31T13:33:22.602Z</time>
      </trkpt>
      <trkpt lat="48.70677" lon="2.04346">
        <ele>78.6</ele>
        <time>2024-12-31T13:33:26.112Z</time>
      </trkpt>
      <trkpt lat="48.70676" lon="2.04334">
        <ele>78.7</ele>
        <time>2024-12-31T13:33:31.092Z</time>
      </trkpt>
      <trkpt lat="48.70676" lon="2.04323">
        <ele>78.6</ele>
        <time>2024-12-31T13:33:36.072Z</time>
      </trkpt>
      <trkpt lat="48.70675" lon="2.04311">
        <ele>78.6</ele>
        <time>2024-12-31T13:33:41.052Z</time>
      </trkpt>
      <trkpt lat="48.70674" lon="2.04299">
        <ele>78.5</ele>
        <time>2024-12-31T13:33:46.033Z</time>
      </trkpt>
      <trkpt lat="48.70674" lon="2.04287">
        <ele>78.4</ele>
        <time>2024-12-31T13:33:51.099Z</time>
      </trkpt>
      <trkpt lat="48.70675" lon="2.04275">
        <ele>78.3</ele>
        <time>2024-12-31T13:33:56.165Z</time>
      </trkpt>
      <trkpt lat="48.70675" lon="2.04263">
        <ele>78.3</ele>
        <time>2024-12-31T13:34:01.231Z</time>
      </trkpt>
      <trkpt lat="48.70675" lon="2.04251">
        <ele>78.3</ele>
        <time>2024-12-31T13:34:06.297Z</time>
      </trkpt>
      <trkpt lat="48.70675" lon="2.04239">
        <ele>78.3</ele>
        <time>2024-12-31T13:34:11.363Z</time>
      </trkpt>
      <trkpt lat="48.70676" lon="2.04227">
        <ele>78.3</ele>
        <time>2024-12-31T13:34:16.429Z</time>
      </trkpt>
      <trkpt lat="48.70676" lon="2.04215">
        <ele>78.3</ele>
        <time>2024-12-31T13:34:21.495Z</time>
      </trkpt>
      <trkpt lat="48.70676" lon="2.04203">
        <ele>78.3</ele>
        <time>2024-12-31T13:34:26.561Z</time>
      </trkpt>
      <trkpt lat="48.70676" lon="2.04196">
        <ele>78.3</ele>
        <time>2024-12-31T13:34:29.862Z</time>
      </trkpt>
      <trkpt lat="48.70676" lon="2.04189">
        <ele>78.4</ele>
        <time>2024-12-31T13:34:33.163Z</time>
      </trkpt>
      <trkpt lat="48.70675" lon="2.04181">
        <ele>78.5</ele>
        <time>2024-12-31T13:34:36.464Z</time>
      </trkpt>
      <trkpt lat="48.70675" lon="2.04174">
        <ele>78.5</ele>
        <time>2024-12-31T13:34:39.765Z</time>
      </trkpt>
      <trkpt lat="48.70675" lon="2.04167">
        <ele>78.6</ele>
        <time>2024-12-31T13:34:43.066Z</time>
      </trkpt>
      <trkpt lat="48.70675" lon="2.0416">
        <ele>78.7</ele>
        <time>2024-12-31T13:34:46.367Z</time>
      </trkpt>
      <trkpt lat="48.70674" lon="2.04152">
        <ele>78.9</ele>
        <time>2024-12-31T13:34:49.669Z</time>
      </trkpt>
      <trkpt lat="48.70674" lon="2.04145">
        <ele>79.1</ele>
        <time>2024-12-31T13:34:52.971Z</time>
      </trkpt>
      <trkpt lat="48.70673" lon="2.04135">
        <ele>79.1</ele>
        <time>2024-12-31T13:34:57.244Z</time>
      </trkpt>
      <trkpt lat="48.70673" lon="2.04125">
        <ele>78.8</ele>
        <time>2024-12-31T13:35:01.517Z</time>
      </trkpt>
      <trkpt lat="48.70672" lon="2.04114">
        <ele>78.5</ele>
        <time>2024-12-31T13:35:05.790Z</time>
      </trkpt>
      <trkpt lat="48.70672" lon="2.04104">
        <ele>78.6</ele>
        <time>2024-12-31T13:35:10.063Z</time>
      </trkpt>
      <trkpt lat="48.70671" lon="2.04094">
        <ele>78.8</ele>
        <time>2024-12-31T13:35:14.336Z</time>
      </trkpt>
      <trkpt lat="48.7067" lon="2.04084">
        <ele>79.1</ele>
        <time>2024-12-31T13:35:18.609Z</time>
      </trkpt>
      <trkpt lat="48.7067" lon="2.04074">
        <ele>79.1</ele>
        <time>2024-12-31T13:35:22.882Z</time>
      </trkpt>
      <trkpt lat="48.70669" lon="2.04064">
        <ele>79.1</ele>
        <time>2024-12-31T13:35:27.155Z</time>
      </trkpt>
      <trkpt lat="48.70668" lon="2.04053">
        <ele>79.1</ele>
        <time>2024-12-31T13:35:31.428Z</time>
      </trkpt>
      <trkpt lat="48.70668" lon="2.04043">
        <ele>79</ele>
        <time>2024-12-31T13:35:35.702Z</time>
      </trkpt>
      <trkpt lat="48.70667" lon="2.04033">
        <ele>79</ele>
        <time>2024-12-31T13:35:39.976Z</time>
      </trkpt>
      <trkpt lat="48.70667" lon="2.04023">
        <ele>79</ele>
        <time>2024-12-31T13:35:44.250Z</time>
      </trkpt>
      <trkpt lat="48.70666" lon="2.04013">
        <ele>79</ele>
        <time>2024-12-31T13:35:48.524Z</time>
      </trkpt>
      <trkpt lat="48.70665" lon="2.04002">
        <ele>79</ele>
        <time>2024-12-31T13:35:52.798Z</time>
      </trkpt>
      <trkpt lat="48.70665" lon="2.03992">
        <ele>78.7</ele>
        <time>2024-12-31T13:35:57.072Z</time>
      </trkpt>
      <trkpt lat="48.70664" lon="2.03982">
        <ele>78.4</ele>
        <time>2024-12-31T13:36:01.347Z</time>
        <extensions>
          <visugpx:TrkExtension xmlns:visugpx="https://www.visugpx.com/editgpx/">
            <visugpx:node>27</visugpx:node>
            </visugpx:TrkExtension>
        </extensions>
      </trkpt>
      <trkpt lat="48.70665" lon="2.03982">
        <ele>78.4</ele>
        <time>2024-12-31T13:36:02.099Z</time>
        <extensions>
          <visugpx:TrkExtension xmlns:visugpx="https://www.visugpx.com/editgpx/">
            <visugpx:node>26</visugpx:node>
            </visugpx:TrkExtension>
        </extensions>
      </trkpt>
      <trkpt lat="48.70665" lon="2.03981">
        <ele>78.3</ele>
        <time>2024-12-31T13:36:02.596Z</time>
      </trkpt>
      <trkpt lat="48.7067" lon="2.03979">
        <ele>78.5</ele>
        <time>2024-12-31T13:36:06.488Z</time>
      </trkpt>
      <trkpt lat="48.70672" lon="2.03978">
        <ele>78.6</ele>
        <time>2024-12-31T13:36:08.073Z</time>
      </trkpt>
      <trkpt lat="48.70677" lon="2.03977">
        <ele>78.8</ele>
        <time>2024-12-31T13:36:11.702Z</time>
      </trkpt>
      <trkpt lat="48.70682" lon="2.03976">
        <ele>79.1</ele>
        <time>2024-12-31T13:36:15.331Z</time>
      </trkpt>
      <trkpt lat="48.70686" lon="2.03974">
        <ele>79.4</ele>
        <time>2024-12-31T13:36:18.960Z</time>
      </trkpt>
      <trkpt lat="48.70691" lon="2.03973">
        <ele>79.8</ele>
        <time>2024-12-31T13:36:22.589Z</time>
      </trkpt>
      <trkpt lat="48.70697" lon="2.03971">
        <ele>80.1</ele>
        <time>2024-12-31T13:36:27.091Z</time>
      </trkpt>
      <trkpt lat="48.70703" lon="2.03968">
        <ele>80.3</ele>
        <time>2024-12-31T13:36:31.594Z</time>
      </trkpt>
      <trkpt lat="48.70708" lon="2.03966">
        <ele>80.6</ele>
        <time>2024-12-31T13:36:36.097Z</time>
      </trkpt>
      <trkpt lat="48.70714" lon="2.03963">
        <ele>80.9</ele>
        <time>2024-12-31T13:36:40.600Z</time>
      </trkpt>
      <trkpt lat="48.70718" lon="2.03959">
        <ele>81.2</ele>
        <time>2024-12-31T13:36:44.094Z</time>
      </trkpt>
      <trkpt lat="48.70722" lon="2.03955">
        <ele>81.6</ele>
        <time>2024-12-31T13:36:47.588Z</time>
      </trkpt>
      <trkpt lat="48.70726" lon="2.03951">
        <ele>81.9</ele>
        <time>2024-12-31T13:36:51.083Z</time>
      </trkpt>
      <trkpt lat="48.7073" lon="2.03948">
        <ele>82.2</ele>
        <time>2024-12-31T13:36:54.578Z</time>
      </trkpt>
      <trkpt lat="48.70733" lon="2.03944">
        <ele>82.4</ele>
        <time>2024-12-31T13:36:58.073Z</time>
      </trkpt>
      <trkpt lat="48.70737" lon="2.0394">
        <ele>82.5</ele>
        <time>2024-12-31T13:37:01.568Z</time>
      </trkpt>
      <trkpt lat="48.70741" lon="2.03936">
        <ele>82.7</ele>
        <time>2024-12-31T13:37:05.063Z</time>
      </trkpt>
      <trkpt lat="48.70745" lon="2.03932">
        <ele>82.8</ele>
        <time>2024-12-31T13:37:08.558Z</time>
      </trkpt>
      <trkpt lat="48.70747" lon="2.03941">
        <ele>82.9</ele>
        <time>2024-12-31T13:37:13.040Z</time>
      </trkpt>
      <trkpt lat="48.70749" lon="2.03949">
        <ele>83.1</ele>
        <time>2024-12-31T13:37:17.523Z</time>
      </trkpt>
      <trkpt lat="48.70751" lon="2.03958">
        <ele>83.6</ele>
        <time>2024-12-31T13:37:22.006Z</time>
      </trkpt>
      <trkpt lat="48.70753" lon="2.03966">
        <ele>84</ele>
        <time>2024-12-31T13:37:26.489Z</time>
      </trkpt>
      <trkpt lat="48.70754" lon="2.03977">
        <ele>84.3</ele>
        <time>2024-12-31T13:37:32.005Z</time>
      </trkpt>
      <trkpt lat="48.70759" lon="2.0398">
        <ele>84.6</ele>
        <time>2024-12-31T13:37:36.053Z</time>
      </trkpt>
      <trkpt lat="48.70766" lon="2.03975">
        <ele>85.1</ele>
        <time>2024-12-31T13:37:41.988Z</time>
      </trkpt>
      <trkpt lat="48.70773" lon="2.03969">
        <ele>85.7</ele>
        <time>2024-12-31T13:37:47.924Z</time>
      </trkpt>
      <trkpt lat="48.70779" lon="2.03967">
        <ele>86.3</ele>
        <time>2024-12-31T13:37:52.608Z</time>
      </trkpt>
      <trkpt lat="48.70785" lon="2.03964">
        <ele>86.8</ele>
        <time>2024-12-31T13:37:57.293Z</time>
      </trkpt>
      <trkpt lat="48.70793" lon="2.03958">
        <ele>87.6</ele>
        <time>2024-12-31T13:38:03.677Z</time>
      </trkpt>
      <trkpt lat="48.708" lon="2.03952">
        <ele>88.3</ele>
        <time>2024-12-31T13:38:10.061Z</time>
      </trkpt>
      <trkpt lat="48.70808" lon="2.03948">
        <ele>89</ele>
        <time>2024-12-31T13:38:16.046Z</time>
      </trkpt>
      <trkpt lat="48.70815" lon="2.03944">
        <ele>89.3</ele>
        <time>2024-12-31T13:38:22.031Z</time>
      </trkpt>
      <trkpt lat="48.70823" lon="2.03942">
        <ele>89.6</ele>
        <time>2024-12-31T13:38:28.180Z</time>
      </trkpt>
      <trkpt lat="48.70831" lon="2.03939">
        <ele>89.9</ele>
        <time>2024-12-31T13:38:34.329Z</time>
      </trkpt>
      <trkpt lat="48.70826" lon="2.03929">
        <ele>89.7</ele>
        <time>2024-12-31T13:38:40.562Z</time>
      </trkpt>
      <trkpt lat="48.70827" lon="2.0392">
        <ele>89.8</ele>
        <time>2024-12-31T13:38:45.314Z</time>
      </trkpt>
      <trkpt lat="48.70828" lon="2.0391">
        <ele>90</ele>
        <time>2024-12-31T13:38:50.067Z</time>
      </trkpt>
      <trkpt lat="48.70828" lon="2.03901">
        <ele>90.3</ele>
        <time>2024-12-31T13:38:54.820Z</time>
      </trkpt>
      <trkpt lat="48.70829" lon="2.03891">
        <ele>90.6</ele>
        <time>2024-12-31T13:38:59.573Z</time>
      </trkpt>
      <trkpt lat="48.70833" lon="2.03892">
        <ele>90.9</ele>
        <time>2024-12-31T13:39:02.625Z</time>
      </trkpt>
      <trkpt lat="48.70842" lon="2.03892">
        <ele>91.5</ele>
        <time>2024-12-31T13:39:09.023Z</time>
      </trkpt>
      <trkpt lat="48.7085" lon="2.03892">
        <ele>92.2</ele>
        <time>2024-12-31T13:39:15.421Z</time>
      </trkpt>
      <trkpt lat="48.70859" lon="2.03892">
        <ele>92.8</ele>
        <time>2024-12-31T13:39:21.820Z</time>
      </trkpt>
      <trkpt lat="48.70867" lon="2.03892">
        <ele>93.2</ele>
        <time>2024-12-31T13:39:28.219Z</time>
      </trkpt>
      <trkpt lat="48.7087" lon="2.03886">
        <ele>93</ele>
        <time>2024-12-31T13:39:31.956Z</time>
      </trkpt>
      <trkpt lat="48.70872" lon="2.03879">
        <ele>92.5</ele>
        <time>2024-12-31T13:39:35.694Z</time>
      </trkpt>
      <trkpt lat="48.70877" lon="2.03872">
        <ele>92.1</ele>
        <time>2024-12-31T13:39:40.548Z</time>
      </trkpt>
      <trkpt lat="48.70881" lon="2.03865">
        <ele>91.8</ele>
        <time>2024-12-31T13:39:45.403Z</time>
        <extensions>
          <visugpx:TrkExtension xmlns:visugpx="https://www.visugpx.com/editgpx/">
            <visugpx:node>25</visugpx:node>
            </visugpx:TrkExtension>
        </extensions>
      </trkpt>
      <trkpt lat="48.70885" lon="2.0386">
        <ele>91.6</ele>
        <time>2024-12-31T13:39:48.384Z</time>
      </trkpt>
      <trkpt lat="48.70891" lon="2.03853">
        <ele>91.4</ele>
        <time>2024-12-31T13:39:52.919Z</time>
      </trkpt>
      <trkpt lat="48.70897" lon="2.03847">
        <ele>91.3</ele>
        <time>2024-12-31T13:39:57.454Z</time>
      </trkpt>
      <trkpt lat="48.70903" lon="2.0384">
        <ele>91.2</ele>
        <time>2024-12-31T13:40:01.989Z</time>
      </trkpt>
      <trkpt lat="48.70909" lon="2.03834">
        <ele>91.1</ele>
        <time>2024-12-31T13:40:06.524Z</time>
      </trkpt>
      <trkpt lat="48.70914" lon="2.03827">
        <ele>91.1</ele>
        <time>2024-12-31T13:40:11.059Z</time>
      </trkpt>
      <trkpt lat="48.7092" lon="2.0382">
        <ele>90.9</ele>
        <time>2024-12-31T13:40:15.594Z</time>
      </trkpt>
      <trkpt lat="48.70926" lon="2.03814">
        <ele>90.8</ele>
        <time>2024-12-31T13:40:20.129Z</time>
      </trkpt>
      <trkpt lat="48.70932" lon="2.03807">
        <ele>90.8</ele>
        <time>2024-12-31T13:40:24.665Z</time>
      </trkpt>
      <trkpt lat="48.70936" lon="2.03802">
        <ele>90.9</ele>
        <time>2024-12-31T13:40:28.583Z</time>
      </trkpt>
      <trkpt lat="48.7094" lon="2.03796">
        <ele>91.2</ele>
        <time>2024-12-31T13:40:32.502Z</time>
      </trkpt>
      <trkpt lat="48.70945" lon="2.03788">
        <ele>91.4</ele>
        <time>2024-12-31T13:40:37.619Z</time>
      </trkpt>
      <trkpt lat="48.70948" lon="2.03782">
        <ele>91.5</ele>
        <time>2024-12-31T13:40:41.190Z</time>
      </trkpt>
      <trkpt lat="48.70951" lon="2.03776">
        <ele>91.6</ele>
        <time>2024-12-31T13:40:44.761Z</time>
      </trkpt>
      <trkpt lat="48.70954" lon="2.0377">
        <ele>91.7</ele>
        <time>2024-12-31T13:40:48.332Z</time>
      </trkpt>
      <trkpt lat="48.70957" lon="2.03764">
        <ele>91.8</ele>
        <time>2024-12-31T13:40:51.903Z</time>
      </trkpt>
      <trkpt lat="48.70959" lon="2.03758">
        <ele>91.9</ele>
        <time>2024-12-31T13:40:55.474Z</time>
      </trkpt>
      <trkpt lat="48.70962" lon="2.03752">
        <ele>92</ele>
        <time>2024-12-31T13:40:59.045Z</time>
      </trkpt>
      <trkpt lat="48.70965" lon="2.03746">
        <ele>92.2</ele>
        <time>2024-12-31T13:41:02.616Z</time>
      </trkpt>
      <trkpt lat="48.70968" lon="2.0374">
        <ele>92.5</ele>
        <time>2024-12-31T13:41:06.187Z</time>
      </trkpt>
      <trkpt lat="48.70971" lon="2.03733">
        <ele>92.9</ele>
        <time>2024-12-31T13:41:09.759Z</time>
      </trkpt>
      <trkpt lat="48.70974" lon="2.03727">
        <ele>93.1</ele>
        <time>2024-12-31T13:41:13.331Z</time>
      </trkpt>
      <trkpt lat="48.70977" lon="2.03721">
        <ele>93.3</ele>
        <time>2024-12-31T13:41:16.903Z</time>
      </trkpt>
      <trkpt lat="48.7098" lon="2.03715">
        <ele>93.5</ele>
        <time>2024-12-31T13:41:20.475Z</time>
      </trkpt>
      <trkpt lat="48.70982" lon="2.03709">
        <ele>93.7</ele>
        <time>2024-12-31T13:41:24.047Z</time>
      </trkpt>
      <trkpt lat="48.70985" lon="2.03703">
        <ele>93.9</ele>
        <time>2024-12-31T13:41:27.619Z</time>
      </trkpt>
      <trkpt lat="48.70988" lon="2.03697">
        <ele>94.1</ele>
        <time>2024-12-31T13:41:31.191Z</time>
      </trkpt>
      <trkpt lat="48.70991" lon="2.03691">
        <ele>94.3</ele>
        <time>2024-12-31T13:41:34.763Z</time>
      </trkpt>
      <trkpt lat="48.70994" lon="2.03683">
        <ele>94.5</ele>
        <time>2024-12-31T13:41:39.198Z</time>
      </trkpt>
      <trkpt lat="48.70997" lon="2.03675">
        <ele>94.7</ele>
        <time>2024-12-31T13:41:43.633Z</time>
      </trkpt>
      <trkpt lat="48.71" lon="2.03667">
        <ele>95</ele>
        <time>2024-12-31T13:41:48.068Z</time>
      </trkpt>
      <trkpt lat="48.71003" lon="2.03659">
        <ele>95.6</ele>
        <time>2024-12-31T13:41:52.503Z</time>
      </trkpt>
      <trkpt lat="48.71006" lon="2.03651">
        <ele>95.9</ele>
        <time>2024-12-31T13:41:56.938Z</time>
      </trkpt>
      <trkpt lat="48.71009" lon="2.03643">
        <ele>96.1</ele>
        <time>2024-12-31T13:42:01.373Z</time>
      </trkpt>
      <trkpt lat="48.71012" lon="2.03635">
        <ele>96.2</ele>
        <time>2024-12-31T13:42:05.808Z</time>
      </trkpt>
      <trkpt lat="48.71015" lon="2.03627">
        <ele>96.2</ele>
        <time>2024-12-31T13:42:10.243Z</time>
      </trkpt>
      <trkpt lat="48.71017" lon="2.03618">
        <ele>96.1</ele>
        <time>2024-12-31T13:42:14.005Z</time>
      </trkpt>
      <trkpt lat="48.71019" lon="2.03609">
        <ele>96</ele>
        <time>2024-12-31T13:42:17.768Z</time>
      </trkpt>
      <trkpt lat="48.71021" lon="2.036">
        <ele>95.8</ele>
        <time>2024-12-31T13:42:21.531Z</time>
      </trkpt>
      <trkpt lat="48.71023" lon="2.03591">
        <ele>95.6</ele>
        <time>2024-12-31T13:42:25.294Z</time>
      </trkpt>
      <trkpt lat="48.71025" lon="2.03581">
        <ele>95.5</ele>
        <time>2024-12-31T13:42:29.509Z</time>
      </trkpt>
      <trkpt lat="48.71027" lon="2.03571">
        <ele>95.4</ele>
        <time>2024-12-31T13:42:33.724Z</time>
      </trkpt>
      <trkpt lat="48.71028" lon="2.03561">
        <ele>95.3</ele>
        <time>2024-12-31T13:42:37.939Z</time>
      </trkpt>
      <trkpt lat="48.7103" lon="2.03551">
        <ele>95.2</ele>
        <time>2024-12-31T13:42:42.154Z</time>
      </trkpt>
      <trkpt lat="48.71032" lon="2.03545">
        <ele>95.1</ele>
        <time>2024-12-31T13:42:45.112Z</time>
      </trkpt>
      <trkpt lat="48.71034" lon="2.03538">
        <ele>95.1</ele>
        <time>2024-12-31T13:42:48.070Z</time>
      </trkpt>
      <trkpt lat="48.71039" lon="2.03528">
        <ele>95.3</ele>
        <time>2024-12-31T13:42:53.608Z</time>
      </trkpt>
      <trkpt lat="48.71043" lon="2.03517">
        <ele>95.3</ele>
        <time>2024-12-31T13:42:59.147Z</time>
      </trkpt>
      <trkpt lat="48.71048" lon="2.0351">
        <ele>95.5</ele>
        <time>2024-12-31T13:43:03.778Z</time>
      </trkpt>
      <trkpt lat="48.71052" lon="2.03502">
        <ele>95.6</ele>
        <time>2024-12-31T13:43:08.410Z</time>
      </trkpt>
      <trkpt lat="48.71057" lon="2.03495">
        <ele>95.7</ele>
        <time>2024-12-31T13:43:13.227Z</time>
      </trkpt>
      <trkpt lat="48.71063" lon="2.03488">
        <ele>95.9</ele>
        <time>2024-12-31T13:43:18.044Z</time>
      </trkpt>
      <trkpt lat="48.71068" lon="2.0348">
        <ele>96.1</ele>
        <time>2024-12-31T13:43:22.861Z</time>
      </trkpt>
      <trkpt lat="48.71073" lon="2.03473">
        <ele>96.2</ele>
        <time>2024-12-31T13:43:27.678Z</time>
      </trkpt>
      <trkpt lat="48.71078" lon="2.03466">
        <ele>96.4</ele>
        <time>2024-12-31T13:43:32.495Z</time>
      </trkpt>
      <trkpt lat="48.71084" lon="2.03459">
        <ele>96.5</ele>
        <time>2024-12-31T13:43:37.312Z</time>
      </trkpt>
      <trkpt lat="48.71089" lon="2.03451">
        <ele>96.5</ele>
        <time>2024-12-31T13:43:42.130Z</time>
      </trkpt>
      <trkpt lat="48.71094" lon="2.03444">
        <ele>96.5</ele>
        <time>2024-12-31T13:43:46.948Z</time>
      </trkpt>
      <trkpt lat="48.71099" lon="2.03439">
        <ele>96.8</ele>
        <time>2024-12-31T13:43:51.379Z</time>
      </trkpt>
      <trkpt lat="48.71105" lon="2.03434">
        <ele>97</ele>
        <time>2024-12-31T13:43:55.810Z</time>
      </trkpt>
      <trkpt lat="48.7111" lon="2.03428">
        <ele>97.1</ele>
        <time>2024-12-31T13:44:00.241Z</time>
      </trkpt>
      <trkpt lat="48.71115" lon="2.03423">
        <ele>97.2</ele>
        <time>2024-12-31T13:44:04.672Z</time>
      </trkpt>
      <trkpt lat="48.71123" lon="2.03418">
        <ele>97.5</ele>
        <time>2024-12-31T13:44:10.640Z</time>
      </trkpt>
      <trkpt lat="48.71131" lon="2.03413">
        <ele>97.8</ele>
        <time>2024-12-31T13:44:16.609Z</time>
      </trkpt>
      <trkpt lat="48.71138" lon="2.03408">
        <ele>98</ele>
        <time>2024-12-31T13:44:22.578Z</time>
      </trkpt>
      <trkpt lat="48.71146" lon="2.03403">
        <ele>98.2</ele>
        <time>2024-12-31T13:44:28.547Z</time>
      </trkpt>
      <trkpt lat="48.71151" lon="2.03401">
        <ele>98.2</ele>
        <time>2024-12-31T13:44:31.306Z</time>
      </trkpt>
      <trkpt lat="48.71155" lon="2.03399">
        <ele>98.2</ele>
        <time>2024-12-31T13:44:34.065Z</time>
      </trkpt>
      <trkpt lat="48.7116" lon="2.03396">
        <ele>98.1</ele>
        <time>2024-12-31T13:44:36.824Z</time>
      </trkpt>
      <trkpt lat="48.71164" lon="2.03394">
        <ele>98</ele>
        <time>2024-12-31T13:44:39.583Z</time>
      </trkpt>
      <trkpt lat="48.71169" lon="2.03392">
        <ele>97.6</ele>
        <time>2024-12-31T13:44:42.342Z</time>
      </trkpt>
      <trkpt lat="48.71173" lon="2.0339">
        <ele>97.1</ele>
        <time>2024-12-31T13:44:45.101Z</time>
      </trkpt>
      <trkpt lat="48.71178" lon="2.03387">
        <ele>97</ele>
        <time>2024-12-31T13:44:47.860Z</time>
      </trkpt>
      <trkpt lat="48.71182" lon="2.03385">
        <ele>96.9</ele>
        <time>2024-12-31T13:44:50.619Z</time>
      </trkpt>
      <trkpt lat="48.71189" lon="2.03379">
        <ele>96.9</ele>
        <time>2024-12-31T13:44:55.811Z</time>
      </trkpt>
      <trkpt lat="48.71193" lon="2.03388">
        <ele>97</ele>
        <time>2024-12-31T13:45:00.639Z</time>
      </trkpt>
      <trkpt lat="48.71198" lon="2.03387">
        <ele>97.4</ele>
        <time>2024-12-31T13:45:06.101Z</time>
      </trkpt>
      <trkpt lat="48.71204" lon="2.03387">
        <ele>98</ele>
        <time>2024-12-31T13:45:11.563Z</time>
      </trkpt>
      <trkpt lat="48.71209" lon="2.03386">
        <ele>98.6</ele>
        <time>2024-12-31T13:45:17.025Z</time>
      </trkpt>
      <trkpt lat="48.71215" lon="2.03386">
        <ele>99.2</ele>
        <time>2024-12-31T13:45:22.488Z</time>
      </trkpt>
      <trkpt lat="48.7122" lon="2.03385">
        <ele>99.7</ele>
        <time>2024-12-31T13:45:27.951Z</time>
      </trkpt>
      <trkpt lat="48.71225" lon="2.03384">
        <ele>100.6</ele>
        <time>2024-12-31T13:45:33.414Z</time>
      </trkpt>
      <trkpt lat="48.71231" lon="2.03384">
        <ele>101.7</ele>
        <time>2024-12-31T13:45:38.877Z</time>
      </trkpt>
      <trkpt lat="48.71236" lon="2.03383">
        <ele>102.8</ele>
        <time>2024-12-31T13:45:44.340Z</time>
      </trkpt>
      <trkpt lat="48.71241" lon="2.03379">
        <ele>103.5</ele>
        <time>2024-12-31T13:45:49.440Z</time>
      </trkpt>
      <trkpt lat="48.71245" lon="2.03375">
        <ele>104.1</ele>
        <time>2024-12-31T13:45:54.541Z</time>
      </trkpt>
      <trkpt lat="48.7125" lon="2.03371">
        <ele>104.6</ele>
        <time>2024-12-31T13:45:59.642Z</time>
      </trkpt>
      <trkpt lat="48.71254" lon="2.03367">
        <ele>105.4</ele>
        <time>2024-12-31T13:46:04.743Z</time>
      </trkpt>
      <trkpt lat="48.71257" lon="2.0336">
        <ele>105.7</ele>
        <time>2024-12-31T13:46:09.679Z</time>
      </trkpt>
      <trkpt lat="48.7126" lon="2.03353">
        <ele>106.5</ele>
        <time>2024-12-31T13:46:14.615Z</time>
      </trkpt>
      <trkpt lat="48.71262" lon="2.03346">
        <ele>107.1</ele>
        <time>2024-12-31T13:46:19.552Z</time>
      </trkpt>
      <trkpt lat="48.71265" lon="2.03339">
        <ele>107.7</ele>
        <time>2024-12-31T13:46:24.489Z</time>
      </trkpt>
      <trkpt lat="48.71267" lon="2.03332">
        <ele>108</ele>
        <time>2024-12-31T13:46:28.351Z</time>
      </trkpt>
      <trkpt lat="48.71268" lon="2.03325">
        <ele>108.3</ele>
        <time>2024-12-31T13:46:32.213Z</time>
      </trkpt>
      <trkpt lat="48.7127" lon="2.03318">
        <ele>108.6</ele>
        <time>2024-12-31T13:46:36.075Z</time>
      </trkpt>
      <trkpt lat="48.71272" lon="2.03311">
        <ele>108.9</ele>
        <time>2024-12-31T13:46:39.937Z</time>
      </trkpt>
      <trkpt lat="48.71273" lon="2.03303">
        <ele>109.2</ele>
        <time>2024-12-31T13:46:43.799Z</time>
      </trkpt>
      <trkpt lat="48.71275" lon="2.03296">
        <ele>109.5</ele>
        <time>2024-12-31T13:46:47.661Z</time>
      </trkpt>
      <trkpt lat="48.71276" lon="2.03289">
        <ele>109.8</ele>
        <time>2024-12-31T13:46:51.524Z</time>
      </trkpt>
      <trkpt lat="48.71278" lon="2.03282">
        <ele>110</ele>
        <time>2024-12-31T13:46:55.387Z</time>
      </trkpt>
      <trkpt lat="48.71284" lon="2.03272">
        <ele>111.3</ele>
        <time>2024-12-31T13:47:04.821Z</time>
      </trkpt>
      <trkpt lat="48.71289" lon="2.03262">
        <ele>112.9</ele>
        <time>2024-12-31T13:47:14.256Z</time>
      </trkpt>
      <trkpt lat="48.71295" lon="2.03252">
        <ele>114.7</ele>
        <time>2024-12-31T13:47:23.691Z</time>
      </trkpt>
      <trkpt lat="48.713" lon="2.03243">
        <ele>116.1</ele>
        <time>2024-12-31T13:47:33.126Z</time>
      </trkpt>
      <trkpt lat="48.71306" lon="2.03233">
        <ele>117.4</ele>
        <time>2024-12-31T13:47:42.561Z</time>
      </trkpt>
      <trkpt lat="48.71311" lon="2.03223">
        <ele>118.8</ele>
        <time>2024-12-31T13:47:51.996Z</time>
      </trkpt>
      <trkpt lat="48.71317" lon="2.03213">
        <ele>119.9</ele>
        <time>2024-12-31T13:48:01.431Z</time>
      </trkpt>
      <trkpt lat="48.71322" lon="2.03203">
        <ele>120.8</ele>
        <time>2024-12-31T13:48:10.866Z</time>
      </trkpt>
      <trkpt lat="48.71326" lon="2.03199">
        <ele>121.4</ele>
        <time>2024-12-31T13:48:15.277Z</time>
      </trkpt>
      <trkpt lat="48.71329" lon="2.03194">
        <ele>121.9</ele>
        <time>2024-12-31T13:48:19.689Z</time>
      </trkpt>
      <trkpt lat="48.71336" lon="2.03186">
        <ele>123.6</ele>
        <time>2024-12-31T13:48:32.413Z</time>
      </trkpt>
      <trkpt lat="48.71343" lon="2.03177">
        <ele>125.7</ele>
        <time>2024-12-31T13:48:45.137Z</time>
      </trkpt>
      <trkpt lat="48.71349" lon="2.03169">
        <ele>127.8</ele>
        <time>2024-12-31T13:48:57.861Z</time>
      </trkpt>
      <trkpt lat="48.71356" lon="2.0316">
        <ele>129.9</ele>
        <time>2024-12-31T13:49:10.586Z</time>
      </trkpt>
      <trkpt lat="48.7136" lon="2.03156">
        <ele>131.4</ele>
        <time>2024-12-31T13:49:20.409Z</time>
      </trkpt>
      <trkpt lat="48.71365" lon="2.03152">
        <ele>132.8</ele>
        <time>2024-12-31T13:49:30.232Z</time>
      </trkpt>
      <trkpt lat="48.71369" lon="2.03148">
        <ele>134.2</ele>
        <time>2024-12-31T13:49:40.055Z</time>
      </trkpt>
      <trkpt lat="48.71374" lon="2.03145">
        <ele>135.7</ele>
        <time>2024-12-31T13:49:49.878Z</time>
      </trkpt>
      <trkpt lat="48.71378" lon="2.03141">
        <ele>137.1</ele>
        <time>2024-12-31T13:49:59.701Z</time>
      </trkpt>
      <trkpt lat="48.71382" lon="2.03137">
        <ele>138.7</ele>
        <time>2024-12-31T13:50:09.525Z</time>
      </trkpt>
      <trkpt lat="48.71387" lon="2.03133">
        <ele>140.4</ele>
        <time>2024-12-31T13:50:19.349Z</time>
      </trkpt>
      <trkpt lat="48.71391" lon="2.03129">
        <ele>142</ele>
        <time>2024-12-31T13:50:29.173Z</time>
      </trkpt>
      <trkpt lat="48.71391" lon="2.03121">
        <ele>142.1</ele>
        <time>2024-12-31T13:50:33.881Z</time>
      </trkpt>
      <trkpt lat="48.7139" lon="2.03112">
        <ele>142.3</ele>
        <time>2024-12-31T13:50:38.589Z</time>
      </trkpt>
      <trkpt lat="48.7139" lon="2.03104">
        <ele>143</ele>
        <time>2024-12-31T13:50:43.298Z</time>
      </trkpt>
      <trkpt lat="48.71389" lon="2.03095">
        <ele>143.8</ele>
        <time>2024-12-31T13:50:48.008Z</time>
      </trkpt>
      <trkpt lat="48.71395" lon="2.03088">
        <ele>145.9</ele>
        <time>2024-12-31T13:51:00.817Z</time>
      </trkpt>
      <trkpt lat="48.714" lon="2.03081">
        <ele>147.8</ele>
        <time>2024-12-31T13:51:13.626Z</time>
      </trkpt>
      <trkpt lat="48.71405" lon="2.0308">
        <ele>149</ele>
        <time>2024-12-31T13:51:21.090Z</time>
      </trkpt>
      <trkpt lat="48.71409" lon="2.03079">
        <ele>150.2</ele>
        <time>2024-12-31T13:51:28.554Z</time>
      </trkpt>
      <trkpt lat="48.71414" lon="2.03078">
        <ele>151.4</ele>
        <time>2024-12-31T13:51:36.018Z</time>
      </trkpt>
      <trkpt lat="48.71418" lon="2.03077">
        <ele>152.5</ele>
        <time>2024-12-31T13:51:43.482Z</time>
      </trkpt>
      <trkpt lat="48.71424" lon="2.03077">
        <ele>153.5</ele>
        <time>2024-12-31T13:51:50.666Z</time>
      </trkpt>
      <trkpt lat="48.7143" lon="2.03077">
        <ele>154.6</ele>
        <time>2024-12-31T13:51:57.850Z</time>
      </trkpt>
      <trkpt lat="48.71436" lon="2.03077">
        <ele>155.7</ele>
        <time>2024-12-31T13:52:05.034Z</time>
      </trkpt>
      <trkpt lat="48.71442" lon="2.03077">
        <ele>156.8</ele>
        <time>2024-12-31T13:52:12.218Z</time>
      </trkpt>
      <trkpt lat="48.7145" lon="2.03074">
        <ele>158</ele>
        <time>2024-12-31T13:52:20.529Z</time>
      </trkpt>
      <trkpt lat="48.71457" lon="2.0307">
        <ele>159.1</ele>
        <time>2024-12-31T13:52:28.841Z</time>
      </trkpt>
      <trkpt lat="48.71462" lon="2.03069">
        <ele>159.7</ele>
        <time>2024-12-31T13:52:32.735Z</time>
      </trkpt>
      <trkpt lat="48.71467" lon="2.03067">
        <ele>160.4</ele>
        <time>2024-12-31T13:52:36.629Z</time>
      </trkpt>
      <trkpt lat="48.71472" lon="2.03065">
        <ele>161</ele>
        <time>2024-12-31T13:52:40.523Z</time>
      </trkpt>
      <trkpt lat="48.71477" lon="2.03064">
        <ele>161.4</ele>
        <time>2024-12-31T13:52:44.417Z</time>
      </trkpt>
      <trkpt lat="48.71482" lon="2.03062">
        <ele>161.7</ele>
        <time>2024-12-31T13:52:48.311Z</time>
      </trkpt>
      <trkpt lat="48.71487" lon="2.03061">
        <ele>162.1</ele>
        <time>2024-12-31T13:52:52.205Z</time>
      </trkpt>
      <trkpt lat="48.71492" lon="2.03059">
        <ele>162.5</ele>
        <time>2024-12-31T13:52:56.099Z</time>
      </trkpt>
      <trkpt lat="48.71498" lon="2.03058">
        <ele>162.8</ele>
        <time>2024-12-31T13:52:59.993Z</time>
      </trkpt>
      <trkpt lat="48.71503" lon="2.03056">
        <ele>163.2</ele>
        <time>2024-12-31T13:53:03.887Z</time>
      </trkpt>
      <trkpt lat="48.71508" lon="2.03055">
        <ele>163.5</ele>
        <time>2024-12-31T13:53:07.781Z</time>
      </trkpt>
      <trkpt lat="48.71513" lon="2.03053">
        <ele>163.9</ele>
        <time>2024-12-31T13:53:11.675Z</time>
      </trkpt>
      <trkpt lat="48.71518" lon="2.03052">
        <ele>164.3</ele>
        <time>2024-12-31T13:53:15.569Z</time>
      </trkpt>
      <trkpt lat="48.71523" lon="2.0305">
        <ele>164.6</ele>
        <time>2024-12-31T13:53:19.463Z</time>
      </trkpt>
      <trkpt lat="48.71528" lon="2.03049">
        <ele>165</ele>
        <time>2024-12-31T13:53:23.357Z</time>
      </trkpt>
      <trkpt lat="48.71533" lon="2.03047">
        <ele>165.2</ele>
        <time>2024-12-31T13:53:27.251Z</time>
      </trkpt>
      <trkpt lat="48.71538" lon="2.03046">
        <ele>165.4</ele>
        <time>2024-12-31T13:53:31.145Z</time>
      </trkpt>
      <trkpt lat="48.71543" lon="2.03044">
        <ele>165.6</ele>
        <time>2024-12-31T13:53:35.039Z</time>
      </trkpt>
      <trkpt lat="48.71548" lon="2.03042">
        <ele>165.7</ele>
        <time>2024-12-31T13:53:38.933Z</time>
      </trkpt>
      <trkpt lat="48.71553" lon="2.03041">
        <ele>165.9</ele>
        <time>2024-12-31T13:53:42.827Z</time>
      </trkpt>
      <trkpt lat="48.71558" lon="2.03039">
        <ele>166</ele>
        <time>2024-12-31T13:53:46.721Z</time>
      </trkpt>
      <trkpt lat="48.71563" lon="2.03038">
        <ele>166.1</ele>
        <time>2024-12-31T13:53:50.615Z</time>
      </trkpt>
      <trkpt lat="48.71568" lon="2.03036">
        <ele>166.1</ele>
        <time>2024-12-31T13:53:54.510Z</time>
      </trkpt>
      <trkpt lat="48.71573" lon="2.03035">
        <ele>166.2</ele>
        <time>2024-12-31T13:53:58.405Z</time>
      </trkpt>
      <trkpt lat="48.71579" lon="2.03033">
        <ele>166.2</ele>
        <time>2024-12-31T13:54:02.300Z</time>
      </trkpt>
      <trkpt lat="48.71584" lon="2.03032">
        <ele>166.1</ele>
        <time>2024-12-31T13:54:06.195Z</time>
      </trkpt>
      <trkpt lat="48.71589" lon="2.0303">
        <ele>166.3</ele>
        <time>2024-12-31T13:54:10.090Z</time>
      </trkpt>
      <trkpt lat="48.71594" lon="2.03029">
        <ele>166.4</ele>
        <time>2024-12-31T13:54:13.985Z</time>
      </trkpt>
      <trkpt lat="48.71599" lon="2.03027">
        <ele>166.6</ele>
        <time>2024-12-31T13:54:17.880Z</time>
      </trkpt>
      <trkpt lat="48.71604" lon="2.03026">
        <ele>166.7</ele>
        <time>2024-12-31T13:54:21.775Z</time>
      </trkpt>
      <trkpt lat="48.71609" lon="2.03024">
        <ele>166.9</ele>
        <time>2024-12-31T13:54:25.670Z</time>
      </trkpt>
      <trkpt lat="48.71614" lon="2.03023">
        <ele>167.1</ele>
        <time>2024-12-31T13:54:29.565Z</time>
      </trkpt>
      <trkpt lat="48.71619" lon="2.03021">
        <ele>167.2</ele>
        <time>2024-12-31T13:54:33.460Z</time>
      </trkpt>
      <trkpt lat="48.71626" lon="2.03021">
        <ele>167.4</ele>
        <time>2024-12-31T13:54:38.184Z</time>
      </trkpt>
      <trkpt lat="48.71633" lon="2.03021">
        <ele>167.6</ele>
        <time>2024-12-31T13:54:42.908Z</time>
      </trkpt>
      <trkpt lat="48.7164" lon="2.03021">
        <ele>167.8</ele>
        <time>2024-12-31T13:54:47.632Z</time>
      </trkpt>
      <trkpt lat="48.71647" lon="2.03021">
        <ele>167.8</ele>
        <time>2024-12-31T13:54:52.357Z</time>
      </trkpt>
      <trkpt lat="48.71654" lon="2.0302">
        <ele>167.9</ele>
        <time>2024-12-31T13:54:57.082Z</time>
      </trkpt>
      <trkpt lat="48.71661" lon="2.0302">
        <ele>167.9</ele>
        <time>2024-12-31T13:55:01.807Z</time>
      </trkpt>
      <trkpt lat="48.71668" lon="2.0302">
        <ele>168</ele>
        <time>2024-12-31T13:55:06.532Z</time>
      </trkpt>
      <trkpt lat="48.71675" lon="2.0302">
        <ele>168</ele>
        <time>2024-12-31T13:55:11.257Z</time>
      </trkpt>
      <trkpt lat="48.71682" lon="2.0302">
        <ele>168</ele>
        <time>2024-12-31T13:55:15.982Z</time>
      </trkpt>
      <trkpt lat="48.71689" lon="2.0302">
        <ele>168</ele>
        <time>2024-12-31T13:55:20.707Z</time>
      </trkpt>
      <trkpt lat="48.71696" lon="2.0302">
        <ele>168</ele>
        <time>2024-12-31T13:55:25.432Z</time>
      </trkpt>
      <trkpt lat="48.71703" lon="2.0302">
        <ele>168.2</ele>
        <time>2024-12-31T13:55:30.157Z</time>
      </trkpt>
      <trkpt lat="48.7171" lon="2.03019">
        <ele>168.4</ele>
        <time>2024-12-31T13:55:34.882Z</time>
      </trkpt>
      <trkpt lat="48.71717" lon="2.03019">
        <ele>168.6</ele>
        <time>2024-12-31T13:55:39.607Z</time>
      </trkpt>
      <trkpt lat="48.71724" lon="2.03019">
        <ele>168.7</ele>
        <time>2024-12-31T13:55:44.332Z</time>
      </trkpt>
      <trkpt lat="48.71731" lon="2.03019">
        <ele>168.8</ele>
        <time>2024-12-31T13:55:49.057Z</time>
      </trkpt>
      <trkpt lat="48.71738" lon="2.03018">
        <ele>168.9</ele>
        <time>2024-12-31T13:55:53.802Z</time>
      </trkpt>
      <trkpt lat="48.71746" lon="2.03017">
        <ele>168.9</ele>
        <time>2024-12-31T13:55:58.547Z</time>
      </trkpt>
      <trkpt lat="48.71753" lon="2.03016">
        <ele>169</ele>
        <time>2024-12-31T13:56:03.293Z</time>
      </trkpt>
      <trkpt lat="48.7176" lon="2.03016">
        <ele>169</ele>
        <time>2024-12-31T13:56:08.039Z</time>
      </trkpt>
      <trkpt lat="48.71767" lon="2.03015">
        <ele>169</ele>
        <time>2024-12-31T13:56:12.785Z</time>
      </trkpt>
      <trkpt lat="48.71775" lon="2.03014">
        <ele>169</ele>
        <time>2024-12-31T13:56:17.531Z</time>
      </trkpt>
      <trkpt lat="48.71782" lon="2.03013">
        <ele>169</ele>
        <time>2024-12-31T13:56:22.277Z</time>
      </trkpt>
      <trkpt lat="48.71789" lon="2.03012">
        <ele>169</ele>
        <time>2024-12-31T13:56:27.023Z</time>
      </trkpt>
      <trkpt lat="48.71794" lon="2.03011">
        <ele>169</ele>
        <time>2024-12-31T13:56:29.964Z</time>
      </trkpt>
      <trkpt lat="48.71798" lon="2.03011">
        <ele>169</ele>
        <time>2024-12-31T13:56:32.905Z</time>
      </trkpt>
      <trkpt lat="48.71803" lon="2.0301">
        <ele>169</ele>
        <time>2024-12-31T13:56:35.846Z</time>
      </trkpt>
      <trkpt lat="48.71808" lon="2.03009">
        <ele>169</ele>
        <time>2024-12-31T13:56:38.787Z</time>
      </trkpt>
      <trkpt lat="48.71812" lon="2.03008">
        <ele>169</ele>
        <time>2024-12-31T13:56:41.728Z</time>
      </trkpt>
      <trkpt lat="48.71817" lon="2.03008">
        <ele>169</ele>
        <time>2024-12-31T13:56:44.669Z</time>
      </trkpt>
      <trkpt lat="48.71821" lon="2.03007">
        <ele>169</ele>
        <time>2024-12-31T13:56:47.610Z</time>
      </trkpt>
      <trkpt lat="48.71826" lon="2.03006">
        <ele>169</ele>
        <time>2024-12-31T13:56:50.551Z</time>
      </trkpt>
      <trkpt lat="48.71831" lon="2.03005">
        <ele>169</ele>
        <time>2024-12-31T13:56:53.492Z</time>
      </trkpt>
      <trkpt lat="48.71835" lon="2.03005">
        <ele>169</ele>
        <time>2024-12-31T13:56:56.433Z</time>
      </trkpt>
      <trkpt lat="48.7184" lon="2.03004">
        <ele>169</ele>
        <time>2024-12-31T13:56:59.374Z</time>
      </trkpt>
      <trkpt lat="48.71845" lon="2.03003">
        <ele>169</ele>
        <time>2024-12-31T13:57:02.315Z</time>
      </trkpt>
      <trkpt lat="48.71849" lon="2.03003">
        <ele>169</ele>
        <time>2024-12-31T13:57:05.256Z</time>
      </trkpt>
      <trkpt lat="48.71854" lon="2.03002">
        <ele>169</ele>
        <time>2024-12-31T13:57:08.197Z</time>
      </trkpt>
      <trkpt lat="48.71858" lon="2.03001">
        <ele>169</ele>
        <time>2024-12-31T13:57:11.138Z</time>
      </trkpt>
      <trkpt lat="48.71863" lon="2.03">
        <ele>169</ele>
        <time>2024-12-31T13:57:14.079Z</time>
      </trkpt>
      <trkpt lat="48.71868" lon="2.03">
        <ele>169</ele>
        <time>2024-12-31T13:57:17.020Z</time>
      </trkpt>
      <trkpt lat="48.71872" lon="2.02999">
        <ele>169</ele>
        <time>2024-12-31T13:57:19.961Z</time>
      </trkpt>
      <trkpt lat="48.71877" lon="2.02998">
        <ele>169</ele>
        <time>2024-12-31T13:57:22.902Z</time>
      </trkpt>
      <trkpt lat="48.71882" lon="2.02997">
        <ele>169</ele>
        <time>2024-12-31T13:57:25.843Z</time>
      </trkpt>
      <trkpt lat="48.71886" lon="2.02997">
        <ele>169</ele>
        <time>2024-12-31T13:57:28.784Z</time>
      </trkpt>
      <trkpt lat="48.71891" lon="2.02996">
        <ele>169</ele>
        <time>2024-12-31T13:57:31.725Z</time>
      </trkpt>
      <trkpt lat="48.71895" lon="2.02995">
        <ele>169</ele>
        <time>2024-12-31T13:57:34.666Z</time>
      </trkpt>
      <trkpt lat="48.719" lon="2.02994">
        <ele>169</ele>
        <time>2024-12-31T13:57:37.607Z</time>
      </trkpt>
      <trkpt lat="48.71905" lon="2.02994">
        <ele>169</ele>
        <time>2024-12-31T13:57:40.548Z</time>
      </trkpt>
      <trkpt lat="48.71909" lon="2.02993">
        <ele>169</ele>
        <time>2024-12-31T13:57:43.489Z</time>
      </trkpt>
      <trkpt lat="48.71914" lon="2.02992">
        <ele>169</ele>
        <time>2024-12-31T13:57:46.430Z</time>
      </trkpt>
      <trkpt lat="48.71919" lon="2.02991">
        <ele>169</ele>
        <time>2024-12-31T13:57:49.371Z</time>
      </trkpt>
      <trkpt lat="48.71923" lon="2.02991">
        <ele>169</ele>
        <time>2024-12-31T13:57:52.312Z</time>
      </trkpt>
      <trkpt lat="48.71928" lon="2.0299">
        <ele>169</ele>
        <time>2024-12-31T13:57:55.253Z</time>
      </trkpt>
      <trkpt lat="48.71932" lon="2.02989">
        <ele>169</ele>
        <time>2024-12-31T13:57:58.194Z</time>
      </trkpt>
      <trkpt lat="48.71937" lon="2.02989">
        <ele>169</ele>
        <time>2024-12-31T13:58:01.135Z</time>
      </trkpt>
      <trkpt lat="48.71942" lon="2.02988">
        <ele>169</ele>
        <time>2024-12-31T13:58:04.076Z</time>
      </trkpt>
      <trkpt lat="48.71946" lon="2.02987">
        <ele>169</ele>
        <time>2024-12-31T13:58:07.017Z</time>
      </trkpt>
      <trkpt lat="48.71951" lon="2.02986">
        <ele>168.9</ele>
        <time>2024-12-31T13:58:09.958Z</time>
      </trkpt>
      <trkpt lat="48.71956" lon="2.02986">
        <ele>168.8</ele>
        <time>2024-12-31T13:58:12.899Z</time>
      </trkpt>
      <trkpt lat="48.7196" lon="2.02985">
        <ele>168.7</ele>
        <time>2024-12-31T13:58:15.840Z</time>
      </trkpt>
      <trkpt lat="48.71965" lon="2.02984">
        <ele>168.7</ele>
        <time>2024-12-31T13:58:18.781Z</time>
      </trkpt>
      <trkpt lat="48.71969" lon="2.02983">
        <ele>168.6</ele>
        <time>2024-12-31T13:58:21.722Z</time>
      </trkpt>
      <trkpt lat="48.71974" lon="2.02983">
        <ele>168.6</ele>
        <time>2024-12-31T13:58:24.663Z</time>
      </trkpt>
      <trkpt lat="48.71979" lon="2.02982">
        <ele>168.7</ele>
        <time>2024-12-31T13:58:27.604Z</time>
      </trkpt>
      <trkpt lat="48.71983" lon="2.02981">
        <ele>168.7</ele>
        <time>2024-12-31T13:58:30.545Z</time>
      </trkpt>
      <trkpt lat="48.71988" lon="2.0298">
        <ele>168.7</ele>
        <time>2024-12-31T13:58:33.486Z</time>
      </trkpt>
      <trkpt lat="48.71993" lon="2.0298">
        <ele>168.7</ele>
        <time>2024-12-31T13:58:36.427Z</time>
      </trkpt>
      <trkpt lat="48.71997" lon="2.02979">
        <ele>168.8</ele>
        <time>2024-12-31T13:58:39.368Z</time>
      </trkpt>
      <trkpt lat="48.72002" lon="2.02978">
        <ele>168.7</ele>
        <time>2024-12-31T13:58:42.309Z</time>
      </trkpt>
      <trkpt lat="48.72006" lon="2.02978">
        <ele>168.6</ele>
        <time>2024-12-31T13:58:45.250Z</time>
      </trkpt>
      <trkpt lat="48.72011" lon="2.02977">
        <ele>168.5</ele>
        <time>2024-12-31T13:58:48.191Z</time>
      </trkpt>
      <trkpt lat="48.72016" lon="2.02976">
        <ele>168.4</ele>
        <time>2024-12-31T13:58:51.132Z</time>
      </trkpt>
      <trkpt lat="48.7202" lon="2.02975">
        <ele>168.2</ele>
        <time>2024-12-31T13:58:54.073Z</time>
      </trkpt>
      <trkpt lat="48.72025" lon="2.02975">
        <ele>168.1</ele>
        <time>2024-12-31T13:58:57.014Z</time>
      </trkpt>
      <trkpt lat="48.7203" lon="2.02974">
        <ele>168</ele>
        <time>2024-12-31T13:58:59.956Z</time>
      </trkpt>
      <trkpt lat="48.72034" lon="2.02973">
        <ele>168</ele>
        <time>2024-12-31T13:59:02.898Z</time>
      </trkpt>
      <trkpt lat="48.72039" lon="2.02972">
        <ele>168</ele>
        <time>2024-12-31T13:59:05.840Z</time>
      </trkpt>
      <trkpt lat="48.72043" lon="2.02972">
        <ele>168</ele>
        <time>2024-12-31T13:59:08.782Z</time>
      </trkpt>
      <trkpt lat="48.72048" lon="2.02971">
        <ele>168</ele>
        <time>2024-12-31T13:59:11.724Z</time>
      </trkpt>
      <trkpt lat="48.72053" lon="2.0297">
        <ele>168</ele>
        <time>2024-12-31T13:59:14.666Z</time>
      </trkpt>
      <trkpt lat="48.72057" lon="2.02969">
        <ele>167.9</ele>
        <time>2024-12-31T13:59:17.608Z</time>
      </trkpt>
      <trkpt lat="48.72062" lon="2.02969">
        <ele>167.8</ele>
        <time>2024-12-31T13:59:20.550Z</time>
      </trkpt>
      <trkpt lat="48.72067" lon="2.02968">
        <ele>167.6</ele>
        <time>2024-12-31T13:59:23.492Z</time>
      </trkpt>
      <trkpt lat="48.72071" lon="2.02967">
        <ele>167.4</ele>
        <time>2024-12-31T13:59:26.434Z</time>
      </trkpt>
      <trkpt lat="48.72076" lon="2.02967">
        <ele>167.3</ele>
        <time>2024-12-31T13:59:29.376Z</time>
      </trkpt>
      <trkpt lat="48.7208" lon="2.02966">
        <ele>167.1</ele>
        <time>2024-12-31T13:59:32.318Z</time>
      </trkpt>
      <trkpt lat="48.72085" lon="2.02965">
        <ele>167</ele>
        <time>2024-12-31T13:59:35.260Z</time>
      </trkpt>
      <trkpt lat="48.72091" lon="2.02963">
        <ele>167</ele>
        <time>2024-12-31T13:59:38.812Z</time>
      </trkpt>
      <trkpt lat="48.72096" lon="2.0296">
        <ele>167</ele>
        <time>2024-12-31T13:59:42.364Z</time>
      </trkpt>
      <trkpt lat="48.72102" lon="2.02958">
        <ele>167</ele>
        <time>2024-12-31T13:59:45.916Z</time>
      </trkpt>
      <trkpt lat="48.72108" lon="2.02955">
        <ele>167</ele>
        <time>2024-12-31T13:59:49.468Z</time>
      </trkpt>
      <trkpt lat="48.72113" lon="2.02953">
        <ele>166.9</ele>
        <time>2024-12-31T13:59:53.020Z</time>
      </trkpt>
      <trkpt lat="48.72119" lon="2.0295">
        <ele>166.7</ele>
        <time>2024-12-31T13:59:56.572Z</time>
      </trkpt>
      <trkpt lat="48.72125" lon="2.02948">
        <ele>166.5</ele>
        <time>2024-12-31T14:00:00.124Z</time>
      </trkpt>
      <trkpt lat="48.72131" lon="2.02945">
        <ele>166.3</ele>
        <time>2024-12-31T14:00:03.676Z</time>
      </trkpt>
      <trkpt lat="48.72136" lon="2.02943">
        <ele>166.1</ele>
        <time>2024-12-31T14:00:07.228Z</time>
      </trkpt>
      <trkpt lat="48.72142" lon="2.0294">
        <ele>165.9</ele>
        <time>2024-12-31T14:00:10.780Z</time>
      </trkpt>
      <trkpt lat="48.72148" lon="2.02938">
        <ele>165.7</ele>
        <time>2024-12-31T14:00:14.332Z</time>
      </trkpt>
      <trkpt lat="48.72153" lon="2.02935">
        <ele>165.5</ele>
        <time>2024-12-31T14:00:17.884Z</time>
      </trkpt>
      <trkpt lat="48.72159" lon="2.02933">
        <ele>165.3</ele>
        <time>2024-12-31T14:00:21.436Z</time>
      </trkpt>
      <trkpt lat="48.72165" lon="2.0293">
        <ele>165.1</ele>
        <time>2024-12-31T14:00:24.988Z</time>
      </trkpt>
      <trkpt lat="48.7217" lon="2.02928">
        <ele>164.9</ele>
        <time>2024-12-31T14:00:28.540Z</time>
      </trkpt>
      <trkpt lat="48.72176" lon="2.02925">
        <ele>164.7</ele>
        <time>2024-12-31T14:00:32.093Z</time>
      </trkpt>
      <trkpt lat="48.72181" lon="2.02925">
        <ele>164.5</ele>
        <time>2024-12-31T14:00:34.709Z</time>
      </trkpt>
      <trkpt lat="48.72185" lon="2.02926">
        <ele>164.3</ele>
        <time>2024-12-31T14:00:37.325Z</time>
      </trkpt>
      <trkpt lat="48.7219" lon="2.02926">
        <ele>164.2</ele>
        <time>2024-12-31T14:00:39.941Z</time>
      </trkpt>
      <trkpt lat="48.72195" lon="2.02927">
        <ele>164</ele>
        <time>2024-12-31T14:00:42.557Z</time>
      </trkpt>
      <trkpt lat="48.72199" lon="2.02927">
        <ele>163.5</ele>
        <time>2024-12-31T14:00:45.174Z</time>
      </trkpt>
      <trkpt lat="48.72204" lon="2.02927">
        <ele>163</ele>
        <time>2024-12-31T14:00:47.791Z</time>
      </trkpt>
      <trkpt lat="48.72208" lon="2.02928">
        <ele>162.5</ele>
        <time>2024-12-31T14:00:50.408Z</time>
      </trkpt>
      <trkpt lat="48.72213" lon="2.02928">
        <ele>162</ele>
        <time>2024-12-31T14:00:53.025Z</time>
      </trkpt>
      <trkpt lat="48.72218" lon="2.02926">
        <ele>161.4</ele>
        <time>2024-12-31T14:00:55.992Z</time>
      </trkpt>
      <trkpt lat="48.72223" lon="2.02925">
        <ele>160.8</ele>
        <time>2024-12-31T14:00:58.960Z</time>
      </trkpt>
      <trkpt lat="48.72228" lon="2.02923">
        <ele>159.8</ele>
        <time>2024-12-31T14:01:01.928Z</time>
      </trkpt>
      <trkpt lat="48.72234" lon="2.02921">
        <ele>158.7</ele>
        <time>2024-12-31T14:01:04.896Z</time>
      </trkpt>
      <trkpt lat="48.72239" lon="2.02919">
        <ele>157.6</ele>
        <time>2024-12-31T14:01:07.864Z</time>
      </trkpt>
      <trkpt lat="48.72244" lon="2.02918">
        <ele>156.4</ele>
        <time>2024-12-31T14:01:10.832Z</time>
      </trkpt>
      <trkpt lat="48.72249" lon="2.02916">
        <ele>155.2</ele>
        <time>2024-12-31T14:01:13.800Z</time>
      </trkpt>
      <trkpt lat="48.72254" lon="2.02914">
        <ele>154.3</ele>
        <time>2024-12-31T14:01:16.768Z</time>
      </trkpt>
      <trkpt lat="48.72262" lon="2.02916">
        <ele>153.2</ele>
        <time>2024-12-31T14:01:21.348Z</time>
      </trkpt>
      <trkpt lat="48.7227" lon="2.02918">
        <ele>152.3</ele>
        <time>2024-12-31T14:01:25.929Z</time>
      </trkpt>
      <trkpt lat="48.72273" lon="2.02912">
        <ele>151.2</ele>
        <time>2024-12-31T14:01:28.573Z</time>
      </trkpt>
      <trkpt lat="48.72275" lon="2.02906">
        <ele>150</ele>
        <time>2024-12-31T14:01:31.218Z</time>
      </trkpt>
      <trkpt lat="48.72273" lon="2.02895">
        <ele>149.1</ele>
        <time>2024-12-31T14:01:35.553Z</time>
      </trkpt>
      <trkpt lat="48.7227" lon="2.02884">
        <ele>148.9</ele>
        <time>2024-12-31T14:01:39.890Z</time>
      </trkpt>
      <trkpt lat="48.72276" lon="2.02877">
        <ele>147.2</ele>
        <time>2024-12-31T14:01:43.914Z</time>
      </trkpt>
      <trkpt lat="48.72281" lon="2.02871">
        <ele>145.7</ele>
        <time>2024-12-31T14:01:47.938Z</time>
      </trkpt>
      <trkpt lat="48.72287" lon="2.02864">
        <ele>144.2</ele>
        <time>2024-12-31T14:01:51.962Z</time>
      </trkpt>
      <trkpt lat="48.72293" lon="2.02858">
        <ele>143</ele>
        <time>2024-12-31T14:01:55.986Z</time>
      </trkpt>
      <trkpt lat="48.72298" lon="2.02851">
        <ele>141.9</ele>
        <time>2024-12-31T14:02:00.010Z</time>
      </trkpt>
      <trkpt lat="48.72304" lon="2.02844">
        <ele>140.5</ele>
        <time>2024-12-31T14:02:04.034Z</time>
      </trkpt>
      <trkpt lat="48.72309" lon="2.02838">
        <ele>139.2</ele>
        <time>2024-12-31T14:02:08.059Z</time>
      </trkpt>
      <trkpt lat="48.72315" lon="2.02831">
        <ele>138.2</ele>
        <time>2024-12-31T14:02:12.084Z</time>
      </trkpt>
      <trkpt lat="48.72322" lon="2.02828">
        <ele>137.1</ele>
        <time>2024-12-31T14:02:16.166Z</time>
      </trkpt>
      <trkpt lat="48.72329" lon="2.02824">
        <ele>135.8</ele>
        <time>2024-12-31T14:02:20.248Z</time>
      </trkpt>
      <trkpt lat="48.72336" lon="2.02821">
        <ele>134.4</ele>
        <time>2024-12-31T14:02:24.330Z</time>
      </trkpt>
      <trkpt lat="48.72343" lon="2.02818">
        <ele>132.9</ele>
        <time>2024-12-31T14:02:28.412Z</time>
      </trkpt>
      <trkpt lat="48.72349" lon="2.02814">
        <ele>131.3</ele>
        <time>2024-12-31T14:02:32.495Z</time>
      </trkpt>
      <trkpt lat="48.72356" lon="2.02811">
        <ele>129.5</ele>
        <time>2024-12-31T14:02:36.578Z</time>
      </trkpt>
      <trkpt lat="48.72363" lon="2.02807">
        <ele>127.7</ele>
        <time>2024-12-31T14:02:40.661Z</time>
      </trkpt>
      <trkpt lat="48.7237" lon="2.02804">
        <ele>126.4</ele>
        <time>2024-12-31T14:02:44.744Z</time>
      </trkpt>
      <trkpt lat="48.72375" lon="2.02799">
        <ele>125.6</ele>
        <time>2024-12-31T14:02:48.267Z</time>
      </trkpt>
      <trkpt lat="48.7238" lon="2.02794">
        <ele>124.7</ele>
        <time>2024-12-31T14:02:51.790Z</time>
      </trkpt>
      <trkpt lat="48.72386" lon="2.02788">
        <ele>123.7</ele>
        <time>2024-12-31T14:02:55.313Z</time>
      </trkpt>
      <trkpt lat="48.72391" lon="2.02783">
        <ele>122.8</ele>
        <time>2024-12-31T14:02:58.836Z</time>
      </trkpt>
      <trkpt lat="48.72396" lon="2.02778">
        <ele>122.2</ele>
        <time>2024-12-31T14:03:02.360Z</time>
      </trkpt>
      <trkpt lat="48.72401" lon="2.02773">
        <ele>121.9</ele>
        <time>2024-12-31T14:03:05.884Z</time>
      </trkpt>
      <trkpt lat="48.72406" lon="2.02767">
        <ele>121.4</ele>
        <time>2024-12-31T14:03:09.408Z</time>
      </trkpt>
      <trkpt lat="48.72412" lon="2.02762">
        <ele>120.8</ele>
        <time>2024-12-31T14:03:12.932Z</time>
      </trkpt>
      <trkpt lat="48.72417" lon="2.02757">
        <ele>120</ele>
        <time>2024-12-31T14:03:16.456Z</time>
      </trkpt>
      <trkpt lat="48.72422" lon="2.02752">
        <ele>119.2</ele>
        <time>2024-12-31T14:03:19.980Z</time>
      </trkpt>
      <trkpt lat="48.72427" lon="2.02746">
        <ele>118.6</ele>
        <time>2024-12-31T14:03:23.504Z</time>
      </trkpt>
      <trkpt lat="48.72432" lon="2.02741">
        <ele>118.1</ele>
        <time>2024-12-31T14:03:27.028Z</time>
      </trkpt>
      <trkpt lat="48.72437" lon="2.02736">
        <ele>117.5</ele>
        <time>2024-12-31T14:03:30.552Z</time>
      </trkpt>
      <trkpt lat="48.72443" lon="2.02731">
        <ele>117</ele>
        <time>2024-12-31T14:03:34.076Z</time>
      </trkpt>
      <trkpt lat="48.72448" lon="2.02725">
        <ele>116.6</ele>
        <time>2024-12-31T14:03:37.600Z</time>
      </trkpt>
      <trkpt lat="48.72453" lon="2.0272">
        <ele>116.6</ele>
        <time>2024-12-31T14:03:41.124Z</time>
      </trkpt>
      <trkpt lat="48.7246" lon="2.02717">
        <ele>116.5</ele>
        <time>2024-12-31T14:03:45.348Z</time>
      </trkpt>
      <trkpt lat="48.72467" lon="2.02714">
        <ele>116.3</ele>
        <time>2024-12-31T14:03:49.572Z</time>
      </trkpt>
      <trkpt lat="48.72474" lon="2.02711">
        <ele>116.1</ele>
        <time>2024-12-31T14:03:53.796Z</time>
      </trkpt>
      <trkpt lat="48.72481" lon="2.02708">
        <ele>116</ele>
        <time>2024-12-31T14:03:58.021Z</time>
      </trkpt>
      <trkpt lat="48.72488" lon="2.02705">
        <ele>115.8</ele>
        <time>2024-12-31T14:04:02.246Z</time>
      </trkpt>
      <trkpt lat="48.72495" lon="2.02702">
        <ele>115.6</ele>
        <time>2024-12-31T14:04:06.471Z</time>
      </trkpt>
      <trkpt lat="48.72502" lon="2.02699">
        <ele>115.5</ele>
        <time>2024-12-31T14:04:10.696Z</time>
      </trkpt>
      <trkpt lat="48.72509" lon="2.02696">
        <ele>115.3</ele>
        <time>2024-12-31T14:04:14.921Z</time>
      </trkpt>
      <trkpt lat="48.72515" lon="2.02692">
        <ele>115.2</ele>
        <time>2024-12-31T14:04:19.146Z</time>
      </trkpt>
      <trkpt lat="48.72522" lon="2.02689">
        <ele>115</ele>
        <time>2024-12-31T14:04:23.371Z</time>
      </trkpt>
      <trkpt lat="48.72529" lon="2.02686">
        <ele>114.8</ele>
        <time>2024-12-31T14:04:27.596Z</time>
      </trkpt>
      <trkpt lat="48.72536" lon="2.02683">
        <ele>114.5</ele>
        <time>2024-12-31T14:04:31.821Z</time>
      </trkpt>
      <trkpt lat="48.72543" lon="2.0268">
        <ele>114.1</ele>
        <time>2024-12-31T14:04:36.046Z</time>
      </trkpt>
      <trkpt lat="48.7255" lon="2.02677">
        <ele>113.8</ele>
        <time>2024-12-31T14:04:40.271Z</time>
      </trkpt>
      <trkpt lat="48.72557" lon="2.02674">
        <ele>113.3</ele>
        <time>2024-12-31T14:04:44.496Z</time>
      </trkpt>
      <trkpt lat="48.72564" lon="2.02671">
        <ele>112.8</ele>
        <time>2024-12-31T14:04:48.721Z</time>
      </trkpt>
      <trkpt lat="48.72569" lon="2.02668">
        <ele>112.4</ele>
        <time>2024-12-31T14:04:51.859Z</time>
      </trkpt>
      <trkpt lat="48.72575" lon="2.02666">
        <ele>112.1</ele>
        <time>2024-12-31T14:04:54.997Z</time>
      </trkpt>
      <trkpt lat="48.7258" lon="2.02663">
        <ele>111.7</ele>
        <time>2024-12-31T14:04:58.135Z</time>
      </trkpt>
      <trkpt lat="48.72585" lon="2.0266">
        <ele>111.4</ele>
        <time>2024-12-31T14:05:01.273Z</time>
      </trkpt>
      <trkpt lat="48.7259" lon="2.02657">
        <ele>111.2</ele>
        <time>2024-12-31T14:05:04.411Z</time>
      </trkpt>
      <trkpt lat="48.72596" lon="2.02655">
        <ele>111</ele>
        <time>2024-12-31T14:05:07.549Z</time>
      </trkpt>
      <trkpt lat="48.72601" lon="2.02652">
        <ele>110.8</ele>
        <time>2024-12-31T14:05:10.687Z</time>
      </trkpt>
      <trkpt lat="48.72606" lon="2.02649">
        <ele>110.6</ele>
        <time>2024-12-31T14:05:13.825Z</time>
      </trkpt>
      <trkpt lat="48.72612" lon="2.02645">
        <ele>110.6</ele>
        <time>2024-12-31T14:05:17.987Z</time>
      </trkpt>
      <trkpt lat="48.72617" lon="2.0264">
        <ele>110.7</ele>
        <time>2024-12-31T14:05:22.149Z</time>
      </trkpt>
      <trkpt lat="48.72623" lon="2.02636">
        <ele>110.9</ele>
        <time>2024-12-31T14:05:26.311Z</time>
      </trkpt>
      <trkpt lat="48.72628" lon="2.02631">
        <ele>111.1</ele>
        <time>2024-12-31T14:05:30.473Z</time>
      </trkpt>
      <trkpt lat="48.72634" lon="2.02627">
        <ele>111.2</ele>
        <time>2024-12-31T14:05:34.635Z</time>
      </trkpt>
      <trkpt lat="48.72639" lon="2.02622">
        <ele>111.2</ele>
        <time>2024-12-31T14:05:38.797Z</time>
      </trkpt>
      <trkpt lat="48.72645" lon="2.02618">
        <ele>111.2</ele>
        <time>2024-12-31T14:05:42.959Z</time>
      </trkpt>
      <trkpt lat="48.7265" lon="2.02613">
        <ele>111.1</ele>
        <time>2024-12-31T14:05:47.122Z</time>
      </trkpt>
      <trkpt lat="48.72654" lon="2.02608">
        <ele>111.1</ele>
        <time>2024-12-31T14:05:50.217Z</time>
      </trkpt>
      <trkpt lat="48.72659" lon="2.02603">
        <ele>111</ele>
        <time>2024-12-31T14:05:53.312Z</time>
      </trkpt>
      <trkpt lat="48.72663" lon="2.02598">
        <ele>110.8</ele>
        <time>2024-12-31T14:05:56.407Z</time>
      </trkpt>
      <trkpt lat="48.72667" lon="2.02593">
        <ele>110.6</ele>
        <time>2024-12-31T14:05:59.502Z</time>
      </trkpt>
      <trkpt lat="48.72672" lon="2.02587">
        <ele>110.5</ele>
        <time>2024-12-31T14:06:02.597Z</time>
      </trkpt>
      <trkpt lat="48.72676" lon="2.02582">
        <ele>110.4</ele>
        <time>2024-12-31T14:06:05.692Z</time>
      </trkpt>
      <trkpt lat="48.7268" lon="2.02577">
        <ele>110.1</ele>
        <time>2024-12-31T14:06:08.788Z</time>
      </trkpt>
      <trkpt lat="48.72685" lon="2.02572">
        <ele>109.9</ele>
        <time>2024-12-31T14:06:11.884Z</time>
      </trkpt>
      <trkpt lat="48.72689" lon="2.02567">
        <ele>109.5</ele>
        <time>2024-12-31T14:06:14.980Z</time>
      </trkpt>
      <trkpt lat="48.72693" lon="2.02562">
        <ele>109.1</ele>
        <time>2024-12-31T14:06:18.076Z</time>
      </trkpt>
      <trkpt lat="48.72697" lon="2.02557">
        <ele>108.7</ele>
        <time>2024-12-31T14:06:21.172Z</time>
      </trkpt>
      <trkpt lat="48.72702" lon="2.02552">
        <ele>108.2</ele>
        <time>2024-12-31T14:06:24.268Z</time>
      </trkpt>
      <trkpt lat="48.72706" lon="2.02546">
        <ele>107.9</ele>
        <time>2024-12-31T14:06:27.364Z</time>
      </trkpt>
      <trkpt lat="48.7271" lon="2.02541">
        <ele>107.6</ele>
        <time>2024-12-31T14:06:30.460Z</time>
      </trkpt>
      <trkpt lat="48.72715" lon="2.02536">
        <ele>107.3</ele>
        <time>2024-12-31T14:06:33.556Z</time>
      </trkpt>
      <trkpt lat="48.72719" lon="2.02531">
        <ele>107.1</ele>
        <time>2024-12-31T14:06:36.652Z</time>
      </trkpt>
      <trkpt lat="48.72724" lon="2.02535">
        <ele>106.7</ele>
        <time>2024-12-31T14:06:39.599Z</time>
      </trkpt>
      <trkpt lat="48.72728" lon="2.02539">
        <ele>106.4</ele>
        <time>2024-12-31T14:06:42.546Z</time>
      </trkpt>
      <trkpt lat="48.72726" lon="2.02547">
        <ele>106.2</ele>
        <time>2024-12-31T14:06:45.623Z</time>
      </trkpt>
      <trkpt lat="48.72724" lon="2.02554">
        <ele>106</ele>
        <time>2024-12-31T14:06:48.702Z</time>
      </trkpt>
      <trkpt lat="48.72729" lon="2.02559">
        <ele>105.8</ele>
        <time>2024-12-31T14:06:52.239Z</time>
      </trkpt>
      <trkpt lat="48.72734" lon="2.02565">
        <ele>105.6</ele>
        <time>2024-12-31T14:06:55.776Z</time>
      </trkpt>
      <trkpt lat="48.72739" lon="2.0257">
        <ele>105.4</ele>
        <time>2024-12-31T14:06:59.313Z</time>
      </trkpt>
      <trkpt lat="48.72745" lon="2.02575">
        <ele>105.2</ele>
        <time>2024-12-31T14:07:02.850Z</time>
      </trkpt>
      <trkpt lat="48.7275" lon="2.0258">
        <ele>105</ele>
        <time>2024-12-31T14:07:06.387Z</time>
      </trkpt>
      <trkpt lat="48.72755" lon="2.02586">
        <ele>104.7</ele>
        <time>2024-12-31T14:07:09.924Z</time>
      </trkpt>
      <trkpt lat="48.7276" lon="2.02591">
        <ele>104.4</ele>
        <time>2024-12-31T14:07:13.461Z</time>
      </trkpt>
      <trkpt lat="48.72765" lon="2.02596">
        <ele>104</ele>
        <time>2024-12-31T14:07:16.998Z</time>
      </trkpt>
      <trkpt lat="48.7277" lon="2.02601">
        <ele>103.6</ele>
        <time>2024-12-31T14:07:20.535Z</time>
      </trkpt>
      <trkpt lat="48.72775" lon="2.02607">
        <ele>103.3</ele>
        <time>2024-12-31T14:07:24.072Z</time>
      </trkpt>
      <trkpt lat="48.7278" lon="2.02612">
        <ele>103</ele>
        <time>2024-12-31T14:07:27.609Z</time>
      </trkpt>
      <trkpt lat="48.72786" lon="2.02617">
        <ele>102.9</ele>
        <time>2024-12-31T14:07:31.146Z</time>
      </trkpt>
      <trkpt lat="48.72791" lon="2.02622">
        <ele>102.8</ele>
        <time>2024-12-31T14:07:34.683Z</time>
      </trkpt>
      <trkpt lat="48.72796" lon="2.02628">
        <ele>102.6</ele>
        <time>2024-12-31T14:07:38.220Z</time>
      </trkpt>
      <trkpt lat="48.72801" lon="2.02633">
        <ele>102.4</ele>
        <time>2024-12-31T14:07:41.757Z</time>
      </trkpt>
      <trkpt lat="48.72806" lon="2.02638">
        <ele>102</ele>
        <time>2024-12-31T14:07:45.294Z</time>
      </trkpt>
      <trkpt lat="48.72811" lon="2.02643">
        <ele>101.8</ele>
        <time>2024-12-31T14:07:48.831Z</time>
      </trkpt>
      <trkpt lat="48.72816" lon="2.02649">
        <ele>101.7</ele>
        <time>2024-12-31T14:07:52.368Z</time>
      </trkpt>
      <trkpt lat="48.72821" lon="2.02654">
        <ele>101.5</ele>
        <time>2024-12-31T14:07:55.905Z</time>
      </trkpt>
      <trkpt lat="48.72827" lon="2.02659">
        <ele>101.3</ele>
        <time>2024-12-31T14:07:59.442Z</time>
      </trkpt>
      <trkpt lat="48.72832" lon="2.02664">
        <ele>101.1</ele>
        <time>2024-12-31T14:08:02.979Z</time>
      </trkpt>
      <trkpt lat="48.72837" lon="2.0267">
        <ele>100.9</ele>
        <time>2024-12-31T14:08:06.516Z</time>
      </trkpt>
      <trkpt lat="48.72842" lon="2.02675">
        <ele>100.7</ele>
        <time>2024-12-31T14:08:10.053Z</time>
      </trkpt>
      <trkpt lat="48.72847" lon="2.0268">
        <ele>100.5</ele>
        <time>2024-12-31T14:08:13.590Z</time>
      </trkpt>
      <trkpt lat="48.72852" lon="2.02685">
        <ele>100.3</ele>
        <time>2024-12-31T14:08:17.127Z</time>
      </trkpt>
      <trkpt lat="48.72857" lon="2.02691">
        <ele>100.1</ele>
        <time>2024-12-31T14:08:20.664Z</time>
      </trkpt>
      <trkpt lat="48.72862" lon="2.02696">
        <ele>99.9</ele>
        <time>2024-12-31T14:08:24.201Z</time>
      </trkpt>
      <trkpt lat="48.72868" lon="2.02701">
        <ele>99.5</ele>
        <time>2024-12-31T14:08:27.738Z</time>
      </trkpt>
      <trkpt lat="48.72873" lon="2.02706">
        <ele>99.2</ele>
        <time>2024-12-31T14:08:31.276Z</time>
      </trkpt>
      <trkpt lat="48.72878" lon="2.02712">
        <ele>98.8</ele>
        <time>2024-12-31T14:08:34.814Z</time>
      </trkpt>
      <trkpt lat="48.72883" lon="2.02717">
        <ele>98.4</ele>
        <time>2024-12-31T14:08:38.352Z</time>
      </trkpt>
      <trkpt lat="48.72888" lon="2.02722">
        <ele>98</ele>
        <time>2024-12-31T14:08:41.890Z</time>
      </trkpt>
      <trkpt lat="48.72895" lon="2.02729">
        <ele>97.8</ele>
        <time>2024-12-31T14:08:47.124Z</time>
      </trkpt>
      <trkpt lat="48.72902" lon="2.02735">
        <ele>97.5</ele>
        <time>2024-12-31T14:08:52.358Z</time>
      </trkpt>
      <trkpt lat="48.72909" lon="2.02742">
        <ele>97.3</ele>
        <time>2024-12-31T14:08:57.593Z</time>
      </trkpt>
      <trkpt lat="48.72916" lon="2.02749">
        <ele>97.1</ele>
        <time>2024-12-31T14:09:02.828Z</time>
      </trkpt>
      <trkpt lat="48.72922" lon="2.02755">
        <ele>97.2</ele>
        <time>2024-12-31T14:09:08.063Z</time>
      </trkpt>
      <trkpt lat="48.72929" lon="2.02762">
        <ele>97.5</ele>
        <time>2024-12-31T14:09:13.298Z</time>
      </trkpt>
      <trkpt lat="48.72936" lon="2.02768">
        <ele>97.7</ele>
        <time>2024-12-31T14:09:18.533Z</time>
      </trkpt>
      <trkpt lat="48.72943" lon="2.02775">
        <ele>97.9</ele>
        <time>2024-12-31T14:09:23.768Z</time>
      </trkpt>
      <trkpt lat="48.72948" lon="2.02784">
        <ele>98.5</ele>
        <time>2024-12-31T14:09:30.202Z</time>
      </trkpt>
      <trkpt lat="48.72949" lon="2.02793">
        <ele>99</ele>
        <time>2024-12-31T14:09:35.120Z</time>
      </trkpt>
      <trkpt lat="48.7295" lon="2.02802">
        <ele>99.4</ele>
        <time>2024-12-31T14:09:40.038Z</time>
      </trkpt>
      <trkpt lat="48.72951" lon="2.0281">
        <ele>99.9</ele>
        <time>2024-12-31T14:09:44.956Z</time>
      </trkpt>
      <trkpt lat="48.72952" lon="2.02819">
        <ele>100.4</ele>
        <time>2024-12-31T14:09:49.874Z</time>
      </trkpt>
      <trkpt lat="48.72959" lon="2.02818">
        <ele>101.2</ele>
        <time>2024-12-31T14:09:56.065Z</time>
      </trkpt>
      <trkpt lat="48.72965" lon="2.02816">
        <ele>101.9</ele>
        <time>2024-12-31T14:10:02.257Z</time>
      </trkpt>
      <trkpt lat="48.7297" lon="2.02812">
        <ele>102.2</ele>
        <time>2024-12-31T14:10:06.098Z</time>
      </trkpt>
      <trkpt lat="48.72976" lon="2.02807">
        <ele>102.3</ele>
        <time>2024-12-31T14:10:09.939Z</time>
      </trkpt>
      <trkpt lat="48.72981" lon="2.02803">
        <ele>102.1</ele>
        <time>2024-12-31T14:10:13.780Z</time>
      </trkpt>
      <trkpt lat="48.72987" lon="2.02799">
        <ele>102</ele>
        <time>2024-12-31T14:10:17.621Z</time>
      </trkpt>
      <trkpt lat="48.72992" lon="2.02794">
        <ele>101.9</ele>
        <time>2024-12-31T14:10:21.462Z</time>
      </trkpt>
      <trkpt lat="48.72997" lon="2.0279">
        <ele>101.8</ele>
        <time>2024-12-31T14:10:25.303Z</time>
      </trkpt>
      <trkpt lat="48.73003" lon="2.02785">
        <ele>101.6</ele>
        <time>2024-12-31T14:10:29.144Z</time>
      </trkpt>
      <trkpt lat="48.73008" lon="2.02781">
        <ele>101.5</ele>
        <time>2024-12-31T14:10:32.986Z</time>
      </trkpt>
      <trkpt lat="48.73012" lon="2.02779">
        <ele>101.5</ele>
        <time>2024-12-31T14:10:35.994Z</time>
      </trkpt>
      <trkpt lat="48.73017" lon="2.02777">
        <ele>101.5</ele>
        <time>2024-12-31T14:10:39.002Z</time>
      </trkpt>
      <trkpt lat="48.73021" lon="2.02774">
        <ele>101.6</ele>
        <time>2024-12-31T14:10:42.010Z</time>
      </trkpt>
      <trkpt lat="48.73025" lon="2.02772">
        <ele>101.7</ele>
        <time>2024-12-31T14:10:45.019Z</time>
      </trkpt>
      <trkpt lat="48.73028" lon="2.02766">
        <ele>101.6</ele>
        <time>2024-12-31T14:10:48.108Z</time>
      </trkpt>
      <trkpt lat="48.7303" lon="2.02761">
        <ele>101.8</ele>
        <time>2024-12-31T14:10:51.197Z</time>
      </trkpt>
      <trkpt lat="48.73033" lon="2.02755">
        <ele>102</ele>
        <time>2024-12-31T14:10:54.286Z</time>
      </trkpt>
      <trkpt lat="48.73036" lon="2.0275">
        <ele>102.1</ele>
        <time>2024-12-31T14:10:57.375Z</time>
      </trkpt>
      <trkpt lat="48.73038" lon="2.02744">
        <ele>102.2</ele>
        <time>2024-12-31T14:11:00.464Z</time>
      </trkpt>
      <trkpt lat="48.73041" lon="2.02738">
        <ele>102.2</ele>
        <time>2024-12-31T14:11:03.553Z</time>
      </trkpt>
      <trkpt lat="48.73043" lon="2.02733">
        <ele>102.3</ele>
        <time>2024-12-31T14:11:06.642Z</time>
      </trkpt>
      <trkpt lat="48.73046" lon="2.02727">
        <ele>102.3</ele>
        <time>2024-12-31T14:11:09.731Z</time>
      </trkpt>
      <trkpt lat="48.73051" lon="2.02721">
        <ele>102.4</ele>
        <time>2024-12-31T14:11:13.739Z</time>
      </trkpt>
      <trkpt lat="48.73056" lon="2.02716">
        <ele>102.6</ele>
        <time>2024-12-31T14:11:17.747Z</time>
      </trkpt>
      <trkpt lat="48.73061" lon="2.0271">
        <ele>103.1</ele>
        <time>2024-12-31T14:11:21.755Z</time>
      </trkpt>
      <trkpt lat="48.73065" lon="2.02705">
        <ele>103.5</ele>
        <time>2024-12-31T14:11:25.763Z</time>
      </trkpt>
      <trkpt lat="48.7307" lon="2.02699">
        <ele>103.7</ele>
        <time>2024-12-31T14:11:29.771Z</time>
      </trkpt>
      <trkpt lat="48.73075" lon="2.02693">
        <ele>103.7</ele>
        <time>2024-12-31T14:11:33.779Z</time>
      </trkpt>
      <trkpt lat="48.7308" lon="2.02688">
        <ele>103.8</ele>
        <time>2024-12-31T14:11:37.787Z</time>
      </trkpt>
      <trkpt lat="48.73085" lon="2.02682">
        <ele>103.8</ele>
        <time>2024-12-31T14:11:41.795Z</time>
      </trkpt>
      <trkpt lat="48.7309" lon="2.02676">
        <ele>103.6</ele>
        <time>2024-12-31T14:11:45.803Z</time>
      </trkpt>
      <trkpt lat="48.73094" lon="2.02671">
        <ele>103.3</ele>
        <time>2024-12-31T14:11:49.811Z</time>
      </trkpt>
      <trkpt lat="48.73099" lon="2.02665">
        <ele>103</ele>
        <time>2024-12-31T14:11:53.819Z</time>
      </trkpt>
      <trkpt lat="48.73104" lon="2.0266">
        <ele>102.8</ele>
        <time>2024-12-31T14:11:57.827Z</time>
      </trkpt>
      <trkpt lat="48.73109" lon="2.02654">
        <ele>102.5</ele>
        <time>2024-12-31T14:12:01.835Z</time>
      </trkpt>
      <trkpt lat="48.73114" lon="2.02648">
        <ele>102.1</ele>
        <time>2024-12-31T14:12:05.843Z</time>
      </trkpt>
      <trkpt lat="48.73119" lon="2.02643">
        <ele>101.6</ele>
        <time>2024-12-31T14:12:09.851Z</time>
      </trkpt>
      <trkpt lat="48.73124" lon="2.02637">
        <ele>101.4</ele>
        <time>2024-12-31T14:12:13.859Z</time>
      </trkpt>
      <trkpt lat="48.73128" lon="2.02631">
        <ele>101.3</ele>
        <time>2024-12-31T14:12:17.868Z</time>
      </trkpt>
      <trkpt lat="48.73133" lon="2.02626">
        <ele>101.3</ele>
        <time>2024-12-31T14:12:21.877Z</time>
      </trkpt>
      <trkpt lat="48.73138" lon="2.0262">
        <ele>101.3</ele>
        <time>2024-12-31T14:12:25.886Z</time>
      </trkpt>
      <trkpt lat="48.73143" lon="2.02615">
        <ele>101.1</ele>
        <time>2024-12-31T14:12:29.895Z</time>
      </trkpt>
      <trkpt lat="48.73148" lon="2.02609">
        <ele>100.9</ele>
        <time>2024-12-31T14:12:33.904Z</time>
      </trkpt>
      <trkpt lat="48.73153" lon="2.02603">
        <ele>100.9</ele>
        <time>2024-12-31T14:12:37.913Z</time>
      </trkpt>
      <trkpt lat="48.73157" lon="2.02598">
        <ele>100.8</ele>
        <time>2024-12-31T14:12:41.922Z</time>
      </trkpt>
      <trkpt lat="48.73162" lon="2.02592">
        <ele>100.9</ele>
        <time>2024-12-31T14:12:45.931Z</time>
      </trkpt>
      <trkpt lat="48.73167" lon="2.02586">
        <ele>101</ele>
        <time>2024-12-31T14:12:49.940Z</time>
      </trkpt>
      <trkpt lat="48.73172" lon="2.02581">
        <ele>101.3</ele>
        <time>2024-12-31T14:12:53.949Z</time>
      </trkpt>
      <trkpt lat="48.73177" lon="2.02575">
        <ele>101.4</ele>
        <time>2024-12-31T14:12:57.958Z</time>
      </trkpt>
      <trkpt lat="48.73182" lon="2.0257">
        <ele>101.6</ele>
        <time>2024-12-31T14:13:01.967Z</time>
      </trkpt>
      <trkpt lat="48.73187" lon="2.02564">
        <ele>101.7</ele>
        <time>2024-12-31T14:13:05.976Z</time>
      </trkpt>
      <trkpt lat="48.73191" lon="2.02558">
        <ele>101.9</ele>
        <time>2024-12-31T14:13:09.985Z</time>
      </trkpt>
      <trkpt lat="48.73196" lon="2.02553">
        <ele>102.4</ele>
        <time>2024-12-31T14:13:13.994Z</time>
      </trkpt>
      <trkpt lat="48.73201" lon="2.02547">
        <ele>103.4</ele>
        <time>2024-12-31T14:13:18.003Z</time>
      </trkpt>
      <trkpt lat="48.73208" lon="2.02541">
        <ele>104.5</ele>
        <time>2024-12-31T14:13:23.481Z</time>
      </trkpt>
      <trkpt lat="48.73215" lon="2.02534">
        <ele>105.4</ele>
        <time>2024-12-31T14:13:28.960Z</time>
      </trkpt>
      <trkpt lat="48.73221" lon="2.02528">
        <ele>105.9</ele>
        <time>2024-12-31T14:13:34.439Z</time>
      </trkpt>
      <trkpt lat="48.73228" lon="2.02522">
        <ele>107</ele>
        <time>2024-12-31T14:13:39.918Z</time>
      </trkpt>
      <trkpt lat="48.73235" lon="2.02515">
        <ele>107.8</ele>
        <time>2024-12-31T14:13:45.397Z</time>
      </trkpt>
      <trkpt lat="48.73242" lon="2.02509">
        <ele>108.2</ele>
        <time>2024-12-31T14:13:50.876Z</time>
      </trkpt>
      <trkpt lat="48.73249" lon="2.02503">
        <ele>108.4</ele>
        <time>2024-12-31T14:13:56.355Z</time>
      </trkpt>
      <trkpt lat="48.73256" lon="2.02497">
        <ele>108.3</ele>
        <time>2024-12-31T14:14:01.834Z</time>
      </trkpt>
      <trkpt lat="48.73262" lon="2.0249">
        <ele>108.1</ele>
        <time>2024-12-31T14:14:07.313Z</time>
      </trkpt>
      <trkpt lat="48.73269" lon="2.02484">
        <ele>107.7</ele>
        <time>2024-12-31T14:14:12.792Z</time>
      </trkpt>
      <trkpt lat="48.73276" lon="2.02478">
        <ele>107.1</ele>
        <time>2024-12-31T14:14:18.271Z</time>
      </trkpt>
      <trkpt lat="48.73283" lon="2.02471">
        <ele>106.6</ele>
        <time>2024-12-31T14:14:23.750Z</time>
      </trkpt>
      <trkpt lat="48.7329" lon="2.02465">
        <ele>106.5</ele>
        <time>2024-12-31T14:14:29.229Z</time>
      </trkpt>
      <trkpt lat="48.73296" lon="2.02459">
        <ele>106.4</ele>
        <time>2024-12-31T14:14:34.708Z</time>
      </trkpt>
      <trkpt lat="48.73303" lon="2.02452">
        <ele>106.1</ele>
        <time>2024-12-31T14:14:40.187Z</time>
      </trkpt>
      <trkpt lat="48.7331" lon="2.02446">
        <ele>105.9</ele>
        <time>2024-12-31T14:14:45.666Z</time>
      </trkpt>
      <trkpt lat="48.73315" lon="2.02443">
        <ele>106.1</ele>
        <time>2024-12-31T14:14:48.882Z</time>
      </trkpt>
      <trkpt lat="48.73319" lon="2.02439">
        <ele>106.3</ele>
        <time>2024-12-31T14:14:52.098Z</time>
      </trkpt>
      <trkpt lat="48.73324" lon="2.02436">
        <ele>106.5</ele>
        <time>2024-12-31T14:14:55.315Z</time>
      </trkpt>
      <trkpt lat="48.73328" lon="2.02433">
        <ele>106.7</ele>
        <time>2024-12-31T14:14:58.532Z</time>
      </trkpt>
      <trkpt lat="48.73333" lon="2.02429">
        <ele>106.8</ele>
        <time>2024-12-31T14:15:01.749Z</time>
      </trkpt>
      <trkpt lat="48.73337" lon="2.02426">
        <ele>106.7</ele>
        <time>2024-12-31T14:15:04.966Z</time>
      </trkpt>
      <trkpt lat="48.73342" lon="2.02423">
        <ele>106.6</ele>
        <time>2024-12-31T14:15:08.183Z</time>
      </trkpt>
      <trkpt lat="48.73347" lon="2.0242">
        <ele>106.4</ele>
        <time>2024-12-31T14:15:11.400Z</time>
      </trkpt>
      <trkpt lat="48.73351" lon="2.02416">
        <ele>106.2</ele>
        <time>2024-12-31T14:15:14.617Z</time>
      </trkpt>
      <trkpt lat="48.73356" lon="2.02413">
        <ele>106.2</ele>
        <time>2024-12-31T14:15:17.834Z</time>
      </trkpt>
      <trkpt lat="48.7336" lon="2.0241">
        <ele>106.2</ele>
        <time>2024-12-31T14:15:21.051Z</time>
      </trkpt>
      <trkpt lat="48.73365" lon="2.02406">
        <ele>106.2</ele>
        <time>2024-12-31T14:15:24.268Z</time>
      </trkpt>
      <trkpt lat="48.73369" lon="2.02403">
        <ele>106.1</ele>
        <time>2024-12-31T14:15:27.485Z</time>
      </trkpt>
      <trkpt lat="48.73374" lon="2.024">
        <ele>106</ele>
        <time>2024-12-31T14:15:30.702Z</time>
      </trkpt>
      <trkpt lat="48.73378" lon="2.02396">
        <ele>105.8</ele>
        <time>2024-12-31T14:15:33.919Z</time>
      </trkpt>
      <trkpt lat="48.73383" lon="2.02393">
        <ele>105.5</ele>
        <time>2024-12-31T14:15:37.136Z</time>
      </trkpt>
      <trkpt lat="48.73387" lon="2.02389">
        <ele>105</ele>
        <time>2024-12-31T14:15:40.028Z</time>
      </trkpt>
      <trkpt lat="48.73391" lon="2.02386">
        <ele>105</ele>
        <time>2024-12-31T14:15:42.920Z</time>
      </trkpt>
      <trkpt lat="48.73395" lon="2.02382">
        <ele>105.1</ele>
        <time>2024-12-31T14:15:45.813Z</time>
      </trkpt>
      <trkpt lat="48.73399" lon="2.02378">
        <ele>105.2</ele>
        <time>2024-12-31T14:15:48.706Z</time>
      </trkpt>
      <trkpt lat="48.73404" lon="2.02371">
        <ele>104.9</ele>
        <time>2024-12-31T14:15:52.580Z</time>
      </trkpt>
      <trkpt lat="48.73409" lon="2.02363">
        <ele>104.6</ele>
        <time>2024-12-31T14:15:56.454Z</time>
      </trkpt>
      <trkpt lat="48.73413" lon="2.02356">
        <ele>104.2</ele>
        <time>2024-12-31T14:16:00.328Z</time>
      </trkpt>
      <trkpt lat="48.73418" lon="2.02348">
        <ele>103.7</ele>
        <time>2024-12-31T14:16:04.203Z</time>
      </trkpt>
      <trkpt lat="48.73422" lon="2.02341">
        <ele>103.3</ele>
        <time>2024-12-31T14:16:07.789Z</time>
      </trkpt>
      <trkpt lat="48.73425" lon="2.02333">
        <ele>102.9</ele>
        <time>2024-12-31T14:16:11.375Z</time>
      </trkpt>
      <trkpt lat="48.73429" lon="2.02326">
        <ele>102.9</ele>
        <time>2024-12-31T14:16:14.961Z</time>
      </trkpt>
      <trkpt lat="48.73432" lon="2.02319">
        <ele>102.8</ele>
        <time>2024-12-31T14:16:18.547Z</time>
      </trkpt>
      <trkpt lat="48.73436" lon="2.02311">
        <ele>102.7</ele>
        <time>2024-12-31T14:16:22.133Z</time>
      </trkpt>
      <trkpt lat="48.73439" lon="2.02304">
        <ele>102.6</ele>
        <time>2024-12-31T14:16:25.719Z</time>
      </trkpt>
      <trkpt lat="48.73443" lon="2.02296">
        <ele>102.6</ele>
        <time>2024-12-31T14:16:29.306Z</time>
      </trkpt>
      <trkpt lat="48.73446" lon="2.02289">
        <ele>102.5</ele>
        <time>2024-12-31T14:16:32.893Z</time>
      </trkpt>
      <trkpt lat="48.73452" lon="2.0229">
        <ele>102.8</ele>
        <time>2024-12-31T14:16:37.352Z</time>
      </trkpt>
      <trkpt lat="48.73458" lon="2.02291">
        <ele>103.1</ele>
        <time>2024-12-31T14:16:41.811Z</time>
      </trkpt>
      <trkpt lat="48.73463" lon="2.02291">
        <ele>103.5</ele>
        <time>2024-12-31T14:16:46.270Z</time>
      </trkpt>
      <trkpt lat="48.73469" lon="2.02292">
        <ele>103.8</ele>
        <time>2024-12-31T14:16:50.730Z</time>
      </trkpt>
      <trkpt lat="48.73476" lon="2.02292">
        <ele>104.2</ele>
        <time>2024-12-31T14:16:56.138Z</time>
      </trkpt>
      <trkpt lat="48.73483" lon="2.02293">
        <ele>104.5</ele>
        <time>2024-12-31T14:17:01.546Z</time>
      </trkpt>
      <trkpt lat="48.7349" lon="2.02293">
        <ele>104.7</ele>
        <time>2024-12-31T14:17:06.955Z</time>
      </trkpt>
      <trkpt lat="48.73498" lon="2.02293">
        <ele>105</ele>
        <time>2024-12-31T14:17:12.364Z</time>
      </trkpt>
      <trkpt lat="48.73505" lon="2.02293">
        <ele>105.4</ele>
        <time>2024-12-31T14:17:17.773Z</time>
      </trkpt>
      <trkpt lat="48.73512" lon="2.02294">
        <ele>105.8</ele>
        <time>2024-12-31T14:17:23.182Z</time>
      </trkpt>
      <trkpt lat="48.73519" lon="2.02294">
        <ele>106.2</ele>
        <time>2024-12-31T14:17:28.591Z</time>
      </trkpt>
      <trkpt lat="48.73526" lon="2.02294">
        <ele>106.7</ele>
        <time>2024-12-31T14:17:34.000Z</time>
      </trkpt>
      <trkpt lat="48.73532" lon="2.02293">
        <ele>106.8</ele>
        <time>2024-12-31T14:17:37.849Z</time>
      </trkpt>
      <trkpt lat="48.73538" lon="2.02293">
        <ele>107</ele>
        <time>2024-12-31T14:17:41.698Z</time>
      </trkpt>
      <trkpt lat="48.73543" lon="2.02292">
        <ele>107.1</ele>
        <time>2024-12-31T14:17:45.547Z</time>
      </trkpt>
      <trkpt lat="48.73549" lon="2.02292">
        <ele>107.2</ele>
        <time>2024-12-31T14:17:49.396Z</time>
      </trkpt>
      <trkpt lat="48.73555" lon="2.02291">
        <ele>107.4</ele>
        <time>2024-12-31T14:17:53.245Z</time>
      </trkpt>
      <trkpt lat="48.73561" lon="2.0229">
        <ele>107.3</ele>
        <time>2024-12-31T14:17:57.094Z</time>
      </trkpt>
      <trkpt lat="48.73566" lon="2.0229">
        <ele>107.3</ele>
        <time>2024-12-31T14:18:00.943Z</time>
      </trkpt>
      <trkpt lat="48.73572" lon="2.02289">
        <ele>107.2</ele>
        <time>2024-12-31T14:18:04.793Z</time>
      </trkpt>
      <trkpt lat="48.73577" lon="2.02289">
        <ele>107.2</ele>
        <time>2024-12-31T14:18:07.853Z</time>
      </trkpt>
      <trkpt lat="48.73581" lon="2.02289">
        <ele>107.2</ele>
        <time>2024-12-31T14:18:10.913Z</time>
      </trkpt>
      <trkpt lat="48.73586" lon="2.02289">
        <ele>107.3</ele>
        <time>2024-12-31T14:18:13.973Z</time>
      </trkpt>
      <trkpt lat="48.7359" lon="2.02289">
        <ele>107.3</ele>
        <time>2024-12-31T14:18:17.033Z</time>
      </trkpt>
      <trkpt lat="48.73595" lon="2.02289">
        <ele>107.4</ele>
        <time>2024-12-31T14:18:20.093Z</time>
      </trkpt>
      <trkpt lat="48.73599" lon="2.02289">
        <ele>107.5</ele>
        <time>2024-12-31T14:18:23.154Z</time>
      </trkpt>
      <trkpt lat="48.73604" lon="2.02289">
        <ele>107.6</ele>
        <time>2024-12-31T14:18:26.215Z</time>
      </trkpt>
      <trkpt lat="48.73609" lon="2.0229">
        <ele>107.6</ele>
        <time>2024-12-31T14:18:29.276Z</time>
      </trkpt>
      <trkpt lat="48.73613" lon="2.0229">
        <ele>107.7</ele>
        <time>2024-12-31T14:18:32.337Z</time>
      </trkpt>
      <trkpt lat="48.73618" lon="2.0229">
        <ele>107.8</ele>
        <time>2024-12-31T14:18:35.398Z</time>
      </trkpt>
      <trkpt lat="48.73622" lon="2.0229">
        <ele>107.9</ele>
        <time>2024-12-31T14:18:38.459Z</time>
      </trkpt>
      <trkpt lat="48.73627" lon="2.0229">
        <ele>108</ele>
        <time>2024-12-31T14:18:41.520Z</time>
      </trkpt>
      <trkpt lat="48.73631" lon="2.0229">
        <ele>108</ele>
        <time>2024-12-31T14:18:44.581Z</time>
      </trkpt>
      <trkpt lat="48.73636" lon="2.0229">
        <ele>108.1</ele>
        <time>2024-12-31T14:18:47.642Z</time>
      </trkpt>
      <trkpt lat="48.7364" lon="2.0229">
        <ele>108.2</ele>
        <time>2024-12-31T14:18:50.703Z</time>
      </trkpt>
      <trkpt lat="48.73645" lon="2.0229">
        <ele>108.1</ele>
        <time>2024-12-31T14:18:53.764Z</time>
      </trkpt>
      <trkpt lat="48.73652" lon="2.02288">
        <ele>107.7</ele>
        <time>2024-12-31T14:18:58.140Z</time>
      </trkpt>
      <trkpt lat="48.73658" lon="2.02286">
        <ele>107.3</ele>
        <time>2024-12-31T14:19:02.516Z</time>
      </trkpt>
      <trkpt lat="48.73665" lon="2.02284">
        <ele>106.9</ele>
        <time>2024-12-31T14:19:06.892Z</time>
      </trkpt>
      <trkpt lat="48.73672" lon="2.02282">
        <ele>106.8</ele>
        <time>2024-12-31T14:19:11.268Z</time>
      </trkpt>
      <trkpt lat="48.73678" lon="2.0228">
        <ele>106.7</ele>
        <time>2024-12-31T14:19:15.644Z</time>
      </trkpt>
      <trkpt lat="48.73685" lon="2.02278">
        <ele>106.7</ele>
        <time>2024-12-31T14:19:20.020Z</time>
      </trkpt>
      <trkpt lat="48.73692" lon="2.02276">
        <ele>106.8</ele>
        <time>2024-12-31T14:19:24.396Z</time>
      </trkpt>
      <trkpt lat="48.73699" lon="2.02274">
        <ele>107</ele>
        <time>2024-12-31T14:19:28.772Z</time>
      </trkpt>
      <trkpt lat="48.73705" lon="2.02272">
        <ele>107.2</ele>
        <time>2024-12-31T14:19:33.148Z</time>
      </trkpt>
      <trkpt lat="48.73712" lon="2.0227">
        <ele>107.3</ele>
        <time>2024-12-31T14:19:37.524Z</time>
      </trkpt>
      <trkpt lat="48.73719" lon="2.02268">
        <ele>107.4</ele>
        <time>2024-12-31T14:19:41.900Z</time>
      </trkpt>
      <trkpt lat="48.73725" lon="2.02266">
        <ele>107.5</ele>
        <time>2024-12-31T14:19:46.276Z</time>
      </trkpt>
      <trkpt lat="48.73732" lon="2.02264">
        <ele>107.7</ele>
        <time>2024-12-31T14:19:50.652Z</time>
      </trkpt>
      <trkpt lat="48.73739" lon="2.02262">
        <ele>107.8</ele>
        <time>2024-12-31T14:19:55.028Z</time>
      </trkpt>
      <trkpt lat="48.73745" lon="2.0226">
        <ele>107.9</ele>
        <time>2024-12-31T14:19:59.405Z</time>
      </trkpt>
      <trkpt lat="48.73752" lon="2.02258">
        <ele>107.9</ele>
        <time>2024-12-31T14:20:03.782Z</time>
      </trkpt>
      <trkpt lat="48.73761" lon="2.02257">
        <ele>108.3</ele>
        <time>2024-12-31T14:20:09.924Z</time>
      </trkpt>
      <trkpt lat="48.73769" lon="2.02256">
        <ele>108.7</ele>
        <time>2024-12-31T14:20:16.066Z</time>
      </trkpt>
      <trkpt lat="48.73778" lon="2.02255">
        <ele>109.1</ele>
        <time>2024-12-31T14:20:22.209Z</time>
      </trkpt>
      <trkpt lat="48.73787" lon="2.02254">
        <ele>109.5</ele>
        <time>2024-12-31T14:20:28.352Z</time>
      </trkpt>
      <trkpt lat="48.73795" lon="2.02253">
        <ele>109.9</ele>
        <time>2024-12-31T14:20:34.495Z</time>
      </trkpt>
      <trkpt lat="48.73804" lon="2.02252">
        <ele>110.3</ele>
        <time>2024-12-31T14:20:40.638Z</time>
      </trkpt>
      <trkpt lat="48.73812" lon="2.02251">
        <ele>110.2</ele>
        <time>2024-12-31T14:20:46.781Z</time>
      </trkpt>
      <trkpt lat="48.73821" lon="2.0225">
        <ele>110</ele>
        <time>2024-12-31T14:20:52.924Z</time>
      </trkpt>
      <trkpt lat="48.73828" lon="2.02251">
        <ele>110.2</ele>
        <time>2024-12-31T14:20:57.754Z</time>
      </trkpt>
      <trkpt lat="48.73835" lon="2.02252">
        <ele>110.5</ele>
        <time>2024-12-31T14:21:02.584Z</time>
      </trkpt>
      <trkpt lat="48.73842" lon="2.02253">
        <ele>110.7</ele>
        <time>2024-12-31T14:21:07.414Z</time>
      </trkpt>
      <trkpt lat="48.73849" lon="2.02255">
        <ele>110.9</ele>
        <time>2024-12-31T14:21:12.244Z</time>
      </trkpt>
      <trkpt lat="48.73856" lon="2.02256">
        <ele>111</ele>
        <time>2024-12-31T14:21:17.074Z</time>
      </trkpt>
      <trkpt lat="48.73863" lon="2.02257">
        <ele>111.2</ele>
        <time>2024-12-31T14:21:21.904Z</time>
      </trkpt>
      <trkpt lat="48.7387" lon="2.02258">
        <ele>111.4</ele>
        <time>2024-12-31T14:21:26.734Z</time>
      </trkpt>
      <trkpt lat="48.73877" lon="2.02259">
        <ele>111.6</ele>
        <time>2024-12-31T14:21:31.564Z</time>
      </trkpt>
      <trkpt lat="48.73884" lon="2.0226">
        <ele>111.8</ele>
        <time>2024-12-31T14:21:36.394Z</time>
      </trkpt>
      <trkpt lat="48.73891" lon="2.02261">
        <ele>112</ele>
        <time>2024-12-31T14:21:41.224Z</time>
      </trkpt>
      <trkpt lat="48.73898" lon="2.02262">
        <ele>112.1</ele>
        <time>2024-12-31T14:21:46.054Z</time>
      </trkpt>
      <trkpt lat="48.73905" lon="2.02264">
        <ele>112.1</ele>
        <time>2024-12-31T14:21:50.884Z</time>
      </trkpt>
      <trkpt lat="48.73912" lon="2.02265">
        <ele>112.2</ele>
        <time>2024-12-31T14:21:55.714Z</time>
      </trkpt>
      <trkpt lat="48.73919" lon="2.02266">
        <ele>112.2</ele>
        <time>2024-12-31T14:22:00.544Z</time>
      </trkpt>
      <trkpt lat="48.73926" lon="2.02267">
        <ele>112.2</ele>
        <time>2024-12-31T14:22:05.374Z</time>
      </trkpt>
      <trkpt lat="48.73933" lon="2.02268">
        <ele>112.2</ele>
        <time>2024-12-31T14:22:10.204Z</time>
      </trkpt>
      <trkpt lat="48.7394" lon="2.02271">
        <ele>112.4</ele>
        <time>2024-12-31T14:22:14.477Z</time>
      </trkpt>
      <trkpt lat="48.73946" lon="2.02274">
        <ele>112.5</ele>
        <time>2024-12-31T14:22:18.750Z</time>
      </trkpt>
      <trkpt lat="48.73953" lon="2.02277">
        <ele>112.6</ele>
        <time>2024-12-31T14:22:23.024Z</time>
      </trkpt>
      <trkpt lat="48.73959" lon="2.0228">
        <ele>112.6</ele>
        <time>2024-12-31T14:22:27.298Z</time>
      </trkpt>
      <trkpt lat="48.73966" lon="2.02282">
        <ele>112.4</ele>
        <time>2024-12-31T14:22:31.572Z</time>
      </trkpt>
      <trkpt lat="48.73972" lon="2.02285">
        <ele>112.3</ele>
        <time>2024-12-31T14:22:35.846Z</time>
      </trkpt>
      <trkpt lat="48.73979" lon="2.02288">
        <ele>112.1</ele>
        <time>2024-12-31T14:22:40.120Z</time>
      </trkpt>
      <trkpt lat="48.73985" lon="2.02291">
        <ele>111.8</ele>
        <time>2024-12-31T14:22:44.394Z</time>
        <extensions>
          <visugpx:TrkExtension xmlns:visugpx="https://www.visugpx.com/editgpx/">
            <visugpx:node>24</visugpx:node>
            </visugpx:TrkExtension>
        </extensions>
      </trkpt>
      <trkpt lat="48.73984" lon="2.02293">
        <ele>111.9</ele>
        <time>2024-12-31T14:22:45.690Z</time>
      </trkpt>
      <trkpt lat="48.73992" lon="2.02296">
        <ele>111.5</ele>
        <time>2024-12-31T14:22:50.346Z</time>
      </trkpt>
      <trkpt lat="48.73998" lon="2.02294">
        <ele>111.1</ele>
        <time>2024-12-31T14:22:53.992Z</time>
      </trkpt>
      <trkpt lat="48.74004" lon="2.02291">
        <ele>111.1</ele>
        <time>2024-12-31T14:22:57.638Z</time>
      </trkpt>
      <trkpt lat="48.7401" lon="2.02288">
        <ele>111.1</ele>
        <time>2024-12-31T14:23:01.954Z</time>
      </trkpt>
      <trkpt lat="48.74017" lon="2.02285">
        <ele>111.1</ele>
        <time>2024-12-31T14:23:06.270Z</time>
      </trkpt>
      <trkpt lat="48.74023" lon="2.02281">
        <ele>111.1</ele>
        <time>2024-12-31T14:23:10.586Z</time>
      </trkpt>
      <trkpt lat="48.74029" lon="2.02278">
        <ele>111.2</ele>
        <time>2024-12-31T14:23:14.902Z</time>
      </trkpt>
      <trkpt lat="48.74036" lon="2.02272">
        <ele>111.9</ele>
        <time>2024-12-31T14:23:21.220Z</time>
      </trkpt>
      <trkpt lat="48.74043" lon="2.02266">
        <ele>112.4</ele>
        <time>2024-12-31T14:23:27.539Z</time>
      </trkpt>
      <trkpt lat="48.74049" lon="2.02259">
        <ele>112.9</ele>
        <time>2024-12-31T14:23:33.858Z</time>
      </trkpt>
      <trkpt lat="48.74056" lon="2.02253">
        <ele>113.3</ele>
        <time>2024-12-31T14:23:40.177Z</time>
      </trkpt>
      <trkpt lat="48.7406" lon="2.02241">
        <ele>112.9</ele>
        <time>2024-12-31T14:23:45.733Z</time>
      </trkpt>
      <trkpt lat="48.74064" lon="2.02229">
        <ele>112.6</ele>
        <time>2024-12-31T14:23:51.289Z</time>
      </trkpt>
      <trkpt lat="48.74067" lon="2.02216">
        <ele>112.7</ele>
        <time>2024-12-31T14:23:56.846Z</time>
      </trkpt>
      <trkpt lat="48.74071" lon="2.02204">
        <ele>112.9</ele>
        <time>2024-12-31T14:24:02.403Z</time>
      </trkpt>
      <trkpt lat="48.74074" lon="2.02196">
        <ele>113.1</ele>
        <time>2024-12-31T14:24:06.812Z</time>
      </trkpt>
      <trkpt lat="48.74077" lon="2.02188">
        <ele>113.4</ele>
        <time>2024-12-31T14:24:11.221Z</time>
      </trkpt>
      <trkpt lat="48.7408" lon="2.02179">
        <ele>113.7</ele>
        <time>2024-12-31T14:24:15.630Z</time>
      </trkpt>
      <trkpt lat="48.74083" lon="2.02171">
        <ele>114.1</ele>
        <time>2024-12-31T14:24:20.039Z</time>
      </trkpt>
      <trkpt lat="48.74086" lon="2.02163">
        <ele>114.4</ele>
        <time>2024-12-31T14:24:24.449Z</time>
      </trkpt>
      <trkpt lat="48.74089" lon="2.02155">
        <ele>114.5</ele>
        <time>2024-12-31T14:24:28.859Z</time>
      </trkpt>
      <trkpt lat="48.74092" lon="2.02146">
        <ele>114.5</ele>
        <time>2024-12-31T14:24:33.269Z</time>
      </trkpt>
      <trkpt lat="48.74095" lon="2.02138">
        <ele>114.4</ele>
        <time>2024-12-31T14:24:37.679Z</time>
      </trkpt>
      <trkpt lat="48.741" lon="2.02128">
        <ele>114.4</ele>
        <time>2024-12-31T14:24:42.551Z</time>
      </trkpt>
      <trkpt lat="48.74106" lon="2.02117">
        <ele>114</ele>
        <time>2024-12-31T14:24:47.423Z</time>
      </trkpt>
      <trkpt lat="48.74111" lon="2.02107">
        <ele>113.5</ele>
        <time>2024-12-31T14:24:52.295Z</time>
      </trkpt>
      <trkpt lat="48.74116" lon="2.02097">
        <ele>112.9</ele>
        <time>2024-12-31T14:24:57.167Z</time>
      </trkpt>
      <trkpt lat="48.74121" lon="2.02086">
        <ele>112.1</ele>
        <time>2024-12-31T14:25:02.039Z</time>
      </trkpt>
      <trkpt lat="48.74127" lon="2.02076">
        <ele>111.7</ele>
        <time>2024-12-31T14:25:06.911Z</time>
      </trkpt>
      <trkpt lat="48.74132" lon="2.02065">
        <ele>111.4</ele>
        <time>2024-12-31T14:25:11.783Z</time>
      </trkpt>
      <trkpt lat="48.74137" lon="2.02055">
        <ele>110.9</ele>
        <time>2024-12-31T14:25:16.655Z</time>
      </trkpt>
      <trkpt lat="48.74141" lon="2.02049">
        <ele>111.2</ele>
        <time>2024-12-31T14:25:20.475Z</time>
      </trkpt>
      <trkpt lat="48.74144" lon="2.02042">
        <ele>111.5</ele>
        <time>2024-12-31T14:25:24.295Z</time>
      </trkpt>
      <trkpt lat="48.74148" lon="2.02036">
        <ele>111.7</ele>
        <time>2024-12-31T14:25:28.115Z</time>
      </trkpt>
      <trkpt lat="48.74151" lon="2.0203">
        <ele>111.9</ele>
        <time>2024-12-31T14:25:31.936Z</time>
      </trkpt>
      <trkpt lat="48.74155" lon="2.02023">
        <ele>111.9</ele>
        <time>2024-12-31T14:25:35.757Z</time>
      </trkpt>
      <trkpt lat="48.74158" lon="2.02017">
        <ele>111.9</ele>
        <time>2024-12-31T14:25:39.578Z</time>
      </trkpt>
      <trkpt lat="48.74162" lon="2.0201">
        <ele>111.9</ele>
        <time>2024-12-31T14:25:43.399Z</time>
      </trkpt>
      <trkpt lat="48.74165" lon="2.02004">
        <ele>112</ele>
        <time>2024-12-31T14:25:47.220Z</time>
      </trkpt>
      <trkpt lat="48.7417" lon="2.01998">
        <ele>112.3</ele>
        <time>2024-12-31T14:25:51.314Z</time>
      </trkpt>
      <trkpt lat="48.74174" lon="2.01992">
        <ele>112.7</ele>
        <time>2024-12-31T14:25:55.408Z</time>
      </trkpt>
      <trkpt lat="48.74179" lon="2.01986">
        <ele>113</ele>
        <time>2024-12-31T14:25:59.502Z</time>
      </trkpt>
      <trkpt lat="48.74183" lon="2.01981">
        <ele>113.2</ele>
        <time>2024-12-31T14:26:03.596Z</time>
      </trkpt>
      <trkpt lat="48.74188" lon="2.01975">
        <ele>113.4</ele>
        <time>2024-12-31T14:26:07.690Z</time>
      </trkpt>
      <trkpt lat="48.74192" lon="2.01969">
        <ele>113.4</ele>
        <time>2024-12-31T14:26:11.784Z</time>
      </trkpt>
      <trkpt lat="48.74197" lon="2.01963">
        <ele>113.2</ele>
        <time>2024-12-31T14:26:15.878Z</time>
      </trkpt>
      <trkpt lat="48.74201" lon="2.01957">
        <ele>113</ele>
        <time>2024-12-31T14:26:19.972Z</time>
      </trkpt>
      <trkpt lat="48.74209" lon="2.01951">
        <ele>113</ele>
        <time>2024-12-31T14:26:25.590Z</time>
      </trkpt>
      <trkpt lat="48.74217" lon="2.01946">
        <ele>112.8</ele>
        <time>2024-12-31T14:26:31.208Z</time>
      </trkpt>
      <trkpt lat="48.74225" lon="2.0194">
        <ele>112.7</ele>
        <time>2024-12-31T14:26:36.826Z</time>
      </trkpt>
      <trkpt lat="48.74233" lon="2.01934">
        <ele>112.8</ele>
        <time>2024-12-31T14:26:42.444Z</time>
      </trkpt>
      <trkpt lat="48.7424" lon="2.01928">
        <ele>112.8</ele>
        <time>2024-12-31T14:26:48.062Z</time>
      </trkpt>
      <trkpt lat="48.74248" lon="2.01923">
        <ele>112.7</ele>
        <time>2024-12-31T14:26:53.681Z</time>
      </trkpt>
      <trkpt lat="48.74256" lon="2.01917">
        <ele>112.7</ele>
        <time>2024-12-31T14:26:59.300Z</time>
      </trkpt>
      <trkpt lat="48.74264" lon="2.01911">
        <ele>112.9</ele>
        <time>2024-12-31T14:27:04.919Z</time>
      </trkpt>
      <trkpt lat="48.74269" lon="2.01909">
        <ele>113.3</ele>
        <time>2024-12-31T14:27:09.620Z</time>
      </trkpt>
      <trkpt lat="48.74275" lon="2.01908">
        <ele>113.7</ele>
        <time>2024-12-31T14:27:14.321Z</time>
      </trkpt>
      <trkpt lat="48.7428" lon="2.01906">
        <ele>114.2</ele>
        <time>2024-12-31T14:27:19.023Z</time>
      </trkpt>
      <trkpt lat="48.74285" lon="2.01904">
        <ele>114.8</ele>
        <time>2024-12-31T14:27:23.725Z</time>
      </trkpt>
      <trkpt lat="48.7429" lon="2.01902">
        <ele>115.4</ele>
        <time>2024-12-31T14:27:28.427Z</time>
      </trkpt>
      <trkpt lat="48.74296" lon="2.01901">
        <ele>116</ele>
        <time>2024-12-31T14:27:33.129Z</time>
      </trkpt>
      <trkpt lat="48.74301" lon="2.01899">
        <ele>116.4</ele>
        <time>2024-12-31T14:27:37.831Z</time>
      </trkpt>
      <trkpt lat="48.74306" lon="2.01897">
        <ele>116.9</ele>
        <time>2024-12-31T14:27:42.533Z</time>
      </trkpt>
      <trkpt lat="48.74314" lon="2.01892">
        <ele>117.7</ele>
        <time>2024-12-31T14:27:50.143Z</time>
      </trkpt>
      <trkpt lat="48.74322" lon="2.01887">
        <ele>118.6</ele>
        <time>2024-12-31T14:27:57.753Z</time>
      </trkpt>
      <trkpt lat="48.74329" lon="2.01881">
        <ele>119.4</ele>
        <time>2024-12-31T14:28:05.364Z</time>
      </trkpt>
      <trkpt lat="48.74337" lon="2.01876">
        <ele>120.3</ele>
        <time>2024-12-31T14:28:12.975Z</time>
      </trkpt>
      <trkpt lat="48.74344" lon="2.01868">
        <ele>120.7</ele>
        <time>2024-12-31T14:28:19.703Z</time>
      </trkpt>
      <trkpt lat="48.74352" lon="2.0186">
        <ele>121.1</ele>
        <time>2024-12-31T14:28:26.431Z</time>
      </trkpt>
      <trkpt lat="48.74359" lon="2.01852">
        <ele>121.7</ele>
        <time>2024-12-31T14:28:33.159Z</time>
      </trkpt>
      <trkpt lat="48.74366" lon="2.01844">
        <ele>122</ele>
        <time>2024-12-31T14:28:39.887Z</time>
      </trkpt>
      <trkpt lat="48.74371" lon="2.01842">
        <ele>122.8</ele>
        <time>2024-12-31T14:28:43.846Z</time>
      </trkpt>
      <trkpt lat="48.74376" lon="2.0184">
        <ele>123.5</ele>
        <time>2024-12-31T14:28:47.805Z</time>
      </trkpt>
      <trkpt lat="48.7438" lon="2.01838">
        <ele>124.1</ele>
        <time>2024-12-31T14:28:51.764Z</time>
      </trkpt>
      <trkpt lat="48.74385" lon="2.01836">
        <ele>124.8</ele>
        <time>2024-12-31T14:28:55.723Z</time>
      </trkpt>
      <trkpt lat="48.7439" lon="2.01834">
        <ele>125.3</ele>
        <time>2024-12-31T14:28:59.682Z</time>
      </trkpt>
      <trkpt lat="48.74395" lon="2.01832">
        <ele>125.7</ele>
        <time>2024-12-31T14:29:03.641Z</time>
      </trkpt>
      <trkpt lat="48.74399" lon="2.0183">
        <ele>126</ele>
        <time>2024-12-31T14:29:07.600Z</time>
      </trkpt>
      <trkpt lat="48.74404" lon="2.01829">
        <ele>126.4</ele>
        <time>2024-12-31T14:29:11.559Z</time>
      </trkpt>
      <trkpt lat="48.74409" lon="2.01827">
        <ele>126.7</ele>
        <time>2024-12-31T14:29:15.518Z</time>
      </trkpt>
      <trkpt lat="48.74414" lon="2.01825">
        <ele>127</ele>
        <time>2024-12-31T14:29:19.477Z</time>
      </trkpt>
      <trkpt lat="48.74418" lon="2.01823">
        <ele>127.2</ele>
        <time>2024-12-31T14:29:23.437Z</time>
      </trkpt>
      <trkpt lat="48.74423" lon="2.01821">
        <ele>127.3</ele>
        <time>2024-12-31T14:29:27.397Z</time>
      </trkpt>
      <trkpt lat="48.74428" lon="2.01819">
        <ele>127.4</ele>
        <time>2024-12-31T14:29:31.357Z</time>
      </trkpt>
      <trkpt lat="48.74433" lon="2.01817">
        <ele>127.4</ele>
        <time>2024-12-31T14:29:35.317Z</time>
      </trkpt>
      <trkpt lat="48.74437" lon="2.01815">
        <ele>127.4</ele>
        <time>2024-12-31T14:29:39.277Z</time>
      </trkpt>
      <trkpt lat="48.74442" lon="2.01813">
        <ele>127.4</ele>
        <time>2024-12-31T14:29:43.237Z</time>
      </trkpt>
      <trkpt lat="48.7445" lon="2.01809">
        <ele>127</ele>
        <time>2024-12-31T14:29:48.192Z</time>
      </trkpt>
      <trkpt lat="48.74458" lon="2.01804">
        <ele>126.8</ele>
        <time>2024-12-31T14:29:53.147Z</time>
      </trkpt>
      <trkpt lat="48.74462" lon="2.01801">
        <ele>126.7</ele>
        <time>2024-12-31T14:29:55.839Z</time>
        <extensions>
          <visugpx:TrkExtension xmlns:visugpx="https://www.visugpx.com/editgpx/">
            <visugpx:node>23</visugpx:node>
            </visugpx:TrkExtension>
        </extensions>
      </trkpt>
      <trkpt lat="48.74458" lon="2.01804">
        <ele>126.8</ele>
        <time>2024-12-31T14:29:58.929Z</time>
      </trkpt>
      <trkpt lat="48.74463" lon="2.01809">
        <ele>127.9</ele>
        <time>2024-12-31T14:30:05.558Z</time>
      </trkpt>
      <trkpt lat="48.74468" lon="2.01815">
        <ele>129.1</ele>
        <time>2024-12-31T14:30:12.188Z</time>
      </trkpt>
      <trkpt lat="48.74473" lon="2.0182">
        <ele>130.1</ele>
        <time>2024-12-31T14:30:18.818Z</time>
      </trkpt>
      <trkpt lat="48.74478" lon="2.01825">
        <ele>131</ele>
        <time>2024-12-31T14:30:25.448Z</time>
      </trkpt>
      <trkpt lat="48.74482" lon="2.0183">
        <ele>131.9</ele>
        <time>2024-12-31T14:30:32.078Z</time>
      </trkpt>
      <trkpt lat="48.74487" lon="2.01836">
        <ele>132.9</ele>
        <time>2024-12-31T14:30:38.708Z</time>
      </trkpt>
      <trkpt lat="48.74492" lon="2.01841">
        <ele>133.8</ele>
        <time>2024-12-31T14:30:45.338Z</time>
      </trkpt>
      <trkpt lat="48.74497" lon="2.01846">
        <ele>134.4</ele>
        <time>2024-12-31T14:30:51.968Z</time>
      </trkpt>
      <trkpt lat="48.74502" lon="2.01852">
        <ele>135.1</ele>
        <time>2024-12-31T14:30:58.353Z</time>
      </trkpt>
      <trkpt lat="48.74508" lon="2.01859">
        <ele>136</ele>
        <time>2024-12-31T14:31:04.739Z</time>
      </trkpt>
      <trkpt lat="48.74513" lon="2.01865">
        <ele>137.1</ele>
        <time>2024-12-31T14:31:11.125Z</time>
      </trkpt>
      <trkpt lat="48.74519" lon="2.01871">
        <ele>138.2</ele>
        <time>2024-12-31T14:31:17.511Z</time>
      </trkpt>
      <trkpt lat="48.74524" lon="2.01877">
        <ele>139.3</ele>
        <time>2024-12-31T14:31:23.897Z</time>
      </trkpt>
      <trkpt lat="48.74529" lon="2.01884">
        <ele>140.1</ele>
        <time>2024-12-31T14:31:30.283Z</time>
      </trkpt>
      <trkpt lat="48.74535" lon="2.0189">
        <ele>140.6</ele>
        <time>2024-12-31T14:31:36.669Z</time>
      </trkpt>
      <trkpt lat="48.7454" lon="2.01896">
        <ele>140.6</ele>
        <time>2024-12-31T14:31:43.055Z</time>
      </trkpt>
      <trkpt lat="48.74544" lon="2.01905">
        <ele>141</ele>
        <time>2024-12-31T14:31:48.218Z</time>
      </trkpt>
      <trkpt lat="48.74548" lon="2.01913">
        <ele>141.3</ele>
        <time>2024-12-31T14:31:53.381Z</time>
      </trkpt>
      <trkpt lat="48.74552" lon="2.01922">
        <ele>141.6</ele>
        <time>2024-12-31T14:31:58.545Z</time>
      </trkpt>
      <trkpt lat="48.74556" lon="2.0193">
        <ele>141.9</ele>
        <time>2024-12-31T14:32:03.709Z</time>
      </trkpt>
      <trkpt lat="48.74558" lon="2.01943">
        <ele>142.7</ele>
        <time>2024-12-31T14:32:12.013Z</time>
      </trkpt>
      <trkpt lat="48.74561" lon="2.01956">
        <ele>143.8</ele>
        <time>2024-12-31T14:32:20.317Z</time>
      </trkpt>
      <trkpt lat="48.74563" lon="2.01968">
        <ele>144.8</ele>
        <time>2024-12-31T14:32:28.621Z</time>
      </trkpt>
      <trkpt lat="48.74565" lon="2.01981">
        <ele>146</ele>
        <time>2024-12-31T14:32:36.925Z</time>
      </trkpt>
      <trkpt lat="48.74568" lon="2.01992">
        <ele>147.2</ele>
        <time>2024-12-31T14:32:45.777Z</time>
      </trkpt>
      <trkpt lat="48.7457" lon="2.02003">
        <ele>148.4</ele>
        <time>2024-12-31T14:32:54.629Z</time>
      </trkpt>
      <trkpt lat="48.74573" lon="2.02014">
        <ele>149.8</ele>
        <time>2024-12-31T14:33:03.481Z</time>
      </trkpt>
      <trkpt lat="48.74575" lon="2.02025">
        <ele>151.2</ele>
        <time>2024-12-31T14:33:12.334Z</time>
      </trkpt>
      <trkpt lat="48.74578" lon="2.02036">
        <ele>152.6</ele>
        <time>2024-12-31T14:33:21.581Z</time>
      </trkpt>
      <trkpt lat="48.74582" lon="2.02048">
        <ele>154</ele>
        <time>2024-12-31T14:33:30.829Z</time>
      </trkpt>
      <trkpt lat="48.74585" lon="2.02059">
        <ele>155.4</ele>
        <time>2024-12-31T14:33:40.077Z</time>
      </trkpt>
      <trkpt lat="48.74588" lon="2.0207">
        <ele>156.6</ele>
        <time>2024-12-31T14:33:49.325Z</time>
      </trkpt>
      <trkpt lat="48.74592" lon="2.02081">
        <ele>157.8</ele>
        <time>2024-12-31T14:33:56.190Z</time>
      </trkpt>
      <trkpt lat="48.74596" lon="2.02092">
        <ele>158.5</ele>
        <time>2024-12-31T14:34:03.056Z</time>
      </trkpt>
      <trkpt lat="48.746" lon="2.02103">
        <ele>159</ele>
        <time>2024-12-31T14:34:09.922Z</time>
      </trkpt>
      <trkpt lat="48.74604" lon="2.02115">
        <ele>159.5</ele>
        <time>2024-12-31T14:34:16.788Z</time>
      </trkpt>
      <trkpt lat="48.74607" lon="2.02126">
        <ele>160.1</ele>
        <time>2024-12-31T14:34:23.654Z</time>
      </trkpt>
      <trkpt lat="48.74611" lon="2.02137">
        <ele>160.8</ele>
        <time>2024-12-31T14:34:30.520Z</time>
      </trkpt>
      <trkpt lat="48.74615" lon="2.02148">
        <ele>161.3</ele>
        <time>2024-12-31T14:34:37.386Z</time>
      </trkpt>
      <trkpt lat="48.74619" lon="2.02159">
        <ele>161.7</ele>
        <time>2024-12-31T14:34:44.252Z</time>
      </trkpt>
      <trkpt lat="48.74619" lon="2.02168">
        <ele>162</ele>
        <time>2024-12-31T14:34:48.556Z</time>
      </trkpt>
      <trkpt lat="48.74618" lon="2.02176">
        <ele>162.3</ele>
        <time>2024-12-31T14:34:52.862Z</time>
      </trkpt>
      <trkpt lat="48.74621" lon="2.02185">
        <ele>162.7</ele>
        <time>2024-12-31T14:34:57.396Z</time>
      </trkpt>
      <trkpt lat="48.74623" lon="2.02194">
        <ele>163</ele>
        <time>2024-12-31T14:35:01.930Z</time>
      </trkpt>
      <trkpt lat="48.74626" lon="2.02203">
        <ele>163.1</ele>
        <time>2024-12-31T14:35:06.465Z</time>
      </trkpt>
      <trkpt lat="48.74628" lon="2.02212">
        <ele>163.2</ele>
        <time>2024-12-31T14:35:11.000Z</time>
      </trkpt>
      <trkpt lat="48.74631" lon="2.0222">
        <ele>163.3</ele>
        <time>2024-12-31T14:35:15.535Z</time>
      </trkpt>
      <trkpt lat="48.74633" lon="2.02229">
        <ele>163.4</ele>
        <time>2024-12-31T14:35:20.070Z</time>
      </trkpt>
      <trkpt lat="48.74636" lon="2.02238">
        <ele>163.6</ele>
        <time>2024-12-31T14:35:24.605Z</time>
      </trkpt>
      <trkpt lat="48.74638" lon="2.02247">
        <ele>163.9</ele>
        <time>2024-12-31T14:35:29.140Z</time>
      </trkpt>
      <trkpt lat="48.7464" lon="2.02255">
        <ele>164</ele>
        <time>2024-12-31T14:35:32.832Z</time>
      </trkpt>
      <trkpt lat="48.74642" lon="2.02263">
        <ele>163.9</ele>
        <time>2024-12-31T14:35:36.524Z</time>
      </trkpt>
      <trkpt lat="48.74644" lon="2.02271">
        <ele>164</ele>
        <time>2024-12-31T14:35:40.217Z</time>
      </trkpt>
      <trkpt lat="48.74646" lon="2.02279">
        <ele>164</ele>
        <time>2024-12-31T14:35:43.910Z</time>
      </trkpt>
      <trkpt lat="48.74649" lon="2.02287">
        <ele>164.2</ele>
        <time>2024-12-31T14:35:47.770Z</time>
      </trkpt>
      <trkpt lat="48.74652" lon="2.02294">
        <ele>164.3</ele>
        <time>2024-12-31T14:35:51.630Z</time>
      </trkpt>
      <trkpt lat="48.74654" lon="2.02302">
        <ele>164.4</ele>
        <time>2024-12-31T14:35:55.490Z</time>
      </trkpt>
      <trkpt lat="48.74657" lon="2.02309">
        <ele>164.4</ele>
        <time>2024-12-31T14:35:59.350Z</time>
      </trkpt>
      <trkpt lat="48.74661" lon="2.02318">
        <ele>164.6</ele>
        <time>2024-12-31T14:36:04.371Z</time>
      </trkpt>
      <trkpt lat="48.74665" lon="2.02328">
        <ele>164.8</ele>
        <time>2024-12-31T14:36:09.392Z</time>
      </trkpt>
      <trkpt lat="48.74669" lon="2.02337">
        <ele>165</ele>
        <time>2024-12-31T14:36:14.413Z</time>
      </trkpt>
      <trkpt lat="48.74673" lon="2.02346">
        <ele>165</ele>
        <time>2024-12-31T14:36:19.435Z</time>
      </trkpt>
      <trkpt lat="48.74678" lon="2.02355">
        <ele>165</ele>
        <time>2024-12-31T14:36:24.420Z</time>
      </trkpt>
      <trkpt lat="48.74683" lon="2.02365">
        <ele>165</ele>
        <time>2024-12-31T14:36:29.405Z</time>
      </trkpt>
      <trkpt lat="48.74688" lon="2.02374">
        <ele>165</ele>
        <time>2024-12-31T14:36:34.391Z</time>
      </trkpt>
      <trkpt lat="48.74693" lon="2.02384">
        <ele>165</ele>
        <time>2024-12-31T14:36:39.377Z</time>
      </trkpt>
      <trkpt lat="48.74698" lon="2.02393">
        <ele>165</ele>
        <time>2024-12-31T14:36:44.363Z</time>
      </trkpt>
      <trkpt lat="48.74703" lon="2.02402">
        <ele>165</ele>
        <time>2024-12-31T14:36:49.349Z</time>
      </trkpt>
      <trkpt lat="48.74708" lon="2.02412">
        <ele>165</ele>
        <time>2024-12-31T14:36:54.335Z</time>
      </trkpt>
      <trkpt lat="48.74713" lon="2.02421">
        <ele>165</ele>
        <time>2024-12-31T14:36:59.321Z</time>
      </trkpt>
      <trkpt lat="48.74717" lon="2.0243">
        <ele>165</ele>
        <time>2024-12-31T14:37:04.307Z</time>
      </trkpt>
      <trkpt lat="48.74722" lon="2.0244">
        <ele>165</ele>
        <time>2024-12-31T14:37:09.293Z</time>
      </trkpt>
      <trkpt lat="48.74727" lon="2.02449">
        <ele>164.7</ele>
        <time>2024-12-31T14:37:14.279Z</time>
      </trkpt>
      <trkpt lat="48.74732" lon="2.02459">
        <ele>164.3</ele>
        <time>2024-12-31T14:37:19.265Z</time>
      </trkpt>
      <trkpt lat="48.74737" lon="2.02468">
        <ele>164.1</ele>
        <time>2024-12-31T14:37:24.251Z</time>
      </trkpt>
      <trkpt lat="48.74742" lon="2.02477">
        <ele>164</ele>
        <time>2024-12-31T14:37:29.237Z</time>
      </trkpt>
      <trkpt lat="48.74747" lon="2.02487">
        <ele>164</ele>
        <time>2024-12-31T14:37:34.223Z</time>
      </trkpt>
      <trkpt lat="48.74752" lon="2.02496">
        <ele>164</ele>
        <time>2024-12-31T14:37:39.209Z</time>
      </trkpt>
      <trkpt lat="48.74758" lon="2.02502">
        <ele>164</ele>
        <time>2024-12-31T14:37:43.583Z</time>
      </trkpt>
      <trkpt lat="48.74763" lon="2.02508">
        <ele>164</ele>
        <time>2024-12-31T14:37:47.957Z</time>
      </trkpt>
      <trkpt lat="48.74771" lon="2.02508">
        <ele>164</ele>
        <time>2024-12-31T14:37:53.122Z</time>
      </trkpt>
      <trkpt lat="48.74777" lon="2.02515">
        <ele>164</ele>
        <time>2024-12-31T14:37:58.010Z</time>
      </trkpt>
      <trkpt lat="48.74783" lon="2.02515">
        <ele>163.9</ele>
        <time>2024-12-31T14:38:01.692Z</time>
      </trkpt>
      <trkpt lat="48.74789" lon="2.02515">
        <ele>163.8</ele>
        <time>2024-12-31T14:38:05.374Z</time>
      </trkpt>
      <trkpt lat="48.74795" lon="2.02513">
        <ele>163.7</ele>
        <time>2024-12-31T14:38:08.983Z</time>
      </trkpt>
      <trkpt lat="48.748" lon="2.0251">
        <ele>163.7</ele>
        <time>2024-12-31T14:38:12.593Z</time>
      </trkpt>
      <trkpt lat="48.748" lon="2.0251">
        <ele>163.7</ele>
        <time>2024-12-31T14:38:12.593Z</time>
        <extensions>
          <visugpx:TrkExtension xmlns:visugpx="https://www.visugpx.com/editgpx/">
            <visugpx:node>22</visugpx:node>
            </visugpx:TrkExtension>
        </extensions>
      </trkpt>
      <trkpt lat="48.748" lon="2.0251">
        <ele>163.7</ele>
        <time>2024-12-31T14:38:12.593Z</time>
      </trkpt>
      <trkpt lat="48.74806" lon="2.02507">
        <ele>163.8</ele>
        <time>2024-12-31T14:38:16.877Z</time>
      </trkpt>
      <trkpt lat="48.74812" lon="2.02504">
        <ele>163.9</ele>
        <time>2024-12-31T14:38:21.162Z</time>
      </trkpt>
      <trkpt lat="48.74817" lon="2.02502">
        <ele>163.9</ele>
        <time>2024-12-31T14:38:24.048Z</time>
      </trkpt>
      <trkpt lat="48.74821" lon="2.02501">
        <ele>164</ele>
        <time>2024-12-31T14:38:26.934Z</time>
      </trkpt>
      <trkpt lat="48.74825" lon="2.02499">
        <ele>164</ele>
        <time>2024-12-31T14:38:29.820Z</time>
      </trkpt>
      <trkpt lat="48.7483" lon="2.02497">
        <ele>164</ele>
        <time>2024-12-31T14:38:32.706Z</time>
      </trkpt>
      <trkpt lat="48.74834" lon="2.02496">
        <ele>164</ele>
        <time>2024-12-31T14:38:35.592Z</time>
      </trkpt>
      <trkpt lat="48.74839" lon="2.02494">
        <ele>164</ele>
        <time>2024-12-31T14:38:38.478Z</time>
      </trkpt>
      <trkpt lat="48.74843" lon="2.02492">
        <ele>164</ele>
        <time>2024-12-31T14:38:41.364Z</time>
      </trkpt>
      <trkpt lat="48.74848" lon="2.02491">
        <ele>164</ele>
        <time>2024-12-31T14:38:44.250Z</time>
      </trkpt>
      <trkpt lat="48.74852" lon="2.02489">
        <ele>164</ele>
        <time>2024-12-31T14:38:47.136Z</time>
      </trkpt>
      <trkpt lat="48.74857" lon="2.02487">
        <ele>164</ele>
        <time>2024-12-31T14:38:50.022Z</time>
      </trkpt>
      <trkpt lat="48.74861" lon="2.02486">
        <ele>164</ele>
        <time>2024-12-31T14:38:52.908Z</time>
      </trkpt>
      <trkpt lat="48.74866" lon="2.02484">
        <ele>164</ele>
        <time>2024-12-31T14:38:55.794Z</time>
      </trkpt>
      <trkpt lat="48.7487" lon="2.02483">
        <ele>164</ele>
        <time>2024-12-31T14:38:58.680Z</time>
      </trkpt>
      <trkpt lat="48.74875" lon="2.02481">
        <ele>164</ele>
        <time>2024-12-31T14:39:01.566Z</time>
      </trkpt>
      <trkpt lat="48.74879" lon="2.02479">
        <ele>164</ele>
        <time>2024-12-31T14:39:04.452Z</time>
      </trkpt>
      <trkpt lat="48.74884" lon="2.02478">
        <ele>164</ele>
        <time>2024-12-31T14:39:07.338Z</time>
      </trkpt>
      <trkpt lat="48.74888" lon="2.02476">
        <ele>164</ele>
        <time>2024-12-31T14:39:10.224Z</time>
      </trkpt>
      <trkpt lat="48.74893" lon="2.02474">
        <ele>164</ele>
        <time>2024-12-31T14:39:13.110Z</time>
      </trkpt>
      <trkpt lat="48.74897" lon="2.02473">
        <ele>164</ele>
        <time>2024-12-31T14:39:15.996Z</time>
      </trkpt>
      <trkpt lat="48.74902" lon="2.02471">
        <ele>164</ele>
        <time>2024-12-31T14:39:18.882Z</time>
      </trkpt>
      <trkpt lat="48.74906" lon="2.02469">
        <ele>164</ele>
        <time>2024-12-31T14:39:21.768Z</time>
      </trkpt>
      <trkpt lat="48.74911" lon="2.02468">
        <ele>164</ele>
        <time>2024-12-31T14:39:24.654Z</time>
      </trkpt>
      <trkpt lat="48.74915" lon="2.02466">
        <ele>164</ele>
        <time>2024-12-31T14:39:27.541Z</time>
      </trkpt>
      <trkpt lat="48.74919" lon="2.02464">
        <ele>163.9</ele>
        <time>2024-12-31T14:39:30.428Z</time>
      </trkpt>
      <trkpt lat="48.74924" lon="2.02463">
        <ele>163.7</ele>
        <time>2024-12-31T14:39:33.315Z</time>
      </trkpt>
      <trkpt lat="48.74928" lon="2.02461">
        <ele>163.6</ele>
        <time>2024-12-31T14:39:36.202Z</time>
      </trkpt>
      <trkpt lat="48.74933" lon="2.02459">
        <ele>163.4</ele>
        <time>2024-12-31T14:39:39.089Z</time>
      </trkpt>
      <trkpt lat="48.74937" lon="2.02458">
        <ele>163.3</ele>
        <time>2024-12-31T14:39:41.976Z</time>
      </trkpt>
      <trkpt lat="48.74942" lon="2.02456">
        <ele>163.1</ele>
        <time>2024-12-31T14:39:44.863Z</time>
      </trkpt>
      <trkpt lat="48.74946" lon="2.02454">
        <ele>163</ele>
        <time>2024-12-31T14:39:47.750Z</time>
      </trkpt>
      <trkpt lat="48.74951" lon="2.02453">
        <ele>163</ele>
        <time>2024-12-31T14:39:50.637Z</time>
      </trkpt>
      <trkpt lat="48.74955" lon="2.02451">
        <ele>163</ele>
        <time>2024-12-31T14:39:53.524Z</time>
      </trkpt>
      <trkpt lat="48.7496" lon="2.02449">
        <ele>163</ele>
        <time>2024-12-31T14:39:56.411Z</time>
      </trkpt>
      <trkpt lat="48.74964" lon="2.02448">
        <ele>163</ele>
        <time>2024-12-31T14:39:59.298Z</time>
      </trkpt>
      <trkpt lat="48.74969" lon="2.02446">
        <ele>163</ele>
        <time>2024-12-31T14:40:02.185Z</time>
      </trkpt>
      <trkpt lat="48.74973" lon="2.02444">
        <ele>163</ele>
        <time>2024-12-31T14:40:05.072Z</time>
      </trkpt>
      <trkpt lat="48.74978" lon="2.02443">
        <ele>163</ele>
        <time>2024-12-31T14:40:07.959Z</time>
      </trkpt>
      <trkpt lat="48.74982" lon="2.02441">
        <ele>163</ele>
        <time>2024-12-31T14:40:10.846Z</time>
      </trkpt>
      <trkpt lat="48.74987" lon="2.02439">
        <ele>163</ele>
        <time>2024-12-31T14:40:13.733Z</time>
      </trkpt>
      <trkpt lat="48.74991" lon="2.02438">
        <ele>163</ele>
        <time>2024-12-31T14:40:16.620Z</time>
      </trkpt>
      <trkpt lat="48.74996" lon="2.02436">
        <ele>163</ele>
        <time>2024-12-31T14:40:19.507Z</time>
      </trkpt>
      <trkpt lat="48.75" lon="2.02434">
        <ele>163</ele>
        <time>2024-12-31T14:40:22.394Z</time>
      </trkpt>
      <trkpt lat="48.75005" lon="2.02433">
        <ele>163</ele>
        <time>2024-12-31T14:40:25.281Z</time>
      </trkpt>
      <trkpt lat="48.75009" lon="2.02431">
        <ele>163</ele>
        <time>2024-12-31T14:40:28.168Z</time>
      </trkpt>
      <trkpt lat="48.75013" lon="2.0243">
        <ele>163</ele>
        <time>2024-12-31T14:40:31.055Z</time>
      </trkpt>
      <trkpt lat="48.75018" lon="2.02428">
        <ele>163</ele>
        <time>2024-12-31T14:40:33.942Z</time>
      </trkpt>
      <trkpt lat="48.75022" lon="2.02426">
        <ele>163</ele>
        <time>2024-12-31T14:40:36.829Z</time>
      </trkpt>
      <trkpt lat="48.75027" lon="2.02425">
        <ele>163</ele>
        <time>2024-12-31T14:40:39.716Z</time>
      </trkpt>
      <trkpt lat="48.75031" lon="2.02423">
        <ele>163</ele>
        <time>2024-12-31T14:40:42.603Z</time>
      </trkpt>
      <trkpt lat="48.75036" lon="2.02421">
        <ele>163</ele>
        <time>2024-12-31T14:40:45.490Z</time>
      </trkpt>
      <trkpt lat="48.7504" lon="2.0242">
        <ele>163</ele>
        <time>2024-12-31T14:40:48.377Z</time>
      </trkpt>
      <trkpt lat="48.75045" lon="2.02418">
        <ele>163</ele>
        <time>2024-12-31T14:40:51.264Z</time>
      </trkpt>
      <trkpt lat="48.75049" lon="2.02416">
        <ele>163</ele>
        <time>2024-12-31T14:40:54.151Z</time>
      </trkpt>
      <trkpt lat="48.75054" lon="2.02415">
        <ele>163</ele>
        <time>2024-12-31T14:40:57.038Z</time>
      </trkpt>
      <trkpt lat="48.75058" lon="2.02413">
        <ele>162.9</ele>
        <time>2024-12-31T14:40:59.925Z</time>
      </trkpt>
      <trkpt lat="48.75063" lon="2.02411">
        <ele>162.7</ele>
        <time>2024-12-31T14:41:02.812Z</time>
      </trkpt>
      <trkpt lat="48.75067" lon="2.0241">
        <ele>162.6</ele>
        <time>2024-12-31T14:41:05.699Z</time>
      </trkpt>
      <trkpt lat="48.75072" lon="2.02408">
        <ele>162.4</ele>
        <time>2024-12-31T14:41:08.586Z</time>
      </trkpt>
      <trkpt lat="48.75076" lon="2.02406">
        <ele>162.3</ele>
        <time>2024-12-31T14:41:11.473Z</time>
      </trkpt>
      <trkpt lat="48.75081" lon="2.02405">
        <ele>162.1</ele>
        <time>2024-12-31T14:41:14.360Z</time>
      </trkpt>
      <trkpt lat="48.75085" lon="2.02403">
        <ele>162</ele>
        <time>2024-12-31T14:41:17.247Z</time>
      </trkpt>
      <trkpt lat="48.7509" lon="2.02401">
        <ele>162</ele>
        <time>2024-12-31T14:41:20.134Z</time>
      </trkpt>
      <trkpt lat="48.75094" lon="2.024">
        <ele>162</ele>
        <time>2024-12-31T14:41:23.021Z</time>
      </trkpt>
      <trkpt lat="48.75099" lon="2.02398">
        <ele>162</ele>
        <time>2024-12-31T14:41:25.908Z</time>
      </trkpt>
      <trkpt lat="48.75103" lon="2.02396">
        <ele>162</ele>
        <time>2024-12-31T14:41:28.795Z</time>
      </trkpt>
      <trkpt lat="48.75108" lon="2.02395">
        <ele>162</ele>
        <time>2024-12-31T14:41:31.682Z</time>
      </trkpt>
      <trkpt lat="48.75112" lon="2.02393">
        <ele>162</ele>
        <time>2024-12-31T14:41:34.569Z</time>
      </trkpt>
      <trkpt lat="48.75116" lon="2.02391">
        <ele>161.8</ele>
        <time>2024-12-31T14:41:37.456Z</time>
      </trkpt>
      <trkpt lat="48.75121" lon="2.0239">
        <ele>161.6</ele>
        <time>2024-12-31T14:41:40.343Z</time>
      </trkpt>
      <trkpt lat="48.75125" lon="2.02388">
        <ele>161.5</ele>
        <time>2024-12-31T14:41:43.230Z</time>
      </trkpt>
      <trkpt lat="48.7513" lon="2.02386">
        <ele>161.3</ele>
        <time>2024-12-31T14:41:46.117Z</time>
      </trkpt>
      <trkpt lat="48.75134" lon="2.02385">
        <ele>161.2</ele>
        <time>2024-12-31T14:41:49.004Z</time>
      </trkpt>
      <trkpt lat="48.75139" lon="2.02383">
        <ele>161</ele>
        <time>2024-12-31T14:41:51.891Z</time>
      </trkpt>
      <trkpt lat="48.75143" lon="2.02381">
        <ele>161</ele>
        <time>2024-12-31T14:41:54.778Z</time>
      </trkpt>
      <trkpt lat="48.75148" lon="2.0238">
        <ele>161</ele>
        <time>2024-12-31T14:41:57.665Z</time>
      </trkpt>
      <trkpt lat="48.75152" lon="2.02378">
        <ele>161</ele>
        <time>2024-12-31T14:42:00.552Z</time>
      </trkpt>
      <trkpt lat="48.75157" lon="2.02377">
        <ele>161</ele>
        <time>2024-12-31T14:42:03.439Z</time>
      </trkpt>
      <trkpt lat="48.75161" lon="2.02375">
        <ele>161</ele>
        <time>2024-12-31T14:42:06.326Z</time>
      </trkpt>
      <trkpt lat="48.75166" lon="2.02373">
        <ele>161</ele>
        <time>2024-12-31T14:42:09.213Z</time>
      </trkpt>
      <trkpt lat="48.7517" lon="2.02372">
        <ele>160.9</ele>
        <time>2024-12-31T14:42:12.100Z</time>
      </trkpt>
      <trkpt lat="48.75175" lon="2.0237">
        <ele>160.7</ele>
        <time>2024-12-31T14:42:14.987Z</time>
      </trkpt>
      <trkpt lat="48.75179" lon="2.02368">
        <ele>160.6</ele>
        <time>2024-12-31T14:42:17.874Z</time>
      </trkpt>
      <trkpt lat="48.75184" lon="2.02367">
        <ele>160.4</ele>
        <time>2024-12-31T14:42:20.761Z</time>
      </trkpt>
      <trkpt lat="48.75188" lon="2.02365">
        <ele>160.2</ele>
        <time>2024-12-31T14:42:23.648Z</time>
      </trkpt>
      <trkpt lat="48.75193" lon="2.02363">
        <ele>160.1</ele>
        <time>2024-12-31T14:42:26.535Z</time>
      </trkpt>
      <trkpt lat="48.75197" lon="2.02362">
        <ele>160</ele>
        <time>2024-12-31T14:42:29.422Z</time>
      </trkpt>
      <trkpt lat="48.75202" lon="2.0236">
        <ele>160</ele>
        <time>2024-12-31T14:42:32.309Z</time>
      </trkpt>
      <trkpt lat="48.75206" lon="2.02358">
        <ele>160</ele>
        <time>2024-12-31T14:42:35.196Z</time>
      </trkpt>
      <trkpt lat="48.7521" lon="2.02357">
        <ele>160</ele>
        <time>2024-12-31T14:42:38.083Z</time>
      </trkpt>
      <trkpt lat="48.75215" lon="2.02355">
        <ele>160</ele>
        <time>2024-12-31T14:42:40.970Z</time>
      </trkpt>
      <trkpt lat="48.75219" lon="2.02353">
        <ele>160</ele>
        <time>2024-12-31T14:42:43.857Z</time>
      </trkpt>
      <trkpt lat="48.75224" lon="2.02352">
        <ele>160</ele>
        <time>2024-12-31T14:42:46.744Z</time>
      </trkpt>
      <trkpt lat="48.75228" lon="2.0235">
        <ele>159.9</ele>
        <time>2024-12-31T14:42:49.631Z</time>
      </trkpt>
      <trkpt lat="48.75233" lon="2.02348">
        <ele>159.8</ele>
        <time>2024-12-31T14:42:52.518Z</time>
      </trkpt>
      <trkpt lat="48.75237" lon="2.02347">
        <ele>159.7</ele>
        <time>2024-12-31T14:42:55.405Z</time>
      </trkpt>
      <trkpt lat="48.75242" lon="2.02345">
        <ele>159.7</ele>
        <time>2024-12-31T14:42:58.292Z</time>
      </trkpt>
      <trkpt lat="48.75246" lon="2.02343">
        <ele>159.7</ele>
        <time>2024-12-31T14:43:01.179Z</time>
      </trkpt>
      <trkpt lat="48.75251" lon="2.02342">
        <ele>159.7</ele>
        <time>2024-12-31T14:43:04.066Z</time>
      </trkpt>
      <trkpt lat="48.75255" lon="2.0234">
        <ele>159.6</ele>
        <time>2024-12-31T14:43:06.953Z</time>
      </trkpt>
      <trkpt lat="48.7526" lon="2.02338">
        <ele>159.5</ele>
        <time>2024-12-31T14:43:09.840Z</time>
      </trkpt>
      <trkpt lat="48.75264" lon="2.02337">
        <ele>159.4</ele>
        <time>2024-12-31T14:43:12.727Z</time>
      </trkpt>
      <trkpt lat="48.75269" lon="2.02335">
        <ele>159.3</ele>
        <time>2024-12-31T14:43:15.614Z</time>
      </trkpt>
      <trkpt lat="48.75273" lon="2.02333">
        <ele>159.2</ele>
        <time>2024-12-31T14:43:18.501Z</time>
      </trkpt>
      <trkpt lat="48.75278" lon="2.02332">
        <ele>159</ele>
        <time>2024-12-31T14:43:21.388Z</time>
      </trkpt>
      <trkpt lat="48.75282" lon="2.0233">
        <ele>159</ele>
        <time>2024-12-31T14:43:24.275Z</time>
      </trkpt>
      <trkpt lat="48.75287" lon="2.02328">
        <ele>159</ele>
        <time>2024-12-31T14:43:27.162Z</time>
      </trkpt>
      <trkpt lat="48.75291" lon="2.02327">
        <ele>159</ele>
        <time>2024-12-31T14:43:30.049Z</time>
      </trkpt>
      <trkpt lat="48.75296" lon="2.02325">
        <ele>159</ele>
        <time>2024-12-31T14:43:32.936Z</time>
      </trkpt>
      <trkpt lat="48.753" lon="2.02324">
        <ele>159</ele>
        <time>2024-12-31T14:43:35.823Z</time>
      </trkpt>
      <trkpt lat="48.75304" lon="2.02322">
        <ele>159</ele>
        <time>2024-12-31T14:43:38.710Z</time>
      </trkpt>
      <trkpt lat="48.75309" lon="2.0232">
        <ele>159</ele>
        <time>2024-12-31T14:43:41.597Z</time>
      </trkpt>
      <trkpt lat="48.75313" lon="2.02319">
        <ele>159</ele>
        <time>2024-12-31T14:43:44.484Z</time>
      </trkpt>
      <trkpt lat="48.75318" lon="2.02317">
        <ele>159</ele>
        <time>2024-12-31T14:43:47.371Z</time>
      </trkpt>
      <trkpt lat="48.75322" lon="2.02315">
        <ele>159</ele>
        <time>2024-12-31T14:43:50.258Z</time>
      </trkpt>
      <trkpt lat="48.75327" lon="2.02314">
        <ele>159</ele>
        <time>2024-12-31T14:43:53.145Z</time>
      </trkpt>
      <trkpt lat="48.75331" lon="2.02312">
        <ele>159</ele>
        <time>2024-12-31T14:43:56.032Z</time>
      </trkpt>
      <trkpt lat="48.75336" lon="2.0231">
        <ele>159</ele>
        <time>2024-12-31T14:43:58.919Z</time>
      </trkpt>
      <trkpt lat="48.7534" lon="2.02309">
        <ele>159</ele>
        <time>2024-12-31T14:44:01.806Z</time>
      </trkpt>
      <trkpt lat="48.75345" lon="2.02307">
        <ele>159</ele>
        <time>2024-12-31T14:44:04.693Z</time>
      </trkpt>
      <trkpt lat="48.75349" lon="2.02305">
        <ele>159</ele>
        <time>2024-12-31T14:44:07.580Z</time>
      </trkpt>
      <trkpt lat="48.75354" lon="2.02304">
        <ele>159</ele>
        <time>2024-12-31T14:44:10.467Z</time>
      </trkpt>
      <trkpt lat="48.75358" lon="2.02302">
        <ele>159</ele>
        <time>2024-12-31T14:44:13.354Z</time>
      </trkpt>
      <trkpt lat="48.75363" lon="2.023">
        <ele>158.9</ele>
        <time>2024-12-31T14:44:16.241Z</time>
      </trkpt>
      <trkpt lat="48.75367" lon="2.02299">
        <ele>158.8</ele>
        <time>2024-12-31T14:44:19.128Z</time>
      </trkpt>
      <trkpt lat="48.75372" lon="2.02297">
        <ele>158.6</ele>
        <time>2024-12-31T14:44:22.015Z</time>
      </trkpt>
      <trkpt lat="48.75376" lon="2.02295">
        <ele>158.5</ele>
        <time>2024-12-31T14:44:24.902Z</time>
      </trkpt>
      <trkpt lat="48.75381" lon="2.02294">
        <ele>158.3</ele>
        <time>2024-12-31T14:44:27.789Z</time>
      </trkpt>
      <trkpt lat="48.75385" lon="2.02292">
        <ele>158.1</ele>
        <time>2024-12-31T14:44:30.676Z</time>
      </trkpt>
      <trkpt lat="48.75391" lon="2.0229">
        <ele>158</ele>
        <time>2024-12-31T14:44:34.412Z</time>
      </trkpt>
      <trkpt lat="48.75397" lon="2.02288">
        <ele>158</ele>
        <time>2024-12-31T14:44:38.148Z</time>
      </trkpt>
      <trkpt lat="48.75402" lon="2.02286">
        <ele>158</ele>
        <time>2024-12-31T14:44:41.884Z</time>
      </trkpt>
      <trkpt lat="48.75408" lon="2.02284">
        <ele>158</ele>
        <time>2024-12-31T14:44:45.620Z</time>
      </trkpt>
      <trkpt lat="48.75414" lon="2.02281">
        <ele>158</ele>
        <time>2024-12-31T14:44:49.356Z</time>
      </trkpt>
      <trkpt lat="48.7542" lon="2.02279">
        <ele>157.9</ele>
        <time>2024-12-31T14:44:53.092Z</time>
      </trkpt>
      <trkpt lat="48.75425" lon="2.02277">
        <ele>157.7</ele>
        <time>2024-12-31T14:44:56.828Z</time>
      </trkpt>
      <trkpt lat="48.75431" lon="2.02275">
        <ele>157.5</ele>
        <time>2024-12-31T14:45:00.564Z</time>
      </trkpt>
      <trkpt lat="48.75437" lon="2.02273">
        <ele>157.4</ele>
        <time>2024-12-31T14:45:04.300Z</time>
      </trkpt>
      <trkpt lat="48.75443" lon="2.02271">
        <ele>157.3</ele>
        <time>2024-12-31T14:45:08.036Z</time>
      </trkpt>
      <trkpt lat="48.75448" lon="2.02269">
        <ele>157.3</ele>
        <time>2024-12-31T14:45:11.772Z</time>
      </trkpt>
      <trkpt lat="48.75454" lon="2.02267">
        <ele>157.3</ele>
        <time>2024-12-31T14:45:15.508Z</time>
      </trkpt>
      <trkpt lat="48.7546" lon="2.02264">
        <ele>157.2</ele>
        <time>2024-12-31T14:45:19.244Z</time>
      </trkpt>
      <trkpt lat="48.75466" lon="2.02262">
        <ele>157.1</ele>
        <time>2024-12-31T14:45:22.980Z</time>
      </trkpt>
      <trkpt lat="48.75472" lon="2.0226">
        <ele>157</ele>
        <time>2024-12-31T14:45:26.716Z</time>
      </trkpt>
      <trkpt lat="48.75477" lon="2.02258">
        <ele>157</ele>
        <time>2024-12-31T14:45:30.452Z</time>
      </trkpt>
      <trkpt lat="48.75483" lon="2.02256">
        <ele>157</ele>
        <time>2024-12-31T14:45:34.188Z</time>
      </trkpt>
      <trkpt lat="48.75489" lon="2.02254">
        <ele>157</ele>
        <time>2024-12-31T14:45:37.924Z</time>
      </trkpt>
      <trkpt lat="48.75495" lon="2.02252">
        <ele>157</ele>
        <time>2024-12-31T14:45:41.660Z</time>
      </trkpt>
      <trkpt lat="48.755" lon="2.0225">
        <ele>157</ele>
        <time>2024-12-31T14:45:45.396Z</time>
      </trkpt>
      <trkpt lat="48.75506" lon="2.02247">
        <ele>157</ele>
        <time>2024-12-31T14:45:49.132Z</time>
      </trkpt>
      <trkpt lat="48.75512" lon="2.02245">
        <ele>157</ele>
        <time>2024-12-31T14:45:52.868Z</time>
      </trkpt>
      <trkpt lat="48.75518" lon="2.02243">
        <ele>157</ele>
        <time>2024-12-31T14:45:56.604Z</time>
      </trkpt>
      <trkpt lat="48.75523" lon="2.02241">
        <ele>157</ele>
        <time>2024-12-31T14:46:00.340Z</time>
      </trkpt>
      <trkpt lat="48.75529" lon="2.02239">
        <ele>157</ele>
        <time>2024-12-31T14:46:04.076Z</time>
      </trkpt>
      <trkpt lat="48.75535" lon="2.02237">
        <ele>156.7</ele>
        <time>2024-12-31T14:46:07.812Z</time>
      </trkpt>
      <trkpt lat="48.75541" lon="2.02235">
        <ele>156.5</ele>
        <time>2024-12-31T14:46:11.548Z</time>
      </trkpt>
      <trkpt lat="48.75546" lon="2.02233">
        <ele>156.3</ele>
        <time>2024-12-31T14:46:15.284Z</time>
      </trkpt>
      <trkpt lat="48.75552" lon="2.0223">
        <ele>156.1</ele>
        <time>2024-12-31T14:46:19.020Z</time>
      </trkpt>
      <trkpt lat="48.75558" lon="2.02228">
        <ele>156</ele>
        <time>2024-12-31T14:46:22.756Z</time>
      </trkpt>
      <trkpt lat="48.75564" lon="2.02226">
        <ele>156</ele>
        <time>2024-12-31T14:46:26.492Z</time>
      </trkpt>
      <trkpt lat="48.7557" lon="2.02224">
        <ele>156</ele>
        <time>2024-12-31T14:46:30.228Z</time>
      </trkpt>
      <trkpt lat="48.75575" lon="2.02222">
        <ele>156</ele>
        <time>2024-12-31T14:46:33.964Z</time>
      </trkpt>
      <trkpt lat="48.75581" lon="2.0222">
        <ele>156</ele>
        <time>2024-12-31T14:46:37.700Z</time>
      </trkpt>
      <trkpt lat="48.75587" lon="2.02218">
        <ele>155.9</ele>
        <time>2024-12-31T14:46:41.436Z</time>
      </trkpt>
      <trkpt lat="48.75593" lon="2.02216">
        <ele>155.7</ele>
        <time>2024-12-31T14:46:45.172Z</time>
      </trkpt>
      <trkpt lat="48.75598" lon="2.02213">
        <ele>155.5</ele>
        <time>2024-12-31T14:46:48.908Z</time>
      </trkpt>
      <trkpt lat="48.75604" lon="2.02211">
        <ele>155.3</ele>
        <time>2024-12-31T14:46:52.644Z</time>
      </trkpt>
      <trkpt lat="48.7561" lon="2.02209">
        <ele>155</ele>
        <time>2024-12-31T14:46:56.380Z</time>
      </trkpt>
      <trkpt lat="48.75616" lon="2.02207">
        <ele>154.9</ele>
        <time>2024-12-31T14:47:00.116Z</time>
      </trkpt>
      <trkpt lat="48.75621" lon="2.02205">
        <ele>154.9</ele>
        <time>2024-12-31T14:47:03.852Z</time>
      </trkpt>
      <trkpt lat="48.75627" lon="2.02203">
        <ele>154.8</ele>
        <time>2024-12-31T14:47:07.588Z</time>
      </trkpt>
      <trkpt lat="48.75633" lon="2.02201">
        <ele>154.8</ele>
        <time>2024-12-31T14:47:11.324Z</time>
      </trkpt>
      <trkpt lat="48.75639" lon="2.02199">
        <ele>154.9</ele>
        <time>2024-12-31T14:47:15.060Z</time>
      </trkpt>
      <trkpt lat="48.75645" lon="2.02196">
        <ele>154.7</ele>
        <time>2024-12-31T14:47:18.796Z</time>
      </trkpt>
      <trkpt lat="48.7565" lon="2.02194">
        <ele>154.6</ele>
        <time>2024-12-31T14:47:22.532Z</time>
      </trkpt>
      <trkpt lat="48.75656" lon="2.02192">
        <ele>154.4</ele>
        <time>2024-12-31T14:47:26.268Z</time>
      </trkpt>
      <trkpt lat="48.75662" lon="2.0219">
        <ele>154.3</ele>
        <time>2024-12-31T14:47:30.004Z</time>
      </trkpt>
      <trkpt lat="48.75668" lon="2.02188">
        <ele>154.2</ele>
        <time>2024-12-31T14:47:33.740Z</time>
      </trkpt>
      <trkpt lat="48.75673" lon="2.02186">
        <ele>154.3</ele>
        <time>2024-12-31T14:47:37.477Z</time>
      </trkpt>
      <trkpt lat="48.75679" lon="2.02184">
        <ele>154.4</ele>
        <time>2024-12-31T14:47:41.214Z</time>
      </trkpt>
      <trkpt lat="48.75685" lon="2.02182">
        <ele>154.5</ele>
        <time>2024-12-31T14:47:44.951Z</time>
      </trkpt>
      <trkpt lat="48.75691" lon="2.02179">
        <ele>154.5</ele>
        <time>2024-12-31T14:47:48.688Z</time>
      </trkpt>
      <trkpt lat="48.75696" lon="2.02177">
        <ele>154.6</ele>
        <time>2024-12-31T14:47:52.425Z</time>
      </trkpt>
      <trkpt lat="48.75702" lon="2.02175">
        <ele>154.8</ele>
        <time>2024-12-31T14:47:56.162Z</time>
      </trkpt>
      <trkpt lat="48.75708" lon="2.02173">
        <ele>154.9</ele>
        <time>2024-12-31T14:47:59.899Z</time>
      </trkpt>
      <trkpt lat="48.75714" lon="2.02171">
        <ele>155</ele>
        <time>2024-12-31T14:48:03.636Z</time>
      </trkpt>
      <trkpt lat="48.75719" lon="2.02169">
        <ele>155</ele>
        <time>2024-12-31T14:48:07.373Z</time>
      </trkpt>
      <trkpt lat="48.75725" lon="2.02167">
        <ele>155</ele>
        <time>2024-12-31T14:48:11.110Z</time>
      </trkpt>
      <trkpt lat="48.75731" lon="2.02165">
        <ele>155</ele>
        <time>2024-12-31T14:48:14.847Z</time>
      </trkpt>
      <trkpt lat="48.75737" lon="2.02162">
        <ele>155</ele>
        <time>2024-12-31T14:48:18.584Z</time>
      </trkpt>
      <trkpt lat="48.75743" lon="2.0216">
        <ele>155</ele>
        <time>2024-12-31T14:48:22.321Z</time>
      </trkpt>
      <trkpt lat="48.75748" lon="2.02158">
        <ele>155</ele>
        <time>2024-12-31T14:48:26.058Z</time>
      </trkpt>
      <trkpt lat="48.75754" lon="2.02156">
        <ele>155</ele>
        <time>2024-12-31T14:48:29.795Z</time>
      </trkpt>
      <trkpt lat="48.75755" lon="2.02164">
        <ele>155</ele>
        <time>2024-12-31T14:48:33.003Z</time>
      </trkpt>
      <trkpt lat="48.75755" lon="2.02171">
        <ele>155</ele>
        <time>2024-12-31T14:48:36.212Z</time>
      </trkpt>
      <trkpt lat="48.75751" lon="2.02178">
        <ele>155</ele>
        <time>2024-12-31T14:48:38.445Z</time>
      </trkpt>
      <trkpt lat="48.75747" lon="2.02184">
        <ele>155</ele>
        <time>2024-12-31T14:48:40.680Z</time>
        <extensions>
          <visugpx:TrkExtension xmlns:visugpx="https://www.visugpx.com/editgpx/">
            <visugpx:node>21</visugpx:node>
            </visugpx:TrkExtension>
        </extensions>
      </trkpt>
      <trkpt lat="48.75747" lon="2.02184">
        <ele>155</ele>
        <time>2024-12-31T14:48:40.680Z</time>
      </trkpt>
      <trkpt lat="48.75751" lon="2.02178">
        <ele>155</ele>
        <time>2024-12-31T14:48:42.914Z</time>
      </trkpt>
      <trkpt lat="48.75755" lon="2.02171">
        <ele>155</ele>
        <time>2024-12-31T14:48:45.148Z</time>
      </trkpt>
      <trkpt lat="48.75755" lon="2.02164">
        <ele>155</ele>
        <time>2024-12-31T14:48:47.041Z</time>
      </trkpt>
      <trkpt lat="48.75754" lon="2.02156">
        <ele>155</ele>
        <time>2024-12-31T14:48:48.935Z</time>
      </trkpt>
      <trkpt lat="48.75749" lon="2.02158">
        <ele>155</ele>
        <time>2024-12-31T14:48:51.090Z</time>
      </trkpt>
      <trkpt lat="48.75743" lon="2.0216">
        <ele>155</ele>
        <time>2024-12-31T14:48:53.245Z</time>
      </trkpt>
      <trkpt lat="48.75738" lon="2.02162">
        <ele>155</ele>
        <time>2024-12-31T14:48:55.400Z</time>
      </trkpt>
      <trkpt lat="48.75732" lon="2.02164">
        <ele>155</ele>
        <time>2024-12-31T14:48:57.555Z</time>
      </trkpt>
      <trkpt lat="48.75727" lon="2.02166">
        <ele>155</ele>
        <time>2024-12-31T14:48:59.710Z</time>
      </trkpt>
      <trkpt lat="48.75721" lon="2.02168">
        <ele>155</ele>
        <time>2024-12-31T14:49:01.865Z</time>
      </trkpt>
      <trkpt lat="48.75716" lon="2.0217">
        <ele>155</ele>
        <time>2024-12-31T14:49:04.020Z</time>
      </trkpt>
      <trkpt lat="48.7571" lon="2.02172">
        <ele>154.9</ele>
        <time>2024-12-31T14:49:06.175Z</time>
      </trkpt>
      <trkpt lat="48.75705" lon="2.02174">
        <ele>154.8</ele>
        <time>2024-12-31T14:49:08.330Z</time>
      </trkpt>
      <trkpt lat="48.75699" lon="2.02176">
        <ele>154.7</ele>
        <time>2024-12-31T14:49:10.485Z</time>
      </trkpt>
      <trkpt lat="48.75694" lon="2.02178">
        <ele>154.6</ele>
        <time>2024-12-31T14:49:12.641Z</time>
      </trkpt>
      <trkpt lat="48.75688" lon="2.0218">
        <ele>154.5</ele>
        <time>2024-12-31T14:49:14.797Z</time>
      </trkpt>
      <trkpt lat="48.75683" lon="2.02182">
        <ele>154.4</ele>
        <time>2024-12-31T14:49:16.953Z</time>
      </trkpt>
      <trkpt lat="48.75677" lon="2.02184">
        <ele>154.4</ele>
        <time>2024-12-31T14:49:19.109Z</time>
      </trkpt>
      <trkpt lat="48.75672" lon="2.02186">
        <ele>154.3</ele>
        <time>2024-12-31T14:49:21.265Z</time>
      </trkpt>
      <trkpt lat="48.75666" lon="2.02188">
        <ele>154.3</ele>
        <time>2024-12-31T14:49:23.422Z</time>
        <extensions>
          <visugpx:TrkExtension xmlns:visugpx="https://www.visugpx.com/editgpx/">
            <visugpx:node>20</visugpx:node>
            </visugpx:TrkExtension>
        </extensions>
      </trkpt>
      <trkpt lat="48.75666" lon="2.02188">
        <ele>154.3</ele>
        <time>2024-12-31T14:49:23.422Z</time>
      </trkpt>
      <trkpt lat="48.75672" lon="2.02186">
        <ele>154.3</ele>
        <time>2024-12-31T14:49:25.577Z</time>
      </trkpt>
      <trkpt lat="48.75677" lon="2.02184">
        <ele>154.4</ele>
        <time>2024-12-31T14:49:27.732Z</time>
      </trkpt>
      <trkpt lat="48.75683" lon="2.02182">
        <ele>154.4</ele>
        <time>2024-12-31T14:49:29.887Z</time>
      </trkpt>
      <trkpt lat="48.75688" lon="2.0218">
        <ele>154.5</ele>
        <time>2024-12-31T14:49:32.042Z</time>
      </trkpt>
      <trkpt lat="48.75694" lon="2.02178">
        <ele>154.6</ele>
        <time>2024-12-31T14:49:34.197Z</time>
      </trkpt>
      <trkpt lat="48.75699" lon="2.02176">
        <ele>154.7</ele>
        <time>2024-12-31T14:49:36.352Z</time>
      </trkpt>
      <trkpt lat="48.75705" lon="2.02174">
        <ele>154.8</ele>
        <time>2024-12-31T14:49:38.507Z</time>
      </trkpt>
      <trkpt lat="48.7571" lon="2.02172">
        <ele>154.9</ele>
        <time>2024-12-31T14:49:40.662Z</time>
      </trkpt>
      <trkpt lat="48.75716" lon="2.0217">
        <ele>155</ele>
        <time>2024-12-31T14:49:42.818Z</time>
      </trkpt>
      <trkpt lat="48.75721" lon="2.02168">
        <ele>155</ele>
        <time>2024-12-31T14:49:44.974Z</time>
      </trkpt>
      <trkpt lat="48.75727" lon="2.02166">
        <ele>155</ele>
        <time>2024-12-31T14:49:47.130Z</time>
      </trkpt>
      <trkpt lat="48.75732" lon="2.02164">
        <ele>155</ele>
        <time>2024-12-31T14:49:49.286Z</time>
      </trkpt>
      <trkpt lat="48.75738" lon="2.02162">
        <ele>155</ele>
        <time>2024-12-31T14:49:51.442Z</time>
      </trkpt>
      <trkpt lat="48.75743" lon="2.0216">
        <ele>155</ele>
        <time>2024-12-31T14:49:53.598Z</time>
      </trkpt>
      <trkpt lat="48.75749" lon="2.02158">
        <ele>155</ele>
        <time>2024-12-31T14:49:55.754Z</time>
      </trkpt>
      <trkpt lat="48.75754" lon="2.02156">
        <ele>155</ele>
        <time>2024-12-31T14:49:57.910Z</time>
      </trkpt>
      <trkpt lat="48.75755" lon="2.02164">
        <ele>155</ele>
        <time>2024-12-31T14:49:59.803Z</time>
      </trkpt>
      <trkpt lat="48.75755" lon="2.02171">
        <ele>155</ele>
        <time>2024-12-31T14:50:01.697Z</time>
      </trkpt>
      <trkpt lat="48.75751" lon="2.02178">
        <ele>155</ele>
        <time>2024-12-31T14:50:04.023Z</time>
      </trkpt>
      <trkpt lat="48.75747" lon="2.02185">
        <ele>155</ele>
        <time>2024-12-31T14:50:06.351Z</time>
      </trkpt>
      <trkpt lat="48.75749" lon="2.02191">
        <ele>155</ele>
        <time>2024-12-31T14:50:08.040Z</time>
      </trkpt>
      <trkpt lat="48.75752" lon="2.02199">
        <ele>155.2</ele>
        <time>2024-12-31T14:50:10.352Z</time>
      </trkpt>
      <trkpt lat="48.75755" lon="2.02208">
        <ele>155.6</ele>
        <time>2024-12-31T14:50:12.820Z</time>
      </trkpt>
      <trkpt lat="48.75759" lon="2.02216">
        <ele>155.8</ele>
        <time>2024-12-31T14:50:15.289Z</time>
      </trkpt>
      <trkpt lat="48.75762" lon="2.02225">
        <ele>156</ele>
        <time>2024-12-31T14:50:17.758Z</time>
      </trkpt>
      <trkpt lat="48.75765" lon="2.02233">
        <ele>156.2</ele>
        <time>2024-12-31T14:50:20.227Z</time>
      </trkpt>
      <trkpt lat="48.75768" lon="2.02243">
        <ele>156.5</ele>
        <time>2024-12-31T14:50:22.855Z</time>
      </trkpt>
      <trkpt lat="48.7577" lon="2.02253">
        <ele>156.8</ele>
        <time>2024-12-31T14:50:25.483Z</time>
      </trkpt>
      <trkpt lat="48.75773" lon="2.02262">
        <ele>157.2</ele>
        <time>2024-12-31T14:50:28.111Z</time>
      </trkpt>
      <trkpt lat="48.75775" lon="2.02272">
        <ele>157.7</ele>
        <time>2024-12-31T14:50:30.740Z</time>
        <extensions>
          <visugpx:TrkExtension xmlns:visugpx="https://www.visugpx.com/editgpx/">
            <visugpx:node>19</visugpx:node>
            </visugpx:TrkExtension>
        </extensions>
      </trkpt>
      <trkpt lat="48.75776" lon="2.02277">
        <ele>157.9</ele>
        <time>2024-12-31T14:50:32.052Z</time>
      </trkpt>
      <trkpt lat="48.75771" lon="2.02282">
        <ele>157.8</ele>
        <time>2024-12-31T14:50:34.300Z</time>
      </trkpt>
      <trkpt lat="48.75766" lon="2.02287">
        <ele>157.6</ele>
        <time>2024-12-31T14:50:36.548Z</time>
      </trkpt>
      <trkpt lat="48.75761" lon="2.02291">
        <ele>157.4</ele>
        <time>2024-12-31T14:50:38.796Z</time>
      </trkpt>
      <trkpt lat="48.75756" lon="2.02296">
        <ele>157.2</ele>
        <time>2024-12-31T14:50:41.046Z</time>
      </trkpt>
      <trkpt lat="48.75751" lon="2.02303">
        <ele>157</ele>
        <time>2024-12-31T14:50:43.608Z</time>
      </trkpt>
      <trkpt lat="48.75746" lon="2.0231">
        <ele>157</ele>
        <time>2024-12-31T14:50:46.171Z</time>
      </trkpt>
      <trkpt lat="48.75742" lon="2.02317">
        <ele>157.1</ele>
        <time>2024-12-31T14:50:48.734Z</time>
      </trkpt>
      <trkpt lat="48.75737" lon="2.02325">
        <ele>157.2</ele>
        <time>2024-12-31T14:50:51.297Z</time>
      </trkpt>
      <trkpt lat="48.75732" lon="2.02332">
        <ele>157.3</ele>
        <time>2024-12-31T14:50:53.860Z</time>
      </trkpt>
      <trkpt lat="48.75727" lon="2.02339">
        <ele>157.2</ele>
        <time>2024-12-31T14:50:56.423Z</time>
      </trkpt>
      <trkpt lat="48.75722" lon="2.02346">
        <ele>157</ele>
        <time>2024-12-31T14:50:58.986Z</time>
      </trkpt>
      <trkpt lat="48.75718" lon="2.02353">
        <ele>156.8</ele>
        <time>2024-12-31T14:51:01.549Z</time>
      </trkpt>
      <trkpt lat="48.75713" lon="2.0236">
        <ele>156.7</ele>
        <time>2024-12-31T14:51:04.112Z</time>
      </trkpt>
      <trkpt lat="48.75708" lon="2.02367">
        <ele>156.5</ele>
        <time>2024-12-31T14:51:06.675Z</time>
      </trkpt>
      <trkpt lat="48.75703" lon="2.02374">
        <ele>156.3</ele>
        <time>2024-12-31T14:51:09.238Z</time>
      </trkpt>
      <trkpt lat="48.75698" lon="2.02382">
        <ele>156.1</ele>
        <time>2024-12-31T14:51:11.801Z</time>
      </trkpt>
      <trkpt lat="48.75693" lon="2.02389">
        <ele>156</ele>
        <time>2024-12-31T14:51:14.364Z</time>
      </trkpt>
      <trkpt lat="48.75689" lon="2.02396">
        <ele>155.8</ele>
        <time>2024-12-31T14:51:16.927Z</time>
      </trkpt>
      <trkpt lat="48.75684" lon="2.02403">
        <ele>155.6</ele>
        <time>2024-12-31T14:51:19.490Z</time>
      </trkpt>
      <trkpt lat="48.75679" lon="2.0241">
        <ele>155.4</ele>
        <time>2024-12-31T14:51:22.054Z</time>
      </trkpt>
      <trkpt lat="48.75675" lon="2.02414">
        <ele>155.3</ele>
        <time>2024-12-31T14:51:23.927Z</time>
      </trkpt>
      <trkpt lat="48.75671" lon="2.02418">
        <ele>155.1</ele>
        <time>2024-12-31T14:51:25.800Z</time>
      </trkpt>
      <trkpt lat="48.75666" lon="2.02421">
        <ele>155</ele>
        <time>2024-12-31T14:51:27.674Z</time>
      </trkpt>
      <trkpt lat="48.75662" lon="2.02425">
        <ele>154.8</ele>
        <time>2024-12-31T14:51:29.548Z</time>
      </trkpt>
      <trkpt lat="48.75658" lon="2.02429">
        <ele>154.7</ele>
        <time>2024-12-31T14:51:31.422Z</time>
      </trkpt>
      <trkpt lat="48.75654" lon="2.02433">
        <ele>154.5</ele>
        <time>2024-12-31T14:51:33.296Z</time>
      </trkpt>
      <trkpt lat="48.75649" lon="2.02436">
        <ele>154.4</ele>
        <time>2024-12-31T14:51:35.170Z</time>
      </trkpt>
      <trkpt lat="48.75645" lon="2.0244">
        <ele>154.2</ele>
        <time>2024-12-31T14:51:37.045Z</time>
      </trkpt>
      <trkpt lat="48.75642" lon="2.02447">
        <ele>154.1</ele>
        <time>2024-12-31T14:51:39.153Z</time>
      </trkpt>
      <trkpt lat="48.75638" lon="2.02453">
        <ele>154</ele>
        <time>2024-12-31T14:51:41.261Z</time>
      </trkpt>
      <trkpt lat="48.75635" lon="2.0246">
        <ele>153.8</ele>
        <time>2024-12-31T14:51:43.369Z</time>
      </trkpt>
      <trkpt lat="48.75631" lon="2.02466">
        <ele>153.7</ele>
        <time>2024-12-31T14:51:45.478Z</time>
      </trkpt>
      <trkpt lat="48.75628" lon="2.02473">
        <ele>153.6</ele>
        <time>2024-12-31T14:51:47.587Z</time>
      </trkpt>
      <trkpt lat="48.75624" lon="2.02479">
        <ele>153.5</ele>
        <time>2024-12-31T14:51:49.696Z</time>
      </trkpt>
      <trkpt lat="48.75621" lon="2.02486">
        <ele>153.3</ele>
        <time>2024-12-31T14:51:51.805Z</time>
      </trkpt>
      <trkpt lat="48.75617" lon="2.02492">
        <ele>153.2</ele>
        <time>2024-12-31T14:51:53.915Z</time>
      </trkpt>
      <trkpt lat="48.75616" lon="2.02499">
        <ele>153.2</ele>
        <time>2024-12-31T14:51:55.750Z</time>
      </trkpt>
      <trkpt lat="48.75614" lon="2.02506">
        <ele>153.1</ele>
        <time>2024-12-31T14:51:57.585Z</time>
      </trkpt>
      <trkpt lat="48.75613" lon="2.02513">
        <ele>153.1</ele>
        <time>2024-12-31T14:51:59.420Z</time>
      </trkpt>
      <trkpt lat="48.75612" lon="2.0252">
        <ele>153</ele>
        <time>2024-12-31T14:52:01.255Z</time>
      </trkpt>
      <trkpt lat="48.7561" lon="2.02527">
        <ele>153</ele>
        <time>2024-12-31T14:52:03.090Z</time>
      </trkpt>
      <trkpt lat="48.75609" lon="2.02534">
        <ele>152.7</ele>
        <time>2024-12-31T14:52:04.925Z</time>
      </trkpt>
      <trkpt lat="48.75607" lon="2.02541">
        <ele>152.5</ele>
        <time>2024-12-31T14:52:06.760Z</time>
      </trkpt>
      <trkpt lat="48.75606" lon="2.02548">
        <ele>152.2</ele>
        <time>2024-12-31T14:52:08.597Z</time>
      </trkpt>
      <trkpt lat="48.75603" lon="2.02554">
        <ele>152</ele>
        <time>2024-12-31T14:52:10.489Z</time>
      </trkpt>
      <trkpt lat="48.756" lon="2.0256">
        <ele>151.9</ele>
        <time>2024-12-31T14:52:12.382Z</time>
      </trkpt>
      <trkpt lat="48.75599" lon="2.02559">
        <ele>151.9</ele>
        <time>2024-12-31T14:52:12.838Z</time>
        <extensions>
          <visugpx:TrkExtension xmlns:visugpx="https://www.visugpx.com/editgpx/">
            <visugpx:node>18</visugpx:node>
            </visugpx:TrkExtension>
        </extensions>
      </trkpt>
      <trkpt lat="48.75599" lon="2.0256">
        <ele>151.9</ele>
        <time>2024-12-31T14:52:13.090Z</time>
      </trkpt>
      <trkpt lat="48.75604" lon="2.02561">
        <ele>151.9</ele>
        <time>2024-12-31T14:52:16.698Z</time>
      </trkpt>
      <trkpt lat="48.75609" lon="2.02562">
        <ele>152</ele>
        <time>2024-12-31T14:52:20.306Z</time>
      </trkpt>
      <trkpt lat="48.75613" lon="2.02563">
        <ele>152.2</ele>
        <time>2024-12-31T14:52:23.914Z</time>
      </trkpt>
      <trkpt lat="48.75618" lon="2.02564">
        <ele>152.5</ele>
        <time>2024-12-31T14:52:27.522Z</time>
      </trkpt>
      <trkpt lat="48.75623" lon="2.02565">
        <ele>152.8</ele>
        <time>2024-12-31T14:52:31.130Z</time>
      </trkpt>
      <trkpt lat="48.75628" lon="2.02566">
        <ele>153.2</ele>
        <time>2024-12-31T14:52:34.738Z</time>
      </trkpt>
      <trkpt lat="48.75632" lon="2.02567">
        <ele>153.5</ele>
        <time>2024-12-31T14:52:38.346Z</time>
      </trkpt>
      <trkpt lat="48.75637" lon="2.02568">
        <ele>153.9</ele>
        <time>2024-12-31T14:52:41.954Z</time>
      </trkpt>
      <trkpt lat="48.75642" lon="2.02569">
        <ele>154.1</ele>
        <time>2024-12-31T14:52:45.562Z</time>
      </trkpt>
      <trkpt lat="48.75647" lon="2.0257">
        <ele>154.3</ele>
        <time>2024-12-31T14:52:49.170Z</time>
      </trkpt>
      <trkpt lat="48.75651" lon="2.02571">
        <ele>154.4</ele>
        <time>2024-12-31T14:52:52.778Z</time>
      </trkpt>
      <trkpt lat="48.75656" lon="2.02572">
        <ele>154.6</ele>
        <time>2024-12-31T14:52:56.386Z</time>
      </trkpt>
      <trkpt lat="48.75661" lon="2.02573">
        <ele>154.8</ele>
        <time>2024-12-31T14:52:59.994Z</time>
      </trkpt>
      <trkpt lat="48.75666" lon="2.02574">
        <ele>155</ele>
        <time>2024-12-31T14:53:03.602Z</time>
      </trkpt>
      <trkpt lat="48.7567" lon="2.02575">
        <ele>155.3</ele>
        <time>2024-12-31T14:53:07.210Z</time>
      </trkpt>
      <trkpt lat="48.75675" lon="2.02576">
        <ele>155.6</ele>
        <time>2024-12-31T14:53:10.818Z</time>
      </trkpt>
      <trkpt lat="48.7568" lon="2.02577">
        <ele>156</ele>
        <time>2024-12-31T14:53:14.508Z</time>
      </trkpt>
      <trkpt lat="48.75685" lon="2.02577">
        <ele>156.3</ele>
        <time>2024-12-31T14:53:18.198Z</time>
      </trkpt>
      <trkpt lat="48.7569" lon="2.02578">
        <ele>156.7</ele>
        <time>2024-12-31T14:53:21.889Z</time>
      </trkpt>
      <trkpt lat="48.75696" lon="2.02578">
        <ele>157</ele>
        <time>2024-12-31T14:53:25.580Z</time>
      </trkpt>
      <trkpt lat="48.75701" lon="2.02579">
        <ele>157</ele>
        <time>2024-12-31T14:53:29.271Z</time>
      </trkpt>
      <trkpt lat="48.75706" lon="2.02579">
        <ele>157</ele>
        <time>2024-12-31T14:53:32.962Z</time>
      </trkpt>
      <trkpt lat="48.75711" lon="2.0258">
        <ele>157</ele>
        <time>2024-12-31T14:53:36.653Z</time>
      </trkpt>
      <trkpt lat="48.75716" lon="2.0258">
        <ele>157</ele>
        <time>2024-12-31T14:53:40.344Z</time>
      </trkpt>
      <trkpt lat="48.75722" lon="2.0258">
        <ele>157</ele>
        <time>2024-12-31T14:53:43.481Z</time>
      </trkpt>
      <trkpt lat="48.75728" lon="2.02581">
        <ele>157</ele>
        <time>2024-12-31T14:53:46.618Z</time>
      </trkpt>
      <trkpt lat="48.75733" lon="2.02581">
        <ele>157</ele>
        <time>2024-12-31T14:53:49.755Z</time>
      </trkpt>
      <trkpt lat="48.75739" lon="2.02582">
        <ele>157</ele>
        <time>2024-12-31T14:53:52.892Z</time>
      </trkpt>
      <trkpt lat="48.75745" lon="2.02582">
        <ele>157</ele>
        <time>2024-12-31T14:53:56.029Z</time>
      </trkpt>
      <trkpt lat="48.75751" lon="2.02582">
        <ele>157</ele>
        <time>2024-12-31T14:53:59.166Z</time>
      </trkpt>
      <trkpt lat="48.75756" lon="2.02583">
        <ele>157.2</ele>
        <time>2024-12-31T14:54:02.303Z</time>
      </trkpt>
      <trkpt lat="48.75762" lon="2.02583">
        <ele>157.4</ele>
        <time>2024-12-31T14:54:05.440Z</time>
        <extensions>
          <visugpx:TrkExtension xmlns:visugpx="https://www.visugpx.com/editgpx/">
            <visugpx:node>17</visugpx:node>
            </visugpx:TrkExtension>
        </extensions>
      </trkpt>
      <trkpt lat="48.75762" lon="2.02583">
        <ele>157.4</ele>
        <time>2024-12-31T14:54:05.440Z</time>
      </trkpt>
      <trkpt lat="48.75762" lon="2.02583">
        <ele>157.4</ele>
        <time>2024-12-31T14:54:05.440Z</time>
      </trkpt>
      <trkpt lat="48.75761" lon="2.02593">
        <ele>157.4</ele>
        <time>2024-12-31T14:54:09.125Z</time>
      </trkpt>
      <trkpt lat="48.75759" lon="2.02603">
        <ele>157.3</ele>
        <time>2024-12-31T14:54:12.810Z</time>
      </trkpt>
      <trkpt lat="48.75758" lon="2.02613">
        <ele>157.3</ele>
        <time>2024-12-31T14:54:16.495Z</time>
      </trkpt>
      <trkpt lat="48.75756" lon="2.02623">
        <ele>157.6</ele>
        <time>2024-12-31T14:54:20.180Z</time>
      </trkpt>
      <trkpt lat="48.75755" lon="2.02633">
        <ele>157.8</ele>
        <time>2024-12-31T14:54:23.865Z</time>
      </trkpt>
      <trkpt lat="48.75753" lon="2.02643">
        <ele>158</ele>
        <time>2024-12-31T14:54:27.550Z</time>
      </trkpt>
      <trkpt lat="48.75752" lon="2.02653">
        <ele>158</ele>
        <time>2024-12-31T14:54:31.235Z</time>
      </trkpt>
      <trkpt lat="48.7575" lon="2.02663">
        <ele>158</ele>
        <time>2024-12-31T14:54:34.921Z</time>
      </trkpt>
      <trkpt lat="48.7575" lon="2.02664">
        <ele>158</ele>
        <time>2024-12-31T14:54:35.280Z</time>
        <extensions>
          <visugpx:TrkExtension xmlns:visugpx="https://www.visugpx.com/editgpx/">
            <visugpx:node>16</visugpx:node>
            </visugpx:TrkExtension>
        </extensions>
      </trkpt>
      <trkpt lat="48.7575" lon="2.02663">
        <ele>158</ele>
        <time>2024-12-31T14:54:35.639Z</time>
      </trkpt>
      <trkpt lat="48.75755" lon="2.02664">
        <ele>158</ele>
        <time>2024-12-31T14:54:38.619Z</time>
      </trkpt>
      <trkpt lat="48.75761" lon="2.02665">
        <ele>158</ele>
        <time>2024-12-31T14:54:41.599Z</time>
      </trkpt>
      <trkpt lat="48.75766" lon="2.02666">
        <ele>158</ele>
        <time>2024-12-31T14:54:44.579Z</time>
      </trkpt>
      <trkpt lat="48.75772" lon="2.02667">
        <ele>158</ele>
        <time>2024-12-31T14:54:47.559Z</time>
      </trkpt>
      <trkpt lat="48.75777" lon="2.02667">
        <ele>158</ele>
        <time>2024-12-31T14:54:50.539Z</time>
      </trkpt>
      <trkpt lat="48.75783" lon="2.02668">
        <ele>158.2</ele>
        <time>2024-12-31T14:54:53.519Z</time>
      </trkpt>
      <trkpt lat="48.75788" lon="2.02669">
        <ele>158.4</ele>
        <time>2024-12-31T14:54:56.499Z</time>
      </trkpt>
      <trkpt lat="48.75794" lon="2.0267">
        <ele>158.6</ele>
        <time>2024-12-31T14:54:59.479Z</time>
      </trkpt>
      <trkpt lat="48.75799" lon="2.02671">
        <ele>158.8</ele>
        <time>2024-12-31T14:55:02.460Z</time>
      </trkpt>
      <trkpt lat="48.75804" lon="2.02672">
        <ele>159</ele>
        <time>2024-12-31T14:55:05.441Z</time>
      </trkpt>
      <trkpt lat="48.7581" lon="2.02673">
        <ele>159</ele>
        <time>2024-12-31T14:55:08.422Z</time>
      </trkpt>
      <trkpt lat="48.75815" lon="2.02674">
        <ele>159</ele>
        <time>2024-12-31T14:55:11.403Z</time>
      </trkpt>
      <trkpt lat="48.75821" lon="2.02674">
        <ele>159</ele>
        <time>2024-12-31T14:55:14.384Z</time>
      </trkpt>
      <trkpt lat="48.75826" lon="2.02675">
        <ele>159</ele>
        <time>2024-12-31T14:55:17.365Z</time>
      </trkpt>
      <trkpt lat="48.75832" lon="2.02676">
        <ele>159</ele>
        <time>2024-12-31T14:55:20.346Z</time>
      </trkpt>
      <trkpt lat="48.75837" lon="2.02677">
        <ele>159</ele>
        <time>2024-12-31T14:55:23.327Z</time>
      </trkpt>
      <trkpt lat="48.75845" lon="2.02678">
        <ele>159</ele>
        <time>2024-12-31T14:55:27.910Z</time>
      </trkpt>
      <trkpt lat="48.75854" lon="2.02679">
        <ele>159</ele>
        <time>2024-12-31T14:55:32.493Z</time>
      </trkpt>
      <trkpt lat="48.75862" lon="2.0268">
        <ele>159</ele>
        <time>2024-12-31T14:55:37.076Z</time>
      </trkpt>
      <trkpt lat="48.75871" lon="2.02682">
        <ele>159.3</ele>
        <time>2024-12-31T14:55:41.659Z</time>
      </trkpt>
      <trkpt lat="48.75879" lon="2.02683">
        <ele>159.6</ele>
        <time>2024-12-31T14:55:46.242Z</time>
      </trkpt>
      <trkpt lat="48.75887" lon="2.02684">
        <ele>159.9</ele>
        <time>2024-12-31T14:55:50.825Z</time>
      </trkpt>
      <trkpt lat="48.75896" lon="2.02685">
        <ele>160.2</ele>
        <time>2024-12-31T14:55:55.408Z</time>
      </trkpt>
      <trkpt lat="48.75904" lon="2.02686">
        <ele>160.4</ele>
        <time>2024-12-31T14:55:59.991Z</time>
      </trkpt>
      <trkpt lat="48.75904" lon="2.02686">
        <ele>160.4</ele>
        <time>2024-12-31T14:55:59.991Z</time>
      </trkpt>
      <trkpt lat="48.75904" lon="2.02686">
        <ele>160.4</ele>
        <time>2024-12-31T14:55:59.991Z</time>
        <extensions>
          <visugpx:TrkExtension xmlns:visugpx="https://www.visugpx.com/editgpx/">
            <visugpx:node>15</visugpx:node>
            </visugpx:TrkExtension>
        </extensions>
      </trkpt>
      <trkpt lat="48.75904" lon="2.02686">
        <ele>160.4</ele>
        <time>2024-12-31T14:55:59.991Z</time>
      </trkpt>
      <trkpt lat="48.75912" lon="2.0269">
        <ele>160.7</ele>
        <time>2024-12-31T14:56:05.981Z</time>
      </trkpt>
      <trkpt lat="48.7592" lon="2.02694">
        <ele>161.1</ele>
        <time>2024-12-31T14:56:11.972Z</time>
      </trkpt>
      <trkpt lat="48.75927" lon="2.02698">
        <ele>161.4</ele>
        <time>2024-12-31T14:56:17.963Z</time>
      </trkpt>
      <trkpt lat="48.75935" lon="2.02702">
        <ele>161.7</ele>
        <time>2024-12-31T14:56:23.954Z</time>
      </trkpt>
      <trkpt lat="48.75941" lon="2.02706">
        <ele>161.9</ele>
        <time>2024-12-31T14:56:27.983Z</time>
      </trkpt>
      <trkpt lat="48.75946" lon="2.02709">
        <ele>162</ele>
        <time>2024-12-31T14:56:32.013Z</time>
        <extensions>
          <visugpx:TrkExtension xmlns:visugpx="https://www.visugpx.com/editgpx/">
            <visugpx:node>14</visugpx:node>
            </visugpx:TrkExtension>
        </extensions>
      </trkpt>
      <trkpt lat="48.75946" lon="2.0271">
        <ele>162</ele>
        <time>2024-12-31T14:56:32.459Z</time>
      </trkpt>
      <trkpt lat="48.75951" lon="2.02711">
        <ele>162.1</ele>
        <time>2024-12-31T14:56:35.625Z</time>
      </trkpt>
      <trkpt lat="48.75955" lon="2.02711">
        <ele>162.2</ele>
        <time>2024-12-31T14:56:38.791Z</time>
      </trkpt>
      <trkpt lat="48.7596" lon="2.02712">
        <ele>162.4</ele>
        <time>2024-12-31T14:56:41.957Z</time>
      </trkpt>
      <trkpt lat="48.75965" lon="2.02713">
        <ele>162.5</ele>
        <time>2024-12-31T14:56:45.123Z</time>
      </trkpt>
      <trkpt lat="48.75969" lon="2.02713">
        <ele>162.6</ele>
        <time>2024-12-31T14:56:48.289Z</time>
      </trkpt>
      <trkpt lat="48.75974" lon="2.02714">
        <ele>162.7</ele>
        <time>2024-12-31T14:56:51.455Z</time>
      </trkpt>
      <trkpt lat="48.75979" lon="2.02714">
        <ele>162.7</ele>
        <time>2024-12-31T14:56:54.621Z</time>
      </trkpt>
      <trkpt lat="48.75984" lon="2.02715">
        <ele>162.7</ele>
        <time>2024-12-31T14:56:57.787Z</time>
      </trkpt>
      <trkpt lat="48.75988" lon="2.02716">
        <ele>162.8</ele>
        <time>2024-12-31T14:57:00.953Z</time>
      </trkpt>
      <trkpt lat="48.75993" lon="2.02716">
        <ele>162.8</ele>
        <time>2024-12-31T14:57:04.119Z</time>
      </trkpt>
      <trkpt lat="48.75998" lon="2.02717">
        <ele>162.8</ele>
        <time>2024-12-31T14:57:07.285Z</time>
      </trkpt>
      <trkpt lat="48.76002" lon="2.02718">
        <ele>162.8</ele>
        <time>2024-12-31T14:57:10.451Z</time>
      </trkpt>
      <trkpt lat="48.76007" lon="2.02718">
        <ele>162.9</ele>
        <time>2024-12-31T14:57:13.617Z</time>
      </trkpt>
      <trkpt lat="48.76012" lon="2.02719">
        <ele>162.9</ele>
        <time>2024-12-31T14:57:16.783Z</time>
      </trkpt>
      <trkpt lat="48.76016" lon="2.02719">
        <ele>163</ele>
        <time>2024-12-31T14:57:19.949Z</time>
      </trkpt>
      <trkpt lat="48.76021" lon="2.0272">
        <ele>163</ele>
        <time>2024-12-31T14:57:23.115Z</time>
      </trkpt>
      <trkpt lat="48.76027" lon="2.02721">
        <ele>163</ele>
        <time>2024-12-31T14:57:27.426Z</time>
      </trkpt>
      <trkpt lat="48.76034" lon="2.02722">
        <ele>163</ele>
        <time>2024-12-31T14:57:31.738Z</time>
      </trkpt>
      <trkpt lat="48.7604" lon="2.02723">
        <ele>163</ele>
        <time>2024-12-31T14:57:36.050Z</time>
      </trkpt>
      <trkpt lat="48.76046" lon="2.02724">
        <ele>163</ele>
        <time>2024-12-31T14:57:40.362Z</time>
      </trkpt>
      <trkpt lat="48.76052" lon="2.02724">
        <ele>163</ele>
        <time>2024-12-31T14:57:44.674Z</time>
      </trkpt>
      <trkpt lat="48.76059" lon="2.02725">
        <ele>163.2</ele>
        <time>2024-12-31T14:57:48.986Z</time>
      </trkpt>
      <trkpt lat="48.76065" lon="2.02726">
        <ele>163.6</ele>
        <time>2024-12-31T14:57:53.298Z</time>
      </trkpt>
      <trkpt lat="48.76071" lon="2.02727">
        <ele>164</ele>
        <time>2024-12-31T14:57:57.610Z</time>
      </trkpt>
      <trkpt lat="48.76078" lon="2.02727">
        <ele>164.5</ele>
        <time>2024-12-31T14:58:02.322Z</time>
      </trkpt>
      <trkpt lat="48.76085" lon="2.02727">
        <ele>164.8</ele>
        <time>2024-12-31T14:58:07.034Z</time>
      </trkpt>
      <trkpt lat="48.76092" lon="2.02727">
        <ele>164.6</ele>
        <time>2024-12-31T14:58:11.746Z</time>
      </trkpt>
      <trkpt lat="48.76099" lon="2.02728">
        <ele>164.3</ele>
        <time>2024-12-31T14:58:16.458Z</time>
      </trkpt>
      <trkpt lat="48.76106" lon="2.02728">
        <ele>164.1</ele>
        <time>2024-12-31T14:58:21.170Z</time>
      </trkpt>
      <trkpt lat="48.76113" lon="2.02728">
        <ele>164.1</ele>
        <time>2024-12-31T14:58:25.883Z</time>
      </trkpt>
      <trkpt lat="48.7612" lon="2.02728">
        <ele>164.3</ele>
        <time>2024-12-31T14:58:30.596Z</time>
      </trkpt>
      <trkpt lat="48.76128" lon="2.02728">
        <ele>164.6</ele>
        <time>2024-12-31T14:58:35.309Z</time>
      </trkpt>
      <trkpt lat="48.76135" lon="2.02728">
        <ele>164.8</ele>
        <time>2024-12-31T14:58:40.022Z</time>
      </trkpt>
      <trkpt lat="48.76142" lon="2.02728">
        <ele>165</ele>
        <time>2024-12-31T14:58:44.735Z</time>
      </trkpt>
      <trkpt lat="48.76149" lon="2.02728">
        <ele>165</ele>
        <time>2024-12-31T14:58:49.448Z</time>
      </trkpt>
      <trkpt lat="48.76156" lon="2.02729">
        <ele>165</ele>
        <time>2024-12-31T14:58:54.161Z</time>
      </trkpt>
      <trkpt lat="48.76163" lon="2.02729">
        <ele>165</ele>
        <time>2024-12-31T14:58:58.874Z</time>
      </trkpt>
      <trkpt lat="48.7617" lon="2.02729">
        <ele>165</ele>
        <time>2024-12-31T14:59:03.587Z</time>
      </trkpt>
      <trkpt lat="48.76177" lon="2.02729">
        <ele>165.1</ele>
        <time>2024-12-31T14:59:08.300Z</time>
      </trkpt>
      <trkpt lat="48.76184" lon="2.02729">
        <ele>165.2</ele>
        <time>2024-12-31T14:59:13.013Z</time>
      </trkpt>
      <trkpt lat="48.76193" lon="2.0273">
        <ele>165.3</ele>
        <time>2024-12-31T14:59:18.460Z</time>
      </trkpt>
      <trkpt lat="48.76201" lon="2.02731">
        <ele>165.2</ele>
        <time>2024-12-31T14:59:23.908Z</time>
      </trkpt>
      <trkpt lat="48.7621" lon="2.02731">
        <ele>165.1</ele>
        <time>2024-12-31T14:59:29.356Z</time>
      </trkpt>
      <trkpt lat="48.76218" lon="2.02732">
        <ele>165.1</ele>
        <time>2024-12-31T14:59:34.804Z</time>
      </trkpt>
      <trkpt lat="48.76226" lon="2.02734">
        <ele>165</ele>
        <time>2024-12-31T14:59:40.166Z</time>
      </trkpt>
      <trkpt lat="48.76235" lon="2.02737">
        <ele>165</ele>
        <time>2024-12-31T14:59:45.529Z</time>
      </trkpt>
      <trkpt lat="48.76243" lon="2.02739">
        <ele>165</ele>
        <time>2024-12-31T14:59:50.892Z</time>
      </trkpt>
      <trkpt lat="48.76251" lon="2.02741">
        <ele>165</ele>
        <time>2024-12-31T14:59:56.255Z</time>
      </trkpt>
      <trkpt lat="48.76256" lon="2.02742">
        <ele>165</ele>
        <time>2024-12-31T14:59:59.511Z</time>
      </trkpt>
      <trkpt lat="48.76261" lon="2.02743">
        <ele>165</ele>
        <time>2024-12-31T15:00:02.767Z</time>
      </trkpt>
      <trkpt lat="48.76266" lon="2.02744">
        <ele>165</ele>
        <time>2024-12-31T15:00:06.023Z</time>
      </trkpt>
      <trkpt lat="48.76271" lon="2.02745">
        <ele>165</ele>
        <time>2024-12-31T15:00:09.279Z</time>
      </trkpt>
      <trkpt lat="48.76276" lon="2.02746">
        <ele>165</ele>
        <time>2024-12-31T15:00:12.535Z</time>
      </trkpt>
      <trkpt lat="48.76281" lon="2.02747">
        <ele>165</ele>
        <time>2024-12-31T15:00:15.791Z</time>
      </trkpt>
      <trkpt lat="48.76286" lon="2.02748">
        <ele>165</ele>
        <time>2024-12-31T15:00:19.047Z</time>
      </trkpt>
      <trkpt lat="48.76291" lon="2.02749">
        <ele>165</ele>
        <time>2024-12-31T15:00:22.304Z</time>
      </trkpt>
      <trkpt lat="48.76299" lon="2.02751">
        <ele>165</ele>
        <time>2024-12-31T15:00:27.434Z</time>
      </trkpt>
      <trkpt lat="48.76306" lon="2.02753">
        <ele>165</ele>
        <time>2024-12-31T15:00:32.564Z</time>
      </trkpt>
      <trkpt lat="48.76314" lon="2.02755">
        <ele>165.2</ele>
        <time>2024-12-31T15:00:37.694Z</time>
      </trkpt>
      <trkpt lat="48.76321" lon="2.02758">
        <ele>165.4</ele>
        <time>2024-12-31T15:00:42.824Z</time>
      </trkpt>
      <trkpt lat="48.76329" lon="2.0276">
        <ele>165.5</ele>
        <time>2024-12-31T15:00:47.955Z</time>
      </trkpt>
      <trkpt lat="48.76336" lon="2.02762">
        <ele>165.6</ele>
        <time>2024-12-31T15:00:53.086Z</time>
      </trkpt>
      <trkpt lat="48.76344" lon="2.02764">
        <ele>165.7</ele>
        <time>2024-12-31T15:00:58.217Z</time>
      </trkpt>
      <trkpt lat="48.76351" lon="2.02766">
        <ele>165.8</ele>
        <time>2024-12-31T15:01:03.348Z</time>
      </trkpt>
      <trkpt lat="48.76355" lon="2.02759">
        <ele>165.9</ele>
        <time>2024-12-31T15:01:07.659Z</time>
      </trkpt>
      <trkpt lat="48.76359" lon="2.02751">
        <ele>166</ele>
        <time>2024-12-31T15:01:11.971Z</time>
      </trkpt>
      <trkpt lat="48.76367" lon="2.02752">
        <ele>165.8</ele>
        <time>2024-12-31T15:01:16.913Z</time>
      </trkpt>
      <trkpt lat="48.76375" lon="2.02753">
        <ele>165.5</ele>
        <time>2024-12-31T15:01:21.855Z</time>
      </trkpt>
      <trkpt lat="48.76383" lon="2.02754">
        <ele>165.2</ele>
        <time>2024-12-31T15:01:26.797Z</time>
      </trkpt>
      <trkpt lat="48.76391" lon="2.02755">
        <ele>165</ele>
        <time>2024-12-31T15:01:31.739Z</time>
      </trkpt>
      <trkpt lat="48.76399" lon="2.02756">
        <ele>165</ele>
        <time>2024-12-31T15:01:36.681Z</time>
      </trkpt>
      <trkpt lat="48.76407" lon="2.02757">
        <ele>165</ele>
        <time>2024-12-31T15:01:41.624Z</time>
      </trkpt>
      <trkpt lat="48.76415" lon="2.02758">
        <ele>165</ele>
        <time>2024-12-31T15:01:46.567Z</time>
      </trkpt>
      <trkpt lat="48.76423" lon="2.02759">
        <ele>165</ele>
        <time>2024-12-31T15:01:51.510Z</time>
      </trkpt>
      <trkpt lat="48.76428" lon="2.0276">
        <ele>165</ele>
        <time>2024-12-31T15:01:54.873Z</time>
      </trkpt>
      <trkpt lat="48.76434" lon="2.02761">
        <ele>165</ele>
        <time>2024-12-31T15:01:58.236Z</time>
      </trkpt>
      <trkpt lat="48.76439" lon="2.02761">
        <ele>165</ele>
        <time>2024-12-31T15:02:01.599Z</time>
      </trkpt>
      <trkpt lat="48.76445" lon="2.02762">
        <ele>165</ele>
        <time>2024-12-31T15:02:04.962Z</time>
      </trkpt>
      <trkpt lat="48.7645" lon="2.02763">
        <ele>164.8</ele>
        <time>2024-12-31T15:02:08.326Z</time>
      </trkpt>
      <trkpt lat="48.76455" lon="2.02764">
        <ele>164.6</ele>
        <time>2024-12-31T15:02:11.690Z</time>
      </trkpt>
      <trkpt lat="48.76461" lon="2.02764">
        <ele>164.4</ele>
        <time>2024-12-31T15:02:15.054Z</time>
      </trkpt>
      <trkpt lat="48.76466" lon="2.02765">
        <ele>164.2</ele>
        <time>2024-12-31T15:02:18.418Z</time>
      </trkpt>
      <trkpt lat="48.76471" lon="2.02766">
        <ele>164</ele>
        <time>2024-12-31T15:02:21.782Z</time>
      </trkpt>
      <trkpt lat="48.76477" lon="2.02767">
        <ele>164</ele>
        <time>2024-12-31T15:02:25.146Z</time>
      </trkpt>
      <trkpt lat="48.76482" lon="2.02767">
        <ele>164</ele>
        <time>2024-12-31T15:02:28.510Z</time>
      </trkpt>
      <trkpt lat="48.76488" lon="2.02768">
        <ele>164</ele>
        <time>2024-12-31T15:02:31.874Z</time>
      </trkpt>
      <trkpt lat="48.76493" lon="2.02769">
        <ele>164</ele>
        <time>2024-12-31T15:02:35.238Z</time>
      </trkpt>
      <trkpt lat="48.76498" lon="2.0277">
        <ele>164</ele>
        <time>2024-12-31T15:02:38.602Z</time>
      </trkpt>
      <trkpt lat="48.76504" lon="2.0277">
        <ele>164</ele>
        <time>2024-12-31T15:02:41.966Z</time>
      </trkpt>
      <trkpt lat="48.76509" lon="2.02771">
        <ele>164</ele>
        <time>2024-12-31T15:02:45.330Z</time>
      </trkpt>
      <trkpt lat="48.76515" lon="2.02771">
        <ele>164</ele>
        <time>2024-12-31T15:02:49.205Z</time>
      </trkpt>
      <trkpt lat="48.76521" lon="2.02772">
        <ele>164</ele>
        <time>2024-12-31T15:02:53.080Z</time>
      </trkpt>
      <trkpt lat="48.76527" lon="2.02772">
        <ele>164</ele>
        <time>2024-12-31T15:02:56.955Z</time>
      </trkpt>
      <trkpt lat="48.76533" lon="2.02772">
        <ele>164</ele>
        <time>2024-12-31T15:03:00.831Z</time>
      </trkpt>
      <trkpt lat="48.7654" lon="2.02769">
        <ele>164</ele>
        <time>2024-12-31T15:03:05.284Z</time>
      </trkpt>
      <trkpt lat="48.76546" lon="2.02765">
        <ele>164</ele>
        <time>2024-12-31T15:03:09.738Z</time>
      </trkpt>
      <trkpt lat="48.7655" lon="2.02761">
        <ele>164</ele>
        <time>2024-12-31T15:03:12.912Z</time>
      </trkpt>
      <trkpt lat="48.76555" lon="2.02758">
        <ele>164</ele>
        <time>2024-12-31T15:03:16.086Z</time>
      </trkpt>
      <trkpt lat="48.76559" lon="2.02754">
        <ele>164</ele>
        <time>2024-12-31T15:03:19.260Z</time>
      </trkpt>
      <trkpt lat="48.76563" lon="2.0275">
        <ele>164</ele>
        <time>2024-12-31T15:03:22.435Z</time>
      </trkpt>
      <trkpt lat="48.76567" lon="2.02746">
        <ele>164</ele>
        <time>2024-12-31T15:03:25.470Z</time>
      </trkpt>
      <trkpt lat="48.76571" lon="2.02743">
        <ele>164</ele>
        <time>2024-12-31T15:03:28.506Z</time>
      </trkpt>
      <trkpt lat="48.76575" lon="2.02739">
        <ele>164</ele>
        <time>2024-12-31T15:03:31.542Z</time>
      </trkpt>
      <trkpt lat="48.76579" lon="2.02735">
        <ele>164</ele>
        <time>2024-12-31T15:03:34.578Z</time>
      </trkpt>
      <trkpt lat="48.76579" lon="2.02736">
        <ele>164</ele>
        <time>2024-12-31T15:03:35.004Z</time>
        <extensions>
          <visugpx:TrkExtension xmlns:visugpx="https://www.visugpx.com/editgpx/">
            <visugpx:node>13</visugpx:node>
            </visugpx:TrkExtension>
        </extensions>
      </trkpt>
      <trkpt lat="48.76579" lon="2.02735">
        <ele>164</ele>
        <time>2024-12-31T15:03:35.429Z</time>
      </trkpt>
      <trkpt lat="48.76579" lon="2.02735">
        <ele>164</ele>
        <time>2024-12-31T15:03:35.429Z</time>
      </trkpt>
      <trkpt lat="48.76584" lon="2.02734">
        <ele>164</ele>
        <time>2024-12-31T15:03:38.673Z</time>
      </trkpt>
      <trkpt lat="48.76589" lon="2.02734">
        <ele>164</ele>
        <time>2024-12-31T15:03:41.917Z</time>
      </trkpt>
      <trkpt lat="48.76594" lon="2.02733">
        <ele>164</ele>
        <time>2024-12-31T15:03:45.161Z</time>
      </trkpt>
      <trkpt lat="48.76599" lon="2.02732">
        <ele>164</ele>
        <time>2024-12-31T15:03:48.405Z</time>
        <extensions>
          <visugpx:TrkExtension xmlns:visugpx="https://www.visugpx.com/editgpx/">
            <visugpx:node>12</visugpx:node>
            </visugpx:TrkExtension>
        </extensions>
      </trkpt>
      <trkpt lat="48.76599" lon="2.02732">
        <ele>164</ele>
        <time>2024-12-31T15:03:48.405Z</time>
      </trkpt>
      <trkpt lat="48.76606" lon="2.02731">
        <ele>164</ele>
        <time>2024-12-31T15:03:52.650Z</time>
      </trkpt>
      <trkpt lat="48.76612" lon="2.02729">
        <ele>164</ele>
        <time>2024-12-31T15:03:56.895Z</time>
      </trkpt>
      <trkpt lat="48.76611" lon="2.02729">
        <ele>164</ele>
        <time>2024-12-31T15:03:57.541Z</time>
        <extensions>
          <visugpx:TrkExtension xmlns:visugpx="https://www.visugpx.com/editgpx/">
            <visugpx:node>11</visugpx:node>
            </visugpx:TrkExtension>
        </extensions>
      </trkpt>
      <trkpt lat="48.76611" lon="2.02729">
        <ele>164</ele>
        <time>2024-12-31T15:03:57.541Z</time>
      </trkpt>
      <trkpt lat="48.76617" lon="2.02728">
        <ele>163.8</ele>
        <time>2024-12-31T15:03:59.127Z</time>
      </trkpt>
      <trkpt lat="48.76622" lon="2.02727">
        <ele>163.7</ele>
        <time>2024-12-31T15:04:00.713Z</time>
      </trkpt>
      <trkpt lat="48.76625" lon="2.02728">
        <ele>163.6</ele>
        <time>2024-12-31T15:04:01.592Z</time>
      </trkpt>
      <trkpt lat="48.76625" lon="2.02739">
        <ele>163.8</ele>
        <time>2024-12-31T15:04:03.573Z</time>
      </trkpt>
      <trkpt lat="48.76625" lon="2.02749">
        <ele>164</ele>
        <time>2024-12-31T15:04:05.555Z</time>
      </trkpt>
      <trkpt lat="48.76625" lon="2.0276">
        <ele>164</ele>
        <time>2024-12-31T15:04:07.537Z</time>
      </trkpt>
      <trkpt lat="48.76625" lon="2.0277">
        <ele>164</ele>
        <time>2024-12-31T15:04:09.519Z</time>
      </trkpt>
      <trkpt lat="48.76629" lon="2.02761">
        <ele>164</ele>
        <time>2024-12-31T15:04:11.570Z</time>
      </trkpt>
      <trkpt lat="48.76634" lon="2.02753">
        <ele>164</ele>
        <time>2024-12-31T15:04:13.621Z</time>
      </trkpt>
      <trkpt lat="48.76638" lon="2.02744">
        <ele>163.8</ele>
        <time>2024-12-31T15:04:15.673Z</time>
      </trkpt>
      <trkpt lat="48.76642" lon="2.02735">
        <ele>163.4</ele>
        <time>2024-12-31T15:04:17.725Z</time>
      </trkpt>
      <trkpt lat="48.76649" lon="2.02741">
        <ele>163.4</ele>
        <time>2024-12-31T15:04:20.051Z</time>
      </trkpt>
      <trkpt lat="48.76656" lon="2.02748">
        <ele>163.3</ele>
        <time>2024-12-31T15:04:22.377Z</time>
      </trkpt>
      <trkpt lat="48.76663" lon="2.02754">
        <ele>163.1</ele>
        <time>2024-12-31T15:04:24.703Z</time>
      </trkpt>
      <trkpt lat="48.7667" lon="2.0276">
        <ele>162.9</ele>
        <time>2024-12-31T15:04:27.029Z</time>
        <extensions>
          <visugpx:TrkExtension xmlns:visugpx="https://www.visugpx.com/editgpx/">
            <visugpx:node>10</visugpx:node>
            </visugpx:TrkExtension>
        </extensions>
      </trkpt>
      <trkpt lat="48.7667" lon="2.0276">
        <ele>162.9</ele>
        <time>2024-12-31T15:04:27.029Z</time>
      </trkpt>
      <trkpt lat="48.76666" lon="2.02763">
        <ele>163</ele>
        <time>2024-12-31T15:04:28.343Z</time>
      </trkpt>
      <trkpt lat="48.76662" lon="2.02765">
        <ele>163.2</ele>
        <time>2024-12-31T15:04:29.657Z</time>
      </trkpt>
      <trkpt lat="48.76657" lon="2.02768">
        <ele>163.3</ele>
        <time>2024-12-31T15:04:30.971Z</time>
      </trkpt>
      <trkpt lat="48.76653" lon="2.02771">
        <ele>163.5</ele>
        <time>2024-12-31T15:04:32.285Z</time>
      </trkpt>
      <trkpt lat="48.76649" lon="2.02773">
        <ele>163.6</ele>
        <time>2024-12-31T15:04:33.599Z</time>
      </trkpt>
      <trkpt lat="48.76645" lon="2.02776">
        <ele>163.8</ele>
        <time>2024-12-31T15:04:34.913Z</time>
      </trkpt>
      <trkpt lat="48.7664" lon="2.02778">
        <ele>164</ele>
        <time>2024-12-31T15:04:36.227Z</time>
      </trkpt>
      <trkpt lat="48.76636" lon="2.02781">
        <ele>164</ele>
        <time>2024-12-31T15:04:37.542Z</time>
      </trkpt>
      <trkpt lat="48.76632" lon="2.02786">
        <ele>164</ele>
        <time>2024-12-31T15:04:39.085Z</time>
      </trkpt>
      <trkpt lat="48.76627" lon="2.0279">
        <ele>164</ele>
        <time>2024-12-31T15:04:40.629Z</time>
      </trkpt>
      <trkpt lat="48.76622" lon="2.02789">
        <ele>164</ele>
        <time>2024-12-31T15:04:42.215Z</time>
      </trkpt>
      <trkpt lat="48.76616" lon="2.02788">
        <ele>164</ele>
        <time>2024-12-31T15:04:43.801Z</time>
      </trkpt>
      <trkpt lat="48.76616" lon="2.02787">
        <ele>164</ele>
        <time>2024-12-31T15:04:43.989Z</time>
        <extensions>
          <visugpx:TrkExtension xmlns:visugpx="https://www.visugpx.com/editgpx/">
            <visugpx:node>9</visugpx:node>
            </visugpx:TrkExtension>
        </extensions>
      </trkpt>
      <trkpt lat="48.76617" lon="2.02798">
        <ele>164</ele>
        <time>2024-12-31T15:04:46.080Z</time>
      </trkpt>
      <trkpt lat="48.76618" lon="2.02809">
        <ele>164</ele>
        <time>2024-12-31T15:04:48.171Z</time>
      </trkpt>
      <trkpt lat="48.76619" lon="2.0282">
        <ele>164</ele>
        <time>2024-12-31T15:04:50.263Z</time>
      </trkpt>
      <trkpt lat="48.7662" lon="2.02831">
        <ele>164</ele>
        <time>2024-12-31T15:04:52.355Z</time>
      </trkpt>
      <trkpt lat="48.7662" lon="2.02842">
        <ele>164</ele>
        <time>2024-12-31T15:04:54.447Z</time>
      </trkpt>
      <trkpt lat="48.76621" lon="2.02853">
        <ele>164</ele>
        <time>2024-12-31T15:04:56.539Z</time>
      </trkpt>
      <trkpt lat="48.76622" lon="2.02864">
        <ele>164</ele>
        <time>2024-12-31T15:04:58.631Z</time>
      </trkpt>
      <trkpt lat="48.76623" lon="2.02875">
        <ele>164</ele>
        <time>2024-12-31T15:05:00.723Z</time>
      </trkpt>
      <trkpt lat="48.76624" lon="2.02883">
        <ele>164</ele>
        <time>2024-12-31T15:05:03.901Z</time>
      </trkpt>
      <trkpt lat="48.76624" lon="2.02891">
        <ele>164</ele>
        <time>2024-12-31T15:05:07.079Z</time>
      </trkpt>
      <trkpt lat="48.76625" lon="2.02898">
        <ele>163.8</ele>
        <time>2024-12-31T15:05:10.257Z</time>
      </trkpt>
      <trkpt lat="48.76626" lon="2.02906">
        <ele>163.7</ele>
        <time>2024-12-31T15:05:13.435Z</time>
      </trkpt>
      <trkpt lat="48.76626" lon="2.02914">
        <ele>163.5</ele>
        <time>2024-12-31T15:05:16.613Z</time>
      </trkpt>
      <trkpt lat="48.76627" lon="2.02922">
        <ele>163.4</ele>
        <time>2024-12-31T15:05:19.791Z</time>
      </trkpt>
      <trkpt lat="48.76627" lon="2.02929">
        <ele>163.4</ele>
        <time>2024-12-31T15:05:22.970Z</time>
      </trkpt>
      <trkpt lat="48.76628" lon="2.02937">
        <ele>163.4</ele>
        <time>2024-12-31T15:05:26.149Z</time>
      </trkpt>
      <trkpt lat="48.76629" lon="2.02945">
        <ele>163.4</ele>
        <time>2024-12-31T15:05:29.625Z</time>
      </trkpt>
      <trkpt lat="48.76629" lon="2.02954">
        <ele>163.4</ele>
        <time>2024-12-31T15:05:33.101Z</time>
      </trkpt>
      <trkpt lat="48.7663" lon="2.02962">
        <ele>163.3</ele>
        <time>2024-12-31T15:05:36.578Z</time>
      </trkpt>
      <trkpt lat="48.7663" lon="2.0297">
        <ele>163.3</ele>
        <time>2024-12-31T15:05:40.055Z</time>
        <extensions>
          <visugpx:TrkExtension xmlns:visugpx="https://www.visugpx.com/editgpx/">
            <visugpx:node>8</visugpx:node>
            </visugpx:TrkExtension>
        </extensions>
      </trkpt>
      <trkpt lat="48.76631" lon="2.02977">
        <ele>163.3</ele>
        <time>2024-12-31T15:05:42.925Z</time>
      </trkpt>
      <trkpt lat="48.76631" lon="2.02984">
        <ele>163.2</ele>
        <time>2024-12-31T15:05:45.795Z</time>
      </trkpt>
      <trkpt lat="48.76632" lon="2.02991">
        <ele>163.1</ele>
        <time>2024-12-31T15:05:48.665Z</time>
      </trkpt>
      <trkpt lat="48.76632" lon="2.02998">
        <ele>163</ele>
        <time>2024-12-31T15:05:51.535Z</time>
      </trkpt>
      <trkpt lat="48.76633" lon="2.03004">
        <ele>163</ele>
        <time>2024-12-31T15:05:54.405Z</time>
      </trkpt>
      <trkpt lat="48.76633" lon="2.03011">
        <ele>163</ele>
        <time>2024-12-31T15:05:57.275Z</time>
      </trkpt>
      <trkpt lat="48.76634" lon="2.03018">
        <ele>163</ele>
        <time>2024-12-31T15:06:00.146Z</time>
      </trkpt>
      <trkpt lat="48.76634" lon="2.03025">
        <ele>163</ele>
        <time>2024-12-31T15:06:03.017Z</time>
      </trkpt>
      <trkpt lat="48.76634" lon="2.03034">
        <ele>163</ele>
        <time>2024-12-31T15:06:06.847Z</time>
      </trkpt>
      <trkpt lat="48.76634" lon="2.03043">
        <ele>163</ele>
        <time>2024-12-31T15:06:10.677Z</time>
      </trkpt>
      <trkpt lat="48.76634" lon="2.03052">
        <ele>163</ele>
        <time>2024-12-31T15:06:14.507Z</time>
      </trkpt>
      <trkpt lat="48.76634" lon="2.03061">
        <ele>163</ele>
        <time>2024-12-31T15:06:18.337Z</time>
      </trkpt>
      <trkpt lat="48.76634" lon="2.03069">
        <ele>163</ele>
        <time>2024-12-31T15:06:21.544Z</time>
      </trkpt>
      <trkpt lat="48.76633" lon="2.03076">
        <ele>163</ele>
        <time>2024-12-31T15:06:24.752Z</time>
      </trkpt>
      <trkpt lat="48.76633" lon="2.03084">
        <ele>163</ele>
        <time>2024-12-31T15:06:27.960Z</time>
      </trkpt>
      <trkpt lat="48.76632" lon="2.03091">
        <ele>163</ele>
        <time>2024-12-31T15:06:31.169Z</time>
      </trkpt>
      <trkpt lat="48.76631" lon="2.03103">
        <ele>163</ele>
        <time>2024-12-31T15:06:36.181Z</time>
      </trkpt>
      <trkpt lat="48.7663" lon="2.03114">
        <ele>163</ele>
        <time>2024-12-31T15:06:41.193Z</time>
      </trkpt>
      <trkpt lat="48.76628" lon="2.03126">
        <ele>163</ele>
        <time>2024-12-31T15:06:46.205Z</time>
      </trkpt>
      <trkpt lat="48.76627" lon="2.03138">
        <ele>163</ele>
        <time>2024-12-31T15:06:51.217Z</time>
      </trkpt>
      <trkpt lat="48.76626" lon="2.03149">
        <ele>163</ele>
        <time>2024-12-31T15:06:56.230Z</time>
      </trkpt>
      <trkpt lat="48.76625" lon="2.03161">
        <ele>163</ele>
        <time>2024-12-31T15:07:01.243Z</time>
      </trkpt>
      <trkpt lat="48.76623" lon="2.03172">
        <ele>163</ele>
        <time>2024-12-31T15:07:06.256Z</time>
      </trkpt>
      <trkpt lat="48.76622" lon="2.03184">
        <ele>163</ele>
        <time>2024-12-31T15:07:11.270Z</time>
      </trkpt>
      <trkpt lat="48.76622" lon="2.03191">
        <ele>163</ele>
        <time>2024-12-31T15:07:14.265Z</time>
      </trkpt>
      <trkpt lat="48.76621" lon="2.03198">
        <ele>163</ele>
        <time>2024-12-31T15:07:17.262Z</time>
      </trkpt>
      <trkpt lat="48.76623" lon="2.03211">
        <ele>163</ele>
        <time>2024-12-31T15:07:22.943Z</time>
      </trkpt>
      <trkpt lat="48.76628" lon="2.03216">
        <ele>163</ele>
        <time>2024-12-31T15:07:26.696Z</time>
      </trkpt>
      <trkpt lat="48.76633" lon="2.0322">
        <ele>163</ele>
        <time>2024-12-31T15:07:30.450Z</time>
      </trkpt>
      <trkpt lat="48.76638" lon="2.03222">
        <ele>163</ele>
        <time>2024-12-31T15:07:33.509Z</time>
      </trkpt>
      <trkpt lat="48.76642" lon="2.03225">
        <ele>163</ele>
        <time>2024-12-31T15:07:36.568Z</time>
      </trkpt>
      <trkpt lat="48.76647" lon="2.03227">
        <ele>163</ele>
        <time>2024-12-31T15:07:39.627Z</time>
      </trkpt>
      <trkpt lat="48.76651" lon="2.03229">
        <ele>163</ele>
        <time>2024-12-31T15:07:42.687Z</time>
      </trkpt>
      <trkpt lat="48.76651" lon="2.03229">
        <ele>163</ele>
        <time>2024-12-31T15:07:42.687Z</time>
        <extensions>
          <visugpx:TrkExtension xmlns:visugpx="https://www.visugpx.com/editgpx/">
            <visugpx:node>7</visugpx:node>
            </visugpx:TrkExtension>
        </extensions>
      </trkpt>
      <trkpt lat="48.76651" lon="2.03229">
        <ele>163</ele>
        <time>2024-12-31T15:07:42.687Z</time>
      </trkpt>
      <trkpt lat="48.76656" lon="2.03232">
        <ele>163</ele>
        <time>2024-12-31T15:07:46.316Z</time>
      </trkpt>
      <trkpt lat="48.76662" lon="2.03234">
        <ele>163</ele>
        <time>2024-12-31T15:07:49.945Z</time>
      </trkpt>
      <trkpt lat="48.76667" lon="2.03237">
        <ele>163</ele>
        <time>2024-12-31T15:07:53.575Z</time>
      </trkpt>
      <trkpt lat="48.76673" lon="2.03239">
        <ele>163</ele>
        <time>2024-12-31T15:07:57.205Z</time>
      </trkpt>
      <trkpt lat="48.76678" lon="2.03242">
        <ele>163</ele>
        <time>2024-12-31T15:08:00.835Z</time>
      </trkpt>
      <trkpt lat="48.76683" lon="2.03244">
        <ele>163</ele>
        <time>2024-12-31T15:08:04.465Z</time>
      </trkpt>
      <trkpt lat="48.76689" lon="2.03247">
        <ele>163</ele>
        <time>2024-12-31T15:08:08.095Z</time>
      </trkpt>
      <trkpt lat="48.76694" lon="2.03249">
        <ele>163</ele>
        <time>2024-12-31T15:08:11.725Z</time>
      </trkpt>
      <trkpt lat="48.76699" lon="2.03251">
        <ele>162.9</ele>
        <time>2024-12-31T15:08:14.609Z</time>
      </trkpt>
      <trkpt lat="48.76703" lon="2.03253">
        <ele>162.7</ele>
        <time>2024-12-31T15:08:17.493Z</time>
      </trkpt>
      <trkpt lat="48.76708" lon="2.03255">
        <ele>162.5</ele>
        <time>2024-12-31T15:08:20.378Z</time>
      </trkpt>
      <trkpt lat="48.76713" lon="2.03258">
        <ele>162.4</ele>
        <time>2024-12-31T15:08:23.263Z</time>
      </trkpt>
      <trkpt lat="48.76717" lon="2.0326">
        <ele>162.2</ele>
        <time>2024-12-31T15:08:26.148Z</time>
      </trkpt>
      <trkpt lat="48.76722" lon="2.03262">
        <ele>162</ele>
        <time>2024-12-31T15:08:29.033Z</time>
      </trkpt>
      <trkpt lat="48.76726" lon="2.03264">
        <ele>162</ele>
        <time>2024-12-31T15:08:31.918Z</time>
      </trkpt>
      <trkpt lat="48.76731" lon="2.03266">
        <ele>162</ele>
        <time>2024-12-31T15:08:34.803Z</time>
      </trkpt>
      <trkpt lat="48.76736" lon="2.03268">
        <ele>162</ele>
        <time>2024-12-31T15:08:38.142Z</time>
      </trkpt>
      <trkpt lat="48.76741" lon="2.03262">
        <ele>162</ele>
        <time>2024-12-31T15:08:42.258Z</time>
      </trkpt>
      <trkpt lat="48.76746" lon="2.03256">
        <ele>162</ele>
        <time>2024-12-31T15:08:46.374Z</time>
      </trkpt>
      <trkpt lat="48.7675" lon="2.03248">
        <ele>162</ele>
        <time>2024-12-31T15:08:50.647Z</time>
      </trkpt>
      <trkpt lat="48.76754" lon="2.0324">
        <ele>162</ele>
        <time>2024-12-31T15:08:54.920Z</time>
      </trkpt>
      <trkpt lat="48.76759" lon="2.03242">
        <ele>162</ele>
        <time>2024-12-31T15:08:58.258Z</time>
      </trkpt>
      <trkpt lat="48.76765" lon="2.03244">
        <ele>162</ele>
        <time>2024-12-31T15:09:02.225Z</time>
      </trkpt>
      <trkpt lat="48.76764" lon="2.03249">
        <ele>162</ele>
        <time>2024-12-31T15:09:04.448Z</time>
      </trkpt>
      <trkpt lat="48.76767" lon="2.03259">
        <ele>162</ele>
        <time>2024-12-31T15:09:09.192Z</time>
      </trkpt>
      <trkpt lat="48.76771" lon="2.03269">
        <ele>162</ele>
        <time>2024-12-31T15:09:13.937Z</time>
      </trkpt>
      <trkpt lat="48.76774" lon="2.03279">
        <ele>162</ele>
        <time>2024-12-31T15:09:18.682Z</time>
      </trkpt>
      <trkpt lat="48.76777" lon="2.03289">
        <ele>162</ele>
        <time>2024-12-31T15:09:23.427Z</time>
      </trkpt>
      <trkpt lat="48.76783" lon="2.03292">
        <ele>162</ele>
        <time>2024-12-31T15:09:27.323Z</time>
      </trkpt>
      <trkpt lat="48.76788" lon="2.03294">
        <ele>162</ele>
        <time>2024-12-31T15:09:31.219Z</time>
      </trkpt>
      <trkpt lat="48.76794" lon="2.03297">
        <ele>162</ele>
        <time>2024-12-31T15:09:35.115Z</time>
      </trkpt>
      <trkpt lat="48.76799" lon="2.033">
        <ele>162</ele>
        <time>2024-12-31T15:09:39.011Z</time>
      </trkpt>
      <trkpt lat="48.76805" lon="2.03302">
        <ele>162</ele>
        <time>2024-12-31T15:09:42.907Z</time>
      </trkpt>
      <trkpt lat="48.7681" lon="2.03305">
        <ele>162</ele>
        <time>2024-12-31T15:09:46.803Z</time>
      </trkpt>
      <trkpt lat="48.76816" lon="2.03308">
        <ele>162</ele>
        <time>2024-12-31T15:09:50.699Z</time>
      </trkpt>
      <trkpt lat="48.76822" lon="2.03311">
        <ele>162</ele>
        <time>2024-12-31T15:09:54.595Z</time>
      </trkpt>
      <trkpt lat="48.76827" lon="2.03313">
        <ele>162</ele>
        <time>2024-12-31T15:09:58.491Z</time>
      </trkpt>
      <trkpt lat="48.76833" lon="2.03316">
        <ele>162</ele>
        <time>2024-12-31T15:10:02.387Z</time>
      </trkpt>
      <trkpt lat="48.76838" lon="2.03319">
        <ele>162.1</ele>
        <time>2024-12-31T15:10:06.283Z</time>
      </trkpt>
      <trkpt lat="48.76844" lon="2.03321">
        <ele>162.2</ele>
        <time>2024-12-31T15:10:10.179Z</time>
      </trkpt>
      <trkpt lat="48.76849" lon="2.03324">
        <ele>162.4</ele>
        <time>2024-12-31T15:10:14.075Z</time>
      </trkpt>
      <trkpt lat="48.76855" lon="2.03327">
        <ele>162.6</ele>
        <time>2024-12-31T15:10:17.971Z</time>
      </trkpt>
      <trkpt lat="48.7686" lon="2.03329">
        <ele>162.8</ele>
        <time>2024-12-31T15:10:21.867Z</time>
      </trkpt>
      <trkpt lat="48.76866" lon="2.03332">
        <ele>163</ele>
        <time>2024-12-31T15:10:25.763Z</time>
      </trkpt>
      <trkpt lat="48.76872" lon="2.03335">
        <ele>163</ele>
        <time>2024-12-31T15:10:29.659Z</time>
      </trkpt>
      <trkpt lat="48.76877" lon="2.03337">
        <ele>163</ele>
        <time>2024-12-31T15:10:33.555Z</time>
      </trkpt>
      <trkpt lat="48.76883" lon="2.0334">
        <ele>163</ele>
        <time>2024-12-31T15:10:37.451Z</time>
      </trkpt>
      <trkpt lat="48.76888" lon="2.03343">
        <ele>163</ele>
        <time>2024-12-31T15:10:41.347Z</time>
      </trkpt>
      <trkpt lat="48.76894" lon="2.03345">
        <ele>163.1</ele>
        <time>2024-12-31T15:10:45.243Z</time>
      </trkpt>
      <trkpt lat="48.76899" lon="2.03348">
        <ele>163.2</ele>
        <time>2024-12-31T15:10:49.139Z</time>
      </trkpt>
      <trkpt lat="48.76905" lon="2.03351">
        <ele>163.4</ele>
        <time>2024-12-31T15:10:53.035Z</time>
      </trkpt>
      <trkpt lat="48.76911" lon="2.03354">
        <ele>163.6</ele>
        <time>2024-12-31T15:10:56.931Z</time>
      </trkpt>
      <trkpt lat="48.76916" lon="2.03356">
        <ele>163.8</ele>
        <time>2024-12-31T15:11:00.827Z</time>
      </trkpt>
      <trkpt lat="48.76922" lon="2.03359">
        <ele>163.9</ele>
        <time>2024-12-31T15:11:04.724Z</time>
      </trkpt>
      <trkpt lat="48.76927" lon="2.03362">
        <ele>164</ele>
        <time>2024-12-31T15:11:08.621Z</time>
      </trkpt>
      <trkpt lat="48.76933" lon="2.03364">
        <ele>164</ele>
        <time>2024-12-31T15:11:12.518Z</time>
      </trkpt>
      <trkpt lat="48.76938" lon="2.03367">
        <ele>164</ele>
        <time>2024-12-31T15:11:16.415Z</time>
      </trkpt>
      <trkpt lat="48.76944" lon="2.0337">
        <ele>164</ele>
        <time>2024-12-31T15:11:20.312Z</time>
      </trkpt>
      <trkpt lat="48.76949" lon="2.03372">
        <ele>164</ele>
        <time>2024-12-31T15:11:24.209Z</time>
      </trkpt>
      <trkpt lat="48.76955" lon="2.03375">
        <ele>164</ele>
        <time>2024-12-31T15:11:28.106Z</time>
      </trkpt>
      <trkpt lat="48.76958" lon="2.03379">
        <ele>164</ele>
        <time>2024-12-31T15:11:30.684Z</time>
      </trkpt>
      <trkpt lat="48.76964" lon="2.03372">
        <ele>164</ele>
        <time>2024-12-31T15:11:35.458Z</time>
      </trkpt>
      <trkpt lat="48.76969" lon="2.03364">
        <ele>164</ele>
        <time>2024-12-31T15:11:40.233Z</time>
      </trkpt>
      <trkpt lat="48.76975" lon="2.03367">
        <ele>164</ele>
        <time>2024-12-31T15:11:44.312Z</time>
      </trkpt>
      <trkpt lat="48.76982" lon="2.0337">
        <ele>164</ele>
        <time>2024-12-31T15:11:49.008Z</time>
      </trkpt>
      <trkpt lat="48.76986" lon="2.03381">
        <ele>164</ele>
        <time>2024-12-31T15:11:54.015Z</time>
      </trkpt>
      <trkpt lat="48.76989" lon="2.03391">
        <ele>164</ele>
        <time>2024-12-31T15:11:59.022Z</time>
      </trkpt>
      <trkpt lat="48.76993" lon="2.03393">
        <ele>164</ele>
        <time>2024-12-31T15:12:01.894Z</time>
      </trkpt>
      <trkpt lat="48.76998" lon="2.03395">
        <ele>164</ele>
        <time>2024-12-31T15:12:04.766Z</time>
      </trkpt>
      <trkpt lat="48.77002" lon="2.03397">
        <ele>164</ele>
        <time>2024-12-31T15:12:07.638Z</time>
      </trkpt>
      <trkpt lat="48.77006" lon="2.03399">
        <ele>164</ele>
        <time>2024-12-31T15:12:10.510Z</time>
      </trkpt>
      <trkpt lat="48.77011" lon="2.03401">
        <ele>164</ele>
        <time>2024-12-31T15:12:13.382Z</time>
      </trkpt>
      <trkpt lat="48.77015" lon="2.03404">
        <ele>164</ele>
        <time>2024-12-31T15:12:16.254Z</time>
      </trkpt>
      <trkpt lat="48.77019" lon="2.03406">
        <ele>164</ele>
        <time>2024-12-31T15:12:19.126Z</time>
      </trkpt>
      <trkpt lat="48.77024" lon="2.03408">
        <ele>164</ele>
        <time>2024-12-31T15:12:21.998Z</time>
      </trkpt>
      <trkpt lat="48.77028" lon="2.0341">
        <ele>164</ele>
        <time>2024-12-31T15:12:24.870Z</time>
      </trkpt>
      <trkpt lat="48.77032" lon="2.03412">
        <ele>164</ele>
        <time>2024-12-31T15:12:27.742Z</time>
      </trkpt>
      <trkpt lat="48.77037" lon="2.03414">
        <ele>164</ele>
        <time>2024-12-31T15:12:30.614Z</time>
      </trkpt>
      <trkpt lat="48.77041" lon="2.03416">
        <ele>164</ele>
        <time>2024-12-31T15:12:33.486Z</time>
      </trkpt>
      <trkpt lat="48.77045" lon="2.03418">
        <ele>164</ele>
        <time>2024-12-31T15:12:36.359Z</time>
      </trkpt>
      <trkpt lat="48.7705" lon="2.0342">
        <ele>164</ele>
        <time>2024-12-31T15:12:39.232Z</time>
      </trkpt>
      <trkpt lat="48.77054" lon="2.03422">
        <ele>164</ele>
        <time>2024-12-31T15:12:42.105Z</time>
      </trkpt>
      <trkpt lat="48.77058" lon="2.03424">
        <ele>164</ele>
        <time>2024-12-31T15:12:44.978Z</time>
      </trkpt>
      <trkpt lat="48.77063" lon="2.03426">
        <ele>163.9</ele>
        <time>2024-12-31T15:12:47.851Z</time>
      </trkpt>
      <trkpt lat="48.77067" lon="2.03428">
        <ele>163.8</ele>
        <time>2024-12-31T15:12:50.724Z</time>
      </trkpt>
      <trkpt lat="48.77071" lon="2.03431">
        <ele>163.7</ele>
        <time>2024-12-31T15:12:53.597Z</time>
      </trkpt>
      <trkpt lat="48.77076" lon="2.03433">
        <ele>163.6</ele>
        <time>2024-12-31T15:12:56.470Z</time>
      </trkpt>
      <trkpt lat="48.7708" lon="2.03435">
        <ele>163.4</ele>
        <time>2024-12-31T15:12:59.343Z</time>
      </trkpt>
      <trkpt lat="48.77084" lon="2.03437">
        <ele>163.3</ele>
        <time>2024-12-31T15:13:02.216Z</time>
      </trkpt>
      <trkpt lat="48.77089" lon="2.03439">
        <ele>163.2</ele>
        <time>2024-12-31T15:13:05.089Z</time>
      </trkpt>
      <trkpt lat="48.77093" lon="2.03441">
        <ele>163.1</ele>
        <time>2024-12-31T15:13:07.962Z</time>
      </trkpt>
      <trkpt lat="48.77097" lon="2.03443">
        <ele>163.1</ele>
        <time>2024-12-31T15:13:10.835Z</time>
      </trkpt>
      <trkpt lat="48.77102" lon="2.03445">
        <ele>163</ele>
        <time>2024-12-31T15:13:13.708Z</time>
      </trkpt>
      <trkpt lat="48.77106" lon="2.03447">
        <ele>163</ele>
        <time>2024-12-31T15:13:16.581Z</time>
      </trkpt>
      <trkpt lat="48.7711" lon="2.03449">
        <ele>163</ele>
        <time>2024-12-31T15:13:19.454Z</time>
      </trkpt>
      <trkpt lat="48.77115" lon="2.03451">
        <ele>163</ele>
        <time>2024-12-31T15:13:22.327Z</time>
      </trkpt>
      <trkpt lat="48.77119" lon="2.03453">
        <ele>163</ele>
        <time>2024-12-31T15:13:25.200Z</time>
      </trkpt>
      <trkpt lat="48.77123" lon="2.03455">
        <ele>163</ele>
        <time>2024-12-31T15:13:28.073Z</time>
      </trkpt>
      <trkpt lat="48.77128" lon="2.03458">
        <ele>163</ele>
        <time>2024-12-31T15:13:30.946Z</time>
      </trkpt>
      <trkpt lat="48.77132" lon="2.0346">
        <ele>163</ele>
        <time>2024-12-31T15:13:33.819Z</time>
      </trkpt>
      <trkpt lat="48.77136" lon="2.03462">
        <ele>163</ele>
        <time>2024-12-31T15:13:36.692Z</time>
      </trkpt>
      <trkpt lat="48.77141" lon="2.03464">
        <ele>163</ele>
        <time>2024-12-31T15:13:39.565Z</time>
      </trkpt>
      <trkpt lat="48.77145" lon="2.03466">
        <ele>163</ele>
        <time>2024-12-31T15:13:42.438Z</time>
      </trkpt>
      <trkpt lat="48.77149" lon="2.03468">
        <ele>163.1</ele>
        <time>2024-12-31T15:13:45.311Z</time>
      </trkpt>
      <trkpt lat="48.77154" lon="2.0347">
        <ele>163</ele>
        <time>2024-12-31T15:13:48.184Z</time>
      </trkpt>
      <trkpt lat="48.77158" lon="2.03472">
        <ele>163</ele>
        <time>2024-12-31T15:13:51.057Z</time>
      </trkpt>
      <trkpt lat="48.77162" lon="2.03474">
        <ele>163</ele>
        <time>2024-12-31T15:13:53.930Z</time>
      </trkpt>
      <trkpt lat="48.77167" lon="2.03476">
        <ele>163</ele>
        <time>2024-12-31T15:13:56.803Z</time>
      </trkpt>
      <trkpt lat="48.77171" lon="2.03478">
        <ele>163</ele>
        <time>2024-12-31T15:13:59.676Z</time>
      </trkpt>
      <trkpt lat="48.77175" lon="2.0348">
        <ele>163</ele>
        <time>2024-12-31T15:14:02.549Z</time>
      </trkpt>
      <trkpt lat="48.77179" lon="2.03482">
        <ele>163</ele>
        <time>2024-12-31T15:14:05.422Z</time>
      </trkpt>
      <trkpt lat="48.77184" lon="2.03485">
        <ele>163</ele>
        <time>2024-12-31T15:14:08.295Z</time>
      </trkpt>
      <trkpt lat="48.77188" lon="2.03487">
        <ele>163</ele>
        <time>2024-12-31T15:14:11.168Z</time>
      </trkpt>
      <trkpt lat="48.77192" lon="2.03489">
        <ele>163</ele>
        <time>2024-12-31T15:14:14.041Z</time>
      </trkpt>
      <trkpt lat="48.77197" lon="2.03491">
        <ele>163</ele>
        <time>2024-12-31T15:14:16.914Z</time>
      </trkpt>
      <trkpt lat="48.77201" lon="2.03493">
        <ele>163</ele>
        <time>2024-12-31T15:14:19.787Z</time>
      </trkpt>
      <trkpt lat="48.77205" lon="2.03495">
        <ele>163</ele>
        <time>2024-12-31T15:14:22.660Z</time>
      </trkpt>
      <trkpt lat="48.7721" lon="2.03497">
        <ele>163</ele>
        <time>2024-12-31T15:14:25.533Z</time>
      </trkpt>
      <trkpt lat="48.77214" lon="2.03499">
        <ele>163</ele>
        <time>2024-12-31T15:14:28.406Z</time>
      </trkpt>
      <trkpt lat="48.77218" lon="2.03501">
        <ele>163</ele>
        <time>2024-12-31T15:14:31.279Z</time>
      </trkpt>
      <trkpt lat="48.77223" lon="2.03503">
        <ele>162.9</ele>
        <time>2024-12-31T15:14:34.152Z</time>
      </trkpt>
      <trkpt lat="48.77227" lon="2.03505">
        <ele>162.8</ele>
        <time>2024-12-31T15:14:37.025Z</time>
      </trkpt>
      <trkpt lat="48.77231" lon="2.03507">
        <ele>162.7</ele>
        <time>2024-12-31T15:14:39.898Z</time>
      </trkpt>
      <trkpt lat="48.77236" lon="2.0351">
        <ele>162.7</ele>
        <time>2024-12-31T15:14:42.771Z</time>
      </trkpt>
      <trkpt lat="48.7724" lon="2.03512">
        <ele>162.6</ele>
        <time>2024-12-31T15:14:45.644Z</time>
      </trkpt>
      <trkpt lat="48.77244" lon="2.03514">
        <ele>162.5</ele>
        <time>2024-12-31T15:14:48.517Z</time>
      </trkpt>
      <trkpt lat="48.77249" lon="2.03516">
        <ele>162.4</ele>
        <time>2024-12-31T15:14:51.390Z</time>
      </trkpt>
      <trkpt lat="48.77253" lon="2.03518">
        <ele>162.4</ele>
        <time>2024-12-31T15:14:54.263Z</time>
      </trkpt>
      <trkpt lat="48.77257" lon="2.0352">
        <ele>162.3</ele>
        <time>2024-12-31T15:14:57.136Z</time>
      </trkpt>
      <trkpt lat="48.77262" lon="2.03522">
        <ele>162.2</ele>
        <time>2024-12-31T15:15:00.009Z</time>
      </trkpt>
      <trkpt lat="48.77266" lon="2.03524">
        <ele>162.1</ele>
        <time>2024-12-31T15:15:02.882Z</time>
      </trkpt>
      <trkpt lat="48.77272" lon="2.03527">
        <ele>162</ele>
        <time>2024-12-31T15:15:07.143Z</time>
      </trkpt>
      <trkpt lat="48.77279" lon="2.0353">
        <ele>162</ele>
        <time>2024-12-31T15:15:11.404Z</time>
      </trkpt>
      <trkpt lat="48.77285" lon="2.03532">
        <ele>162</ele>
        <time>2024-12-31T15:15:15.665Z</time>
      </trkpt>
      <trkpt lat="48.77292" lon="2.03535">
        <ele>162</ele>
        <time>2024-12-31T15:15:19.926Z</time>
      </trkpt>
      <trkpt lat="48.77298" lon="2.03538">
        <ele>162</ele>
        <time>2024-12-31T15:15:24.187Z</time>
      </trkpt>
      <trkpt lat="48.77304" lon="2.03541">
        <ele>162</ele>
        <time>2024-12-31T15:15:28.449Z</time>
      </trkpt>
      <trkpt lat="48.77311" lon="2.03544">
        <ele>162</ele>
        <time>2024-12-31T15:15:32.711Z</time>
      </trkpt>
      <trkpt lat="48.77317" lon="2.03547">
        <ele>162</ele>
        <time>2024-12-31T15:15:36.973Z</time>
      </trkpt>
      <trkpt lat="48.77323" lon="2.03549">
        <ele>162</ele>
        <time>2024-12-31T15:15:41.235Z</time>
      </trkpt>
      <trkpt lat="48.7733" lon="2.03552">
        <ele>162</ele>
        <time>2024-12-31T15:15:45.497Z</time>
      </trkpt>
      <trkpt lat="48.77336" lon="2.03555">
        <ele>162</ele>
        <time>2024-12-31T15:15:49.759Z</time>
      </trkpt>
      <trkpt lat="48.77343" lon="2.03558">
        <ele>162</ele>
        <time>2024-12-31T15:15:54.021Z</time>
      </trkpt>
      <trkpt lat="48.77349" lon="2.03561">
        <ele>162</ele>
        <time>2024-12-31T15:15:58.283Z</time>
      </trkpt>
      <trkpt lat="48.77355" lon="2.03563">
        <ele>162</ele>
        <time>2024-12-31T15:16:02.545Z</time>
      </trkpt>
      <trkpt lat="48.77362" lon="2.03566">
        <ele>162</ele>
        <time>2024-12-31T15:16:06.807Z</time>
      </trkpt>
      <trkpt lat="48.77368" lon="2.03569">
        <ele>161.9</ele>
        <time>2024-12-31T15:16:11.069Z</time>
      </trkpt>
      <trkpt lat="48.77373" lon="2.03561">
        <ele>161.9</ele>
        <time>2024-12-31T15:16:15.760Z</time>
      </trkpt>
      <trkpt lat="48.77379" lon="2.03564">
        <ele>161.8</ele>
        <time>2024-12-31T15:16:19.555Z</time>
      </trkpt>
      <trkpt lat="48.77385" lon="2.03567">
        <ele>161.6</ele>
        <time>2024-12-31T15:16:23.350Z</time>
      </trkpt>
      <trkpt lat="48.77392" lon="2.03572">
        <ele>161.4</ele>
        <time>2024-12-31T15:16:27.969Z</time>
      </trkpt>
      <trkpt lat="48.77397" lon="2.03574">
        <ele>161.2</ele>
        <time>2024-12-31T15:16:30.718Z</time>
      </trkpt>
      <trkpt lat="48.77401" lon="2.03576">
        <ele>161.1</ele>
        <time>2024-12-31T15:16:33.467Z</time>
      </trkpt>
      <trkpt lat="48.77408" lon="2.03578">
        <ele>161.1</ele>
        <time>2024-12-31T15:16:38.066Z</time>
      </trkpt>
      <trkpt lat="48.77413" lon="2.0358">
        <ele>161</ele>
        <time>2024-12-31T15:16:41.214Z</time>
      </trkpt>
      <trkpt lat="48.77419" lon="2.0359">
        <ele>161</ele>
        <time>2024-12-31T15:16:46.968Z</time>
      </trkpt>
      <trkpt lat="48.77419" lon="2.03594">
        <ele>161</ele>
        <time>2024-12-31T15:16:48.670Z</time>
      </trkpt>
      <trkpt lat="48.77426" lon="2.03597">
        <ele>160.8</ele>
        <time>2024-12-31T15:16:52.977Z</time>
      </trkpt>
      <trkpt lat="48.77433" lon="2.03601">
        <ele>160.6</ele>
        <time>2024-12-31T15:16:57.284Z</time>
      </trkpt>
      <trkpt lat="48.7744" lon="2.03604">
        <ele>160.4</ele>
        <time>2024-12-31T15:17:01.591Z</time>
      </trkpt>
      <trkpt lat="48.77447" lon="2.03607">
        <ele>160.1</ele>
        <time>2024-12-31T15:17:05.899Z</time>
      </trkpt>
      <trkpt lat="48.77452" lon="2.03609">
        <ele>159.8</ele>
        <time>2024-12-31T15:17:08.697Z</time>
      </trkpt>
      <trkpt lat="48.77456" lon="2.03611">
        <ele>159.6</ele>
        <time>2024-12-31T15:17:11.495Z</time>
      </trkpt>
      <trkpt lat="48.77461" lon="2.03614">
        <ele>159.4</ele>
        <time>2024-12-31T15:17:14.293Z</time>
      </trkpt>
      <trkpt lat="48.77466" lon="2.03616">
        <ele>159.2</ele>
        <time>2024-12-31T15:17:17.091Z</time>
      </trkpt>
      <trkpt lat="48.7747" lon="2.03618">
        <ele>159.1</ele>
        <time>2024-12-31T15:17:19.889Z</time>
      </trkpt>
      <trkpt lat="48.77475" lon="2.0362">
        <ele>158.9</ele>
        <time>2024-12-31T15:17:22.687Z</time>
      </trkpt>
      <trkpt lat="48.77479" lon="2.03623">
        <ele>158.7</ele>
        <time>2024-12-31T15:17:25.485Z</time>
      </trkpt>
      <trkpt lat="48.77484" lon="2.03625">
        <ele>158.6</ele>
        <time>2024-12-31T15:17:28.284Z</time>
      </trkpt>
      <trkpt lat="48.77489" lon="2.03627">
        <ele>158.4</ele>
        <time>2024-12-31T15:17:31.083Z</time>
      </trkpt>
      <trkpt lat="48.77493" lon="2.03629">
        <ele>158.2</ele>
        <time>2024-12-31T15:17:33.882Z</time>
      </trkpt>
      <trkpt lat="48.77498" lon="2.03631">
        <ele>158.1</ele>
        <time>2024-12-31T15:17:36.681Z</time>
      </trkpt>
      <trkpt lat="48.77503" lon="2.03634">
        <ele>157.9</ele>
        <time>2024-12-31T15:17:39.480Z</time>
      </trkpt>
      <trkpt lat="48.77507" lon="2.03636">
        <ele>157.8</ele>
        <time>2024-12-31T15:17:42.279Z</time>
      </trkpt>
      <trkpt lat="48.77512" lon="2.03638">
        <ele>157.6</ele>
        <time>2024-12-31T15:17:45.078Z</time>
      </trkpt>
      <trkpt lat="48.77516" lon="2.0364">
        <ele>157.4</ele>
        <time>2024-12-31T15:17:47.877Z</time>
      </trkpt>
      <trkpt lat="48.77521" lon="2.03643">
        <ele>157.1</ele>
        <time>2024-12-31T15:17:50.676Z</time>
      </trkpt>
      <trkpt lat="48.77526" lon="2.03645">
        <ele>156.9</ele>
        <time>2024-12-31T15:17:53.475Z</time>
      </trkpt>
      <trkpt lat="48.7753" lon="2.03647">
        <ele>156.7</ele>
        <time>2024-12-31T15:17:56.274Z</time>
      </trkpt>
      <trkpt lat="48.77535" lon="2.03649">
        <ele>156.5</ele>
        <time>2024-12-31T15:17:59.073Z</time>
      </trkpt>
      <trkpt lat="48.7754" lon="2.03651">
        <ele>156.4</ele>
        <time>2024-12-31T15:18:01.872Z</time>
      </trkpt>
      <trkpt lat="48.77544" lon="2.03654">
        <ele>156.2</ele>
        <time>2024-12-31T15:18:04.671Z</time>
      </trkpt>
      <trkpt lat="48.77549" lon="2.03656">
        <ele>155.9</ele>
        <time>2024-12-31T15:18:07.470Z</time>
      </trkpt>
      <trkpt lat="48.77553" lon="2.03658">
        <ele>155.7</ele>
        <time>2024-12-31T15:18:10.269Z</time>
      </trkpt>
      <trkpt lat="48.77558" lon="2.0366">
        <ele>155.5</ele>
        <time>2024-12-31T15:18:13.068Z</time>
      </trkpt>
      <trkpt lat="48.77563" lon="2.03663">
        <ele>155.3</ele>
        <time>2024-12-31T15:18:15.867Z</time>
      </trkpt>
      <trkpt lat="48.77567" lon="2.03665">
        <ele>155.1</ele>
        <time>2024-12-31T15:18:18.666Z</time>
      </trkpt>
      <trkpt lat="48.77572" lon="2.03667">
        <ele>155</ele>
        <time>2024-12-31T15:18:21.465Z</time>
      </trkpt>
      <trkpt lat="48.77577" lon="2.03669">
        <ele>154.9</ele>
        <time>2024-12-31T15:18:24.264Z</time>
      </trkpt>
      <trkpt lat="48.77581" lon="2.03671">
        <ele>154.8</ele>
        <time>2024-12-31T15:18:27.063Z</time>
      </trkpt>
      <trkpt lat="48.77586" lon="2.03674">
        <ele>154.7</ele>
        <time>2024-12-31T15:18:29.862Z</time>
      </trkpt>
      <trkpt lat="48.7759" lon="2.03676">
        <ele>154.5</ele>
        <time>2024-12-31T15:18:32.661Z</time>
      </trkpt>
      <trkpt lat="48.77595" lon="2.03678">
        <ele>154.3</ele>
        <time>2024-12-31T15:18:35.460Z</time>
      </trkpt>
      <trkpt lat="48.77599" lon="2.03679">
        <ele>154.2</ele>
        <time>2024-12-31T15:18:37.889Z</time>
      </trkpt>
      <trkpt lat="48.77606" lon="2.03683">
        <ele>154.1</ele>
        <time>2024-12-31T15:18:42.390Z</time>
      </trkpt>
      <trkpt lat="48.77613" lon="2.03686">
        <ele>154</ele>
        <time>2024-12-31T15:18:46.891Z</time>
      </trkpt>
      <trkpt lat="48.77619" lon="2.0369">
        <ele>154</ele>
        <time>2024-12-31T15:18:51.392Z</time>
      </trkpt>
      <trkpt lat="48.77626" lon="2.03694">
        <ele>154</ele>
        <time>2024-12-31T15:18:55.893Z</time>
      </trkpt>
      <trkpt lat="48.77633" lon="2.03697">
        <ele>154</ele>
        <time>2024-12-31T15:19:00.394Z</time>
      </trkpt>
      <trkpt lat="48.7764" lon="2.03701">
        <ele>154</ele>
        <time>2024-12-31T15:19:04.895Z</time>
      </trkpt>
      <trkpt lat="48.77646" lon="2.03704">
        <ele>153.8</ele>
        <time>2024-12-31T15:19:09.396Z</time>
      </trkpt>
      <trkpt lat="48.77653" lon="2.03708">
        <ele>153.7</ele>
        <time>2024-12-31T15:19:13.897Z</time>
      </trkpt>
      <trkpt lat="48.77659" lon="2.0371">
        <ele>153.7</ele>
        <time>2024-12-31T15:19:17.548Z</time>
      </trkpt>
      <trkpt lat="48.77664" lon="2.03712">
        <ele>153.7</ele>
        <time>2024-12-31T15:19:21.200Z</time>
      </trkpt>
      <trkpt lat="48.77667" lon="2.0371">
        <ele>153.6</ele>
        <time>2024-12-31T15:19:23.130Z</time>
      </trkpt>
      <trkpt lat="48.77673" lon="2.03714">
        <ele>153.8</ele>
        <time>2024-12-31T15:19:27.818Z</time>
      </trkpt>
      <trkpt lat="48.77679" lon="2.03719">
        <ele>153.9</ele>
        <time>2024-12-31T15:19:32.507Z</time>
      </trkpt>
      <trkpt lat="48.77685" lon="2.03723">
        <ele>154</ele>
        <time>2024-12-31T15:19:37.196Z</time>
      </trkpt>
      <trkpt lat="48.77692" lon="2.03727">
        <ele>154</ele>
        <time>2024-12-31T15:19:41.885Z</time>
      </trkpt>
      <trkpt lat="48.77698" lon="2.03731">
        <ele>154.2</ele>
        <time>2024-12-31T15:19:46.574Z</time>
      </trkpt>
      <trkpt lat="48.77704" lon="2.03736">
        <ele>154.5</ele>
        <time>2024-12-31T15:19:51.263Z</time>
      </trkpt>
      <trkpt lat="48.7771" lon="2.0374">
        <ele>154.8</ele>
        <time>2024-12-31T15:19:55.952Z</time>
      </trkpt>
      <trkpt lat="48.77716" lon="2.03744">
        <ele>154.9</ele>
        <time>2024-12-31T15:20:00.641Z</time>
      </trkpt>
      <trkpt lat="48.77721" lon="2.03746">
        <ele>155.1</ele>
        <time>2024-12-31T15:20:04.412Z</time>
      </trkpt>
      <trkpt lat="48.77723" lon="2.03746">
        <ele>155.2</ele>
        <time>2024-12-31T15:20:05.926Z</time>
      </trkpt>
      <trkpt lat="48.77726" lon="2.03752">
        <ele>155.2</ele>
        <time>2024-12-31T15:20:09.172Z</time>
      </trkpt>
      <trkpt lat="48.77729" lon="2.03757">
        <ele>155.4</ele>
        <time>2024-12-31T15:20:12.418Z</time>
      </trkpt>
      <trkpt lat="48.77736" lon="2.03761">
        <ele>155.7</ele>
        <time>2024-12-31T15:20:17.323Z</time>
      </trkpt>
      <trkpt lat="48.77742" lon="2.03765">
        <ele>155.9</ele>
        <time>2024-12-31T15:20:22.228Z</time>
      </trkpt>
      <trkpt lat="48.77749" lon="2.03769">
        <ele>156</ele>
        <time>2024-12-31T15:20:27.133Z</time>
      </trkpt>
      <trkpt lat="48.77755" lon="2.03773">
        <ele>156.2</ele>
        <time>2024-12-31T15:20:32.038Z</time>
      </trkpt>
      <trkpt lat="48.77762" lon="2.03777">
        <ele>156.4</ele>
        <time>2024-12-31T15:20:36.943Z</time>
      </trkpt>
      <trkpt lat="48.77768" lon="2.03781">
        <ele>156.7</ele>
        <time>2024-12-31T15:20:41.849Z</time>
      </trkpt>
      <trkpt lat="48.77775" lon="2.03785">
        <ele>156.9</ele>
        <time>2024-12-31T15:20:46.755Z</time>
      </trkpt>
      <trkpt lat="48.77782" lon="2.03789">
        <ele>157.1</ele>
        <time>2024-12-31T15:20:51.661Z</time>
      </trkpt>
      <trkpt lat="48.77788" lon="2.03793">
        <ele>157.2</ele>
        <time>2024-12-31T15:20:56.567Z</time>
      </trkpt>
      <trkpt lat="48.77795" lon="2.03797">
        <ele>157.4</ele>
        <time>2024-12-31T15:21:01.473Z</time>
      </trkpt>
      <trkpt lat="48.77801" lon="2.03801">
        <ele>157.7</ele>
        <time>2024-12-31T15:21:06.379Z</time>
      </trkpt>
      <trkpt lat="48.77808" lon="2.03805">
        <ele>158</ele>
        <time>2024-12-31T15:21:11.285Z</time>
      </trkpt>
      <trkpt lat="48.77814" lon="2.03809">
        <ele>158</ele>
        <time>2024-12-31T15:21:16.191Z</time>
      </trkpt>
      <trkpt lat="48.77821" lon="2.03813">
        <ele>158</ele>
        <time>2024-12-31T15:21:21.097Z</time>
      </trkpt>
      <trkpt lat="48.77827" lon="2.03817">
        <ele>158</ele>
        <time>2024-12-31T15:21:26.003Z</time>
      </trkpt>
      <trkpt lat="48.77834" lon="2.03821">
        <ele>158</ele>
        <time>2024-12-31T15:21:30.909Z</time>
      </trkpt>
      <trkpt lat="48.77841" lon="2.03826">
        <ele>157.7</ele>
        <time>2024-12-31T15:21:35.690Z</time>
      </trkpt>
      <trkpt lat="48.77848" lon="2.0383">
        <ele>157.5</ele>
        <time>2024-12-31T15:21:40.471Z</time>
      </trkpt>
      <trkpt lat="48.77855" lon="2.03835">
        <ele>157.2</ele>
        <time>2024-12-31T15:21:45.252Z</time>
      </trkpt>
      <trkpt lat="48.77862" lon="2.0384">
        <ele>157</ele>
        <time>2024-12-31T15:21:50.033Z</time>
      </trkpt>
      <trkpt lat="48.77869" lon="2.03844">
        <ele>157</ele>
        <time>2024-12-31T15:21:54.814Z</time>
      </trkpt>
      <trkpt lat="48.77876" lon="2.03849">
        <ele>157</ele>
        <time>2024-12-31T15:21:59.595Z</time>
      </trkpt>
      <trkpt lat="48.77883" lon="2.03854">
        <ele>157</ele>
        <time>2024-12-31T15:22:04.376Z</time>
      </trkpt>
      <trkpt lat="48.7789" lon="2.03859">
        <ele>157</ele>
        <time>2024-12-31T15:22:09.157Z</time>
      </trkpt>
      <trkpt lat="48.77896" lon="2.03863">
        <ele>157</ele>
        <time>2024-12-31T15:22:13.938Z</time>
      </trkpt>
      <trkpt lat="48.77903" lon="2.03868">
        <ele>157.1</ele>
        <time>2024-12-31T15:22:18.719Z</time>
      </trkpt>
      <trkpt lat="48.7791" lon="2.03873">
        <ele>157.3</ele>
        <time>2024-12-31T15:22:23.500Z</time>
      </trkpt>
      <trkpt lat="48.77917" lon="2.03877">
        <ele>157.6</ele>
        <time>2024-12-31T15:22:28.281Z</time>
      </trkpt>
      <trkpt lat="48.77924" lon="2.03882">
        <ele>157.5</ele>
        <time>2024-12-31T15:22:33.062Z</time>
      </trkpt>
      <trkpt lat="48.77931" lon="2.03887">
        <ele>157.4</ele>
        <time>2024-12-31T15:22:37.843Z</time>
      </trkpt>
      <trkpt lat="48.77938" lon="2.03891">
        <ele>157.2</ele>
        <time>2024-12-31T15:22:42.624Z</time>
      </trkpt>
      <trkpt lat="48.77945" lon="2.03896">
        <ele>157</ele>
        <time>2024-12-31T15:22:47.405Z</time>
      </trkpt>
      <trkpt lat="48.77948" lon="2.03895">
        <ele>157</ele>
        <time>2024-12-31T15:22:49.388Z</time>
      </trkpt>
      <trkpt lat="48.7795" lon="2.03897">
        <ele>157</ele>
        <time>2024-12-31T15:22:50.934Z</time>
      </trkpt>
      <trkpt lat="48.77958" lon="2.03903">
        <ele>157</ele>
        <time>2024-12-31T15:22:56.696Z</time>
      </trkpt>
      <trkpt lat="48.77966" lon="2.03908">
        <ele>157</ele>
        <time>2024-12-31T15:23:02.282Z</time>
      </trkpt>
      <trkpt lat="48.77971" lon="2.03911">
        <ele>157</ele>
        <time>2024-12-31T15:23:05.753Z</time>
      </trkpt>
      <trkpt lat="48.77976" lon="2.03914">
        <ele>157</ele>
        <time>2024-12-31T15:23:09.225Z</time>
      </trkpt>
      <trkpt lat="48.77974" lon="2.03922">
        <ele>157</ele>
        <time>2024-12-31T15:23:12.865Z</time>
      </trkpt>
      <trkpt lat="48.77972" lon="2.03932">
        <ele>157</ele>
        <time>2024-12-31T15:23:17.216Z</time>
      </trkpt>
      <trkpt lat="48.77969" lon="2.03941">
        <ele>157</ele>
        <time>2024-12-31T15:23:21.569Z</time>
      </trkpt>
      <trkpt lat="48.77967" lon="2.03949">
        <ele>157</ele>
        <time>2024-12-31T15:23:25.209Z</time>
      </trkpt>
      <trkpt lat="48.77966" lon="2.0395">
        <ele>157</ele>
        <time>2024-12-31T15:23:25.983Z</time>
      </trkpt>
      <trkpt lat="48.77974" lon="2.03955">
        <ele>157</ele>
        <time>2024-12-31T15:23:31.569Z</time>
      </trkpt>
      <trkpt lat="48.77982" lon="2.0396">
        <ele>157</ele>
        <time>2024-12-31T15:23:37.155Z</time>
      </trkpt>
      <trkpt lat="48.7799" lon="2.03965">
        <ele>157</ele>
        <time>2024-12-31T15:23:42.741Z</time>
      </trkpt>
      <trkpt lat="48.77998" lon="2.0397">
        <ele>157</ele>
        <time>2024-12-31T15:23:48.327Z</time>
      </trkpt>
      <trkpt lat="48.78003" lon="2.03974">
        <ele>157</ele>
        <time>2024-12-31T15:23:51.591Z</time>
      </trkpt>
      <trkpt lat="48.78007" lon="2.03977">
        <ele>157</ele>
        <time>2024-12-31T15:23:54.856Z</time>
      </trkpt>
      <trkpt lat="48.78012" lon="2.03981">
        <ele>157</ele>
        <time>2024-12-31T15:23:58.121Z</time>
      </trkpt>
      <trkpt lat="48.78016" lon="2.03984">
        <ele>157</ele>
        <time>2024-12-31T15:24:01.386Z</time>
      </trkpt>
      <trkpt lat="48.7802" lon="2.03988">
        <ele>157</ele>
        <time>2024-12-31T15:24:04.478Z</time>
      </trkpt>
      <trkpt lat="48.78024" lon="2.03992">
        <ele>157</ele>
        <time>2024-12-31T15:24:07.571Z</time>
      </trkpt>
      <trkpt lat="48.7803" lon="2.03999">
        <ele>156.9</ele>
        <time>2024-12-31T15:24:12.264Z</time>
      </trkpt>
      <trkpt lat="48.78035" lon="2.04002">
        <ele>156.7</ele>
        <time>2024-12-31T15:24:15.599Z</time>
      </trkpt>
      <trkpt lat="48.78041" lon="2.04006">
        <ele>156.5</ele>
        <time>2024-12-31T15:24:18.934Z</time>
      </trkpt>
      <trkpt lat="48.78046" lon="2.04009">
        <ele>156.4</ele>
        <time>2024-12-31T15:24:22.269Z</time>
      </trkpt>
      <trkpt lat="48.78051" lon="2.04012">
        <ele>156.2</ele>
        <time>2024-12-31T15:24:25.604Z</time>
      </trkpt>
      <trkpt lat="48.78058" lon="2.04017">
        <ele>156</ele>
        <time>2024-12-31T15:24:30.501Z</time>
      </trkpt>
      <trkpt lat="48.78065" lon="2.04022">
        <ele>156</ele>
        <time>2024-12-31T15:24:35.398Z</time>
      </trkpt>
      <trkpt lat="48.78072" lon="2.04027">
        <ele>156</ele>
        <time>2024-12-31T15:24:40.295Z</time>
      </trkpt>
      <trkpt lat="48.78079" lon="2.04032">
        <ele>156</ele>
        <time>2024-12-31T15:24:45.193Z</time>
      </trkpt>
      <trkpt lat="48.78085" lon="2.04036">
        <ele>156</ele>
        <time>2024-12-31T15:24:49.424Z</time>
      </trkpt>
      <trkpt lat="48.78087" lon="2.04038">
        <ele>156</ele>
        <time>2024-12-31T15:24:50.970Z</time>
      </trkpt>
      <trkpt lat="48.7809" lon="2.0404">
        <ele>156</ele>
        <time>2024-12-31T15:24:53.086Z</time>
      </trkpt>
      <trkpt lat="48.78098" lon="2.04045">
        <ele>156</ele>
        <time>2024-12-31T15:24:58.672Z</time>
      </trkpt>
      <trkpt lat="48.78103" lon="2.04048">
        <ele>156</ele>
        <time>2024-12-31T15:25:02.143Z</time>
      </trkpt>
      <trkpt lat="48.78106" lon="2.04041">
        <ele>156</ele>
        <time>2024-12-31T15:25:05.696Z</time>
      </trkpt>
      <trkpt lat="48.78114" lon="2.04044">
        <ele>156</ele>
        <time>2024-12-31T15:25:11.016Z</time>
      </trkpt>
      <trkpt lat="48.78119" lon="2.04047">
        <ele>156</ele>
        <time>2024-12-31T15:25:14.700Z</time>
      </trkpt>
      <trkpt lat="48.78125" lon="2.04051">
        <ele>156</ele>
        <time>2024-12-31T15:25:18.384Z</time>
      </trkpt>
      <trkpt lat="48.7813" lon="2.04054">
        <ele>156</ele>
        <time>2024-12-31T15:25:22.068Z</time>
      </trkpt>
      <trkpt lat="48.78136" lon="2.04057">
        <ele>155.9</ele>
        <time>2024-12-31T15:25:25.752Z</time>
      </trkpt>
      <trkpt lat="48.78141" lon="2.04061">
        <ele>155.8</ele>
        <time>2024-12-31T15:25:29.436Z</time>
      </trkpt>
      <trkpt lat="48.78146" lon="2.04064">
        <ele>155.8</ele>
        <time>2024-12-31T15:25:33.120Z</time>
      </trkpt>
      <trkpt lat="48.78152" lon="2.04067">
        <ele>155.8</ele>
        <time>2024-12-31T15:25:36.804Z</time>
      </trkpt>
      <trkpt lat="48.78157" lon="2.04071">
        <ele>155.8</ele>
        <time>2024-12-31T15:25:40.488Z</time>
      </trkpt>
      <trkpt lat="48.78162" lon="2.04074">
        <ele>155.9</ele>
        <time>2024-12-31T15:25:44.172Z</time>
      </trkpt>
      <trkpt lat="48.78168" lon="2.04077">
        <ele>156</ele>
        <time>2024-12-31T15:25:47.856Z</time>
      </trkpt>
      <trkpt lat="48.78173" lon="2.0408">
        <ele>156</ele>
        <time>2024-12-31T15:25:51.540Z</time>
      </trkpt>
      <trkpt lat="48.78179" lon="2.04084">
        <ele>156</ele>
        <time>2024-12-31T15:25:55.224Z</time>
      </trkpt>
      <trkpt lat="48.78184" lon="2.04087">
        <ele>155.9</ele>
        <time>2024-12-31T15:25:58.908Z</time>
      </trkpt>
      <trkpt lat="48.78189" lon="2.0409">
        <ele>155.7</ele>
        <time>2024-12-31T15:26:02.592Z</time>
      </trkpt>
      <trkpt lat="48.78195" lon="2.04094">
        <ele>155.6</ele>
        <time>2024-12-31T15:26:06.277Z</time>
      </trkpt>
      <trkpt lat="48.782" lon="2.04097">
        <ele>155.5</ele>
        <time>2024-12-31T15:26:09.962Z</time>
      </trkpt>
      <trkpt lat="48.78208" lon="2.04103">
        <ele>155.3</ele>
        <time>2024-12-31T15:26:15.586Z</time>
      </trkpt>
      <trkpt lat="48.78216" lon="2.04108">
        <ele>155.1</ele>
        <time>2024-12-31T15:26:21.210Z</time>
      </trkpt>
      <trkpt lat="48.78223" lon="2.04114">
        <ele>155</ele>
        <time>2024-12-31T15:26:26.835Z</time>
      </trkpt>
      <trkpt lat="48.78231" lon="2.04119">
        <ele>155.7</ele>
        <time>2024-12-31T15:26:32.460Z</time>
      </trkpt>
      <trkpt lat="48.78236" lon="2.04123">
        <ele>156.1</ele>
        <time>2024-12-31T15:26:36.952Z</time>
      </trkpt>
      <trkpt lat="48.78241" lon="2.04126">
        <ele>156.5</ele>
        <time>2024-12-31T15:26:41.445Z</time>
      </trkpt>
      <trkpt lat="48.78246" lon="2.0413">
        <ele>156.9</ele>
        <time>2024-12-31T15:26:45.938Z</time>
      </trkpt>
      <trkpt lat="48.78251" lon="2.04133">
        <ele>157.3</ele>
        <time>2024-12-31T15:26:50.431Z</time>
      </trkpt>
      <trkpt lat="48.78256" lon="2.04139">
        <ele>157.4</ele>
        <time>2024-12-31T15:26:54.752Z</time>
      </trkpt>
      <trkpt lat="48.7826" lon="2.04142">
        <ele>157.6</ele>
        <time>2024-12-31T15:26:57.637Z</time>
      </trkpt>
      <trkpt lat="48.78265" lon="2.04145">
        <ele>157.6</ele>
        <time>2024-12-31T15:27:00.523Z</time>
      </trkpt>
      <trkpt lat="48.78269" lon="2.04147">
        <ele>157.6</ele>
        <time>2024-12-31T15:27:03.409Z</time>
      </trkpt>
      <trkpt lat="48.78273" lon="2.0415">
        <ele>157.6</ele>
        <time>2024-12-31T15:27:06.295Z</time>
      </trkpt>
      <trkpt lat="48.78277" lon="2.04153">
        <ele>157.5</ele>
        <time>2024-12-31T15:27:09.181Z</time>
      </trkpt>
      <trkpt lat="48.78282" lon="2.04156">
        <ele>157.3</ele>
        <time>2024-12-31T15:27:12.067Z</time>
      </trkpt>
      <trkpt lat="48.78286" lon="2.04158">
        <ele>157.1</ele>
        <time>2024-12-31T15:27:14.953Z</time>
      </trkpt>
      <trkpt lat="48.7829" lon="2.04161">
        <ele>157</ele>
        <time>2024-12-31T15:27:17.839Z</time>
      </trkpt>
      <trkpt lat="48.78292" lon="2.04165">
        <ele>156.7</ele>
        <time>2024-12-31T15:27:19.708Z</time>
        <extensions>
          <visugpx:TrkExtension xmlns:visugpx="https://www.visugpx.com/editgpx/">
            <visugpx:node>6</visugpx:node>
            </visugpx:TrkExtension>
        </extensions>
      </trkpt>
      <trkpt lat="48.78292" lon="2.04166">
        <ele>156.6</ele>
        <time>2024-12-31T15:27:20.080Z</time>
      </trkpt>
      <trkpt lat="48.78299" lon="2.04159">
        <ele>157.4</ele>
        <time>2024-12-31T15:27:27.474Z</time>
      </trkpt>
      <trkpt lat="48.78301" lon="2.04156">
        <ele>157.7</ele>
        <time>2024-12-31T15:27:30.054Z</time>
      </trkpt>
      <trkpt lat="48.78307" lon="2.0415">
        <ele>158.3</ele>
        <time>2024-12-31T15:27:36.137Z</time>
      </trkpt>
      <trkpt lat="48.78313" lon="2.04144">
        <ele>159</ele>
        <time>2024-12-31T15:27:42.332Z</time>
      </trkpt>
      <trkpt lat="48.78319" lon="2.04137">
        <ele>159.5</ele>
        <time>2024-12-31T15:27:48.528Z</time>
      </trkpt>
      <trkpt lat="48.78323" lon="2.04137">
        <ele>159.6</ele>
        <time>2024-12-31T15:27:51.321Z</time>
      </trkpt>
      <trkpt lat="48.78328" lon="2.04132">
        <ele>159.8</ele>
        <time>2024-12-31T15:27:55.615Z</time>
      </trkpt>
      <trkpt lat="48.78331" lon="2.04138">
        <ele>159.9</ele>
        <time>2024-12-31T15:27:59.517Z</time>
      </trkpt>
      <trkpt lat="48.78334" lon="2.04145">
        <ele>160</ele>
        <time>2024-12-31T15:28:03.419Z</time>
      </trkpt>
      <trkpt lat="48.78337" lon="2.04151">
        <ele>160.2</ele>
        <time>2024-12-31T15:28:07.321Z</time>
      </trkpt>
      <trkpt lat="48.78341" lon="2.04158">
        <ele>160.4</ele>
        <time>2024-12-31T15:28:11.223Z</time>
      </trkpt>
      <trkpt lat="48.78344" lon="2.04164">
        <ele>160.7</ele>
        <time>2024-12-31T15:28:15.126Z</time>
      </trkpt>
      <trkpt lat="48.78347" lon="2.0417">
        <ele>161</ele>
        <time>2024-12-31T15:28:19.029Z</time>
      </trkpt>
      <trkpt lat="48.7835" lon="2.04177">
        <ele>161.3</ele>
        <time>2024-12-31T15:28:22.932Z</time>
      </trkpt>
      <trkpt lat="48.78353" lon="2.04183">
        <ele>161.7</ele>
        <time>2024-12-31T15:28:26.835Z</time>
        <extensions>
          <visugpx:TrkExtension xmlns:visugpx="https://www.visugpx.com/editgpx/">
            <visugpx:node>5</visugpx:node>
            </visugpx:TrkExtension>
        </extensions>
      </trkpt>
      <trkpt lat="48.78356" lon="2.04189">
        <ele>162.1</ele>
        <time>2024-12-31T15:28:30.937Z</time>
      </trkpt>
      <trkpt lat="48.78359" lon="2.04196">
        <ele>162.7</ele>
        <time>2024-12-31T15:28:35.039Z</time>
      </trkpt>
      <trkpt lat="48.78362" lon="2.04202">
        <ele>163</ele>
        <time>2024-12-31T15:28:39.141Z</time>
      </trkpt>
      <trkpt lat="48.78365" lon="2.04208">
        <ele>163.1</ele>
        <time>2024-12-31T15:28:43.244Z</time>
      </trkpt>
      <trkpt lat="48.78368" lon="2.04215">
        <ele>163.3</ele>
        <time>2024-12-31T15:28:46.976Z</time>
      </trkpt>
      <trkpt lat="48.78372" lon="2.04221">
        <ele>163.4</ele>
        <time>2024-12-31T15:28:50.708Z</time>
      </trkpt>
      <trkpt lat="48.78375" lon="2.04228">
        <ele>163.5</ele>
        <time>2024-12-31T15:28:54.441Z</time>
      </trkpt>
      <trkpt lat="48.78378" lon="2.04234">
        <ele>163.6</ele>
        <time>2024-12-31T15:28:58.174Z</time>
        <extensions>
          <visugpx:TrkExtension xmlns:visugpx="https://www.visugpx.com/editgpx/">
            <visugpx:node>4</visugpx:node>
            </visugpx:TrkExtension>
        </extensions>
      </trkpt>
      <trkpt lat="48.78378" lon="2.04234">
        <ele>163.6</ele>
        <time>2024-12-31T15:28:58.174Z</time>
      </trkpt>
      <trkpt lat="48.78383" lon="2.04227">
        <ele>163.8</ele>
        <time>2024-12-31T15:29:02.990Z</time>
      </trkpt>
      <trkpt lat="48.78385" lon="2.04224">
        <ele>163.9</ele>
        <time>2024-12-31T15:29:05.021Z</time>
      </trkpt>
      <trkpt lat="48.7839" lon="2.0422">
        <ele>164</ele>
        <time>2024-12-31T15:29:08.601Z</time>
      </trkpt>
      <trkpt lat="48.78394" lon="2.04215">
        <ele>164</ele>
        <time>2024-12-31T15:29:12.182Z</time>
      </trkpt>
      <trkpt lat="48.78397" lon="2.04211">
        <ele>164</ele>
        <time>2024-12-31T15:29:14.761Z</time>
      </trkpt>
      <trkpt lat="48.78405" lon="2.04205">
        <ele>164</ele>
        <time>2024-12-31T15:29:20.522Z</time>
      </trkpt>
      <trkpt lat="48.7841" lon="2.04203">
        <ele>164</ele>
        <time>2024-12-31T15:29:23.860Z</time>
      </trkpt>
      <trkpt lat="48.78417" lon="2.04202">
        <ele>164</ele>
        <time>2024-12-31T15:29:28.400Z</time>
      </trkpt>
      <trkpt lat="48.78425" lon="2.04206">
        <ele>164</ele>
        <time>2024-12-31T15:29:33.838Z</time>
      </trkpt>
      <trkpt lat="48.78429" lon="2.04205">
        <ele>164</ele>
        <time>2024-12-31T15:29:36.455Z</time>
      </trkpt>
      <trkpt lat="48.78434" lon="2.04199">
        <ele>164</ele>
        <time>2024-12-31T15:29:40.322Z</time>
      </trkpt>
      <trkpt lat="48.78438" lon="2.04193">
        <ele>164</ele>
        <time>2024-12-31T15:29:44.190Z</time>
      </trkpt>
      <trkpt lat="48.78443" lon="2.04188">
        <ele>164.2</ele>
        <time>2024-12-31T15:29:48.849Z</time>
      </trkpt>
      <trkpt lat="48.78448" lon="2.04183">
        <ele>164.7</ele>
        <time>2024-12-31T15:29:53.509Z</time>
      </trkpt>
      <trkpt lat="48.78453" lon="2.04178">
        <ele>165.2</ele>
        <time>2024-12-31T15:29:58.264Z</time>
      </trkpt>
      <trkpt lat="48.78458" lon="2.04173">
        <ele>165.7</ele>
        <time>2024-12-31T15:30:03.019Z</time>
      </trkpt>
      <trkpt lat="48.78462" lon="2.04167">
        <ele>166.3</ele>
        <time>2024-12-31T15:30:07.774Z</time>
      </trkpt>
      <trkpt lat="48.78467" lon="2.04162">
        <ele>166.6</ele>
        <time>2024-12-31T15:30:12.529Z</time>
      </trkpt>
      <trkpt lat="48.78472" lon="2.04157">
        <ele>167</ele>
        <time>2024-12-31T15:30:17.284Z</time>
      </trkpt>
      <trkpt lat="48.78477" lon="2.04152">
        <ele>167.2</ele>
        <time>2024-12-31T15:30:22.039Z</time>
      </trkpt>
      <trkpt lat="48.78481" lon="2.04146">
        <ele>167.6</ele>
        <time>2024-12-31T15:30:26.794Z</time>
      </trkpt>
      <trkpt lat="48.78486" lon="2.04141">
        <ele>168</ele>
        <time>2024-12-31T15:30:31.550Z</time>
      </trkpt>
      <trkpt lat="48.78487" lon="2.04131">
        <ele>167.9</ele>
        <time>2024-12-31T15:30:35.660Z</time>
      </trkpt>
      <trkpt lat="48.78488" lon="2.04125">
        <ele>167.9</ele>
        <time>2024-12-31T15:30:38.293Z</time>
      </trkpt>
      <trkpt lat="48.7849" lon="2.04114">
        <ele>167.7</ele>
        <time>2024-12-31T15:30:42.772Z</time>
      </trkpt>
      <trkpt lat="48.78496" lon="2.04107">
        <ele>167.1</ele>
        <time>2024-12-31T15:30:46.949Z</time>
      </trkpt>
      <trkpt lat="48.78501" lon="2.04099">
        <ele>165.7</ele>
        <time>2024-12-31T15:30:51.126Z</time>
      </trkpt>
      <trkpt lat="48.78506" lon="2.04098">
        <ele>165.1</ele>
        <time>2024-12-31T15:30:54.005Z</time>
      </trkpt>
      <trkpt lat="48.78511" lon="2.04096">
        <ele>164.6</ele>
        <time>2024-12-31T15:30:56.884Z</time>
      </trkpt>
      <trkpt lat="48.78517" lon="2.04098">
        <ele>164.3</ele>
        <time>2024-12-31T15:31:00.041Z</time>
      </trkpt>
      <trkpt lat="48.78522" lon="2.04099">
        <ele>164</ele>
        <time>2024-12-31T15:31:03.198Z</time>
      </trkpt>
      <trkpt lat="48.78527" lon="2.04093">
        <ele>163.4</ele>
        <time>2024-12-31T15:31:06.799Z</time>
      </trkpt>
      <trkpt lat="48.78531" lon="2.04089">
        <ele>163.3</ele>
        <time>2024-12-31T15:31:10.589Z</time>
      </trkpt>
      <trkpt lat="48.78534" lon="2.04085">
        <ele>163.3</ele>
        <time>2024-12-31T15:31:14.379Z</time>
      </trkpt>
      <trkpt lat="48.78538" lon="2.04081">
        <ele>163.4</ele>
        <time>2024-12-31T15:31:18.169Z</time>
      </trkpt>
      <trkpt lat="48.78542" lon="2.04077">
        <ele>163.5</ele>
        <time>2024-12-31T15:31:21.959Z</time>
      </trkpt>
      <trkpt lat="48.78545" lon="2.04072">
        <ele>163.6</ele>
        <time>2024-12-31T15:31:25.749Z</time>
      </trkpt>
      <trkpt lat="48.78549" lon="2.04068">
        <ele>163.8</ele>
        <time>2024-12-31T15:31:29.539Z</time>
      </trkpt>
      <trkpt lat="48.78552" lon="2.04064">
        <ele>163.9</ele>
        <time>2024-12-31T15:31:33.329Z</time>
      </trkpt>
      <trkpt lat="48.78556" lon="2.0406">
        <ele>164</ele>
        <time>2024-12-31T15:31:37.119Z</time>
      </trkpt>
      <trkpt lat="48.7856" lon="2.04056">
        <ele>164.4</ele>
        <time>2024-12-31T15:31:40.909Z</time>
      </trkpt>
      <trkpt lat="48.78563" lon="2.04052">
        <ele>164.8</ele>
        <time>2024-12-31T15:31:44.699Z</time>
      </trkpt>
      <trkpt lat="48.78567" lon="2.04048">
        <ele>165.3</ele>
        <time>2024-12-31T15:31:48.489Z</time>
      </trkpt>
      <trkpt lat="48.78571" lon="2.04044">
        <ele>165.9</ele>
        <time>2024-12-31T15:31:52.279Z</time>
      </trkpt>
      <trkpt lat="48.78574" lon="2.04039">
        <ele>166.6</ele>
        <time>2024-12-31T15:31:56.069Z</time>
      </trkpt>
      <trkpt lat="48.78578" lon="2.04035">
        <ele>167.4</ele>
        <time>2024-12-31T15:31:59.859Z</time>
      </trkpt>
      <trkpt lat="48.78581" lon="2.04031">
        <ele>168.4</ele>
        <time>2024-12-31T15:32:03.650Z</time>
      </trkpt>
      <trkpt lat="48.78585" lon="2.04027">
        <ele>169.2</ele>
        <time>2024-12-31T15:32:07.441Z</time>
      </trkpt>
      <trkpt lat="48.78591" lon="2.04021">
        <ele>170</ele>
        <time>2024-12-31T15:32:13.697Z</time>
      </trkpt>
      <trkpt lat="48.78596" lon="2.04014">
        <ele>170.6</ele>
        <time>2024-12-31T15:32:19.953Z</time>
      </trkpt>
      <trkpt lat="48.786" lon="2.0401">
        <ele>171</ele>
        <time>2024-12-31T15:32:24.008Z</time>
      </trkpt>
      <trkpt lat="48.78603" lon="2.04006">
        <ele>171.3</ele>
        <time>2024-12-31T15:32:27.294Z</time>
      </trkpt>
      <trkpt lat="48.78608" lon="2.04">
        <ele>171.7</ele>
        <time>2024-12-31T15:32:30.953Z</time>
      </trkpt>
      <trkpt lat="48.78614" lon="2.03995">
        <ele>170.8</ele>
        <time>2024-12-31T15:32:34.612Z</time>
      </trkpt>
      <trkpt lat="48.78619" lon="2.03989">
        <ele>169.6</ele>
        <time>2024-12-31T15:32:38.271Z</time>
      </trkpt>
      <trkpt lat="48.78624" lon="2.03983">
        <ele>168.8</ele>
        <time>2024-12-31T15:32:41.930Z</time>
      </trkpt>
      <trkpt lat="48.78629" lon="2.03977">
        <ele>168.5</ele>
        <time>2024-12-31T15:32:45.589Z</time>
      </trkpt>
      <trkpt lat="48.78635" lon="2.03972">
        <ele>168.6</ele>
        <time>2024-12-31T15:32:49.249Z</time>
      </trkpt>
      <trkpt lat="48.7864" lon="2.03966">
        <ele>168.6</ele>
        <time>2024-12-31T15:32:52.909Z</time>
      </trkpt>
      <trkpt lat="48.78645" lon="2.0396">
        <ele>169</ele>
        <time>2024-12-31T15:32:56.569Z</time>
      </trkpt>
      <trkpt lat="48.78651" lon="2.03954">
        <ele>169.5</ele>
        <time>2024-12-31T15:33:01.473Z</time>
      </trkpt>
      <trkpt lat="48.78656" lon="2.03947">
        <ele>170.2</ele>
        <time>2024-12-31T15:33:06.377Z</time>
      </trkpt>
      <trkpt lat="48.78662" lon="2.03941">
        <ele>170.8</ele>
        <time>2024-12-31T15:33:11.281Z</time>
      </trkpt>
      <trkpt lat="48.78668" lon="2.03934">
        <ele>170.9</ele>
        <time>2024-12-31T15:33:16.185Z</time>
      </trkpt>
      <trkpt lat="48.78673" lon="2.03928">
        <ele>170.4</ele>
        <time>2024-12-31T15:33:21.089Z</time>
      </trkpt>
      <trkpt lat="48.78679" lon="2.03921">
        <ele>170.1</ele>
        <time>2024-12-31T15:33:25.993Z</time>
      </trkpt>
      <trkpt lat="48.78684" lon="2.03915">
        <ele>170.2</ele>
        <time>2024-12-31T15:33:30.897Z</time>
      </trkpt>
      <trkpt lat="48.7869" lon="2.03908">
        <ele>170.3</ele>
        <time>2024-12-31T15:33:35.802Z</time>
      </trkpt>
      <trkpt lat="48.78693" lon="2.03905">
        <ele>170.5</ele>
        <time>2024-12-31T15:33:38.572Z</time>
      </trkpt>
      <trkpt lat="48.78697" lon="2.03901">
        <ele>170.4</ele>
        <time>2024-12-31T15:33:41.475Z</time>
      </trkpt>
      <trkpt lat="48.78701" lon="2.03897">
        <ele>170.2</ele>
        <time>2024-12-31T15:33:44.158Z</time>
      </trkpt>
      <trkpt lat="48.78704" lon="2.03892">
        <ele>170.1</ele>
        <time>2024-12-31T15:33:46.841Z</time>
      </trkpt>
      <trkpt lat="48.78705" lon="2.03895">
        <ele>170.1</ele>
        <time>2024-12-31T15:33:48.271Z</time>
      </trkpt>
      <trkpt lat="48.78708" lon="2.03901">
        <ele>170.2</ele>
        <time>2024-12-31T15:33:51.683Z</time>
      </trkpt>
      <trkpt lat="48.78709" lon="2.03903">
        <ele>170.2</ele>
        <time>2024-12-31T15:33:52.751Z</time>
      </trkpt>
      <trkpt lat="48.78712" lon="2.03907">
        <ele>170.2</ele>
        <time>2024-12-31T15:33:55.329Z</time>
      </trkpt>
      <trkpt lat="48.78713" lon="2.03909">
        <ele>170.2</ele>
        <time>2024-12-31T15:33:56.397Z</time>
      </trkpt>
      <trkpt lat="48.78716" lon="2.03915">
        <ele>170.2</ele>
        <time>2024-12-31T15:33:59.601Z</time>
      </trkpt>
      <trkpt lat="48.78718" lon="2.03927">
        <ele>169.8</ele>
        <time>2024-12-31T15:34:04.209Z</time>
      </trkpt>
      <trkpt lat="48.78721" lon="2.03934">
        <ele>169.4</ele>
        <time>2024-12-31T15:34:07.395Z</time>
      </trkpt>
      <trkpt lat="48.78724" lon="2.03942">
        <ele>169</ele>
        <time>2024-12-31T15:34:10.581Z</time>
      </trkpt>
      <trkpt lat="48.78727" lon="2.03949">
        <ele>168.8</ele>
        <time>2024-12-31T15:34:13.768Z</time>
      </trkpt>
      <trkpt lat="48.7873" lon="2.03956">
        <ele>168.7</ele>
        <time>2024-12-31T15:34:16.955Z</time>
      </trkpt>
      <trkpt lat="48.78732" lon="2.03966">
        <ele>168.7</ele>
        <time>2024-12-31T15:34:21.174Z</time>
      </trkpt>
      <trkpt lat="48.78734" lon="2.03977">
        <ele>168.5</ele>
        <time>2024-12-31T15:34:25.393Z</time>
      </trkpt>
      <trkpt lat="48.78735" lon="2.03987">
        <ele>168.3</ele>
        <time>2024-12-31T15:34:29.613Z</time>
      </trkpt>
      <trkpt lat="48.78737" lon="2.03997">
        <ele>168.1</ele>
        <time>2024-12-31T15:34:33.833Z</time>
      </trkpt>
      <trkpt lat="48.78739" lon="2.03999">
        <ele>168</ele>
        <time>2024-12-31T15:34:35.197Z</time>
      </trkpt>
      <trkpt lat="48.78738" lon="2.04006">
        <ele>168.2</ele>
        <time>2024-12-31T15:34:38.681Z</time>
      </trkpt>
      <trkpt lat="48.78745" lon="2.04008">
        <ele>168.3</ele>
        <time>2024-12-31T15:34:43.026Z</time>
      </trkpt>
      <trkpt lat="48.78751" lon="2.04009">
        <ele>168.3</ele>
        <time>2024-12-31T15:34:47.372Z</time>
      </trkpt>
      <trkpt lat="48.78755" lon="2.04011">
        <ele>168.5</ele>
        <time>2024-12-31T15:34:50.474Z</time>
      </trkpt>
      <trkpt lat="48.7876" lon="2.04013">
        <ele>168.6</ele>
        <time>2024-12-31T15:34:53.576Z</time>
      </trkpt>
      <trkpt lat="48.78764" lon="2.04014">
        <ele>168.8</ele>
        <time>2024-12-31T15:34:56.678Z</time>
      </trkpt>
      <trkpt lat="48.78769" lon="2.04016">
        <ele>168.9</ele>
        <time>2024-12-31T15:34:59.781Z</time>
      </trkpt>
      <trkpt lat="48.78773" lon="2.04018">
        <ele>168.9</ele>
        <time>2024-12-31T15:35:02.884Z</time>
      </trkpt>
      <trkpt lat="48.78777" lon="2.0402">
        <ele>169</ele>
        <time>2024-12-31T15:35:05.987Z</time>
      </trkpt>
      <trkpt lat="48.78782" lon="2.04021">
        <ele>169</ele>
        <time>2024-12-31T15:35:09.090Z</time>
      </trkpt>
      <trkpt lat="48.78786" lon="2.04023">
        <ele>169</ele>
        <time>2024-12-31T15:35:12.193Z</time>
      </trkpt>
      <trkpt lat="48.78792" lon="2.04026">
        <ele>169</ele>
        <time>2024-12-31T15:35:16.003Z</time>
      </trkpt>
      <trkpt lat="48.78797" lon="2.0403">
        <ele>169</ele>
        <time>2024-12-31T15:35:19.813Z</time>
      </trkpt>
      <trkpt lat="48.78803" lon="2.04033">
        <ele>169</ele>
        <time>2024-12-31T15:35:23.624Z</time>
      </trkpt>
      <trkpt lat="48.78808" lon="2.04036">
        <ele>169</ele>
        <time>2024-12-31T15:35:27.435Z</time>
      </trkpt>
      <trkpt lat="48.78814" lon="2.04035">
        <ele>169</ele>
        <time>2024-12-31T15:35:31.011Z</time>
      </trkpt>
      <trkpt lat="48.78819" lon="2.04034">
        <ele>169</ele>
        <time>2024-12-31T15:35:34.587Z</time>
      </trkpt>
      <trkpt lat="48.78825" lon="2.04033">
        <ele>169</ele>
        <time>2024-12-31T15:35:38.164Z</time>
      </trkpt>
      <trkpt lat="48.7883" lon="2.04032">
        <ele>169</ele>
        <time>2024-12-31T15:35:41.741Z</time>
      </trkpt>
      <trkpt lat="48.78836" lon="2.04034">
        <ele>169.1</ele>
        <time>2024-12-31T15:35:45.791Z</time>
      </trkpt>
      <trkpt lat="48.78841" lon="2.04037">
        <ele>169.3</ele>
        <time>2024-12-31T15:35:49.841Z</time>
      </trkpt>
      <trkpt lat="48.78847" lon="2.04039">
        <ele>169.5</ele>
        <time>2024-12-31T15:35:53.891Z</time>
      </trkpt>
      <trkpt lat="48.78852" lon="2.04041">
        <ele>169.7</ele>
        <time>2024-12-31T15:35:57.941Z</time>
      </trkpt>
      <trkpt lat="48.78854" lon="2.04042">
        <ele>169.7</ele>
        <time>2024-12-31T15:35:59.300Z</time>
      </trkpt>
      <trkpt lat="48.78856" lon="2.04043">
        <ele>169.8</ele>
        <time>2024-12-31T15:36:00.881Z</time>
      </trkpt>
      <trkpt lat="48.78864" lon="2.04042">
        <ele>170</ele>
        <time>2024-12-31T15:36:05.946Z</time>
      </trkpt>
      <trkpt lat="48.78871" lon="2.04041">
        <ele>170</ele>
        <time>2024-12-31T15:36:11.012Z</time>
      </trkpt>
      <trkpt lat="48.78877" lon="2.04037">
        <ele>170</ele>
        <time>2024-12-31T15:36:15.243Z</time>
      </trkpt>
      <trkpt lat="48.78881" lon="2.04032">
        <ele>170</ele>
        <time>2024-12-31T15:36:18.727Z</time>
      </trkpt>
      <trkpt lat="48.78885" lon="2.04026">
        <ele>170</ele>
        <time>2024-12-31T15:36:22.212Z</time>
      </trkpt>
      <trkpt lat="48.7889" lon="2.04021">
        <ele>170</ele>
        <time>2024-12-31T15:36:26.078Z</time>
      </trkpt>
      <trkpt lat="48.78895" lon="2.04016">
        <ele>170</ele>
        <time>2024-12-31T15:36:29.944Z</time>
      </trkpt>
      <trkpt lat="48.78901" lon="2.0401">
        <ele>170</ele>
        <time>2024-12-31T15:36:34.583Z</time>
      </trkpt>
      <trkpt lat="48.78907" lon="2.04006">
        <ele>170</ele>
        <time>2024-12-31T15:36:39.329Z</time>
      </trkpt>
      <trkpt lat="48.78913" lon="2.04003">
        <ele>170</ele>
        <time>2024-12-31T15:36:44.075Z</time>
      </trkpt>
      <trkpt lat="48.78919" lon="2.03999">
        <ele>170.1</ele>
        <time>2024-12-31T15:36:48.821Z</time>
      </trkpt>
      <trkpt lat="48.78926" lon="2.03995">
        <ele>170.5</ele>
        <time>2024-12-31T15:36:53.567Z</time>
      </trkpt>
      <trkpt lat="48.78932" lon="2.03991">
        <ele>170.9</ele>
        <time>2024-12-31T15:36:58.313Z</time>
      </trkpt>
      <trkpt lat="48.78938" lon="2.03988">
        <ele>171.2</ele>
        <time>2024-12-31T15:37:03.059Z</time>
      </trkpt>
      <trkpt lat="48.78944" lon="2.03984">
        <ele>171.6</ele>
        <time>2024-12-31T15:37:07.806Z</time>
      </trkpt>
      <trkpt lat="48.7895" lon="2.0398">
        <ele>171.8</ele>
        <time>2024-12-31T15:37:12.553Z</time>
      </trkpt>
      <trkpt lat="48.78956" lon="2.03971">
        <ele>172.1</ele>
        <time>2024-12-31T15:37:18.794Z</time>
      </trkpt>
      <trkpt lat="48.78962" lon="2.03961">
        <ele>172.4</ele>
        <time>2024-12-31T15:37:25.036Z</time>
      </trkpt>
      <trkpt lat="48.78966" lon="2.03949">
        <ele>172.8</ele>
        <time>2024-12-31T15:37:31.636Z</time>
      </trkpt>
      <trkpt lat="48.78968" lon="2.03939">
        <ele>173.2</ele>
        <time>2024-12-31T15:37:36.907Z</time>
      </trkpt>
      <trkpt lat="48.78969" lon="2.03929">
        <ele>173.6</ele>
        <time>2024-12-31T15:37:42.178Z</time>
      </trkpt>
      <trkpt lat="48.78969" lon="2.0392">
        <ele>173.9</ele>
        <time>2024-12-31T15:37:47.043Z</time>
      </trkpt>
      <trkpt lat="48.7897" lon="2.03912">
        <ele>174.3</ele>
        <time>2024-12-31T15:37:51.908Z</time>
      </trkpt>
      <trkpt lat="48.7897" lon="2.03903">
        <ele>174.9</ele>
        <time>2024-12-31T15:37:56.773Z</time>
      </trkpt>
      <trkpt lat="48.7897" lon="2.03894">
        <ele>175.5</ele>
        <time>2024-12-31T15:38:01.638Z</time>
      </trkpt>
      <trkpt lat="48.78973" lon="2.03886">
        <ele>175.9</ele>
        <time>2024-12-31T15:38:04.933Z</time>
      </trkpt>
      <trkpt lat="48.78975" lon="2.03878">
        <ele>175.3</ele>
        <time>2024-12-31T15:38:08.228Z</time>
      </trkpt>
      <trkpt lat="48.78978" lon="2.0387">
        <ele>174.8</ele>
        <time>2024-12-31T15:38:11.524Z</time>
      </trkpt>
      <trkpt lat="48.7898" lon="2.03862">
        <ele>174.2</ele>
        <time>2024-12-31T15:38:14.820Z</time>
      </trkpt>
      <trkpt lat="48.78983" lon="2.03853">
        <ele>172.9</ele>
        <time>2024-12-31T15:38:19.148Z</time>
      </trkpt>
      <trkpt lat="48.78986" lon="2.03843">
        <ele>171.6</ele>
        <time>2024-12-31T15:38:23.476Z</time>
      </trkpt>
      <trkpt lat="48.78988" lon="2.03834">
        <ele>170.4</ele>
        <time>2024-12-31T15:38:27.804Z</time>
      </trkpt>
      <trkpt lat="48.78991" lon="2.03824">
        <ele>169.8</ele>
        <time>2024-12-31T15:38:32.132Z</time>
      </trkpt>
      <trkpt lat="48.78994" lon="2.03815">
        <ele>169.2</ele>
        <time>2024-12-31T15:38:36.460Z</time>
      </trkpt>
      <trkpt lat="48.78997" lon="2.03805">
        <ele>168.9</ele>
        <time>2024-12-31T15:38:40.788Z</time>
      </trkpt>
      <trkpt lat="48.78999" lon="2.03796">
        <ele>169</ele>
        <time>2024-12-31T15:38:45.116Z</time>
      </trkpt>
      <trkpt lat="48.79002" lon="2.03786">
        <ele>169</ele>
        <time>2024-12-31T15:38:49.444Z</time>
      </trkpt>
      <trkpt lat="48.79005" lon="2.03777">
        <ele>169</ele>
        <time>2024-12-31T15:38:53.772Z</time>
      </trkpt>
      <trkpt lat="48.79008" lon="2.03767">
        <ele>169.4</ele>
        <time>2024-12-31T15:38:58.100Z</time>
      </trkpt>
      <trkpt lat="48.7901" lon="2.03758">
        <ele>169.7</ele>
        <time>2024-12-31T15:39:02.428Z</time>
      </trkpt>
      <trkpt lat="48.79013" lon="2.03748">
        <ele>170.1</ele>
        <time>2024-12-31T15:39:06.756Z</time>
      </trkpt>
      <trkpt lat="48.79016" lon="2.03739">
        <ele>170.9</ele>
        <time>2024-12-31T15:39:11.084Z</time>
      </trkpt>
      <trkpt lat="48.79019" lon="2.03729">
        <ele>171.8</ele>
        <time>2024-12-31T15:39:15.412Z</time>
      </trkpt>
      <trkpt lat="48.79021" lon="2.0372">
        <ele>172.7</ele>
        <time>2024-12-31T15:39:19.740Z</time>
      </trkpt>
      <trkpt lat="48.79024" lon="2.0371">
        <ele>173.5</ele>
        <time>2024-12-31T15:39:24.068Z</time>
      </trkpt>
      <trkpt lat="48.79026" lon="2.03704">
        <ele>174.2</ele>
        <time>2024-12-31T15:39:26.857Z</time>
      </trkpt>
      <trkpt lat="48.79028" lon="2.03697">
        <ele>174.8</ele>
        <time>2024-12-31T15:39:29.646Z</time>
      </trkpt>
      <trkpt lat="48.7903" lon="2.03691">
        <ele>174.6</ele>
        <time>2024-12-31T15:39:32.435Z</time>
      </trkpt>
      <trkpt lat="48.79032" lon="2.03685">
        <ele>174.1</ele>
        <time>2024-12-31T15:39:35.224Z</time>
      </trkpt>
      <trkpt lat="48.79034" lon="2.03678">
        <ele>173.7</ele>
        <time>2024-12-31T15:39:38.013Z</time>
      </trkpt>
      <trkpt lat="48.79036" lon="2.03672">
        <ele>173.3</ele>
        <time>2024-12-31T15:39:40.803Z</time>
      </trkpt>
      <trkpt lat="48.79038" lon="2.03666">
        <ele>173</ele>
        <time>2024-12-31T15:39:43.593Z</time>
      </trkpt>
      <trkpt lat="48.7904" lon="2.0366">
        <ele>172.9</ele>
        <time>2024-12-31T15:39:46.383Z</time>
      </trkpt>
      <trkpt lat="48.79042" lon="2.03653">
        <ele>172.8</ele>
        <time>2024-12-31T15:39:49.173Z</time>
      </trkpt>
      <trkpt lat="48.79044" lon="2.03647">
        <ele>172.7</ele>
        <time>2024-12-31T15:39:51.963Z</time>
      </trkpt>
      <trkpt lat="48.79046" lon="2.03641">
        <ele>172.7</ele>
        <time>2024-12-31T15:39:54.753Z</time>
      </trkpt>
      <trkpt lat="48.79048" lon="2.03634">
        <ele>172.6</ele>
        <time>2024-12-31T15:39:57.543Z</time>
      </trkpt>
      <trkpt lat="48.7905" lon="2.03628">
        <ele>172.5</ele>
        <time>2024-12-31T15:40:00.333Z</time>
      </trkpt>
      <trkpt lat="48.79052" lon="2.03622">
        <ele>172.3</ele>
        <time>2024-12-31T15:40:03.123Z</time>
      </trkpt>
      <trkpt lat="48.79054" lon="2.03615">
        <ele>172.1</ele>
        <time>2024-12-31T15:40:05.913Z</time>
      </trkpt>
      <trkpt lat="48.79056" lon="2.03609">
        <ele>171.9</ele>
        <time>2024-12-31T15:40:08.703Z</time>
      </trkpt>
      <trkpt lat="48.79057" lon="2.036">
        <ele>171.5</ele>
        <time>2024-12-31T15:40:12.283Z</time>
      </trkpt>
      <trkpt lat="48.79058" lon="2.0359">
        <ele>171.2</ele>
        <time>2024-12-31T15:40:15.864Z</time>
      </trkpt>
      <trkpt lat="48.79058" lon="2.0358">
        <ele>170.7</ele>
        <time>2024-12-31T15:40:19.495Z</time>
      </trkpt>
      <trkpt lat="48.79058" lon="2.03571">
        <ele>170.1</ele>
        <time>2024-12-31T15:40:23.126Z</time>
      </trkpt>
      <trkpt lat="48.79057" lon="2.03561">
        <ele>169.4</ele>
        <time>2024-12-31T15:40:26.758Z</time>
      </trkpt>
      <trkpt lat="48.79057" lon="2.03551">
        <ele>169.1</ele>
        <time>2024-12-31T15:40:30.390Z</time>
      </trkpt>
      <trkpt lat="48.79062" lon="2.03547">
        <ele>169.2</ele>
        <time>2024-12-31T15:40:34.498Z</time>
      </trkpt>
      <trkpt lat="48.79068" lon="2.03543">
        <ele>169.4</ele>
        <time>2024-12-31T15:40:38.606Z</time>
      </trkpt>
      <trkpt lat="48.79073" lon="2.03539">
        <ele>169.6</ele>
        <time>2024-12-31T15:40:42.714Z</time>
      </trkpt>
      <trkpt lat="48.79078" lon="2.03535">
        <ele>169.8</ele>
        <time>2024-12-31T15:40:46.822Z</time>
      </trkpt>
      <trkpt lat="48.79083" lon="2.03531">
        <ele>170</ele>
        <time>2024-12-31T15:40:50.930Z</time>
      </trkpt>
      <trkpt lat="48.79089" lon="2.03527">
        <ele>170</ele>
        <time>2024-12-31T15:40:55.038Z</time>
      </trkpt>
      <trkpt lat="48.79094" lon="2.03523">
        <ele>170.2</ele>
        <time>2024-12-31T15:40:59.146Z</time>
      </trkpt>
      <trkpt lat="48.79099" lon="2.03519">
        <ele>170.3</ele>
        <time>2024-12-31T15:41:03.254Z</time>
      </trkpt>
      <trkpt lat="48.79103" lon="2.03522">
        <ele>170.2</ele>
        <time>2024-12-31T15:41:05.945Z</time>
      </trkpt>
      <trkpt lat="48.79105" lon="2.03515">
        <ele>170.5</ele>
        <time>2024-12-31T15:41:09.872Z</time>
      </trkpt>
      <trkpt lat="48.79108" lon="2.03506">
        <ele>170.8</ele>
        <time>2024-12-31T15:41:14.822Z</time>
      </trkpt>
      <trkpt lat="48.79111" lon="2.03494">
        <ele>170.8</ele>
        <time>2024-12-31T15:41:20.281Z</time>
      </trkpt>
      <trkpt lat="48.79118" lon="2.03498">
        <ele>170.9</ele>
        <time>2024-12-31T15:41:24.879Z</time>
      </trkpt>
      <trkpt lat="48.79124" lon="2.03502">
        <ele>171</ele>
        <time>2024-12-31T15:41:29.477Z</time>
      </trkpt>
      <trkpt lat="48.79131" lon="2.03506">
        <ele>170.9</ele>
        <time>2024-12-31T15:41:34.076Z</time>
      </trkpt>
      <trkpt lat="48.79137" lon="2.03511">
        <ele>171</ele>
        <time>2024-12-31T15:41:38.675Z</time>
      </trkpt>
      <trkpt lat="48.79144" lon="2.03515">
        <ele>170.9</ele>
        <time>2024-12-31T15:41:43.274Z</time>
      </trkpt>
      <trkpt lat="48.7915" lon="2.03519">
        <ele>170.9</ele>
        <time>2024-12-31T15:41:47.873Z</time>
      </trkpt>
      <trkpt lat="48.79157" lon="2.03523">
        <ele>170.9</ele>
        <time>2024-12-31T15:41:52.472Z</time>
      </trkpt>
      <trkpt lat="48.79163" lon="2.03527">
        <ele>171</ele>
        <time>2024-12-31T15:41:57.071Z</time>
      </trkpt>
      <trkpt lat="48.79167" lon="2.0353">
        <ele>171</ele>
        <time>2024-12-31T15:41:59.952Z</time>
      </trkpt>
      <trkpt lat="48.79174" lon="2.03534">
        <ele>170.5</ele>
        <time>2024-12-31T15:42:04.177Z</time>
      </trkpt>
      <trkpt lat="48.79177" lon="2.0354">
        <ele>170.4</ele>
        <time>2024-12-31T15:42:07.284Z</time>
      </trkpt>
      <trkpt lat="48.7918" lon="2.03546">
        <ele>170.4</ele>
        <time>2024-12-31T15:42:10.391Z</time>
      </trkpt>
      <trkpt lat="48.79185" lon="2.03549">
        <ele>170.2</ele>
        <time>2024-12-31T15:42:13.844Z</time>
      </trkpt>
      <trkpt lat="48.7919" lon="2.03553">
        <ele>170.1</ele>
        <time>2024-12-31T15:42:17.297Z</time>
      </trkpt>
      <trkpt lat="48.79195" lon="2.03556">
        <ele>170</ele>
        <time>2024-12-31T15:42:20.750Z</time>
      </trkpt>
      <trkpt lat="48.79201" lon="2.03559">
        <ele>170.1</ele>
        <time>2024-12-31T15:42:24.203Z</time>
      </trkpt>
      <trkpt lat="48.79206" lon="2.03562">
        <ele>170.1</ele>
        <time>2024-12-31T15:42:27.656Z</time>
      </trkpt>
      <trkpt lat="48.79211" lon="2.03566">
        <ele>170.1</ele>
        <time>2024-12-31T15:42:31.109Z</time>
      </trkpt>
      <trkpt lat="48.79216" lon="2.03569">
        <ele>170.1</ele>
        <time>2024-12-31T15:42:34.562Z</time>
      </trkpt>
      <trkpt lat="48.79221" lon="2.03572">
        <ele>170</ele>
        <time>2024-12-31T15:42:38.015Z</time>
      </trkpt>
      <trkpt lat="48.79226" lon="2.03575">
        <ele>170</ele>
        <time>2024-12-31T15:42:41.468Z</time>
      </trkpt>
      <trkpt lat="48.79231" lon="2.03579">
        <ele>169.9</ele>
        <time>2024-12-31T15:42:44.921Z</time>
      </trkpt>
      <trkpt lat="48.79236" lon="2.03582">
        <ele>170</ele>
        <time>2024-12-31T15:42:48.374Z</time>
      </trkpt>
      <trkpt lat="48.79242" lon="2.03585">
        <ele>170</ele>
        <time>2024-12-31T15:42:51.827Z</time>
      </trkpt>
      <trkpt lat="48.79247" lon="2.03588">
        <ele>169.8</ele>
        <time>2024-12-31T15:42:55.280Z</time>
      </trkpt>
      <trkpt lat="48.79252" lon="2.03592">
        <ele>169.7</ele>
        <time>2024-12-31T15:42:58.733Z</time>
      </trkpt>
      <trkpt lat="48.79257" lon="2.03595">
        <ele>169.4</ele>
        <time>2024-12-31T15:43:02.186Z</time>
      </trkpt>
      <trkpt lat="48.79262" lon="2.03598">
        <ele>169.3</ele>
        <time>2024-12-31T15:43:05.639Z</time>
      </trkpt>
      <trkpt lat="48.79268" lon="2.03597">
        <ele>169.2</ele>
        <time>2024-12-31T15:43:09.344Z</time>
      </trkpt>
      <trkpt lat="48.79274" lon="2.03596">
        <ele>169.1</ele>
        <time>2024-12-31T15:43:13.049Z</time>
      </trkpt>
      <trkpt lat="48.79279" lon="2.03599">
        <ele>169</ele>
        <time>2024-12-31T15:43:16.301Z</time>
      </trkpt>
      <trkpt lat="48.79284" lon="2.03603">
        <ele>168.8</ele>
        <time>2024-12-31T15:43:19.553Z</time>
      </trkpt>
      <trkpt lat="48.79289" lon="2.03606">
        <ele>168.7</ele>
        <time>2024-12-31T15:43:22.806Z</time>
      </trkpt>
      <trkpt lat="48.79294" lon="2.03609">
        <ele>168.5</ele>
        <time>2024-12-31T15:43:26.059Z</time>
      </trkpt>
      <trkpt lat="48.79299" lon="2.03612">
        <ele>168.2</ele>
        <time>2024-12-31T15:43:29.312Z</time>
      </trkpt>
      <trkpt lat="48.79304" lon="2.03616">
        <ele>168.1</ele>
        <time>2024-12-31T15:43:32.565Z</time>
      </trkpt>
      <trkpt lat="48.79309" lon="2.03619">
        <ele>168</ele>
        <time>2024-12-31T15:43:35.818Z</time>
      </trkpt>
      <trkpt lat="48.79314" lon="2.03622">
        <ele>168</ele>
        <time>2024-12-31T15:43:39.071Z</time>
      </trkpt>
      <trkpt lat="48.7932" lon="2.03613">
        <ele>168</ele>
        <time>2024-12-31T15:43:44.517Z</time>
      </trkpt>
      <trkpt lat="48.79324" lon="2.03604">
        <ele>168.1</ele>
        <time>2024-12-31T15:43:49.406Z</time>
      </trkpt>
      <trkpt lat="48.79328" lon="2.03594">
        <ele>168.1</ele>
        <time>2024-12-31T15:43:54.295Z</time>
      </trkpt>
      <trkpt lat="48.79332" lon="2.03585">
        <ele>168</ele>
        <time>2024-12-31T15:43:59.184Z</time>
      </trkpt>
      <trkpt lat="48.79337" lon="2.03575">
        <ele>168</ele>
        <time>2024-12-31T15:44:04.073Z</time>
      </trkpt>
      <trkpt lat="48.79341" lon="2.03566">
        <ele>168</ele>
        <time>2024-12-31T15:44:08.963Z</time>
      </trkpt>
      <trkpt lat="48.79345" lon="2.03556">
        <ele>168</ele>
        <time>2024-12-31T15:44:13.853Z</time>
      </trkpt>
      <trkpt lat="48.79349" lon="2.03547">
        <ele>168.1</ele>
        <time>2024-12-31T15:44:18.743Z</time>
      </trkpt>
      <trkpt lat="48.79353" lon="2.03537">
        <ele>168.2</ele>
        <time>2024-12-31T15:44:23.633Z</time>
      </trkpt>
      <trkpt lat="48.79358" lon="2.03527">
        <ele>168.1</ele>
        <time>2024-12-31T15:44:28.890Z</time>
      </trkpt>
      <trkpt lat="48.79364" lon="2.03518">
        <ele>167.9</ele>
        <time>2024-12-31T15:44:34.148Z</time>
      </trkpt>
      <trkpt lat="48.79369" lon="2.03508">
        <ele>167.9</ele>
        <time>2024-12-31T15:44:39.406Z</time>
      </trkpt>
      <trkpt lat="48.79374" lon="2.03498">
        <ele>168</ele>
        <time>2024-12-31T15:44:44.664Z</time>
      </trkpt>
      <trkpt lat="48.79379" lon="2.03491">
        <ele>168</ele>
        <time>2024-12-31T15:44:48.824Z</time>
      </trkpt>
      <trkpt lat="48.79383" lon="2.03484">
        <ele>168</ele>
        <time>2024-12-31T15:44:52.984Z</time>
      </trkpt>
      <trkpt lat="48.79388" lon="2.03477">
        <ele>168</ele>
        <time>2024-12-31T15:44:57.144Z</time>
      </trkpt>
      <trkpt lat="48.79392" lon="2.0347">
        <ele>167.9</ele>
        <time>2024-12-31T15:45:01.304Z</time>
      </trkpt>
      <trkpt lat="48.79397" lon="2.03463">
        <ele>167.8</ele>
        <time>2024-12-31T15:45:05.464Z</time>
      </trkpt>
      <trkpt lat="48.79401" lon="2.03456">
        <ele>167.8</ele>
        <time>2024-12-31T15:45:09.624Z</time>
      </trkpt>
      <trkpt lat="48.79406" lon="2.03449">
        <ele>167.9</ele>
        <time>2024-12-31T15:45:13.784Z</time>
      </trkpt>
      <trkpt lat="48.7941" lon="2.03442">
        <ele>168</ele>
        <time>2024-12-31T15:45:17.944Z</time>
      </trkpt>
      <trkpt lat="48.79416" lon="2.03436">
        <ele>168</ele>
        <time>2024-12-31T15:45:22.164Z</time>
      </trkpt>
      <trkpt lat="48.79421" lon="2.0343">
        <ele>167.8</ele>
        <time>2024-12-31T15:45:26.384Z</time>
      </trkpt>
      <trkpt lat="48.79427" lon="2.03424">
        <ele>167.6</ele>
        <time>2024-12-31T15:45:30.604Z</time>
      </trkpt>
      <trkpt lat="48.79432" lon="2.03419">
        <ele>167.4</ele>
        <time>2024-12-31T15:45:34.824Z</time>
      </trkpt>
      <trkpt lat="48.79438" lon="2.03413">
        <ele>167.4</ele>
        <time>2024-12-31T15:45:39.044Z</time>
      </trkpt>
      <trkpt lat="48.79443" lon="2.03407">
        <ele>167.4</ele>
        <time>2024-12-31T15:45:43.265Z</time>
      </trkpt>
      <trkpt lat="48.79449" lon="2.03401">
        <ele>167.5</ele>
        <time>2024-12-31T15:45:47.486Z</time>
      </trkpt>
      <trkpt lat="48.79454" lon="2.03395">
        <ele>167.5</ele>
        <time>2024-12-31T15:45:51.707Z</time>
      </trkpt>
      <trkpt lat="48.79458" lon="2.03392">
        <ele>167.5</ele>
        <time>2024-12-31T15:45:54.515Z</time>
      </trkpt>
      <trkpt lat="48.79462" lon="2.03389">
        <ele>167.4</ele>
        <time>2024-12-31T15:45:57.323Z</time>
      </trkpt>
      <trkpt lat="48.79466" lon="2.03385">
        <ele>167.2</ele>
        <time>2024-12-31T15:46:00.131Z</time>
      </trkpt>
      <trkpt lat="48.7947" lon="2.03382">
        <ele>167.1</ele>
        <time>2024-12-31T15:46:02.940Z</time>
      </trkpt>
      <trkpt lat="48.79474" lon="2.03379">
        <ele>167</ele>
        <time>2024-12-31T15:46:05.749Z</time>
      </trkpt>
      <trkpt lat="48.79478" lon="2.03376">
        <ele>167</ele>
        <time>2024-12-31T15:46:08.558Z</time>
      </trkpt>
      <trkpt lat="48.79482" lon="2.03372">
        <ele>167</ele>
        <time>2024-12-31T15:46:11.367Z</time>
      </trkpt>
      <trkpt lat="48.79486" lon="2.03369">
        <ele>167</ele>
        <time>2024-12-31T15:46:14.176Z</time>
      </trkpt>
      <trkpt lat="48.79494" lon="2.03365">
        <ele>167</ele>
        <time>2024-12-31T15:46:19.587Z</time>
      </trkpt>
      <trkpt lat="48.79501" lon="2.0336">
        <ele>167</ele>
        <time>2024-12-31T15:46:24.998Z</time>
      </trkpt>
      <trkpt lat="48.79509" lon="2.03356">
        <ele>167.2</ele>
        <time>2024-12-31T15:46:30.409Z</time>
      </trkpt>
      <trkpt lat="48.79516" lon="2.03351">
        <ele>167.4</ele>
        <time>2024-12-31T15:46:35.820Z</time>
      </trkpt>
      <trkpt lat="48.79521" lon="2.03347">
        <ele>167.5</ele>
        <time>2024-12-31T15:46:39.396Z</time>
      </trkpt>
      <trkpt lat="48.79525" lon="2.03344">
        <ele>167.6</ele>
        <time>2024-12-31T15:46:42.972Z</time>
      </trkpt>
      <trkpt lat="48.7953" lon="2.0334">
        <ele>167.8</ele>
        <time>2024-12-31T15:46:46.548Z</time>
      </trkpt>
      <trkpt lat="48.79534" lon="2.03336">
        <ele>167.9</ele>
        <time>2024-12-31T15:46:50.125Z</time>
      </trkpt>
      <trkpt lat="48.79537" lon="2.03338">
        <ele>167.9</ele>
        <time>2024-12-31T15:46:52.241Z</time>
      </trkpt>
      <trkpt lat="48.79539" lon="2.03341">
        <ele>167.8</ele>
        <time>2024-12-31T15:46:53.872Z</time>
      </trkpt>
      <trkpt lat="48.79546" lon="2.03338">
        <ele>167.9</ele>
        <time>2024-12-31T15:46:58.773Z</time>
      </trkpt>
      <trkpt lat="48.79553" lon="2.03334">
        <ele>168</ele>
        <time>2024-12-31T15:47:03.496Z</time>
      </trkpt>
      <trkpt lat="48.7956" lon="2.03331">
        <ele>168.1</ele>
        <time>2024-12-31T15:47:08.219Z</time>
      </trkpt>
      <trkpt lat="48.79566" lon="2.03327">
        <ele>168.4</ele>
        <time>2024-12-31T15:47:12.942Z</time>
      </trkpt>
      <trkpt lat="48.79573" lon="2.03324">
        <ele>168.6</ele>
        <time>2024-12-31T15:47:17.666Z</time>
      </trkpt>
      <trkpt lat="48.7958" lon="2.0332">
        <ele>168.9</ele>
        <time>2024-12-31T15:47:22.390Z</time>
      </trkpt>
      <trkpt lat="48.79587" lon="2.03316">
        <ele>168.8</ele>
        <time>2024-12-31T15:47:27.114Z</time>
      </trkpt>
      <trkpt lat="48.79593" lon="2.03313">
        <ele>168.6</ele>
        <time>2024-12-31T15:47:31.838Z</time>
      </trkpt>
      <trkpt lat="48.796" lon="2.03309">
        <ele>168.3</ele>
        <time>2024-12-31T15:47:36.562Z</time>
      </trkpt>
      <trkpt lat="48.79606" lon="2.03305">
        <ele>168.2</ele>
        <time>2024-12-31T15:47:40.907Z</time>
      </trkpt>
      <trkpt lat="48.79613" lon="2.03302">
        <ele>167.4</ele>
        <time>2024-12-31T15:47:45.253Z</time>
      </trkpt>
      <trkpt lat="48.79619" lon="2.03298">
        <ele>166.7</ele>
        <time>2024-12-31T15:47:49.599Z</time>
      </trkpt>
      <trkpt lat="48.79626" lon="2.03295">
        <ele>166.2</ele>
        <time>2024-12-31T15:47:53.945Z</time>
      </trkpt>
      <trkpt lat="48.79632" lon="2.03291">
        <ele>166</ele>
        <time>2024-12-31T15:47:58.291Z</time>
      </trkpt>
      <trkpt lat="48.79638" lon="2.03287">
        <ele>166</ele>
        <time>2024-12-31T15:48:02.637Z</time>
      </trkpt>
      <trkpt lat="48.79645" lon="2.03284">
        <ele>167</ele>
        <time>2024-12-31T15:48:06.983Z</time>
      </trkpt>
      <trkpt lat="48.79651" lon="2.0328">
        <ele>168.1</ele>
        <time>2024-12-31T15:48:11.329Z</time>
      </trkpt>
      <trkpt lat="48.79655" lon="2.03278">
        <ele>168.9</ele>
        <time>2024-12-31T15:48:15.870Z</time>
      </trkpt>
      <trkpt lat="48.7966" lon="2.03276">
        <ele>169.6</ele>
        <time>2024-12-31T15:48:20.411Z</time>
      </trkpt>
      <trkpt lat="48.79664" lon="2.03273">
        <ele>170.3</ele>
        <time>2024-12-31T15:48:24.953Z</time>
      </trkpt>
      <trkpt lat="48.79668" lon="2.03271">
        <ele>170.5</ele>
        <time>2024-12-31T15:48:29.495Z</time>
      </trkpt>
      <trkpt lat="48.79675" lon="2.03263">
        <ele>169</ele>
        <time>2024-12-31T15:48:34.445Z</time>
      </trkpt>
      <trkpt lat="48.79677" lon="2.0326">
        <ele>168.5</ele>
        <time>2024-12-31T15:48:36.033Z</time>
      </trkpt>
      <trkpt lat="48.7968" lon="2.03263">
        <ele>168.1</ele>
        <time>2024-12-31T15:48:38.063Z</time>
      </trkpt>
      <trkpt lat="48.79688" lon="2.03262">
        <ele>166.6</ele>
        <time>2024-12-31T15:48:42.598Z</time>
      </trkpt>
      <trkpt lat="48.79693" lon="2.0326">
        <ele>165.6</ele>
        <time>2024-12-31T15:48:46.429Z</time>
      </trkpt>
      <trkpt lat="48.79698" lon="2.03257">
        <ele>165.8</ele>
        <time>2024-12-31T15:48:50.260Z</time>
      </trkpt>
      <trkpt lat="48.79703" lon="2.03255">
        <ele>166.6</ele>
        <time>2024-12-31T15:48:54.091Z</time>
      </trkpt>
      <trkpt lat="48.79708" lon="2.03252">
        <ele>167.4</ele>
        <time>2024-12-31T15:48:57.923Z</time>
      </trkpt>
      <trkpt lat="48.79713" lon="2.03245">
        <ele>168.2</ele>
        <time>2024-12-31T15:49:04.213Z</time>
      </trkpt>
      <trkpt lat="48.79718" lon="2.03237">
        <ele>168.8</ele>
        <time>2024-12-31T15:49:10.503Z</time>
      </trkpt>
      <trkpt lat="48.79721" lon="2.03236">
        <ele>169.3</ele>
        <time>2024-12-31T15:49:13.959Z</time>
      </trkpt>
      <trkpt lat="48.79728" lon="2.03238">
        <ele>169.4</ele>
        <time>2024-12-31T15:49:18.763Z</time>
      </trkpt>
      <trkpt lat="48.79734" lon="2.03235">
        <ele>169</ele>
        <time>2024-12-31T15:49:22.204Z</time>
      </trkpt>
      <trkpt lat="48.79739" lon="2.03231">
        <ele>168.7</ele>
        <time>2024-12-31T15:49:25.645Z</time>
      </trkpt>
      <trkpt lat="48.79745" lon="2.03228">
        <ele>168.4</ele>
        <time>2024-12-31T15:49:29.086Z</time>
      </trkpt>
      <trkpt lat="48.79751" lon="2.03225">
        <ele>168</ele>
        <time>2024-12-31T15:49:32.527Z</time>
      </trkpt>
      <trkpt lat="48.79756" lon="2.03221">
        <ele>167.5</ele>
        <time>2024-12-31T15:49:35.968Z</time>
      </trkpt>
      <trkpt lat="48.79762" lon="2.03218">
        <ele>166.8</ele>
        <time>2024-12-31T15:49:39.409Z</time>
      </trkpt>
      <trkpt lat="48.79768" lon="2.03215">
        <ele>166.3</ele>
        <time>2024-12-31T15:49:42.850Z</time>
      </trkpt>
      <trkpt lat="48.79774" lon="2.03212">
        <ele>165.8</ele>
        <time>2024-12-31T15:49:46.291Z</time>
      </trkpt>
      <trkpt lat="48.79779" lon="2.03208">
        <ele>165.5</ele>
        <time>2024-12-31T15:49:49.732Z</time>
      </trkpt>
      <trkpt lat="48.79785" lon="2.03205">
        <ele>165.3</ele>
        <time>2024-12-31T15:49:53.173Z</time>
      </trkpt>
      <trkpt lat="48.79791" lon="2.03202">
        <ele>165.1</ele>
        <time>2024-12-31T15:49:56.615Z</time>
      </trkpt>
      <trkpt lat="48.79796" lon="2.03198">
        <ele>165</ele>
        <time>2024-12-31T15:50:00.057Z</time>
      </trkpt>
      <trkpt lat="48.79802" lon="2.03195">
        <ele>165</ele>
        <time>2024-12-31T15:50:03.499Z</time>
      </trkpt>
      <trkpt lat="48.79808" lon="2.03192">
        <ele>165</ele>
        <time>2024-12-31T15:50:06.941Z</time>
      </trkpt>
      <trkpt lat="48.79813" lon="2.03188">
        <ele>165</ele>
        <time>2024-12-31T15:50:10.383Z</time>
      </trkpt>
      <trkpt lat="48.79819" lon="2.03185">
        <ele>165</ele>
        <time>2024-12-31T15:50:13.825Z</time>
      </trkpt>
      <trkpt lat="48.79825" lon="2.03181">
        <ele>165</ele>
        <time>2024-12-31T15:50:18.246Z</time>
      </trkpt>
      <trkpt lat="48.79832" lon="2.03177">
        <ele>165</ele>
        <time>2024-12-31T15:50:22.668Z</time>
      </trkpt>
      <trkpt lat="48.79838" lon="2.03172">
        <ele>165</ele>
        <time>2024-12-31T15:50:27.090Z</time>
      </trkpt>
      <trkpt lat="48.79844" lon="2.03168">
        <ele>165</ele>
        <time>2024-12-31T15:50:31.512Z</time>
      </trkpt>
      <trkpt lat="48.79846" lon="2.03156">
        <ele>165</ele>
        <time>2024-12-31T15:50:36.776Z</time>
      </trkpt>
      <trkpt lat="48.79848" lon="2.03145">
        <ele>165</ele>
        <time>2024-12-31T15:50:41.196Z</time>
      </trkpt>
      <trkpt lat="48.7985" lon="2.03135">
        <ele>164.9</ele>
        <time>2024-12-31T15:50:45.616Z</time>
      </trkpt>
      <trkpt lat="48.79852" lon="2.03124">
        <ele>164.6</ele>
        <time>2024-12-31T15:50:50.036Z</time>
      </trkpt>
      <trkpt lat="48.79854" lon="2.03113">
        <ele>164.3</ele>
        <time>2024-12-31T15:50:54.456Z</time>
      </trkpt>
      <trkpt lat="48.79856" lon="2.03106">
        <ele>164.3</ele>
        <time>2024-12-31T15:50:57.832Z</time>
      </trkpt>
      <trkpt lat="48.79858" lon="2.03099">
        <ele>164.5</ele>
        <time>2024-12-31T15:51:01.208Z</time>
      </trkpt>
      <trkpt lat="48.7986" lon="2.03091">
        <ele>164.7</ele>
        <time>2024-12-31T15:51:04.584Z</time>
      </trkpt>
      <trkpt lat="48.79862" lon="2.03084">
        <ele>165</ele>
        <time>2024-12-31T15:51:07.960Z</time>
      </trkpt>
      <trkpt lat="48.79863" lon="2.03077">
        <ele>165</ele>
        <time>2024-12-31T15:51:11.336Z</time>
      </trkpt>
      <trkpt lat="48.79865" lon="2.0307">
        <ele>165</ele>
        <time>2024-12-31T15:51:14.712Z</time>
      </trkpt>
      <trkpt lat="48.79867" lon="2.03063">
        <ele>165</ele>
        <time>2024-12-31T15:51:18.088Z</time>
      </trkpt>
      <trkpt lat="48.79869" lon="2.03056">
        <ele>165</ele>
        <time>2024-12-31T15:51:21.464Z</time>
      </trkpt>
      <trkpt lat="48.79871" lon="2.03048">
        <ele>165</ele>
        <time>2024-12-31T15:51:24.840Z</time>
      </trkpt>
      <trkpt lat="48.79873" lon="2.03041">
        <ele>165</ele>
        <time>2024-12-31T15:51:28.216Z</time>
      </trkpt>
      <trkpt lat="48.79875" lon="2.03034">
        <ele>165</ele>
        <time>2024-12-31T15:51:31.592Z</time>
      </trkpt>
      <trkpt lat="48.79877" lon="2.03027">
        <ele>165</ele>
        <time>2024-12-31T15:51:34.969Z</time>
      </trkpt>
      <trkpt lat="48.79878" lon="2.0302">
        <ele>165</ele>
        <time>2024-12-31T15:51:38.346Z</time>
      </trkpt>
      <trkpt lat="48.7988" lon="2.03012">
        <ele>165</ele>
        <time>2024-12-31T15:51:41.723Z</time>
      </trkpt>
      <trkpt lat="48.79882" lon="2.03005">
        <ele>165</ele>
        <time>2024-12-31T15:51:45.100Z</time>
      </trkpt>
      <trkpt lat="48.79884" lon="2.02998">
        <ele>165</ele>
        <time>2024-12-31T15:51:48.477Z</time>
      </trkpt>
      <trkpt lat="48.79886" lon="2.0299">
        <ele>165</ele>
        <time>2024-12-31T15:51:52.062Z</time>
      </trkpt>
      <trkpt lat="48.79888" lon="2.02982">
        <ele>165</ele>
        <time>2024-12-31T15:51:55.647Z</time>
      </trkpt>
      <trkpt lat="48.79889" lon="2.02974">
        <ele>165</ele>
        <time>2024-12-31T15:51:59.232Z</time>
      </trkpt>
      <trkpt lat="48.79891" lon="2.02966">
        <ele>165</ele>
        <time>2024-12-31T15:52:02.817Z</time>
      </trkpt>
      <trkpt lat="48.79893" lon="2.02959">
        <ele>165</ele>
        <time>2024-12-31T15:52:06.034Z</time>
      </trkpt>
      <trkpt lat="48.79896" lon="2.02953">
        <ele>165</ele>
        <time>2024-12-31T15:52:09.251Z</time>
      </trkpt>
      <trkpt lat="48.79898" lon="2.02946">
        <ele>165</ele>
        <time>2024-12-31T15:52:12.468Z</time>
      </trkpt>
      <trkpt lat="48.799" lon="2.02939">
        <ele>165</ele>
        <time>2024-12-31T15:52:15.686Z</time>
      </trkpt>
      <trkpt lat="48.79902" lon="2.02935">
        <ele>165</ele>
        <time>2024-12-31T15:52:17.822Z</time>
      </trkpt>
      <trkpt lat="48.79907" lon="2.02925">
        <ele>165</ele>
        <time>2024-12-31T15:52:23.161Z</time>
      </trkpt>
      <trkpt lat="48.79911" lon="2.02918">
        <ele>165</ele>
        <time>2024-12-31T15:52:26.916Z</time>
      </trkpt>
      <trkpt lat="48.79915" lon="2.02912">
        <ele>165</ele>
        <time>2024-12-31T15:52:30.671Z</time>
      </trkpt>
      <trkpt lat="48.79918" lon="2.02905">
        <ele>165</ele>
        <time>2024-12-31T15:52:34.427Z</time>
      </trkpt>
      <trkpt lat="48.79922" lon="2.02898">
        <ele>165</ele>
        <time>2024-12-31T15:52:38.183Z</time>
      </trkpt>
      <trkpt lat="48.79926" lon="2.02892">
        <ele>165</ele>
        <time>2024-12-31T15:52:41.656Z</time>
      </trkpt>
      <trkpt lat="48.79929" lon="2.02885">
        <ele>164.9</ele>
        <time>2024-12-31T15:52:45.129Z</time>
      </trkpt>
      <trkpt lat="48.79934" lon="2.02876">
        <ele>164.7</ele>
        <time>2024-12-31T15:52:49.760Z</time>
      </trkpt>
      <trkpt lat="48.79936" lon="2.02874">
        <ele>164.6</ele>
        <time>2024-12-31T15:52:51.124Z</time>
      </trkpt>
      <trkpt lat="48.79939" lon="2.02868">
        <ele>164.4</ele>
        <time>2024-12-31T15:52:54.242Z</time>
      </trkpt>
      <trkpt lat="48.79943" lon="2.02862">
        <ele>164.1</ele>
        <time>2024-12-31T15:52:57.360Z</time>
      </trkpt>
      <trkpt lat="48.79946" lon="2.02856">
        <ele>164</ele>
        <time>2024-12-31T15:53:00.478Z</time>
      </trkpt>
      <trkpt lat="48.79949" lon="2.02851">
        <ele>164</ele>
        <time>2024-12-31T15:53:03.596Z</time>
      </trkpt>
      <trkpt lat="48.79952" lon="2.02845">
        <ele>164</ele>
        <time>2024-12-31T15:53:06.714Z</time>
      </trkpt>
      <trkpt lat="48.79956" lon="2.02839">
        <ele>164</ele>
        <time>2024-12-31T15:53:09.833Z</time>
      </trkpt>
      <trkpt lat="48.79959" lon="2.02833">
        <ele>164</ele>
        <time>2024-12-31T15:53:12.952Z</time>
      </trkpt>
      <trkpt lat="48.79962" lon="2.02827">
        <ele>164</ele>
        <time>2024-12-31T15:53:16.071Z</time>
      </trkpt>
      <trkpt lat="48.79966" lon="2.0282">
        <ele>164</ele>
        <time>2024-12-31T15:53:20.175Z</time>
      </trkpt>
      <trkpt lat="48.7997" lon="2.02812">
        <ele>164</ele>
        <time>2024-12-31T15:53:24.279Z</time>
      </trkpt>
      <trkpt lat="48.79965" lon="2.02806">
        <ele>164</ele>
        <time>2024-12-31T15:53:28.394Z</time>
      </trkpt>
      <trkpt lat="48.79969" lon="2.02798">
        <ele>164</ele>
        <time>2024-12-31T15:53:32.982Z</time>
      </trkpt>
      <trkpt lat="48.79973" lon="2.0279">
        <ele>164</ele>
        <time>2024-12-31T15:53:37.570Z</time>
      </trkpt>
      <trkpt lat="48.79977" lon="2.02781">
        <ele>164</ele>
        <time>2024-12-31T15:53:42.158Z</time>
      </trkpt>
      <trkpt lat="48.79981" lon="2.02773">
        <ele>164.1</ele>
        <time>2024-12-31T15:53:46.746Z</time>
      </trkpt>
      <trkpt lat="48.79985" lon="2.02765">
        <ele>164.2</ele>
        <time>2024-12-31T15:53:51.334Z</time>
      </trkpt>
      <trkpt lat="48.79989" lon="2.02757">
        <ele>164.5</ele>
        <time>2024-12-31T15:53:55.923Z</time>
      </trkpt>
      <trkpt lat="48.79993" lon="2.02748">
        <ele>164.8</ele>
        <time>2024-12-31T15:54:00.512Z</time>
      </trkpt>
      <trkpt lat="48.79997" lon="2.0274">
        <ele>164.9</ele>
        <time>2024-12-31T15:54:05.101Z</time>
      </trkpt>
      <trkpt lat="48.80003" lon="2.02735">
        <ele>165</ele>
        <time>2024-12-31T15:54:09.725Z</time>
      </trkpt>
      <trkpt lat="48.80009" lon="2.02735">
        <ele>165</ele>
        <time>2024-12-31T15:54:13.282Z</time>
      </trkpt>
      <trkpt lat="48.80014" lon="2.02734">
        <ele>165</ele>
        <time>2024-12-31T15:54:16.840Z</time>
      </trkpt>
      <trkpt lat="48.80022" lon="2.02737">
        <ele>165</ele>
        <time>2024-12-31T15:54:21.828Z</time>
      </trkpt>
      <trkpt lat="48.8003" lon="2.0274">
        <ele>164.9</ele>
        <time>2024-12-31T15:54:26.816Z</time>
      </trkpt>
      <trkpt lat="48.80038" lon="2.02743">
        <ele>164.6</ele>
        <time>2024-12-31T15:54:31.804Z</time>
      </trkpt>
      <trkpt lat="48.80046" lon="2.02746">
        <ele>164.3</ele>
        <time>2024-12-31T15:54:36.792Z</time>
      </trkpt>
      <trkpt lat="48.80053" lon="2.02748">
        <ele>164.1</ele>
        <time>2024-12-31T15:54:41.258Z</time>
      </trkpt>
      <trkpt lat="48.8006" lon="2.02749">
        <ele>164.2</ele>
        <time>2024-12-31T15:54:45.724Z</time>
      </trkpt>
      <trkpt lat="48.80064" lon="2.02744">
        <ele>164.3</ele>
        <time>2024-12-31T15:54:49.277Z</time>
      </trkpt>
      <trkpt lat="48.80066" lon="2.02735">
        <ele>164.4</ele>
        <time>2024-12-31T15:54:53.180Z</time>
      </trkpt>
      <trkpt lat="48.80067" lon="2.02727">
        <ele>164.4</ele>
        <time>2024-12-31T15:54:57.083Z</time>
      </trkpt>
      <trkpt lat="48.80069" lon="2.02718">
        <ele>164.6</ele>
        <time>2024-12-31T15:55:00.986Z</time>
      </trkpt>
      <trkpt lat="48.80071" lon="2.0271">
        <ele>164.7</ele>
        <time>2024-12-31T15:55:04.889Z</time>
      </trkpt>
      <trkpt lat="48.80072" lon="2.02701">
        <ele>164.9</ele>
        <time>2024-12-31T15:55:08.792Z</time>
      </trkpt>
      <trkpt lat="48.80074" lon="2.02692">
        <ele>165</ele>
        <time>2024-12-31T15:55:12.695Z</time>
      </trkpt>
      <trkpt lat="48.80075" lon="2.02684">
        <ele>165</ele>
        <time>2024-12-31T15:55:16.598Z</time>
      </trkpt>
      <trkpt lat="48.80077" lon="2.02675">
        <ele>165</ele>
        <time>2024-12-31T15:55:20.501Z</time>
      </trkpt>
      <trkpt lat="48.80079" lon="2.02666">
        <ele>165</ele>
        <time>2024-12-31T15:55:24.404Z</time>
      </trkpt>
      <trkpt lat="48.8008" lon="2.02658">
        <ele>164.7</ele>
        <time>2024-12-31T15:55:28.308Z</time>
      </trkpt>
      <trkpt lat="48.80082" lon="2.02649">
        <ele>164.4</ele>
        <time>2024-12-31T15:55:32.212Z</time>
      </trkpt>
      <trkpt lat="48.80084" lon="2.02641">
        <ele>164.1</ele>
        <time>2024-12-31T15:55:36.116Z</time>
      </trkpt>
      <trkpt lat="48.80085" lon="2.02632">
        <ele>164.3</ele>
        <time>2024-12-31T15:55:40.020Z</time>
      </trkpt>
      <trkpt lat="48.80087" lon="2.02623">
        <ele>164.6</ele>
        <time>2024-12-31T15:55:43.924Z</time>
      </trkpt>
      <trkpt lat="48.80088" lon="2.02615">
        <ele>164.9</ele>
        <time>2024-12-31T15:55:47.828Z</time>
      </trkpt>
      <trkpt lat="48.8009" lon="2.02606">
        <ele>165</ele>
        <time>2024-12-31T15:55:51.732Z</time>
      </trkpt>
      <trkpt lat="48.80092" lon="2.02606">
        <ele>165</ele>
        <time>2024-12-31T15:55:53.023Z</time>
      </trkpt>
      <trkpt lat="48.80092" lon="2.02594">
        <ele>165</ele>
        <time>2024-12-31T15:55:57.910Z</time>
      </trkpt>
      <trkpt lat="48.80091" lon="2.02582">
        <ele>165</ele>
        <time>2024-12-31T15:56:02.797Z</time>
      </trkpt>
      <trkpt lat="48.80091" lon="2.02569">
        <ele>164.6</ele>
        <time>2024-12-31T15:56:07.684Z</time>
      </trkpt>
      <trkpt lat="48.8009" lon="2.02557">
        <ele>164.3</ele>
        <time>2024-12-31T15:56:12.572Z</time>
      </trkpt>
      <trkpt lat="48.8009" lon="2.02548">
        <ele>164.2</ele>
        <time>2024-12-31T15:56:16.287Z</time>
      </trkpt>
      <trkpt lat="48.80089" lon="2.02538">
        <ele>164.2</ele>
        <time>2024-12-31T15:56:20.002Z</time>
      </trkpt>
      <trkpt lat="48.80089" lon="2.02529">
        <ele>164.2</ele>
        <time>2024-12-31T15:56:23.717Z</time>
      </trkpt>
      <trkpt lat="48.80089" lon="2.0252">
        <ele>164.4</ele>
        <time>2024-12-31T15:56:27.432Z</time>
      </trkpt>
      <trkpt lat="48.80088" lon="2.0251">
        <ele>164.7</ele>
        <time>2024-12-31T15:56:31.147Z</time>
      </trkpt>
      <trkpt lat="48.80088" lon="2.02501">
        <ele>165</ele>
        <time>2024-12-31T15:56:34.862Z</time>
      </trkpt>
      <trkpt lat="48.80087" lon="2.02492">
        <ele>165</ele>
        <time>2024-12-31T15:56:38.577Z</time>
      </trkpt>
      <trkpt lat="48.80087" lon="2.02483">
        <ele>165</ele>
        <time>2024-12-31T15:56:42.292Z</time>
      </trkpt>
      <trkpt lat="48.80087" lon="2.02473">
        <ele>165</ele>
        <time>2024-12-31T15:56:46.007Z</time>
      </trkpt>
      <trkpt lat="48.80086" lon="2.02464">
        <ele>165</ele>
        <time>2024-12-31T15:56:49.722Z</time>
      </trkpt>
      <trkpt lat="48.80086" lon="2.02455">
        <ele>165</ele>
        <time>2024-12-31T15:56:53.437Z</time>
      </trkpt>
      <trkpt lat="48.80086" lon="2.02445">
        <ele>165</ele>
        <time>2024-12-31T15:56:57.152Z</time>
      </trkpt>
      <trkpt lat="48.80085" lon="2.02436">
        <ele>165</ele>
        <time>2024-12-31T15:57:00.867Z</time>
      </trkpt>
      <trkpt lat="48.80085" lon="2.02427">
        <ele>165</ele>
        <time>2024-12-31T15:57:04.582Z</time>
      </trkpt>
      <trkpt lat="48.80084" lon="2.02417">
        <ele>165</ele>
        <time>2024-12-31T15:57:08.297Z</time>
      </trkpt>
      <trkpt lat="48.80084" lon="2.02408">
        <ele>165</ele>
        <time>2024-12-31T15:57:12.013Z</time>
        <extensions>
          <visugpx:TrkExtension xmlns:visugpx="https://www.visugpx.com/editgpx/">
            <visugpx:node>3</visugpx:node>
            </visugpx:TrkExtension>
        </extensions>
      </trkpt>
      <trkpt lat="48.80084" lon="2.02408">
        <ele>165</ele>
        <time>2024-12-31T15:57:12.013Z</time>
      </trkpt>
      <trkpt lat="48.80084" lon="2.02404">
        <ele>165</ele>
        <time>2024-12-31T15:57:12.013Z</time>
      </trkpt>
      <trkpt lat="48.80089" lon="2.02404">
        <ele>165</ele>
        <time>2024-12-31T15:57:12.013Z</time>
      </trkpt>
      <trkpt lat="48.80086" lon="2.02395">
        <ele>165</ele>
        <time>2024-12-31T15:57:12.013Z</time>
      </trkpt>
      <trkpt lat="48.80088" lon="2.02386">
        <ele>165</ele>
        <time>2024-12-31T15:57:12.013Z</time>
      </trkpt>
      <trkpt lat="48.80092" lon="2.02382">
        <ele>165</ele>
        <time>2024-12-31T15:57:12.013Z</time>
      </trkpt>
      <trkpt lat="48.80097" lon="2.02385">
        <ele>165</ele>
        <time>2024-12-31T15:57:12.013Z</time>
      </trkpt>
      <trkpt lat="48.80099" lon="2.02391">
        <ele>165</ele>
        <time>2024-12-31T15:57:12.013Z</time>
      </trkpt>
      <trkpt lat="48.80102" lon="2.02397">
        <ele>165</ele>
        <time>2024-12-31T15:57:12.013Z</time>
      </trkpt>
      <trkpt lat="48.80104" lon="2.02403">
        <ele>165</ele>
        <time>2024-12-31T15:57:12.013Z</time>
      </trkpt>
      <trkpt lat="48.80106" lon="2.02409">
        <ele>165</ele>
        <time>2024-12-31T15:57:12.013Z</time>
      </trkpt>
      <trkpt lat="48.80106" lon="2.02409">
        <ele>165</ele>
        <time>2024-12-31T15:57:12.013Z</time>
        <extensions>
          <visugpx:TrkExtension xmlns:visugpx="https://www.visugpx.com/editgpx/">
            <visugpx:node>2</visugpx:node>
            </visugpx:TrkExtension>
        </extensions>
      </trkpt>
      <trkpt lat="48.8011" lon="2.02413">
        <ele>165</ele>
        <time>2024-12-31T15:57:12.013Z</time>
      </trkpt>
      <trkpt lat="48.80113" lon="2.0242">
        <ele>165</ele>
        <time>2024-12-31T15:57:12.013Z</time>
      </trkpt>
      <trkpt lat="48.80115" lon="2.02427">
        <ele>165</ele>
        <time>2024-12-31T15:57:12.013Z</time>
      </trkpt>
      <trkpt lat="48.80119" lon="2.0242">
        <ele>165</ele>
        <time>2024-12-31T15:57:12.013Z</time>
      </trkpt>
      <trkpt lat="48.80122" lon="2.02413">
        <ele>165</ele>
        <time>2024-12-31T15:57:12.013Z</time>
      </trkpt>
      <trkpt lat="48.80126" lon="2.02405">
        <ele>165</ele>
        <time>2024-12-31T15:57:12.013Z</time>
      </trkpt>
      <trkpt lat="48.80129" lon="2.02398">
        <ele>165</ele>
        <time>2024-12-31T15:57:12.013Z</time>
      </trkpt>
      <trkpt lat="48.80131" lon="2.02391">
        <ele>165</ele>
        <time>2024-12-31T15:57:12.013Z</time>
      </trkpt>
      <trkpt lat="48.80133" lon="2.02384">
        <ele>165</ele>
        <time>2024-12-31T15:57:12.013Z</time>
      </trkpt>
      <trkpt lat="48.80134" lon="2.02377">
        <ele>165</ele>
        <time>2024-12-31T15:57:12.013Z</time>
      </trkpt>
      <trkpt lat="48.80136" lon="2.0237">
        <ele>165</ele>
        <time>2024-12-31T15:57:12.013Z</time>
      </trkpt>
      <trkpt lat="48.80138" lon="2.02363">
        <ele>165</ele>
        <time>2024-12-31T15:57:12.013Z</time>
      </trkpt>
      <trkpt lat="48.8014" lon="2.02356">
        <ele>165</ele>
        <time>2024-12-31T15:57:12.013Z</time>
      </trkpt>
      <trkpt lat="48.80141" lon="2.02349">
        <ele>165</ele>
        <time>2024-12-31T15:57:12.013Z</time>
      </trkpt>
      <trkpt lat="48.80143" lon="2.02342">
        <ele>165</ele>
        <time>2024-12-31T15:57:12.013Z</time>
      </trkpt>
      <trkpt lat="48.80146" lon="2.02331">
        <ele>164.9</ele>
        <time>2024-12-31T15:57:12.013Z</time>
      </trkpt>
      <trkpt lat="48.80148" lon="2.02324">
        <ele>164.8</ele>
        <time>2024-12-31T15:57:12.013Z</time>
      </trkpt>
      <trkpt lat="48.80149" lon="2.02318">
        <ele>164.6</ele>
        <time>2024-12-31T15:57:12.013Z</time>
      </trkpt>
      <trkpt lat="48.80151" lon="2.02311">
        <ele>164.5</ele>
        <time>2024-12-31T15:57:12.013Z</time>
      </trkpt>
      <trkpt lat="48.80153" lon="2.02305">
        <ele>164.5</ele>
        <time>2024-12-31T15:57:12.013Z</time>
      </trkpt>
      <trkpt lat="48.80154" lon="2.02298">
        <ele>164.7</ele>
        <time>2024-12-31T15:57:12.013Z</time>
      </trkpt>
      <trkpt lat="48.80156" lon="2.02291">
        <ele>164.8</ele>
        <time>2024-12-31T15:57:12.013Z</time>
      </trkpt>
      <trkpt lat="48.80157" lon="2.02285">
        <ele>164.9</ele>
        <time>2024-12-31T15:57:12.013Z</time>
      </trkpt>
      <trkpt lat="48.80159" lon="2.02278">
        <ele>165</ele>
        <time>2024-12-31T15:57:12.013Z</time>
      </trkpt>
      <trkpt lat="48.80162" lon="2.02266">
        <ele>165</ele>
        <time>2024-12-31T15:57:12.013Z</time>
      </trkpt>
      <trkpt lat="48.80165" lon="2.02253">
        <ele>165</ele>
        <time>2024-12-31T15:57:12.013Z</time>
      </trkpt>
      <trkpt lat="48.80167" lon="2.02246">
        <ele>165</ele>
        <time>2024-12-31T15:57:12.013Z</time>
      </trkpt>
      <trkpt lat="48.80168" lon="2.02239">
        <ele>165</ele>
        <time>2024-12-31T15:57:12.013Z</time>
      </trkpt>
      <trkpt lat="48.8017" lon="2.02232">
        <ele>165.1</ele>
        <time>2024-12-31T15:57:12.013Z</time>
      </trkpt>
      <trkpt lat="48.80171" lon="2.02226">
        <ele>165.1</ele>
        <time>2024-12-31T15:57:12.013Z</time>
      </trkpt>
      <trkpt lat="48.80173" lon="2.02219">
        <ele>165.2</ele>
        <time>2024-12-31T15:57:12.013Z</time>
      </trkpt>
      <trkpt lat="48.80174" lon="2.02212">
        <ele>165.2</ele>
        <time>2024-12-31T15:57:12.013Z</time>
      </trkpt>
      <trkpt lat="48.80176" lon="2.02205">
        <ele>165.1</ele>
        <time>2024-12-31T15:57:12.013Z</time>
      </trkpt>
      <trkpt lat="48.80177" lon="2.02198">
        <ele>165</ele>
        <time>2024-12-31T15:57:12.013Z</time>
      </trkpt>
      <trkpt lat="48.80179" lon="2.02186">
        <ele>165</ele>
        <time>2024-12-31T15:57:12.013Z</time>
      </trkpt>
      <trkpt lat="48.80181" lon="2.02175">
        <ele>165</ele>
        <time>2024-12-31T15:57:12.013Z</time>
      </trkpt>
      <trkpt lat="48.80174" lon="2.02171">
        <ele>165</ele>
        <time>2024-12-31T15:57:12.013Z</time>
      </trkpt>
      <trkpt lat="48.80168" lon="2.02167">
        <ele>165</ele>
        <time>2024-12-31T15:57:12.013Z</time>
      </trkpt>
      <trkpt lat="48.80161" lon="2.02162">
        <ele>165</ele>
        <time>2024-12-31T15:57:12.013Z</time>
      </trkpt>
      <trkpt lat="48.80154" lon="2.02158">
        <ele>165</ele>
        <time>2024-12-31T15:57:12.013Z</time>
      </trkpt>
      <trkpt lat="48.80156" lon="2.0215">
        <ele>165</ele>
        <time>2024-12-31T15:57:12.013Z</time>
      </trkpt>
      <trkpt lat="48.80158" lon="2.02143">
        <ele>165</ele>
        <time>2024-12-31T15:57:12.013Z</time>
      </trkpt>
      <trkpt lat="48.8016" lon="2.02135">
        <ele>165</ele>
        <time>2024-12-31T15:57:12.013Z</time>
      </trkpt>
      <trkpt lat="48.80162" lon="2.02127">
        <ele>165</ele>
        <time>2024-12-31T15:57:12.013Z</time>
      </trkpt>
      <trkpt lat="48.80164" lon="2.02119">
        <ele>165</ele>
        <time>2024-12-31T15:57:12.013Z</time>
      </trkpt>
      <trkpt lat="48.80166" lon="2.02112">
        <ele>165</ele>
        <time>2024-12-31T15:57:12.013Z</time>
      </trkpt>
      <trkpt lat="48.80168" lon="2.02104">
        <ele>165</ele>
        <time>2024-12-31T15:57:12.013Z</time>
      </trkpt>
      <trkpt lat="48.8017" lon="2.02096">
        <ele>165</ele>
        <time>2024-12-31T15:57:12.013Z</time>
      </trkpt>
      <trkpt lat="48.8017" lon="2.02095">
        <ele>165</ele>
        <time>2024-12-31T15:57:12.013Z</time>
        <extensions>
          <visugpx:TrkExtension xmlns:visugpx="https://www.visugpx.com/editgpx/">
            <visugpx:node>1</visugpx:node>
            </visugpx:TrkExtension>
        </extensions>
      </trkpt>
      <trkpt lat="48.8017" lon="2.02096">
        <ele>165</ele>
        <time>2024-12-31T15:57:12.013Z</time>
      </trkpt>
      <trkpt lat="48.8017" lon="2.02096">
        <ele>165</ele>
        <time>2024-12-31T15:57:12.013Z</time>
      </trkpt>
      <trkpt lat="48.80168" lon="2.02104">
        <ele>165</ele>
        <time>2024-12-31T15:57:12.013Z</time>
      </trkpt>
      <trkpt lat="48.80166" lon="2.02112">
        <ele>165</ele>
        <time>2024-12-31T15:57:12.013Z</time>
      </trkpt>
      <trkpt lat="48.80164" lon="2.02119">
        <ele>165</ele>
        <time>2024-12-31T15:57:12.013Z</time>
      </trkpt>
      <trkpt lat="48.80162" lon="2.02127">
        <ele>165</ele>
        <time>2024-12-31T15:57:12.013Z</time>
      </trkpt>
      <trkpt lat="48.8016" lon="2.02135">
        <ele>165</ele>
        <time>2024-12-31T15:57:12.013Z</time>
      </trkpt>
      <trkpt lat="48.80158" lon="2.02143">
        <ele>165</ele>
        <time>2024-12-31T15:57:12.013Z</time>
      </trkpt>
      <trkpt lat="48.80156" lon="2.0215">
        <ele>165</ele>
        <time>2024-12-31T15:57:12.013Z</time>
      </trkpt>
      <trkpt lat="48.80154" lon="2.02158">
        <ele>165</ele>
        <time>2024-12-31T15:57:12.013Z</time>
      </trkpt>
      <trkpt lat="48.80161" lon="2.02162">
        <ele>165</ele>
        <time>2024-12-31T15:57:12.013Z</time>
      </trkpt>
      <trkpt lat="48.80168" lon="2.02167">
        <ele>165</ele>
        <time>2024-12-31T15:57:12.013Z</time>
      </trkpt>
      <trkpt lat="48.80174" lon="2.02171">
        <ele>165</ele>
        <time>2024-12-31T15:57:12.013Z</time>
      </trkpt>
      <trkpt lat="48.80181" lon="2.02175">
        <ele>165</ele>
        <time>2024-12-31T15:57:12.013Z</time>
      </trkpt>
      <trkpt lat="48.80179" lon="2.02186">
        <ele>165</ele>
        <time>2024-12-31T15:57:12.013Z</time>
      </trkpt>
      <trkpt lat="48.80177" lon="2.02198">
        <ele>165</ele>
        <time>2024-12-31T15:57:12.013Z</time>
      </trkpt>
      <trkpt lat="48.80176" lon="2.02205">
        <ele>165.1</ele>
        <time>2024-12-31T15:57:12.013Z</time>
      </trkpt>
      <trkpt lat="48.80174" lon="2.02212">
        <ele>165.2</ele>
        <time>2024-12-31T15:57:12.013Z</time>
      </trkpt>
      <trkpt lat="48.80173" lon="2.02219">
        <ele>165.2</ele>
        <time>2024-12-31T15:57:12.013Z</time>
      </trkpt>
      <trkpt lat="48.80171" lon="2.02226">
        <ele>165.1</ele>
        <time>2024-12-31T15:57:12.013Z</time>
      </trkpt>
      <trkpt lat="48.8017" lon="2.02232">
        <ele>165.1</ele>
        <time>2024-12-31T15:57:12.013Z</time>
      </trkpt>
      <trkpt lat="48.80168" lon="2.02239">
        <ele>165</ele>
        <time>2024-12-31T15:57:12.013Z</time>
      </trkpt>
      <trkpt lat="48.80167" lon="2.02246">
        <ele>165</ele>
        <time>2024-12-31T15:57:12.013Z</time>
      </trkpt>
      <trkpt lat="48.80165" lon="2.02253">
        <ele>165</ele>
        <time>2024-12-31T15:57:12.013Z</time>
      </trkpt>
      <trkpt lat="48.80162" lon="2.02266">
        <ele>165</ele>
        <time>2024-12-31T15:57:12.013Z</time>
      </trkpt>
      <trkpt lat="48.80159" lon="2.02278">
        <ele>165</ele>
        <time>2024-12-31T15:57:12.013Z</time>
      </trkpt>
      <trkpt lat="48.80157" lon="2.02285">
        <ele>164.9</ele>
        <time>2024-12-31T15:57:12.013Z</time>
      </trkpt>
      <trkpt lat="48.80156" lon="2.02291">
        <ele>164.8</ele>
        <time>2024-12-31T15:57:12.013Z</time>
      </trkpt>
      <trkpt lat="48.80154" lon="2.02298">
        <ele>164.7</ele>
        <time>2024-12-31T15:57:12.013Z</time>
      </trkpt>
      <trkpt lat="48.80153" lon="2.02305">
        <ele>164.5</ele>
        <time>2024-12-31T15:57:12.013Z</time>
      </trkpt>
      <trkpt lat="48.80151" lon="2.02311">
        <ele>164.5</ele>
        <time>2024-12-31T15:57:12.013Z</time>
      </trkpt>
      <trkpt lat="48.80149" lon="2.02318">
        <ele>164.6</ele>
        <time>2024-12-31T15:57:12.013Z</time>
      </trkpt>
      <trkpt lat="48.80148" lon="2.02324">
        <ele>164.8</ele>
        <time>2024-12-31T15:57:12.013Z</time>
      </trkpt>
      <trkpt lat="48.80146" lon="2.02331">
        <ele>164.9</ele>
        <time>2024-12-31T15:57:12.013Z</time>
      </trkpt>
      <trkpt lat="48.80143" lon="2.02342">
        <ele>165</ele>
        <time>2024-12-31T15:57:12.013Z</time>
      </trkpt>
      <trkpt lat="48.80141" lon="2.02349">
        <ele>165</ele>
        <time>2024-12-31T15:57:12.013Z</time>
      </trkpt>
      <trkpt lat="48.8014" lon="2.02356">
        <ele>165</ele>
        <time>2024-12-31T15:57:12.013Z</time>
      </trkpt>
      <trkpt lat="48.80138" lon="2.02363">
        <ele>165</ele>
        <time>2024-12-31T15:57:12.013Z</time>
      </trkpt>
      <trkpt lat="48.80136" lon="2.0237">
        <ele>165</ele>
        <time>2024-12-31T15:57:12.013Z</time>
      </trkpt>
      <trkpt lat="48.80134" lon="2.02377">
        <ele>165</ele>
        <time>2024-12-31T15:57:12.013Z</time>
      </trkpt>
      <trkpt lat="48.80133" lon="2.02384">
        <ele>165</ele>
        <time>2024-12-31T15:57:12.013Z</time>
      </trkpt>
      <trkpt lat="48.80131" lon="2.02391">
        <ele>165</ele>
        <time>2024-12-31T15:57:12.013Z</time>
      </trkpt>
      <trkpt lat="48.80129" lon="2.02398">
        <ele>165</ele>
        <time>2024-12-31T15:57:12.013Z</time>
      </trkpt>
      <trkpt lat="48.80126" lon="2.02405">
        <ele>165</ele>
        <time>2024-12-31T15:57:12.013Z</time>
      </trkpt>
      <trkpt lat="48.80122" lon="2.02413">
        <ele>165</ele>
        <time>2024-12-31T15:57:12.013Z</time>
      </trkpt>
      <trkpt lat="48.80119" lon="2.0242">
        <ele>165</ele>
        <time>2024-12-31T15:57:12.013Z</time>
      </trkpt>
      <trkpt lat="48.80115" lon="2.02427">
        <ele>165</ele>
        <time>2024-12-31T15:57:12.013Z</time>
      </trkpt>
    </trkseg>
  </trk>
</gpx>